<?xml version="1.0" encoding="UTF-8" standalone="no" ?>
<gpx xmlns="http://www.topografix.com/GPX/1/1" xmlns:xsi="http://www.w3.org/2001/XMLSchema-instance" xsi:schemaLocation="http://www.topografix.com/GPX/1/1 http://www.topografix.com/GPX/1/1/gpx.xsd" version="1.1" creator="VisuGPX - https://www.visugpx.com">
  <metadata>
    <name>La Troglodyte à Rouen le 29 06 2014</name>
    <desc><![CDATA[Un peu humide]]></desc>
  </metadata>
  <trk>
    <name><![CDATA[Actuel: 29 JUN 2014 08:26]]></name>
    <trkseg>
      <trkpt lat="49.3296" lon="1.01856">
        <ele>126.56</ele>
        <time>2014-06-29T06:26:14Z</time>
      </trkpt>
      <trkpt lat="49.3296" lon="1.01856">
        <ele>126.58</ele>
        <time>2014-06-29T06:26:15Z</time>
      </trkpt>
      <trkpt lat="49.3296" lon="1.01857">
        <ele>125.15</ele>
        <time>2014-06-29T06:26:20Z</time>
      </trkpt>
      <trkpt lat="49.32959" lon="1.01856">
        <ele>125.48</ele>
        <time>2014-06-29T06:26:36Z</time>
      </trkpt>
      <trkpt lat="49.32961" lon="1.01857">
        <ele>123.78</ele>
        <time>2014-06-29T06:26:55Z</time>
      </trkpt>
      <trkpt lat="49.32962" lon="1.01858">
        <ele>121.45</ele>
        <time>2014-06-29T06:27:11Z</time>
      </trkpt>
      <trkpt lat="49.32962" lon="1.01857">
        <ele>124.51</ele>
        <time>2014-06-29T06:27:25Z</time>
      </trkpt>
      <trkpt lat="49.32959" lon="1.01852">
        <ele>125.43</ele>
        <time>2014-06-29T06:27:29Z</time>
      </trkpt>
      <trkpt lat="49.32955" lon="1.01844">
        <ele>127.45</ele>
        <time>2014-06-29T06:27:36Z</time>
      </trkpt>
      <trkpt lat="49.32946" lon="1.01845">
        <ele>128.88</ele>
        <time>2014-06-29T06:27:47Z</time>
      </trkpt>
      <trkpt lat="49.32936" lon="1.0183">
        <ele>129.48</ele>
        <time>2014-06-29T06:27:52Z</time>
      </trkpt>
      <trkpt lat="49.32917" lon="1.01784">
        <ele>130.39</ele>
        <time>2014-06-29T06:28:00Z</time>
      </trkpt>
      <trkpt lat="49.32912" lon="1.01768">
        <ele>130.22</ele>
        <time>2014-06-29T06:28:06Z</time>
      </trkpt>
      <trkpt lat="49.3291" lon="1.01758">
        <ele>129.13</ele>
        <time>2014-06-29T06:28:13Z</time>
      </trkpt>
      <trkpt lat="49.32909" lon="1.01754">
        <ele>128.49</ele>
        <time>2014-06-29T06:28:25Z</time>
      </trkpt>
      <trkpt lat="49.3291" lon="1.01751">
        <ele>128.96</ele>
        <time>2014-06-29T06:28:39Z</time>
      </trkpt>
      <trkpt lat="49.32909" lon="1.01751">
        <ele>127.57</ele>
        <time>2014-06-29T06:28:44Z</time>
      </trkpt>
      <trkpt lat="49.32909" lon="1.01751">
        <ele>126.22</ele>
        <time>2014-06-29T06:28:48Z</time>
      </trkpt>
      <trkpt lat="49.32909" lon="1.01751">
        <ele>123.88</ele>
        <time>2014-06-29T06:29:07Z</time>
      </trkpt>
      <trkpt lat="49.32903" lon="1.01738">
        <ele>123.46</ele>
        <time>2014-06-29T06:29:14Z</time>
      </trkpt>
      <trkpt lat="49.32897" lon="1.01731">
        <ele>123.74</ele>
        <time>2014-06-29T06:29:16Z</time>
      </trkpt>
      <trkpt lat="49.32874" lon="1.01724">
        <ele>125.92</ele>
        <time>2014-06-29T06:29:22Z</time>
      </trkpt>
      <trkpt lat="49.32871" lon="1.01723">
        <ele>126.79</ele>
        <time>2014-06-29T06:29:24Z</time>
      </trkpt>
      <trkpt lat="49.32858" lon="1.01717">
        <ele>127.75</ele>
        <time>2014-06-29T06:29:29Z</time>
      </trkpt>
      <trkpt lat="49.32829" lon="1.0171">
        <ele>128.04</ele>
        <time>2014-06-29T06:29:36Z</time>
      </trkpt>
      <trkpt lat="49.32812" lon="1.01703">
        <ele>129.39</ele>
        <time>2014-06-29T06:29:40Z</time>
      </trkpt>
      <trkpt lat="49.32771" lon="1.01683">
        <ele>127.93</ele>
        <time>2014-06-29T06:29:48Z</time>
      </trkpt>
      <trkpt lat="49.32762" lon="1.01675">
        <ele>128.69</ele>
        <time>2014-06-29T06:29:50Z</time>
      </trkpt>
      <trkpt lat="49.32734" lon="1.01635">
        <ele>127.69</ele>
        <time>2014-06-29T06:29:57Z</time>
      </trkpt>
      <trkpt lat="49.32703" lon="1.01608">
        <ele>126.94</ele>
        <time>2014-06-29T06:30:04Z</time>
      </trkpt>
      <trkpt lat="49.32679" lon="1.01596">
        <ele>124.53</ele>
        <time>2014-06-29T06:30:09Z</time>
      </trkpt>
      <trkpt lat="49.32661" lon="1.01589">
        <ele>124.85</ele>
        <time>2014-06-29T06:30:14Z</time>
      </trkpt>
      <trkpt lat="49.32622" lon="1.01577">
        <ele>124.1</ele>
        <time>2014-06-29T06:30:22Z</time>
      </trkpt>
      <trkpt lat="49.32586" lon="1.01585">
        <ele>123.35</ele>
        <time>2014-06-29T06:30:28Z</time>
      </trkpt>
      <trkpt lat="49.32565" lon="1.01591">
        <ele>120.22</ele>
        <time>2014-06-29T06:30:33Z</time>
      </trkpt>
      <trkpt lat="49.32554" lon="1.01592">
        <ele>118.54</ele>
        <time>2014-06-29T06:30:36Z</time>
      </trkpt>
      <trkpt lat="49.32545" lon="1.01583">
        <ele>115.98</ele>
        <time>2014-06-29T06:30:39Z</time>
      </trkpt>
      <trkpt lat="49.32538" lon="1.01551">
        <ele>113.31</ele>
        <time>2014-06-29T06:30:43Z</time>
      </trkpt>
      <trkpt lat="49.32537" lon="1.01542">
        <ele>113.27</ele>
        <time>2014-06-29T06:30:44Z</time>
      </trkpt>
      <trkpt lat="49.32516" lon="1.01474">
        <ele>111.9</ele>
        <time>2014-06-29T06:30:51Z</time>
      </trkpt>
      <trkpt lat="49.32504" lon="1.01412">
        <ele>110.58</ele>
        <time>2014-06-29T06:30:58Z</time>
      </trkpt>
      <trkpt lat="49.32503" lon="1.01405">
        <ele>110.02</ele>
        <time>2014-06-29T06:30:59Z</time>
      </trkpt>
      <trkpt lat="49.32495" lon="1.01351">
        <ele>107.41</ele>
        <time>2014-06-29T06:31:06Z</time>
      </trkpt>
      <trkpt lat="49.3249" lon="1.01307">
        <ele>103.49</ele>
        <time>2014-06-29T06:31:11Z</time>
      </trkpt>
      <trkpt lat="49.32489" lon="1.01278">
        <ele>102.75</ele>
        <time>2014-06-29T06:31:14Z</time>
      </trkpt>
      <trkpt lat="49.32489" lon="1.01247">
        <ele>101.2</ele>
        <time>2014-06-29T06:31:18Z</time>
      </trkpt>
      <trkpt lat="49.32492" lon="1.01232">
        <ele>100.51</ele>
        <time>2014-06-29T06:31:20Z</time>
      </trkpt>
      <trkpt lat="49.32498" lon="1.01183">
        <ele>98.94</ele>
        <time>2014-06-29T06:31:26Z</time>
      </trkpt>
      <trkpt lat="49.32499" lon="1.0115">
        <ele>96.74</ele>
        <time>2014-06-29T06:31:30Z</time>
      </trkpt>
      <trkpt lat="49.32506" lon="1.0109">
        <ele>95.5</ele>
        <time>2014-06-29T06:31:38Z</time>
      </trkpt>
      <trkpt lat="49.32507" lon="1.01068">
        <ele>94.85</ele>
        <time>2014-06-29T06:31:41Z</time>
      </trkpt>
      <trkpt lat="49.32498" lon="1.01018">
        <ele>92.41</ele>
        <time>2014-06-29T06:31:47Z</time>
      </trkpt>
      <trkpt lat="49.32491" lon="1.01003">
        <ele>91.34</ele>
        <time>2014-06-29T06:31:49Z</time>
      </trkpt>
      <trkpt lat="49.32483" lon="1.00991">
        <ele>90.73</ele>
        <time>2014-06-29T06:31:51Z</time>
      </trkpt>
      <trkpt lat="49.32464" lon="1.00975">
        <ele>88.35</ele>
        <time>2014-06-29T06:31:55Z</time>
      </trkpt>
      <trkpt lat="49.32447" lon="1.00962">
        <ele>88.18</ele>
        <time>2014-06-29T06:31:59Z</time>
      </trkpt>
      <trkpt lat="49.32415" lon="1.00943">
        <ele>86.03</ele>
        <time>2014-06-29T06:32:06Z</time>
      </trkpt>
      <trkpt lat="49.32381" lon="1.00902">
        <ele>83.32</ele>
        <time>2014-06-29T06:32:14Z</time>
      </trkpt>
      <trkpt lat="49.32349" lon="1.00841">
        <ele>81.82</ele>
        <time>2014-06-29T06:32:22Z</time>
      </trkpt>
      <trkpt lat="49.3234" lon="1.00817">
        <ele>80.7</ele>
        <time>2014-06-29T06:32:25Z</time>
      </trkpt>
      <trkpt lat="49.32337" lon="1.00759">
        <ele>78.3</ele>
        <time>2014-06-29T06:32:31Z</time>
      </trkpt>
      <trkpt lat="49.32338" lon="1.00752">
        <ele>77.78</ele>
        <time>2014-06-29T06:32:32Z</time>
      </trkpt>
      <trkpt lat="49.32345" lon="1.00691">
        <ele>77.2</ele>
        <time>2014-06-29T06:32:39Z</time>
      </trkpt>
      <trkpt lat="49.3235" lon="1.00672">
        <ele>74.93</ele>
        <time>2014-06-29T06:32:41Z</time>
      </trkpt>
      <trkpt lat="49.32365" lon="1.00628">
        <ele>75.09</ele>
        <time>2014-06-29T06:32:46Z</time>
      </trkpt>
      <trkpt lat="49.32374" lon="1.006">
        <ele>73.35</ele>
        <time>2014-06-29T06:32:51Z</time>
      </trkpt>
      <trkpt lat="49.32383" lon="1.00567">
        <ele>71.26</ele>
        <time>2014-06-29T06:32:59Z</time>
      </trkpt>
      <trkpt lat="49.32388" lon="1.0054">
        <ele>70.96</ele>
        <time>2014-06-29T06:33:04Z</time>
      </trkpt>
      <trkpt lat="49.32389" lon="1.0052">
        <ele>70.37</ele>
        <time>2014-06-29T06:33:07Z</time>
      </trkpt>
      <trkpt lat="49.32397" lon="1.0049">
        <ele>68.87</ele>
        <time>2014-06-29T06:33:11Z</time>
      </trkpt>
      <trkpt lat="49.32401" lon="1.00483">
        <ele>68.89</ele>
        <time>2014-06-29T06:33:12Z</time>
      </trkpt>
      <trkpt lat="49.3243" lon="1.00418">
        <ele>67.6</ele>
        <time>2014-06-29T06:33:20Z</time>
      </trkpt>
      <trkpt lat="49.3244" lon="1.00396">
        <ele>68.1</ele>
        <time>2014-06-29T06:33:22Z</time>
      </trkpt>
      <trkpt lat="49.32455" lon="1.00335">
        <ele>66.22</ele>
        <time>2014-06-29T06:33:27Z</time>
      </trkpt>
      <trkpt lat="49.32465" lon="1.00283">
        <ele>65.05</ele>
        <time>2014-06-29T06:33:32Z</time>
      </trkpt>
      <trkpt lat="49.32484" lon="1.00243">
        <ele>63.94</ele>
        <time>2014-06-29T06:33:40Z</time>
      </trkpt>
      <trkpt lat="49.32493" lon="1.00226">
        <ele>63.58</ele>
        <time>2014-06-29T06:33:46Z</time>
      </trkpt>
      <trkpt lat="49.32493" lon="1.00224">
        <ele>63.55</ele>
        <time>2014-06-29T06:33:47Z</time>
      </trkpt>
      <trkpt lat="49.32509" lon="1.00206">
        <ele>63.39</ele>
        <time>2014-06-29T06:33:54Z</time>
      </trkpt>
      <trkpt lat="49.32517" lon="1.00195">
        <ele>63.71</ele>
        <time>2014-06-29T06:34:00Z</time>
      </trkpt>
      <trkpt lat="49.32517" lon="1.00182">
        <ele>63</ele>
        <time>2014-06-29T06:34:06Z</time>
      </trkpt>
      <trkpt lat="49.32518" lon="1.00181">
        <ele>61.47</ele>
        <time>2014-06-29T06:34:18Z</time>
      </trkpt>
      <trkpt lat="49.32517" lon="1.00181">
        <ele>58.8</ele>
        <time>2014-06-29T06:34:37Z</time>
      </trkpt>
      <trkpt lat="49.32517" lon="1.0018">
        <ele>56.99</ele>
        <time>2014-06-29T06:34:52Z</time>
      </trkpt>
      <trkpt lat="49.32517" lon="1.00173">
        <ele>55.44</ele>
        <time>2014-06-29T06:35:03Z</time>
      </trkpt>
      <trkpt lat="49.32517" lon="1.00141">
        <ele>54.78</ele>
        <time>2014-06-29T06:35:10Z</time>
      </trkpt>
      <trkpt lat="49.32514" lon="1.00117">
        <ele>53.94</ele>
        <time>2014-06-29T06:35:14Z</time>
      </trkpt>
      <trkpt lat="49.32506" lon="1.00089">
        <ele>53.47</ele>
        <time>2014-06-29T06:35:19Z</time>
      </trkpt>
      <trkpt lat="49.32484" lon="1.00025">
        <ele>52.43</ele>
        <time>2014-06-29T06:35:28Z</time>
      </trkpt>
      <trkpt lat="49.32458" lon="0.99944">
        <ele>50.81</ele>
        <time>2014-06-29T06:35:37Z</time>
      </trkpt>
      <trkpt lat="49.32438" lon="0.9988">
        <ele>49.71</ele>
        <time>2014-06-29T06:35:45Z</time>
      </trkpt>
      <trkpt lat="49.32417" lon="0.99818">
        <ele>48.33</ele>
        <time>2014-06-29T06:35:52Z</time>
      </trkpt>
      <trkpt lat="49.32391" lon="0.99746">
        <ele>46.29</ele>
        <time>2014-06-29T06:36:01Z</time>
      </trkpt>
      <trkpt lat="49.32362" lon="0.99683">
        <ele>44.38</ele>
        <time>2014-06-29T06:36:09Z</time>
      </trkpt>
      <trkpt lat="49.32328" lon="0.99639">
        <ele>42.43</ele>
        <time>2014-06-29T06:36:16Z</time>
      </trkpt>
      <trkpt lat="49.32289" lon="0.9961">
        <ele>40.64</ele>
        <time>2014-06-29T06:36:23Z</time>
      </trkpt>
      <trkpt lat="49.32249" lon="0.99589">
        <ele>38.83</ele>
        <time>2014-06-29T06:36:30Z</time>
      </trkpt>
      <trkpt lat="49.32192" lon="0.9956">
        <ele>35.86</ele>
        <time>2014-06-29T06:36:39Z</time>
      </trkpt>
      <trkpt lat="49.32135" lon="0.99528">
        <ele>32.66</ele>
        <time>2014-06-29T06:36:47Z</time>
      </trkpt>
      <trkpt lat="49.3211" lon="0.99514">
        <ele>31.72</ele>
        <time>2014-06-29T06:36:52Z</time>
      </trkpt>
      <trkpt lat="49.32074" lon="0.99497">
        <ele>29.95</ele>
        <time>2014-06-29T06:36:59Z</time>
      </trkpt>
      <trkpt lat="49.32027" lon="0.99472">
        <ele>27.92</ele>
        <time>2014-06-29T06:37:06Z</time>
      </trkpt>
      <trkpt lat="49.32" lon="0.99459">
        <ele>27.03</ele>
        <time>2014-06-29T06:37:11Z</time>
      </trkpt>
      <trkpt lat="49.31965" lon="0.9944">
        <ele>25.79</ele>
        <time>2014-06-29T06:37:18Z</time>
      </trkpt>
      <trkpt lat="49.31917" lon="0.99413">
        <ele>24.42</ele>
        <time>2014-06-29T06:37:26Z</time>
      </trkpt>
      <trkpt lat="49.31907" lon="0.99408">
        <ele>24.22</ele>
        <time>2014-06-29T06:37:28Z</time>
      </trkpt>
      <trkpt lat="49.31891" lon="0.99394">
        <ele>23.27</ele>
        <time>2014-06-29T06:37:32Z</time>
      </trkpt>
      <trkpt lat="49.31888" lon="0.99362">
        <ele>23.04</ele>
        <time>2014-06-29T06:37:37Z</time>
      </trkpt>
      <trkpt lat="49.31876" lon="0.99326">
        <ele>22.96</ele>
        <time>2014-06-29T06:37:42Z</time>
      </trkpt>
      <trkpt lat="49.31857" lon="0.99324">
        <ele>22.56</ele>
        <time>2014-06-29T06:37:46Z</time>
      </trkpt>
      <trkpt lat="49.31841" lon="0.99324">
        <ele>22.3</ele>
        <time>2014-06-29T06:37:50Z</time>
      </trkpt>
      <trkpt lat="49.31834" lon="0.99303">
        <ele>23.22</ele>
        <time>2014-06-29T06:37:54Z</time>
      </trkpt>
      <trkpt lat="49.31834" lon="0.99289">
        <ele>23.87</ele>
        <time>2014-06-29T06:37:56Z</time>
      </trkpt>
      <trkpt lat="49.31839" lon="0.99261">
        <ele>25.02</ele>
        <time>2014-06-29T06:38:00Z</time>
      </trkpt>
      <trkpt lat="49.31844" lon="0.99207">
        <ele>25.89</ele>
        <time>2014-06-29T06:38:07Z</time>
      </trkpt>
      <trkpt lat="49.31855" lon="0.99171">
        <ele>26.26</ele>
        <time>2014-06-29T06:38:11Z</time>
      </trkpt>
      <trkpt lat="49.31882" lon="0.99118">
        <ele>28.46</ele>
        <time>2014-06-29T06:38:18Z</time>
      </trkpt>
      <trkpt lat="49.31895" lon="0.99084">
        <ele>30.08</ele>
        <time>2014-06-29T06:38:24Z</time>
      </trkpt>
      <trkpt lat="49.31908" lon="0.9905">
        <ele>31.02</ele>
        <time>2014-06-29T06:38:30Z</time>
      </trkpt>
      <trkpt lat="49.31912" lon="0.99043">
        <ele>31.83</ele>
        <time>2014-06-29T06:38:35Z</time>
      </trkpt>
      <trkpt lat="49.31914" lon="0.99038">
        <ele>31.76</ele>
        <time>2014-06-29T06:38:43Z</time>
      </trkpt>
      <trkpt lat="49.31916" lon="0.99024">
        <ele>32.17</ele>
        <time>2014-06-29T06:38:47Z</time>
      </trkpt>
      <trkpt lat="49.31925" lon="0.99002">
        <ele>32.55</ele>
        <time>2014-06-29T06:38:51Z</time>
      </trkpt>
      <trkpt lat="49.31937" lon="0.98981">
        <ele>33.31</ele>
        <time>2014-06-29T06:38:55Z</time>
      </trkpt>
      <trkpt lat="49.31969" lon="0.98925">
        <ele>35.3</ele>
        <time>2014-06-29T06:39:04Z</time>
      </trkpt>
      <trkpt lat="49.31974" lon="0.98879">
        <ele>36.49</ele>
        <time>2014-06-29T06:39:10Z</time>
      </trkpt>
      <trkpt lat="49.31963" lon="0.98856">
        <ele>38.08</ele>
        <time>2014-06-29T06:39:14Z</time>
      </trkpt>
      <trkpt lat="49.31944" lon="0.98852">
        <ele>39.13</ele>
        <time>2014-06-29T06:39:18Z</time>
      </trkpt>
      <trkpt lat="49.31926" lon="0.98869">
        <ele>39.55</ele>
        <time>2014-06-29T06:39:22Z</time>
      </trkpt>
      <trkpt lat="49.31922" lon="0.98877">
        <ele>40.22</ele>
        <time>2014-06-29T06:39:23Z</time>
      </trkpt>
      <trkpt lat="49.31917" lon="0.98892">
        <ele>40.96</ele>
        <time>2014-06-29T06:39:25Z</time>
      </trkpt>
      <trkpt lat="49.31898" lon="0.98957">
        <ele>42.59</ele>
        <time>2014-06-29T06:39:33Z</time>
      </trkpt>
      <trkpt lat="49.31882" lon="0.99001">
        <ele>44.41</ele>
        <time>2014-06-29T06:39:39Z</time>
      </trkpt>
      <trkpt lat="49.31867" lon="0.9903">
        <ele>45.43</ele>
        <time>2014-06-29T06:39:44Z</time>
      </trkpt>
      <trkpt lat="49.31856" lon="0.99046">
        <ele>46.55</ele>
        <time>2014-06-29T06:39:47Z</time>
      </trkpt>
      <trkpt lat="49.31848" lon="0.99057">
        <ele>47.15</ele>
        <time>2014-06-29T06:39:49Z</time>
      </trkpt>
      <trkpt lat="49.31818" lon="0.99064">
        <ele>49</ele>
        <time>2014-06-29T06:39:55Z</time>
      </trkpt>
      <trkpt lat="49.31811" lon="0.99058">
        <ele>49.66</ele>
        <time>2014-06-29T06:39:57Z</time>
      </trkpt>
      <trkpt lat="49.31808" lon="0.99053">
        <ele>49.58</ele>
        <time>2014-06-29T06:39:58Z</time>
      </trkpt>
      <trkpt lat="49.31801" lon="0.99044">
        <ele>49.98</ele>
        <time>2014-06-29T06:40:00Z</time>
      </trkpt>
      <trkpt lat="49.31797" lon="0.99032">
        <ele>50.7</ele>
        <time>2014-06-29T06:40:02Z</time>
      </trkpt>
      <trkpt lat="49.31793" lon="0.99015">
        <ele>51.95</ele>
        <time>2014-06-29T06:40:05Z</time>
      </trkpt>
      <trkpt lat="49.31783" lon="0.98973">
        <ele>54.28</ele>
        <time>2014-06-29T06:40:12Z</time>
      </trkpt>
      <trkpt lat="49.31773" lon="0.98931">
        <ele>55.86</ele>
        <time>2014-06-29T06:40:19Z</time>
      </trkpt>
      <trkpt lat="49.31769" lon="0.98911">
        <ele>56.67</ele>
        <time>2014-06-29T06:40:22Z</time>
      </trkpt>
      <trkpt lat="49.31753" lon="0.98881">
        <ele>57.85</ele>
        <time>2014-06-29T06:40:28Z</time>
      </trkpt>
      <trkpt lat="49.31736" lon="0.98858">
        <ele>59.2</ele>
        <time>2014-06-29T06:40:33Z</time>
      </trkpt>
      <trkpt lat="49.31696" lon="0.98818">
        <ele>61.26</ele>
        <time>2014-06-29T06:40:44Z</time>
      </trkpt>
      <trkpt lat="49.3167" lon="0.98786">
        <ele>62.94</ele>
        <time>2014-06-29T06:40:52Z</time>
      </trkpt>
      <trkpt lat="49.31651" lon="0.98764">
        <ele>64.36</ele>
        <time>2014-06-29T06:40:58Z</time>
      </trkpt>
      <trkpt lat="49.31633" lon="0.98728">
        <ele>65.67</ele>
        <time>2014-06-29T06:41:05Z</time>
      </trkpt>
      <trkpt lat="49.31617" lon="0.98688">
        <ele>67.26</ele>
        <time>2014-06-29T06:41:12Z</time>
      </trkpt>
      <trkpt lat="49.31604" lon="0.9866">
        <ele>68.61</ele>
        <time>2014-06-29T06:41:18Z</time>
      </trkpt>
      <trkpt lat="49.31597" lon="0.98651">
        <ele>68.93</ele>
        <time>2014-06-29T06:41:20Z</time>
      </trkpt>
      <trkpt lat="49.31586" lon="0.9864">
        <ele>69.26</ele>
        <time>2014-06-29T06:41:23Z</time>
      </trkpt>
      <trkpt lat="49.31578" lon="0.98633">
        <ele>69.95</ele>
        <time>2014-06-29T06:41:25Z</time>
      </trkpt>
      <trkpt lat="49.31566" lon="0.98625">
        <ele>70.51</ele>
        <time>2014-06-29T06:41:28Z</time>
      </trkpt>
      <trkpt lat="49.31536" lon="0.98613">
        <ele>71.91</ele>
        <time>2014-06-29T06:41:36Z</time>
      </trkpt>
      <trkpt lat="49.31506" lon="0.98609">
        <ele>73.13</ele>
        <time>2014-06-29T06:41:43Z</time>
      </trkpt>
      <trkpt lat="49.31472" lon="0.98605">
        <ele>74.7</ele>
        <time>2014-06-29T06:41:51Z</time>
      </trkpt>
      <trkpt lat="49.31445" lon="0.98603">
        <ele>76.07</ele>
        <time>2014-06-29T06:41:58Z</time>
      </trkpt>
      <trkpt lat="49.31417" lon="0.98592">
        <ele>77.56</ele>
        <time>2014-06-29T06:42:06Z</time>
      </trkpt>
      <trkpt lat="49.31393" lon="0.98571">
        <ele>79.14</ele>
        <time>2014-06-29T06:42:14Z</time>
      </trkpt>
      <trkpt lat="49.31373" lon="0.98551">
        <ele>81.49</ele>
        <time>2014-06-29T06:42:20Z</time>
      </trkpt>
      <trkpt lat="49.3135" lon="0.98522">
        <ele>83.17</ele>
        <time>2014-06-29T06:42:27Z</time>
      </trkpt>
      <trkpt lat="49.31327" lon="0.98486">
        <ele>85.43</ele>
        <time>2014-06-29T06:42:35Z</time>
      </trkpt>
      <trkpt lat="49.31308" lon="0.98454">
        <ele>87.21</ele>
        <time>2014-06-29T06:42:42Z</time>
      </trkpt>
      <trkpt lat="49.31285" lon="0.98419">
        <ele>88.46</ele>
        <time>2014-06-29T06:42:50Z</time>
      </trkpt>
      <trkpt lat="49.31262" lon="0.98383">
        <ele>89.72</ele>
        <time>2014-06-29T06:42:58Z</time>
      </trkpt>
      <trkpt lat="49.31236" lon="0.98348">
        <ele>90.88</ele>
        <time>2014-06-29T06:43:06Z</time>
      </trkpt>
      <trkpt lat="49.31217" lon="0.98325">
        <ele>92.03</ele>
        <time>2014-06-29T06:43:13Z</time>
      </trkpt>
      <trkpt lat="49.31205" lon="0.98304">
        <ele>93.08</ele>
        <time>2014-06-29T06:43:18Z</time>
      </trkpt>
      <trkpt lat="49.31186" lon="0.98275">
        <ele>94.4</ele>
        <time>2014-06-29T06:43:25Z</time>
      </trkpt>
      <trkpt lat="49.31173" lon="0.98252">
        <ele>95.03</ele>
        <time>2014-06-29T06:43:29Z</time>
      </trkpt>
      <trkpt lat="49.3116" lon="0.9823">
        <ele>95.64</ele>
        <time>2014-06-29T06:43:33Z</time>
      </trkpt>
      <trkpt lat="49.31143" lon="0.98187">
        <ele>97.25</ele>
        <time>2014-06-29T06:43:41Z</time>
      </trkpt>
      <trkpt lat="49.31129" lon="0.98146">
        <ele>98.28</ele>
        <time>2014-06-29T06:43:49Z</time>
      </trkpt>
      <trkpt lat="49.31118" lon="0.98111">
        <ele>99.86</ele>
        <time>2014-06-29T06:43:56Z</time>
      </trkpt>
      <trkpt lat="49.3111" lon="0.98078">
        <ele>101.45</ele>
        <time>2014-06-29T06:44:03Z</time>
      </trkpt>
      <trkpt lat="49.31098" lon="0.98044">
        <ele>103.33</ele>
        <time>2014-06-29T06:44:09Z</time>
      </trkpt>
      <trkpt lat="49.3108" lon="0.97993">
        <ele>105.31</ele>
        <time>2014-06-29T06:44:17Z</time>
      </trkpt>
      <trkpt lat="49.3106" lon="0.97955">
        <ele>106.86</ele>
        <time>2014-06-29T06:44:24Z</time>
      </trkpt>
      <trkpt lat="49.31036" lon="0.97928">
        <ele>108.07</ele>
        <time>2014-06-29T06:44:31Z</time>
      </trkpt>
      <trkpt lat="49.31008" lon="0.9791">
        <ele>109.22</ele>
        <time>2014-06-29T06:44:39Z</time>
      </trkpt>
      <trkpt lat="49.30979" lon="0.97898">
        <ele>110.27</ele>
        <time>2014-06-29T06:44:47Z</time>
      </trkpt>
      <trkpt lat="49.30956" lon="0.97891">
        <ele>111.04</ele>
        <time>2014-06-29T06:44:53Z</time>
      </trkpt>
      <trkpt lat="49.30915" lon="0.97895">
        <ele>113.22</ele>
        <time>2014-06-29T06:45:03Z</time>
      </trkpt>
      <trkpt lat="49.30889" lon="0.97905">
        <ele>113.73</ele>
        <time>2014-06-29T06:45:10Z</time>
      </trkpt>
      <trkpt lat="49.30868" lon="0.97922">
        <ele>114.6</ele>
        <time>2014-06-29T06:45:16Z</time>
      </trkpt>
      <trkpt lat="49.30842" lon="0.97952">
        <ele>116.58</ele>
        <time>2014-06-29T06:45:23Z</time>
      </trkpt>
      <trkpt lat="49.30813" lon="0.97986">
        <ele>118.14</ele>
        <time>2014-06-29T06:45:31Z</time>
      </trkpt>
      <trkpt lat="49.30798" lon="0.97997">
        <ele>118.76</ele>
        <time>2014-06-29T06:45:35Z</time>
      </trkpt>
      <trkpt lat="49.30787" lon="0.97998">
        <ele>119.06</ele>
        <time>2014-06-29T06:45:37Z</time>
      </trkpt>
      <trkpt lat="49.30768" lon="0.97994">
        <ele>119.8</ele>
        <time>2014-06-29T06:45:41Z</time>
      </trkpt>
      <trkpt lat="49.30756" lon="0.97983">
        <ele>119.66</ele>
        <time>2014-06-29T06:45:44Z</time>
      </trkpt>
      <trkpt lat="49.30723" lon="0.97954">
        <ele>120.78</ele>
        <time>2014-06-29T06:45:51Z</time>
      </trkpt>
      <trkpt lat="49.30708" lon="0.97941">
        <ele>121.31</ele>
        <time>2014-06-29T06:45:54Z</time>
      </trkpt>
      <trkpt lat="49.30659" lon="0.97908">
        <ele>121.34</ele>
        <time>2014-06-29T06:46:03Z</time>
      </trkpt>
      <trkpt lat="49.30615" lon="0.97874">
        <ele>122.1</ele>
        <time>2014-06-29T06:46:11Z</time>
      </trkpt>
      <trkpt lat="49.30589" lon="0.97843">
        <ele>122.3</ele>
        <time>2014-06-29T06:46:16Z</time>
      </trkpt>
      <trkpt lat="49.30556" lon="0.97788">
        <ele>123.53</ele>
        <time>2014-06-29T06:46:23Z</time>
      </trkpt>
      <trkpt lat="49.30513" lon="0.97732">
        <ele>124.06</ele>
        <time>2014-06-29T06:46:30Z</time>
      </trkpt>
      <trkpt lat="49.30474" lon="0.97696">
        <ele>124.1</ele>
        <time>2014-06-29T06:46:36Z</time>
      </trkpt>
      <trkpt lat="49.30428" lon="0.97644">
        <ele>124.38</ele>
        <time>2014-06-29T06:46:43Z</time>
      </trkpt>
      <trkpt lat="49.30388" lon="0.97606">
        <ele>124.74</ele>
        <time>2014-06-29T06:46:49Z</time>
      </trkpt>
      <trkpt lat="49.30347" lon="0.97584">
        <ele>124.84</ele>
        <time>2014-06-29T06:46:55Z</time>
      </trkpt>
      <trkpt lat="49.30296" lon="0.97572">
        <ele>125.11</ele>
        <time>2014-06-29T06:47:02Z</time>
      </trkpt>
      <trkpt lat="49.30244" lon="0.97572">
        <ele>125.05</ele>
        <time>2014-06-29T06:47:09Z</time>
      </trkpt>
      <trkpt lat="49.30192" lon="0.97564">
        <ele>124.62</ele>
        <time>2014-06-29T06:47:16Z</time>
      </trkpt>
      <trkpt lat="49.3015" lon="0.97547">
        <ele>124.25</ele>
        <time>2014-06-29T06:47:22Z</time>
      </trkpt>
      <trkpt lat="49.30119" lon="0.97528">
        <ele>124.41</ele>
        <time>2014-06-29T06:47:27Z</time>
      </trkpt>
      <trkpt lat="49.3011" lon="0.97509">
        <ele>123.59</ele>
        <time>2014-06-29T06:47:32Z</time>
      </trkpt>
      <trkpt lat="49.30116" lon="0.97504">
        <ele>124.23</ele>
        <time>2014-06-29T06:47:34Z</time>
      </trkpt>
      <trkpt lat="49.30132" lon="0.97491">
        <ele>124.29</ele>
        <time>2014-06-29T06:47:38Z</time>
      </trkpt>
      <trkpt lat="49.30143" lon="0.97485">
        <ele>123.29</ele>
        <time>2014-06-29T06:47:40Z</time>
      </trkpt>
      <trkpt lat="49.30179" lon="0.97453">
        <ele>122.76</ele>
        <time>2014-06-29T06:47:47Z</time>
      </trkpt>
      <trkpt lat="49.30197" lon="0.97438">
        <ele>121.88</ele>
        <time>2014-06-29T06:47:50Z</time>
      </trkpt>
      <trkpt lat="49.30209" lon="0.97417">
        <ele>122.36</ele>
        <time>2014-06-29T06:47:53Z</time>
      </trkpt>
      <trkpt lat="49.30247" lon="0.9737">
        <ele>120.98</ele>
        <time>2014-06-29T06:48:00Z</time>
      </trkpt>
      <trkpt lat="49.30253" lon="0.97364">
        <ele>120.88</ele>
        <time>2014-06-29T06:48:01Z</time>
      </trkpt>
      <trkpt lat="49.30276" lon="0.97348">
        <ele>119.83</ele>
        <time>2014-06-29T06:48:05Z</time>
      </trkpt>
      <trkpt lat="49.30308" lon="0.97315">
        <ele>116.37</ele>
        <time>2014-06-29T06:48:12Z</time>
      </trkpt>
      <trkpt lat="49.3033" lon="0.97286">
        <ele>116.67</ele>
        <time>2014-06-29T06:48:18Z</time>
      </trkpt>
      <trkpt lat="49.30342" lon="0.97272">
        <ele>111.78</ele>
        <time>2014-06-29T06:48:21Z</time>
      </trkpt>
      <trkpt lat="49.30352" lon="0.97263">
        <ele>111.06</ele>
        <time>2014-06-29T06:48:23Z</time>
      </trkpt>
      <trkpt lat="49.30377" lon="0.9724">
        <ele>109.99</ele>
        <time>2014-06-29T06:48:28Z</time>
      </trkpt>
      <trkpt lat="49.30401" lon="0.97209">
        <ele>111.44</ele>
        <time>2014-06-29T06:48:33Z</time>
      </trkpt>
      <trkpt lat="49.3042" lon="0.97199">
        <ele>111.35</ele>
        <time>2014-06-29T06:48:37Z</time>
      </trkpt>
      <trkpt lat="49.30432" lon="0.97196">
        <ele>112.19</ele>
        <time>2014-06-29T06:48:39Z</time>
      </trkpt>
      <trkpt lat="49.3045" lon="0.97198">
        <ele>114.86</ele>
        <time>2014-06-29T06:48:43Z</time>
      </trkpt>
      <trkpt lat="49.30478" lon="0.97199">
        <ele>116.47</ele>
        <time>2014-06-29T06:48:51Z</time>
      </trkpt>
      <trkpt lat="49.30496" lon="0.97203">
        <ele>117.17</ele>
        <time>2014-06-29T06:48:57Z</time>
      </trkpt>
      <trkpt lat="49.30513" lon="0.97202">
        <ele>117.61</ele>
        <time>2014-06-29T06:49:02Z</time>
      </trkpt>
      <trkpt lat="49.30532" lon="0.97198">
        <ele>117.77</ele>
        <time>2014-06-29T06:49:07Z</time>
      </trkpt>
      <trkpt lat="49.30559" lon="0.97206">
        <ele>117.39</ele>
        <time>2014-06-29T06:49:10Z</time>
      </trkpt>
      <trkpt lat="49.3061" lon="0.97218">
        <ele>118.43</ele>
        <time>2014-06-29T06:49:18Z</time>
      </trkpt>
      <trkpt lat="49.30645" lon="0.97226">
        <ele>116.28</ele>
        <time>2014-06-29T06:49:23Z</time>
      </trkpt>
      <trkpt lat="49.30678" lon="0.9723">
        <ele>115.11</ele>
        <time>2014-06-29T06:49:28Z</time>
      </trkpt>
      <trkpt lat="49.30707" lon="0.97235">
        <ele>114.89</ele>
        <time>2014-06-29T06:49:34Z</time>
      </trkpt>
      <trkpt lat="49.30739" lon="0.97244">
        <ele>116.92</ele>
        <time>2014-06-29T06:49:41Z</time>
      </trkpt>
      <trkpt lat="49.30755" lon="0.97251">
        <ele>118.42</ele>
        <time>2014-06-29T06:49:45Z</time>
      </trkpt>
      <trkpt lat="49.30778" lon="0.97256">
        <ele>119.11</ele>
        <time>2014-06-29T06:49:52Z</time>
      </trkpt>
      <trkpt lat="49.30807" lon="0.97261">
        <ele>120.02</ele>
        <time>2014-06-29T06:49:58Z</time>
      </trkpt>
      <trkpt lat="49.30831" lon="0.97267">
        <ele>120.32</ele>
        <time>2014-06-29T06:50:04Z</time>
      </trkpt>
      <trkpt lat="49.30861" lon="0.97274">
        <ele>120.61</ele>
        <time>2014-06-29T06:50:11Z</time>
      </trkpt>
      <trkpt lat="49.30896" lon="0.97284">
        <ele>121.82</ele>
        <time>2014-06-29T06:50:18Z</time>
      </trkpt>
      <trkpt lat="49.30928" lon="0.9729">
        <ele>120.16</ele>
        <time>2014-06-29T06:50:25Z</time>
      </trkpt>
      <trkpt lat="49.30957" lon="0.97299">
        <ele>120.66</ele>
        <time>2014-06-29T06:50:31Z</time>
      </trkpt>
      <trkpt lat="49.30991" lon="0.97309">
        <ele>119.82</ele>
        <time>2014-06-29T06:50:38Z</time>
      </trkpt>
      <trkpt lat="49.31023" lon="0.97315">
        <ele>120.63</ele>
        <time>2014-06-29T06:50:45Z</time>
      </trkpt>
      <trkpt lat="49.31033" lon="0.97318">
        <ele>120.6</ele>
        <time>2014-06-29T06:50:47Z</time>
      </trkpt>
      <trkpt lat="49.31054" lon="0.97323">
        <ele>120.79</ele>
        <time>2014-06-29T06:50:51Z</time>
      </trkpt>
      <trkpt lat="49.31081" lon="0.97328">
        <ele>120.54</ele>
        <time>2014-06-29T06:50:58Z</time>
      </trkpt>
      <trkpt lat="49.3111" lon="0.97335">
        <ele>121.39</ele>
        <time>2014-06-29T06:51:04Z</time>
      </trkpt>
      <trkpt lat="49.31129" lon="0.9734">
        <ele>122.51</ele>
        <time>2014-06-29T06:51:09Z</time>
      </trkpt>
      <trkpt lat="49.31142" lon="0.97344">
        <ele>122.61</ele>
        <time>2014-06-29T06:51:12Z</time>
      </trkpt>
      <trkpt lat="49.31184" lon="0.9737">
        <ele>123.08</ele>
        <time>2014-06-29T06:51:21Z</time>
      </trkpt>
      <trkpt lat="49.31226" lon="0.97394">
        <ele>124.01</ele>
        <time>2014-06-29T06:51:30Z</time>
      </trkpt>
      <trkpt lat="49.31266" lon="0.97403">
        <ele>124.34</ele>
        <time>2014-06-29T06:51:38Z</time>
      </trkpt>
      <trkpt lat="49.3128" lon="0.97404">
        <ele>125.35</ele>
        <time>2014-06-29T06:51:41Z</time>
      </trkpt>
      <trkpt lat="49.313" lon="0.97412">
        <ele>125.8</ele>
        <time>2014-06-29T06:51:45Z</time>
      </trkpt>
      <trkpt lat="49.31309" lon="0.97417">
        <ele>124.94</ele>
        <time>2014-06-29T06:51:47Z</time>
      </trkpt>
      <trkpt lat="49.31323" lon="0.97422">
        <ele>123.66</ele>
        <time>2014-06-29T06:51:50Z</time>
      </trkpt>
      <trkpt lat="49.31333" lon="0.97423">
        <ele>123.68</ele>
        <time>2014-06-29T06:51:52Z</time>
      </trkpt>
      <trkpt lat="49.31352" lon="0.97416">
        <ele>123.45</ele>
        <time>2014-06-29T06:51:56Z</time>
      </trkpt>
      <trkpt lat="49.31369" lon="0.97406">
        <ele>123.73</ele>
        <time>2014-06-29T06:52:00Z</time>
      </trkpt>
      <trkpt lat="49.31406" lon="0.97407">
        <ele>123.74</ele>
        <time>2014-06-29T06:52:07Z</time>
      </trkpt>
      <trkpt lat="49.31468" lon="0.97424">
        <ele>123.71</ele>
        <time>2014-06-29T06:52:18Z</time>
      </trkpt>
      <trkpt lat="49.31529" lon="0.9744">
        <ele>122.68</ele>
        <time>2014-06-29T06:52:28Z</time>
      </trkpt>
      <trkpt lat="49.31584" lon="0.97456">
        <ele>121.13</ele>
        <time>2014-06-29T06:52:36Z</time>
      </trkpt>
      <trkpt lat="49.3164" lon="0.97472">
        <ele>119.46</ele>
        <time>2014-06-29T06:52:43Z</time>
      </trkpt>
      <trkpt lat="49.31673" lon="0.97482">
        <ele>116.49</ele>
        <time>2014-06-29T06:52:47Z</time>
      </trkpt>
      <trkpt lat="49.31696" lon="0.97491">
        <ele>114.71</ele>
        <time>2014-06-29T06:52:50Z</time>
      </trkpt>
      <trkpt lat="49.31756" lon="0.97511">
        <ele>110.94</ele>
        <time>2014-06-29T06:52:58Z</time>
      </trkpt>
      <trkpt lat="49.31778" lon="0.97518">
        <ele>108.21</ele>
        <time>2014-06-29T06:53:01Z</time>
      </trkpt>
      <trkpt lat="49.31814" lon="0.97529">
        <ele>106.69</ele>
        <time>2014-06-29T06:53:06Z</time>
      </trkpt>
      <trkpt lat="49.31866" lon="0.97545">
        <ele>105.85</ele>
        <time>2014-06-29T06:53:13Z</time>
      </trkpt>
      <trkpt lat="49.31918" lon="0.97561">
        <ele>102.4</ele>
        <time>2014-06-29T06:53:20Z</time>
      </trkpt>
      <trkpt lat="49.31932" lon="0.97566">
        <ele>101.7</ele>
        <time>2014-06-29T06:53:22Z</time>
      </trkpt>
      <trkpt lat="49.31974" lon="0.97579">
        <ele>101.49</ele>
        <time>2014-06-29T06:53:28Z</time>
      </trkpt>
      <trkpt lat="49.32036" lon="0.97599">
        <ele>98.75</ele>
        <time>2014-06-29T06:53:37Z</time>
      </trkpt>
      <trkpt lat="49.32091" lon="0.97617">
        <ele>98.32</ele>
        <time>2014-06-29T06:53:45Z</time>
      </trkpt>
      <trkpt lat="49.32147" lon="0.97633">
        <ele>95.13</ele>
        <time>2014-06-29T06:53:53Z</time>
      </trkpt>
      <trkpt lat="49.32175" lon="0.97642">
        <ele>93.82</ele>
        <time>2014-06-29T06:53:57Z</time>
      </trkpt>
      <trkpt lat="49.32181" lon="0.97644">
        <ele>93.06</ele>
        <time>2014-06-29T06:53:58Z</time>
      </trkpt>
      <trkpt lat="49.32193" lon="0.9765">
        <ele>90.63</ele>
        <time>2014-06-29T06:54:00Z</time>
      </trkpt>
      <trkpt lat="49.32233" lon="0.97661">
        <ele>87</ele>
        <time>2014-06-29T06:54:06Z</time>
      </trkpt>
      <trkpt lat="49.32248" lon="0.97666">
        <ele>83.3</ele>
        <time>2014-06-29T06:54:08Z</time>
      </trkpt>
      <trkpt lat="49.3226" lon="0.97672">
        <ele>81.58</ele>
        <time>2014-06-29T06:54:10Z</time>
      </trkpt>
      <trkpt lat="49.32269" lon="0.97677">
        <ele>80.46</ele>
        <time>2014-06-29T06:54:12Z</time>
      </trkpt>
      <trkpt lat="49.32285" lon="0.97674">
        <ele>78.38</ele>
        <time>2014-06-29T06:54:16Z</time>
      </trkpt>
      <trkpt lat="49.32286" lon="0.97651">
        <ele>77.58</ele>
        <time>2014-06-29T06:54:23Z</time>
      </trkpt>
      <trkpt lat="49.32283" lon="0.97649">
        <ele>77.95</ele>
        <time>2014-06-29T06:54:25Z</time>
      </trkpt>
      <trkpt lat="49.3227" lon="0.97652">
        <ele>78.41</ele>
        <time>2014-06-29T06:54:32Z</time>
      </trkpt>
      <trkpt lat="49.3227" lon="0.97651">
        <ele>77.67</ele>
        <time>2014-06-29T06:54:44Z</time>
      </trkpt>
      <trkpt lat="49.3227" lon="0.9765">
        <ele>76.05</ele>
        <time>2014-06-29T06:54:58Z</time>
      </trkpt>
      <trkpt lat="49.32267" lon="0.97645">
        <ele>76.2</ele>
        <time>2014-06-29T06:55:10Z</time>
      </trkpt>
      <trkpt lat="49.32266" lon="0.97644">
        <ele>76.32</ele>
        <time>2014-06-29T06:55:11Z</time>
      </trkpt>
      <trkpt lat="49.32246" lon="0.97632">
        <ele>78.2</ele>
        <time>2014-06-29T06:55:23Z</time>
      </trkpt>
      <trkpt lat="49.32236" lon="0.97613">
        <ele>77.3</ele>
        <time>2014-06-29T06:55:28Z</time>
      </trkpt>
      <trkpt lat="49.32231" lon="0.97608">
        <ele>77.48</ele>
        <time>2014-06-29T06:55:30Z</time>
      </trkpt>
      <trkpt lat="49.32226" lon="0.97604">
        <ele>77.5</ele>
        <time>2014-06-29T06:55:33Z</time>
      </trkpt>
      <trkpt lat="49.32215" lon="0.97587">
        <ele>78.56</ele>
        <time>2014-06-29T06:55:41Z</time>
      </trkpt>
      <trkpt lat="49.32202" lon="0.97565">
        <ele>78.7</ele>
        <time>2014-06-29T06:55:48Z</time>
      </trkpt>
      <trkpt lat="49.32192" lon="0.97554">
        <ele>78.34</ele>
        <time>2014-06-29T06:55:54Z</time>
      </trkpt>
      <trkpt lat="49.32187" lon="0.97549">
        <ele>79.18</ele>
        <time>2014-06-29T06:55:57Z</time>
      </trkpt>
      <trkpt lat="49.32171" lon="0.97546">
        <ele>82.18</ele>
        <time>2014-06-29T06:56:06Z</time>
      </trkpt>
      <trkpt lat="49.32168" lon="0.97545">
        <ele>82.69</ele>
        <time>2014-06-29T06:56:08Z</time>
      </trkpt>
      <trkpt lat="49.32147" lon="0.97539">
        <ele>83.49</ele>
        <time>2014-06-29T06:56:16Z</time>
      </trkpt>
      <trkpt lat="49.32135" lon="0.97543">
        <ele>85.64</ele>
        <time>2014-06-29T06:56:22Z</time>
      </trkpt>
      <trkpt lat="49.32122" lon="0.97544">
        <ele>86.92</ele>
        <time>2014-06-29T06:56:30Z</time>
      </trkpt>
      <trkpt lat="49.32108" lon="0.97541">
        <ele>88.01</ele>
        <time>2014-06-29T06:56:37Z</time>
      </trkpt>
      <trkpt lat="49.32089" lon="0.97537">
        <ele>89.85</ele>
        <time>2014-06-29T06:56:46Z</time>
      </trkpt>
      <trkpt lat="49.32076" lon="0.97535">
        <ele>90.26</ele>
        <time>2014-06-29T06:56:52Z</time>
      </trkpt>
      <trkpt lat="49.32067" lon="0.97534">
        <ele>91.71</ele>
        <time>2014-06-29T06:56:55Z</time>
      </trkpt>
      <trkpt lat="49.32053" lon="0.9753">
        <ele>92.12</ele>
        <time>2014-06-29T06:57:01Z</time>
      </trkpt>
      <trkpt lat="49.32036" lon="0.97525">
        <ele>92.66</ele>
        <time>2014-06-29T06:57:07Z</time>
      </trkpt>
      <trkpt lat="49.3202" lon="0.97525">
        <ele>94.59</ele>
        <time>2014-06-29T06:57:14Z</time>
      </trkpt>
      <trkpt lat="49.32013" lon="0.97522">
        <ele>94.16</ele>
        <time>2014-06-29T06:57:17Z</time>
      </trkpt>
      <trkpt lat="49.32003" lon="0.97509">
        <ele>93.94</ele>
        <time>2014-06-29T06:57:22Z</time>
      </trkpt>
      <trkpt lat="49.31982" lon="0.97497">
        <ele>94.16</ele>
        <time>2014-06-29T06:57:30Z</time>
      </trkpt>
      <trkpt lat="49.31962" lon="0.97481">
        <ele>94.62</ele>
        <time>2014-06-29T06:57:36Z</time>
      </trkpt>
      <trkpt lat="49.31953" lon="0.97462">
        <ele>93.31</ele>
        <time>2014-06-29T06:57:42Z</time>
      </trkpt>
      <trkpt lat="49.31942" lon="0.97458">
        <ele>94.09</ele>
        <time>2014-06-29T06:57:47Z</time>
      </trkpt>
      <trkpt lat="49.31939" lon="0.97456">
        <ele>94.38</ele>
        <time>2014-06-29T06:57:48Z</time>
      </trkpt>
      <trkpt lat="49.31929" lon="0.9745">
        <ele>94.39</ele>
        <time>2014-06-29T06:57:52Z</time>
      </trkpt>
      <trkpt lat="49.31918" lon="0.97438">
        <ele>93.77</ele>
        <time>2014-06-29T06:57:57Z</time>
      </trkpt>
      <trkpt lat="49.31899" lon="0.97412">
        <ele>93.03</ele>
        <time>2014-06-29T06:58:05Z</time>
      </trkpt>
      <trkpt lat="49.3188" lon="0.97389">
        <ele>94.17</ele>
        <time>2014-06-29T06:58:13Z</time>
      </trkpt>
      <trkpt lat="49.31864" lon="0.9737">
        <ele>93.56</ele>
        <time>2014-06-29T06:58:18Z</time>
      </trkpt>
      <trkpt lat="49.31845" lon="0.97348">
        <ele>93.98</ele>
        <time>2014-06-29T06:58:25Z</time>
      </trkpt>
      <trkpt lat="49.31828" lon="0.97321">
        <ele>94.19</ele>
        <time>2014-06-29T06:58:33Z</time>
      </trkpt>
      <trkpt lat="49.31813" lon="0.97303">
        <ele>95.19</ele>
        <time>2014-06-29T06:58:40Z</time>
      </trkpt>
      <trkpt lat="49.31799" lon="0.97281">
        <ele>95.58</ele>
        <time>2014-06-29T06:58:48Z</time>
      </trkpt>
      <trkpt lat="49.31791" lon="0.97257">
        <ele>94.88</ele>
        <time>2014-06-29T06:58:54Z</time>
      </trkpt>
      <trkpt lat="49.31773" lon="0.97243">
        <ele>95.17</ele>
        <time>2014-06-29T06:59:01Z</time>
      </trkpt>
      <trkpt lat="49.31765" lon="0.97236">
        <ele>96.15</ele>
        <time>2014-06-29T06:59:05Z</time>
      </trkpt>
      <trkpt lat="49.31758" lon="0.97217">
        <ele>94.78</ele>
        <time>2014-06-29T06:59:11Z</time>
      </trkpt>
      <trkpt lat="49.31757" lon="0.97206">
        <ele>94.27</ele>
        <time>2014-06-29T06:59:14Z</time>
      </trkpt>
      <trkpt lat="49.31755" lon="0.97199">
        <ele>93.78</ele>
        <time>2014-06-29T06:59:17Z</time>
      </trkpt>
      <trkpt lat="49.31748" lon="0.97182">
        <ele>93.12</ele>
        <time>2014-06-29T06:59:24Z</time>
      </trkpt>
      <trkpt lat="49.31736" lon="0.97157">
        <ele>93.27</ele>
        <time>2014-06-29T06:59:34Z</time>
      </trkpt>
      <trkpt lat="49.31727" lon="0.97132">
        <ele>95.24</ele>
        <time>2014-06-29T06:59:42Z</time>
      </trkpt>
      <trkpt lat="49.31725" lon="0.97131">
        <ele>95.5</ele>
        <time>2014-06-29T06:59:43Z</time>
      </trkpt>
      <trkpt lat="49.31724" lon="0.9713">
        <ele>95.34</ele>
        <time>2014-06-29T06:59:44Z</time>
      </trkpt>
      <trkpt lat="49.31713" lon="0.9713">
        <ele>95.76</ele>
        <time>2014-06-29T06:59:51Z</time>
      </trkpt>
      <trkpt lat="49.31707" lon="0.97132">
        <ele>96.85</ele>
        <time>2014-06-29T06:59:55Z</time>
      </trkpt>
      <trkpt lat="49.31706" lon="0.97137">
        <ele>96.39</ele>
        <time>2014-06-29T06:59:59Z</time>
      </trkpt>
      <trkpt lat="49.31704" lon="0.97149">
        <ele>96.92</ele>
        <time>2014-06-29T07:00:08Z</time>
      </trkpt>
      <trkpt lat="49.31698" lon="0.97163">
        <ele>97.92</ele>
        <time>2014-06-29T07:00:14Z</time>
      </trkpt>
      <trkpt lat="49.31697" lon="0.97166">
        <ele>98.16</ele>
        <time>2014-06-29T07:00:16Z</time>
      </trkpt>
      <trkpt lat="49.31692" lon="0.97179">
        <ele>98.61</ele>
        <time>2014-06-29T07:00:25Z</time>
      </trkpt>
      <trkpt lat="49.3169" lon="0.97178">
        <ele>98.55</ele>
        <time>2014-06-29T07:00:27Z</time>
      </trkpt>
      <trkpt lat="49.31685" lon="0.97163">
        <ele>98.6</ele>
        <time>2014-06-29T07:00:36Z</time>
      </trkpt>
      <trkpt lat="49.31683" lon="0.97158">
        <ele>98.91</ele>
        <time>2014-06-29T07:00:38Z</time>
      </trkpt>
      <trkpt lat="49.31685" lon="0.97134">
        <ele>98.17</ele>
        <time>2014-06-29T07:00:44Z</time>
      </trkpt>
      <trkpt lat="49.31686" lon="0.97129">
        <ele>98.08</ele>
        <time>2014-06-29T07:00:45Z</time>
      </trkpt>
      <trkpt lat="49.31692" lon="0.97085">
        <ele>95.37</ele>
        <time>2014-06-29T07:00:54Z</time>
      </trkpt>
      <trkpt lat="49.31691" lon="0.97081">
        <ele>95.55</ele>
        <time>2014-06-29T07:00:55Z</time>
      </trkpt>
      <trkpt lat="49.31684" lon="0.97086">
        <ele>96.78</ele>
        <time>2014-06-29T07:01:02Z</time>
      </trkpt>
      <trkpt lat="49.31676" lon="0.97096">
        <ele>98.6</ele>
        <time>2014-06-29T07:01:09Z</time>
      </trkpt>
      <trkpt lat="49.3167" lon="0.97103">
        <ele>99.43</ele>
        <time>2014-06-29T07:01:15Z</time>
      </trkpt>
      <trkpt lat="49.31659" lon="0.97096">
        <ele>100.58</ele>
        <time>2014-06-29T07:01:23Z</time>
      </trkpt>
      <trkpt lat="49.31655" lon="0.97093">
        <ele>101.42</ele>
        <time>2014-06-29T07:01:26Z</time>
      </trkpt>
      <trkpt lat="49.31642" lon="0.9709">
        <ele>103.01</ele>
        <time>2014-06-29T07:01:33Z</time>
      </trkpt>
      <trkpt lat="49.31629" lon="0.971">
        <ele>104.7</ele>
        <time>2014-06-29T07:01:40Z</time>
      </trkpt>
      <trkpt lat="49.31619" lon="0.97108">
        <ele>105.41</ele>
        <time>2014-06-29T07:01:48Z</time>
      </trkpt>
      <trkpt lat="49.316" lon="0.9711">
        <ele>106.66</ele>
        <time>2014-06-29T07:01:55Z</time>
      </trkpt>
      <trkpt lat="49.31582" lon="0.97092">
        <ele>107.51</ele>
        <time>2014-06-29T07:02:03Z</time>
      </trkpt>
      <trkpt lat="49.31567" lon="0.9707">
        <ele>108.82</ele>
        <time>2014-06-29T07:02:10Z</time>
      </trkpt>
      <trkpt lat="49.31544" lon="0.97039">
        <ele>109.78</ele>
        <time>2014-06-29T07:02:19Z</time>
      </trkpt>
      <trkpt lat="49.31526" lon="0.97017">
        <ele>110.2</ele>
        <time>2014-06-29T07:02:26Z</time>
      </trkpt>
      <trkpt lat="49.3151" lon="0.96991">
        <ele>110.94</ele>
        <time>2014-06-29T07:02:33Z</time>
      </trkpt>
      <trkpt lat="49.31492" lon="0.96962">
        <ele>112.44</ele>
        <time>2014-06-29T07:02:41Z</time>
      </trkpt>
      <trkpt lat="49.31472" lon="0.96943">
        <ele>113.55</ele>
        <time>2014-06-29T07:02:48Z</time>
      </trkpt>
      <trkpt lat="49.31451" lon="0.96915">
        <ele>114.21</ele>
        <time>2014-06-29T07:02:56Z</time>
      </trkpt>
      <trkpt lat="49.31447" lon="0.96908">
        <ele>114.25</ele>
        <time>2014-06-29T07:02:58Z</time>
      </trkpt>
      <trkpt lat="49.31453" lon="0.96891">
        <ele>114.32</ele>
        <time>2014-06-29T07:03:02Z</time>
      </trkpt>
      <trkpt lat="49.31463" lon="0.96878">
        <ele>113.28</ele>
        <time>2014-06-29T07:03:05Z</time>
      </trkpt>
      <trkpt lat="49.31491" lon="0.96836">
        <ele>111.64</ele>
        <time>2014-06-29T07:03:12Z</time>
      </trkpt>
      <trkpt lat="49.3151" lon="0.96807">
        <ele>107.8</ele>
        <time>2014-06-29T07:03:16Z</time>
      </trkpt>
      <trkpt lat="49.31518" lon="0.96796">
        <ele>107</ele>
        <time>2014-06-29T07:03:18Z</time>
      </trkpt>
      <trkpt lat="49.31523" lon="0.96777">
        <ele>106.02</ele>
        <time>2014-06-29T07:03:22Z</time>
      </trkpt>
      <trkpt lat="49.31526" lon="0.96761">
        <ele>102.58</ele>
        <time>2014-06-29T07:03:26Z</time>
      </trkpt>
      <trkpt lat="49.31529" lon="0.96746">
        <ele>99.42</ele>
        <time>2014-06-29T07:03:30Z</time>
      </trkpt>
      <trkpt lat="49.31537" lon="0.96735">
        <ele>95.79</ele>
        <time>2014-06-29T07:03:34Z</time>
      </trkpt>
      <trkpt lat="49.31538" lon="0.96722">
        <ele>93.52</ele>
        <time>2014-06-29T07:03:38Z</time>
      </trkpt>
      <trkpt lat="49.31537" lon="0.96716">
        <ele>92.83</ele>
        <time>2014-06-29T07:03:40Z</time>
      </trkpt>
      <trkpt lat="49.31531" lon="0.96711">
        <ele>93.33</ele>
        <time>2014-06-29T07:03:45Z</time>
      </trkpt>
      <trkpt lat="49.31521" lon="0.96698">
        <ele>92.42</ele>
        <time>2014-06-29T07:03:54Z</time>
      </trkpt>
      <trkpt lat="49.31516" lon="0.96697">
        <ele>93.06</ele>
        <time>2014-06-29T07:03:56Z</time>
      </trkpt>
      <trkpt lat="49.31502" lon="0.96692">
        <ele>94.82</ele>
        <time>2014-06-29T07:04:01Z</time>
      </trkpt>
      <trkpt lat="49.31489" lon="0.96686">
        <ele>95.19</ele>
        <time>2014-06-29T07:04:07Z</time>
      </trkpt>
      <trkpt lat="49.31475" lon="0.96673">
        <ele>94.59</ele>
        <time>2014-06-29T07:04:13Z</time>
      </trkpt>
      <trkpt lat="49.31463" lon="0.9667">
        <ele>96.1</ele>
        <time>2014-06-29T07:04:18Z</time>
      </trkpt>
      <trkpt lat="49.3145" lon="0.96672">
        <ele>98.24</ele>
        <time>2014-06-29T07:04:26Z</time>
      </trkpt>
      <trkpt lat="49.31448" lon="0.96672">
        <ele>98.62</ele>
        <time>2014-06-29T07:04:27Z</time>
      </trkpt>
      <trkpt lat="49.31429" lon="0.96664">
        <ele>98.61</ele>
        <time>2014-06-29T07:04:35Z</time>
      </trkpt>
      <trkpt lat="49.31416" lon="0.9666">
        <ele>100.03</ele>
        <time>2014-06-29T07:04:41Z</time>
      </trkpt>
      <trkpt lat="49.31407" lon="0.96661">
        <ele>101.28</ele>
        <time>2014-06-29T07:04:44Z</time>
      </trkpt>
      <trkpt lat="49.31391" lon="0.9666">
        <ele>102.26</ele>
        <time>2014-06-29T07:04:51Z</time>
      </trkpt>
      <trkpt lat="49.31378" lon="0.96655">
        <ele>103.5</ele>
        <time>2014-06-29T07:04:58Z</time>
      </trkpt>
      <trkpt lat="49.31366" lon="0.96656">
        <ele>104.99</ele>
        <time>2014-06-29T07:05:04Z</time>
      </trkpt>
      <trkpt lat="49.31355" lon="0.96658">
        <ele>106.63</ele>
        <time>2014-06-29T07:05:11Z</time>
      </trkpt>
      <trkpt lat="49.31338" lon="0.96648">
        <ele>105.95</ele>
        <time>2014-06-29T07:05:18Z</time>
      </trkpt>
      <trkpt lat="49.31322" lon="0.96627">
        <ele>104.53</ele>
        <time>2014-06-29T07:05:24Z</time>
      </trkpt>
      <trkpt lat="49.31301" lon="0.96612">
        <ele>104.8</ele>
        <time>2014-06-29T07:05:30Z</time>
      </trkpt>
      <trkpt lat="49.31289" lon="0.96603">
        <ele>106.52</ele>
        <time>2014-06-29T07:05:36Z</time>
      </trkpt>
      <trkpt lat="49.31271" lon="0.9659">
        <ele>107.88</ele>
        <time>2014-06-29T07:05:46Z</time>
      </trkpt>
      <trkpt lat="49.3125" lon="0.96554">
        <ele>107.9</ele>
        <time>2014-06-29T07:05:56Z</time>
      </trkpt>
      <trkpt lat="49.31242" lon="0.96536">
        <ele>108.67</ele>
        <time>2014-06-29T07:06:01Z</time>
      </trkpt>
      <trkpt lat="49.31228" lon="0.96512">
        <ele>109.58</ele>
        <time>2014-06-29T07:06:08Z</time>
      </trkpt>
      <trkpt lat="49.3122" lon="0.96493">
        <ele>110.91</ele>
        <time>2014-06-29T07:06:14Z</time>
      </trkpt>
      <trkpt lat="49.31208" lon="0.96472">
        <ele>111.96</ele>
        <time>2014-06-29T07:06:20Z</time>
      </trkpt>
      <trkpt lat="49.31205" lon="0.96446">
        <ele>111.79</ele>
        <time>2014-06-29T07:06:25Z</time>
      </trkpt>
      <trkpt lat="49.31198" lon="0.9642">
        <ele>111.13</ele>
        <time>2014-06-29T07:06:31Z</time>
      </trkpt>
      <trkpt lat="49.31193" lon="0.96388">
        <ele>110.48</ele>
        <time>2014-06-29T07:06:38Z</time>
      </trkpt>
      <trkpt lat="49.31185" lon="0.96356">
        <ele>109.9</ele>
        <time>2014-06-29T07:06:44Z</time>
      </trkpt>
      <trkpt lat="49.31192" lon="0.96342">
        <ele>107.98</ele>
        <time>2014-06-29T07:06:49Z</time>
      </trkpt>
      <trkpt lat="49.31193" lon="0.9634">
        <ele>108.11</ele>
        <time>2014-06-29T07:06:50Z</time>
      </trkpt>
      <trkpt lat="49.31205" lon="0.96314">
        <ele>109.22</ele>
        <time>2014-06-29T07:06:59Z</time>
      </trkpt>
      <trkpt lat="49.31214" lon="0.96291">
        <ele>111.18</ele>
        <time>2014-06-29T07:07:08Z</time>
      </trkpt>
      <trkpt lat="49.31222" lon="0.96275">
        <ele>112.37</ele>
        <time>2014-06-29T07:07:16Z</time>
      </trkpt>
      <trkpt lat="49.31234" lon="0.96262">
        <ele>113.3</ele>
        <time>2014-06-29T07:07:25Z</time>
      </trkpt>
      <trkpt lat="49.31244" lon="0.96248">
        <ele>113.01</ele>
        <time>2014-06-29T07:07:31Z</time>
      </trkpt>
      <trkpt lat="49.31257" lon="0.96234">
        <ele>113.6</ele>
        <time>2014-06-29T07:07:39Z</time>
      </trkpt>
      <trkpt lat="49.31262" lon="0.96211">
        <ele>114.39</ele>
        <time>2014-06-29T07:07:46Z</time>
      </trkpt>
      <trkpt lat="49.3128" lon="0.96177">
        <ele>115.69</ele>
        <time>2014-06-29T07:07:54Z</time>
      </trkpt>
      <trkpt lat="49.31294" lon="0.96139">
        <ele>115.41</ele>
        <time>2014-06-29T07:08:02Z</time>
      </trkpt>
      <trkpt lat="49.31309" lon="0.96106">
        <ele>116.21</ele>
        <time>2014-06-29T07:08:08Z</time>
      </trkpt>
      <trkpt lat="49.31316" lon="0.96081">
        <ele>117.35</ele>
        <time>2014-06-29T07:08:13Z</time>
      </trkpt>
      <trkpt lat="49.31322" lon="0.96036">
        <ele>118.56</ele>
        <time>2014-06-29T07:08:20Z</time>
      </trkpt>
      <trkpt lat="49.31331" lon="0.96004">
        <ele>118.49</ele>
        <time>2014-06-29T07:08:25Z</time>
      </trkpt>
      <trkpt lat="49.31335" lon="0.95979">
        <ele>119.79</ele>
        <time>2014-06-29T07:08:29Z</time>
      </trkpt>
      <trkpt lat="49.31335" lon="0.9593">
        <ele>120.8</ele>
        <time>2014-06-29T07:08:37Z</time>
      </trkpt>
      <trkpt lat="49.3133" lon="0.95902">
        <ele>120.8</ele>
        <time>2014-06-29T07:08:42Z</time>
      </trkpt>
      <trkpt lat="49.31323" lon="0.95879">
        <ele>120.96</ele>
        <time>2014-06-29T07:08:48Z</time>
      </trkpt>
      <trkpt lat="49.31313" lon="0.95854">
        <ele>121.61</ele>
        <time>2014-06-29T07:08:54Z</time>
      </trkpt>
      <trkpt lat="49.31312" lon="0.9585">
        <ele>121.61</ele>
        <time>2014-06-29T07:08:55Z</time>
      </trkpt>
      <trkpt lat="49.31285" lon="0.95827">
        <ele>122.59</ele>
        <time>2014-06-29T07:09:03Z</time>
      </trkpt>
      <trkpt lat="49.31259" lon="0.95813">
        <ele>122.43</ele>
        <time>2014-06-29T07:09:09Z</time>
      </trkpt>
      <trkpt lat="49.31254" lon="0.95812">
        <ele>122.43</ele>
        <time>2014-06-29T07:09:10Z</time>
      </trkpt>
      <trkpt lat="49.31225" lon="0.95805">
        <ele>122.08</ele>
        <time>2014-06-29T07:09:16Z</time>
      </trkpt>
      <trkpt lat="49.312" lon="0.95795">
        <ele>122.87</ele>
        <time>2014-06-29T07:09:22Z</time>
      </trkpt>
      <trkpt lat="49.31196" lon="0.95782">
        <ele>123.49</ele>
        <time>2014-06-29T07:09:25Z</time>
      </trkpt>
      <trkpt lat="49.31204" lon="0.95738">
        <ele>123.2</ele>
        <time>2014-06-29T07:09:31Z</time>
      </trkpt>
      <trkpt lat="49.31211" lon="0.95681">
        <ele>123.94</ele>
        <time>2014-06-29T07:09:39Z</time>
      </trkpt>
      <trkpt lat="49.31217" lon="0.95644">
        <ele>124.13</ele>
        <time>2014-06-29T07:09:44Z</time>
      </trkpt>
      <trkpt lat="49.31222" lon="0.95611">
        <ele>124.14</ele>
        <time>2014-06-29T07:09:50Z</time>
      </trkpt>
      <trkpt lat="49.31223" lon="0.95582">
        <ele>125.15</ele>
        <time>2014-06-29T07:09:56Z</time>
      </trkpt>
      <trkpt lat="49.3123" lon="0.95546">
        <ele>124.37</ele>
        <time>2014-06-29T07:10:03Z</time>
      </trkpt>
      <trkpt lat="49.31234" lon="0.95518">
        <ele>124.63</ele>
        <time>2014-06-29T07:10:08Z</time>
      </trkpt>
      <trkpt lat="49.31243" lon="0.95487">
        <ele>124.5</ele>
        <time>2014-06-29T07:10:14Z</time>
      </trkpt>
      <trkpt lat="49.31246" lon="0.95457">
        <ele>124.75</ele>
        <time>2014-06-29T07:10:20Z</time>
      </trkpt>
      <trkpt lat="49.31248" lon="0.95411">
        <ele>124.99</ele>
        <time>2014-06-29T07:10:27Z</time>
      </trkpt>
      <trkpt lat="49.31246" lon="0.95367">
        <ele>126.05</ele>
        <time>2014-06-29T07:10:35Z</time>
      </trkpt>
      <trkpt lat="49.31244" lon="0.95342">
        <ele>124.97</ele>
        <time>2014-06-29T07:10:40Z</time>
      </trkpt>
      <trkpt lat="49.31234" lon="0.95314">
        <ele>124.56</ele>
        <time>2014-06-29T07:10:46Z</time>
      </trkpt>
      <trkpt lat="49.31228" lon="0.95279">
        <ele>125.14</ele>
        <time>2014-06-29T07:10:52Z</time>
      </trkpt>
      <trkpt lat="49.31222" lon="0.95255">
        <ele>125.27</ele>
        <time>2014-06-29T07:10:56Z</time>
      </trkpt>
      <trkpt lat="49.31217" lon="0.95205">
        <ele>124.64</ele>
        <time>2014-06-29T07:11:03Z</time>
      </trkpt>
      <trkpt lat="49.31213" lon="0.9518">
        <ele>124.61</ele>
        <time>2014-06-29T07:11:08Z</time>
      </trkpt>
      <trkpt lat="49.31209" lon="0.95142">
        <ele>125.38</ele>
        <time>2014-06-29T07:11:14Z</time>
      </trkpt>
      <trkpt lat="49.31201" lon="0.95108">
        <ele>125.09</ele>
        <time>2014-06-29T07:11:20Z</time>
      </trkpt>
      <trkpt lat="49.31197" lon="0.95071">
        <ele>124.22</ele>
        <time>2014-06-29T07:11:26Z</time>
      </trkpt>
      <trkpt lat="49.31192" lon="0.95037">
        <ele>124.27</ele>
        <time>2014-06-29T07:11:32Z</time>
      </trkpt>
      <trkpt lat="49.31186" lon="0.94978">
        <ele>124.14</ele>
        <time>2014-06-29T07:11:40Z</time>
      </trkpt>
      <trkpt lat="49.31184" lon="0.94964">
        <ele>123.83</ele>
        <time>2014-06-29T07:11:42Z</time>
      </trkpt>
      <trkpt lat="49.31178" lon="0.94924">
        <ele>123.26</ele>
        <time>2014-06-29T07:11:48Z</time>
      </trkpt>
      <trkpt lat="49.31169" lon="0.94858">
        <ele>123.87</ele>
        <time>2014-06-29T07:11:56Z</time>
      </trkpt>
      <trkpt lat="49.31166" lon="0.94834">
        <ele>123.72</ele>
        <time>2014-06-29T07:11:59Z</time>
      </trkpt>
      <trkpt lat="49.31167" lon="0.94809">
        <ele>124.07</ele>
        <time>2014-06-29T07:12:02Z</time>
      </trkpt>
      <trkpt lat="49.31159" lon="0.9475">
        <ele>123.65</ele>
        <time>2014-06-29T07:12:09Z</time>
      </trkpt>
      <trkpt lat="49.31156" lon="0.94737">
        <ele>123.66</ele>
        <time>2014-06-29T07:12:11Z</time>
      </trkpt>
      <trkpt lat="49.31153" lon="0.94722">
        <ele>123.34</ele>
        <time>2014-06-29T07:12:13Z</time>
      </trkpt>
      <trkpt lat="49.31146" lon="0.9467">
        <ele>123.5</ele>
        <time>2014-06-29T07:12:19Z</time>
      </trkpt>
      <trkpt lat="49.31144" lon="0.94626">
        <ele>123.65</ele>
        <time>2014-06-29T07:12:25Z</time>
      </trkpt>
      <trkpt lat="49.31137" lon="0.94561">
        <ele>123.39</ele>
        <time>2014-06-29T07:12:33Z</time>
      </trkpt>
      <trkpt lat="49.31133" lon="0.94528">
        <ele>123.39</ele>
        <time>2014-06-29T07:12:37Z</time>
      </trkpt>
      <trkpt lat="49.31129" lon="0.94474">
        <ele>123.1</ele>
        <time>2014-06-29T07:12:42Z</time>
      </trkpt>
      <trkpt lat="49.31129" lon="0.94425">
        <ele>121.77</ele>
        <time>2014-06-29T07:12:47Z</time>
      </trkpt>
      <trkpt lat="49.31134" lon="0.94397">
        <ele>117.98</ele>
        <time>2014-06-29T07:12:52Z</time>
      </trkpt>
      <trkpt lat="49.31135" lon="0.94391">
        <ele>116.24</ele>
        <time>2014-06-29T07:12:55Z</time>
      </trkpt>
      <trkpt lat="49.31136" lon="0.94388">
        <ele>115.84</ele>
        <time>2014-06-29T07:12:58Z</time>
      </trkpt>
      <trkpt lat="49.31145" lon="0.94393">
        <ele>115.98</ele>
        <time>2014-06-29T07:13:05Z</time>
      </trkpt>
      <trkpt lat="49.31157" lon="0.94395">
        <ele>116.03</ele>
        <time>2014-06-29T07:13:12Z</time>
      </trkpt>
      <trkpt lat="49.31173" lon="0.9439">
        <ele>117.51</ele>
        <time>2014-06-29T07:13:21Z</time>
      </trkpt>
      <trkpt lat="49.31187" lon="0.94389">
        <ele>118.14</ele>
        <time>2014-06-29T07:13:27Z</time>
      </trkpt>
      <trkpt lat="49.31201" lon="0.94392">
        <ele>116.27</ele>
        <time>2014-06-29T07:13:34Z</time>
      </trkpt>
      <trkpt lat="49.31204" lon="0.94394">
        <ele>115.57</ele>
        <time>2014-06-29T07:13:36Z</time>
      </trkpt>
      <trkpt lat="49.31221" lon="0.94397">
        <ele>115.21</ele>
        <time>2014-06-29T07:13:42Z</time>
      </trkpt>
      <trkpt lat="49.31245" lon="0.94401">
        <ele>115.8</ele>
        <time>2014-06-29T07:13:50Z</time>
      </trkpt>
      <trkpt lat="49.31274" lon="0.94403">
        <ele>116.1</ele>
        <time>2014-06-29T07:13:57Z</time>
      </trkpt>
      <trkpt lat="49.313" lon="0.94397">
        <ele>116.11</ele>
        <time>2014-06-29T07:14:05Z</time>
      </trkpt>
      <trkpt lat="49.31317" lon="0.94381">
        <ele>116.29</ele>
        <time>2014-06-29T07:14:11Z</time>
      </trkpt>
      <trkpt lat="49.31334" lon="0.9436">
        <ele>115.82</ele>
        <time>2014-06-29T07:14:17Z</time>
      </trkpt>
      <trkpt lat="49.31363" lon="0.94345">
        <ele>115.38</ele>
        <time>2014-06-29T07:14:24Z</time>
      </trkpt>
      <trkpt lat="49.314" lon="0.94332">
        <ele>115.72</ele>
        <time>2014-06-29T07:14:32Z</time>
      </trkpt>
      <trkpt lat="49.31432" lon="0.94326">
        <ele>115.57</ele>
        <time>2014-06-29T07:14:39Z</time>
      </trkpt>
      <trkpt lat="49.31436" lon="0.94325">
        <ele>115.4</ele>
        <time>2014-06-29T07:14:40Z</time>
      </trkpt>
      <trkpt lat="49.31467" lon="0.94325">
        <ele>115.66</ele>
        <time>2014-06-29T07:14:47Z</time>
      </trkpt>
      <trkpt lat="49.31496" lon="0.94327">
        <ele>115.62</ele>
        <time>2014-06-29T07:14:54Z</time>
      </trkpt>
      <trkpt lat="49.3153" lon="0.9433">
        <ele>115.61</ele>
        <time>2014-06-29T07:14:59Z</time>
      </trkpt>
      <trkpt lat="49.31561" lon="0.94323">
        <ele>115.64</ele>
        <time>2014-06-29T07:15:06Z</time>
      </trkpt>
      <trkpt lat="49.31586" lon="0.94313">
        <ele>115.14</ele>
        <time>2014-06-29T07:15:12Z</time>
      </trkpt>
      <trkpt lat="49.31601" lon="0.94308">
        <ele>115.12</ele>
        <time>2014-06-29T07:15:15Z</time>
      </trkpt>
      <trkpt lat="49.31614" lon="0.943">
        <ele>115.32</ele>
        <time>2014-06-29T07:15:18Z</time>
      </trkpt>
      <trkpt lat="49.31634" lon="0.94282">
        <ele>115.56</ele>
        <time>2014-06-29T07:15:24Z</time>
      </trkpt>
      <trkpt lat="49.3167" lon="0.94279">
        <ele>114.59</ele>
        <time>2014-06-29T07:15:30Z</time>
      </trkpt>
      <trkpt lat="49.31695" lon="0.94282">
        <ele>114.95</ele>
        <time>2014-06-29T07:15:34Z</time>
      </trkpt>
      <trkpt lat="49.31714" lon="0.94282">
        <ele>114.8</ele>
        <time>2014-06-29T07:15:37Z</time>
      </trkpt>
      <trkpt lat="49.31739" lon="0.9427">
        <ele>114.77</ele>
        <time>2014-06-29T07:15:43Z</time>
      </trkpt>
      <trkpt lat="49.31771" lon="0.94244">
        <ele>114.2</ele>
        <time>2014-06-29T07:15:51Z</time>
      </trkpt>
      <trkpt lat="49.31796" lon="0.94236">
        <ele>114.11</ele>
        <time>2014-06-29T07:15:58Z</time>
      </trkpt>
      <trkpt lat="49.31816" lon="0.94242">
        <ele>113.99</ele>
        <time>2014-06-29T07:16:03Z</time>
      </trkpt>
      <trkpt lat="49.31834" lon="0.94242">
        <ele>114.41</ele>
        <time>2014-06-29T07:16:08Z</time>
      </trkpt>
      <trkpt lat="49.31837" lon="0.94242">
        <ele>114.43</ele>
        <time>2014-06-29T07:16:09Z</time>
      </trkpt>
      <trkpt lat="49.31851" lon="0.94225">
        <ele>113.3</ele>
        <time>2014-06-29T07:16:14Z</time>
      </trkpt>
      <trkpt lat="49.31855" lon="0.94215">
        <ele>112.83</ele>
        <time>2014-06-29T07:16:16Z</time>
      </trkpt>
      <trkpt lat="49.31862" lon="0.94196">
        <ele>112.31</ele>
        <time>2014-06-29T07:16:19Z</time>
      </trkpt>
      <trkpt lat="49.31877" lon="0.94172">
        <ele>109.69</ele>
        <time>2014-06-29T07:16:24Z</time>
      </trkpt>
      <trkpt lat="49.319" lon="0.9417">
        <ele>109.64</ele>
        <time>2014-06-29T07:16:29Z</time>
      </trkpt>
      <trkpt lat="49.31925" lon="0.94162">
        <ele>110.11</ele>
        <time>2014-06-29T07:16:35Z</time>
      </trkpt>
      <trkpt lat="49.31968" lon="0.94151">
        <ele>110.4</ele>
        <time>2014-06-29T07:16:42Z</time>
      </trkpt>
      <trkpt lat="49.31973" lon="0.94149">
        <ele>110.14</ele>
        <time>2014-06-29T07:16:43Z</time>
      </trkpt>
      <trkpt lat="49.31988" lon="0.94144">
        <ele>109.26</ele>
        <time>2014-06-29T07:16:46Z</time>
      </trkpt>
      <trkpt lat="49.31998" lon="0.94143">
        <ele>109.08</ele>
        <time>2014-06-29T07:16:48Z</time>
      </trkpt>
      <trkpt lat="49.3204" lon="0.9413">
        <ele>108.09</ele>
        <time>2014-06-29T07:16:56Z</time>
      </trkpt>
      <trkpt lat="49.32083" lon="0.94114">
        <ele>106.83</ele>
        <time>2014-06-29T07:17:04Z</time>
      </trkpt>
      <trkpt lat="49.32094" lon="0.9411">
        <ele>106.49</ele>
        <time>2014-06-29T07:17:06Z</time>
      </trkpt>
      <trkpt lat="49.32109" lon="0.94106">
        <ele>104.3</ele>
        <time>2014-06-29T07:17:08Z</time>
      </trkpt>
      <trkpt lat="49.32138" lon="0.94101">
        <ele>101.98</ele>
        <time>2014-06-29T07:17:12Z</time>
      </trkpt>
      <trkpt lat="49.32184" lon="0.94087">
        <ele>100.74</ele>
        <time>2014-06-29T07:17:19Z</time>
      </trkpt>
      <trkpt lat="49.32189" lon="0.94085">
        <ele>100.38</ele>
        <time>2014-06-29T07:17:20Z</time>
      </trkpt>
      <trkpt lat="49.32219" lon="0.94075">
        <ele>97.38</ele>
        <time>2014-06-29T07:17:25Z</time>
      </trkpt>
      <trkpt lat="49.32229" lon="0.94071">
        <ele>96.69</ele>
        <time>2014-06-29T07:17:27Z</time>
      </trkpt>
      <trkpt lat="49.32247" lon="0.94064">
        <ele>93.39</ele>
        <time>2014-06-29T07:17:32Z</time>
      </trkpt>
      <trkpt lat="49.3226" lon="0.94063">
        <ele>89.48</ele>
        <time>2014-06-29T07:17:36Z</time>
      </trkpt>
      <trkpt lat="49.32272" lon="0.94071">
        <ele>87.2</ele>
        <time>2014-06-29T07:17:39Z</time>
      </trkpt>
      <trkpt lat="49.32292" lon="0.94098">
        <ele>87.01</ele>
        <time>2014-06-29T07:17:45Z</time>
      </trkpt>
      <trkpt lat="49.32329" lon="0.94117">
        <ele>85.75</ele>
        <time>2014-06-29T07:17:51Z</time>
      </trkpt>
      <trkpt lat="49.32345" lon="0.94137">
        <ele>85.19</ele>
        <time>2014-06-29T07:17:57Z</time>
      </trkpt>
      <trkpt lat="49.32346" lon="0.94146">
        <ele>85.54</ele>
        <time>2014-06-29T07:18:02Z</time>
      </trkpt>
      <trkpt lat="49.32346" lon="0.94155">
        <ele>87.34</ele>
        <time>2014-06-29T07:18:10Z</time>
      </trkpt>
      <trkpt lat="49.32348" lon="0.94164">
        <ele>89.28</ele>
        <time>2014-06-29T07:18:18Z</time>
      </trkpt>
      <trkpt lat="49.32351" lon="0.94172">
        <ele>90.03</ele>
        <time>2014-06-29T07:18:25Z</time>
      </trkpt>
      <trkpt lat="49.32359" lon="0.94184">
        <ele>90.33</ele>
        <time>2014-06-29T07:18:31Z</time>
      </trkpt>
      <trkpt lat="49.32363" lon="0.94192">
        <ele>90.15</ele>
        <time>2014-06-29T07:18:37Z</time>
      </trkpt>
      <trkpt lat="49.32366" lon="0.94195">
        <ele>89.86</ele>
        <time>2014-06-29T07:18:39Z</time>
      </trkpt>
      <trkpt lat="49.32371" lon="0.94192">
        <ele>88.53</ele>
        <time>2014-06-29T07:18:42Z</time>
      </trkpt>
      <trkpt lat="49.32378" lon="0.94191">
        <ele>87.8</ele>
        <time>2014-06-29T07:18:46Z</time>
      </trkpt>
      <trkpt lat="49.32386" lon="0.942">
        <ele>88.94</ele>
        <time>2014-06-29T07:18:55Z</time>
      </trkpt>
      <trkpt lat="49.32388" lon="0.942">
        <ele>88.86</ele>
        <time>2014-06-29T07:18:56Z</time>
      </trkpt>
      <trkpt lat="49.32394" lon="0.942">
        <ele>87.6</ele>
        <time>2014-06-29T07:18:59Z</time>
      </trkpt>
      <trkpt lat="49.32406" lon="0.94213">
        <ele>85.33</ele>
        <time>2014-06-29T07:19:06Z</time>
      </trkpt>
      <trkpt lat="49.3241" lon="0.94217">
        <ele>85.45</ele>
        <time>2014-06-29T07:19:08Z</time>
      </trkpt>
      <trkpt lat="49.32414" lon="0.94223">
        <ele>85.26</ele>
        <time>2014-06-29T07:19:11Z</time>
      </trkpt>
      <trkpt lat="49.32428" lon="0.94237">
        <ele>85.07</ele>
        <time>2014-06-29T07:19:17Z</time>
      </trkpt>
      <trkpt lat="49.32438" lon="0.94263">
        <ele>84.55</ele>
        <time>2014-06-29T07:19:25Z</time>
      </trkpt>
      <trkpt lat="49.3246" lon="0.94284">
        <ele>84.93</ele>
        <time>2014-06-29T07:19:31Z</time>
      </trkpt>
      <trkpt lat="49.32469" lon="0.943">
        <ele>85.31</ele>
        <time>2014-06-29T07:19:36Z</time>
      </trkpt>
      <trkpt lat="49.32472" lon="0.9433">
        <ele>84.55</ele>
        <time>2014-06-29T07:19:43Z</time>
      </trkpt>
      <trkpt lat="49.32472" lon="0.94339">
        <ele>84.67</ele>
        <time>2014-06-29T07:19:45Z</time>
      </trkpt>
      <trkpt lat="49.32467" lon="0.94351">
        <ele>85.5</ele>
        <time>2014-06-29T07:19:48Z</time>
      </trkpt>
      <trkpt lat="49.32469" lon="0.94359">
        <ele>85.45</ele>
        <time>2014-06-29T07:19:51Z</time>
      </trkpt>
      <trkpt lat="49.32477" lon="0.94389">
        <ele>83.8</ele>
        <time>2014-06-29T07:19:58Z</time>
      </trkpt>
      <trkpt lat="49.32475" lon="0.94418">
        <ele>84.11</ele>
        <time>2014-06-29T07:20:05Z</time>
      </trkpt>
      <trkpt lat="49.32471" lon="0.9445">
        <ele>83.64</ele>
        <time>2014-06-29T07:20:12Z</time>
      </trkpt>
      <trkpt lat="49.32466" lon="0.94465">
        <ele>85.46</ele>
        <time>2014-06-29T07:20:17Z</time>
      </trkpt>
      <trkpt lat="49.32464" lon="0.9448">
        <ele>87.76</ele>
        <time>2014-06-29T07:20:24Z</time>
      </trkpt>
      <trkpt lat="49.32464" lon="0.945">
        <ele>89.1</ele>
        <time>2014-06-29T07:20:33Z</time>
      </trkpt>
      <trkpt lat="49.32454" lon="0.94515">
        <ele>91.17</ele>
        <time>2014-06-29T07:20:41Z</time>
      </trkpt>
      <trkpt lat="49.32436" lon="0.94522">
        <ele>93.03</ele>
        <time>2014-06-29T07:20:49Z</time>
      </trkpt>
      <trkpt lat="49.32426" lon="0.9453">
        <ele>94.22</ele>
        <time>2014-06-29T07:20:57Z</time>
      </trkpt>
      <trkpt lat="49.32415" lon="0.94542">
        <ele>95.64</ele>
        <time>2014-06-29T07:21:06Z</time>
      </trkpt>
      <trkpt lat="49.32405" lon="0.94556">
        <ele>96.99</ele>
        <time>2014-06-29T07:21:13Z</time>
      </trkpt>
      <trkpt lat="49.32396" lon="0.94567">
        <ele>98.15</ele>
        <time>2014-06-29T07:21:20Z</time>
      </trkpt>
      <trkpt lat="49.32386" lon="0.94579">
        <ele>99.45</ele>
        <time>2014-06-29T07:21:27Z</time>
      </trkpt>
      <trkpt lat="49.32372" lon="0.94596">
        <ele>100.76</ele>
        <time>2014-06-29T07:21:36Z</time>
      </trkpt>
      <trkpt lat="49.32355" lon="0.94611">
        <ele>101.6</ele>
        <time>2014-06-29T07:21:43Z</time>
      </trkpt>
      <trkpt lat="49.32332" lon="0.94626">
        <ele>102.3</ele>
        <time>2014-06-29T07:21:50Z</time>
      </trkpt>
      <trkpt lat="49.32305" lon="0.94635">
        <ele>102.87</ele>
        <time>2014-06-29T07:21:59Z</time>
      </trkpt>
      <trkpt lat="49.32287" lon="0.94636">
        <ele>103.51</ele>
        <time>2014-06-29T07:22:05Z</time>
      </trkpt>
      <trkpt lat="49.32262" lon="0.94638">
        <ele>103.41</ele>
        <time>2014-06-29T07:22:12Z</time>
      </trkpt>
      <trkpt lat="49.32237" lon="0.94633">
        <ele>103.08</ele>
        <time>2014-06-29T07:22:17Z</time>
      </trkpt>
      <trkpt lat="49.32223" lon="0.94638">
        <ele>102.93</ele>
        <time>2014-06-29T07:22:20Z</time>
      </trkpt>
      <trkpt lat="49.32198" lon="0.94633">
        <ele>102.5</ele>
        <time>2014-06-29T07:22:27Z</time>
      </trkpt>
      <trkpt lat="49.32179" lon="0.94628">
        <ele>102.71</ele>
        <time>2014-06-29T07:22:33Z</time>
      </trkpt>
      <trkpt lat="49.32155" lon="0.94623">
        <ele>103.04</ele>
        <time>2014-06-29T07:22:40Z</time>
      </trkpt>
      <trkpt lat="49.32126" lon="0.94632">
        <ele>103.78</ele>
        <time>2014-06-29T07:22:48Z</time>
      </trkpt>
      <trkpt lat="49.32102" lon="0.94642">
        <ele>103.46</ele>
        <time>2014-06-29T07:22:54Z</time>
      </trkpt>
      <trkpt lat="49.32095" lon="0.94642">
        <ele>103.37</ele>
        <time>2014-06-29T07:22:56Z</time>
      </trkpt>
      <trkpt lat="49.32074" lon="0.94631">
        <ele>103.93</ele>
        <time>2014-06-29T07:23:03Z</time>
      </trkpt>
      <trkpt lat="49.32056" lon="0.94626">
        <ele>105.19</ele>
        <time>2014-06-29T07:23:11Z</time>
      </trkpt>
      <trkpt lat="49.32037" lon="0.94625">
        <ele>106</ele>
        <time>2014-06-29T07:23:18Z</time>
      </trkpt>
      <trkpt lat="49.32014" lon="0.94622">
        <ele>107.78</ele>
        <time>2014-06-29T07:23:25Z</time>
      </trkpt>
      <trkpt lat="49.31979" lon="0.94622">
        <ele>108.5</ele>
        <time>2014-06-29T07:23:32Z</time>
      </trkpt>
      <trkpt lat="49.31952" lon="0.94625">
        <ele>109.36</ele>
        <time>2014-06-29T07:23:39Z</time>
      </trkpt>
      <trkpt lat="49.31923" lon="0.94617">
        <ele>110.19</ele>
        <time>2014-06-29T07:23:46Z</time>
      </trkpt>
      <trkpt lat="49.31899" lon="0.94612">
        <ele>111.13</ele>
        <time>2014-06-29T07:23:53Z</time>
      </trkpt>
      <trkpt lat="49.31874" lon="0.94613">
        <ele>110.89</ele>
        <time>2014-06-29T07:24:00Z</time>
      </trkpt>
      <trkpt lat="49.31858" lon="0.94629">
        <ele>111.29</ele>
        <time>2014-06-29T07:24:06Z</time>
      </trkpt>
      <trkpt lat="49.31851" lon="0.94636">
        <ele>111.53</ele>
        <time>2014-06-29T07:24:08Z</time>
      </trkpt>
      <trkpt lat="49.31833" lon="0.94665">
        <ele>110.66</ele>
        <time>2014-06-29T07:24:13Z</time>
      </trkpt>
      <trkpt lat="49.31814" lon="0.94699">
        <ele>109.45</ele>
        <time>2014-06-29T07:24:18Z</time>
      </trkpt>
      <trkpt lat="49.31786" lon="0.94739">
        <ele>110.34</ele>
        <time>2014-06-29T07:24:25Z</time>
      </trkpt>
      <trkpt lat="49.31779" lon="0.94749">
        <ele>110.11</ele>
        <time>2014-06-29T07:24:27Z</time>
      </trkpt>
      <trkpt lat="49.31758" lon="0.9477">
        <ele>110.4</ele>
        <time>2014-06-29T07:24:32Z</time>
      </trkpt>
      <trkpt lat="49.31744" lon="0.94786">
        <ele>110.72</ele>
        <time>2014-06-29T07:24:35Z</time>
      </trkpt>
      <trkpt lat="49.31713" lon="0.94835">
        <ele>110.14</ele>
        <time>2014-06-29T07:24:43Z</time>
      </trkpt>
      <trkpt lat="49.31701" lon="0.94849">
        <ele>110.23</ele>
        <time>2014-06-29T07:24:46Z</time>
      </trkpt>
      <trkpt lat="49.31678" lon="0.94878">
        <ele>110.75</ele>
        <time>2014-06-29T07:24:53Z</time>
      </trkpt>
      <trkpt lat="49.31662" lon="0.94901">
        <ele>110.68</ele>
        <time>2014-06-29T07:24:59Z</time>
      </trkpt>
      <trkpt lat="49.3163" lon="0.94938">
        <ele>112.18</ele>
        <time>2014-06-29T07:25:08Z</time>
      </trkpt>
      <trkpt lat="49.31611" lon="0.94959">
        <ele>112.94</ele>
        <time>2014-06-29T07:25:13Z</time>
      </trkpt>
      <trkpt lat="49.31592" lon="0.94967">
        <ele>113.28</ele>
        <time>2014-06-29T07:25:18Z</time>
      </trkpt>
      <trkpt lat="49.31578" lon="0.94976">
        <ele>113.95</ele>
        <time>2014-06-29T07:25:23Z</time>
      </trkpt>
      <trkpt lat="49.31576" lon="0.95001">
        <ele>114.1</ele>
        <time>2014-06-29T07:25:28Z</time>
      </trkpt>
      <trkpt lat="49.31567" lon="0.9503">
        <ele>114.44</ele>
        <time>2014-06-29T07:25:33Z</time>
      </trkpt>
      <trkpt lat="49.31557" lon="0.95059">
        <ele>114.91</ele>
        <time>2014-06-29T07:25:38Z</time>
      </trkpt>
      <trkpt lat="49.31554" lon="0.95069">
        <ele>115.12</ele>
        <time>2014-06-29T07:25:41Z</time>
      </trkpt>
      <trkpt lat="49.31551" lon="0.95072">
        <ele>115.36</ele>
        <time>2014-06-29T07:25:43Z</time>
      </trkpt>
      <trkpt lat="49.31544" lon="0.95092">
        <ele>115.4</ele>
        <time>2014-06-29T07:25:48Z</time>
      </trkpt>
      <trkpt lat="49.31535" lon="0.95122">
        <ele>115.56</ele>
        <time>2014-06-29T07:25:53Z</time>
      </trkpt>
      <trkpt lat="49.3152" lon="0.95155">
        <ele>116.15</ele>
        <time>2014-06-29T07:26:00Z</time>
      </trkpt>
      <trkpt lat="49.3152" lon="0.95159">
        <ele>116.25</ele>
        <time>2014-06-29T07:26:01Z</time>
      </trkpt>
      <trkpt lat="49.31533" lon="0.95188">
        <ele>116.01</ele>
        <time>2014-06-29T07:26:08Z</time>
      </trkpt>
      <trkpt lat="49.31547" lon="0.95195">
        <ele>114.77</ele>
        <time>2014-06-29T07:26:12Z</time>
      </trkpt>
      <trkpt lat="49.31558" lon="0.95201">
        <ele>114.29</ele>
        <time>2014-06-29T07:26:15Z</time>
      </trkpt>
      <trkpt lat="49.31589" lon="0.95207">
        <ele>109.74</ele>
        <time>2014-06-29T07:26:22Z</time>
      </trkpt>
      <trkpt lat="49.31601" lon="0.95215">
        <ele>105.71</ele>
        <time>2014-06-29T07:26:25Z</time>
      </trkpt>
      <trkpt lat="49.31613" lon="0.95218">
        <ele>101.38</ele>
        <time>2014-06-29T07:26:28Z</time>
      </trkpt>
      <trkpt lat="49.31629" lon="0.95219">
        <ele>97.55</ele>
        <time>2014-06-29T07:26:31Z</time>
      </trkpt>
      <trkpt lat="49.31638" lon="0.9522">
        <ele>96.34</ele>
        <time>2014-06-29T07:26:33Z</time>
      </trkpt>
      <trkpt lat="49.31649" lon="0.95224">
        <ele>95.19</ele>
        <time>2014-06-29T07:26:35Z</time>
      </trkpt>
      <trkpt lat="49.31675" lon="0.95231">
        <ele>93.55</ele>
        <time>2014-06-29T07:26:41Z</time>
      </trkpt>
      <trkpt lat="49.31701" lon="0.95239">
        <ele>93.81</ele>
        <time>2014-06-29T07:26:47Z</time>
      </trkpt>
      <trkpt lat="49.31727" lon="0.95241">
        <ele>94.04</ele>
        <time>2014-06-29T07:26:53Z</time>
      </trkpt>
      <trkpt lat="49.31761" lon="0.95248">
        <ele>92.65</ele>
        <time>2014-06-29T07:27:00Z</time>
      </trkpt>
      <trkpt lat="49.31788" lon="0.95262">
        <ele>90.21</ele>
        <time>2014-06-29T07:27:06Z</time>
      </trkpt>
      <trkpt lat="49.31805" lon="0.95273">
        <ele>90.26</ele>
        <time>2014-06-29T07:27:11Z</time>
      </trkpt>
      <trkpt lat="49.31801" lon="0.95302">
        <ele>87.96</ele>
        <time>2014-06-29T07:27:16Z</time>
      </trkpt>
      <trkpt lat="49.31799" lon="0.95315">
        <ele>86.59</ele>
        <time>2014-06-29T07:27:19Z</time>
      </trkpt>
      <trkpt lat="49.31806" lon="0.95344">
        <ele>83.84</ele>
        <time>2014-06-29T07:27:26Z</time>
      </trkpt>
      <trkpt lat="49.31807" lon="0.9535">
        <ele>83.62</ele>
        <time>2014-06-29T07:27:27Z</time>
      </trkpt>
      <trkpt lat="49.3181" lon="0.95362">
        <ele>83.29</ele>
        <time>2014-06-29T07:27:29Z</time>
      </trkpt>
      <trkpt lat="49.31837" lon="0.95373">
        <ele>80.92</ele>
        <time>2014-06-29T07:27:35Z</time>
      </trkpt>
      <trkpt lat="49.31848" lon="0.95382">
        <ele>80.55</ele>
        <time>2014-06-29T07:27:37Z</time>
      </trkpt>
      <trkpt lat="49.31866" lon="0.95395">
        <ele>79.04</ele>
        <time>2014-06-29T07:27:40Z</time>
      </trkpt>
      <trkpt lat="49.31903" lon="0.95418">
        <ele>76.56</ele>
        <time>2014-06-29T07:27:45Z</time>
      </trkpt>
      <trkpt lat="49.31945" lon="0.95429">
        <ele>74.16</ele>
        <time>2014-06-29T07:27:51Z</time>
      </trkpt>
      <trkpt lat="49.31972" lon="0.95427">
        <ele>71.67</ele>
        <time>2014-06-29T07:27:57Z</time>
      </trkpt>
      <trkpt lat="49.31972" lon="0.95429">
        <ele>71.39</ele>
        <time>2014-06-29T07:27:59Z</time>
      </trkpt>
      <trkpt lat="49.31974" lon="0.95447">
        <ele>71.02</ele>
        <time>2014-06-29T07:28:04Z</time>
      </trkpt>
      <trkpt lat="49.31975" lon="0.95464">
        <ele>71.95</ele>
        <time>2014-06-29T07:28:09Z</time>
      </trkpt>
      <trkpt lat="49.31976" lon="0.95483">
        <ele>75.15</ele>
        <time>2014-06-29T07:28:17Z</time>
      </trkpt>
      <trkpt lat="49.31976" lon="0.95489">
        <ele>77.3</ele>
        <time>2014-06-29T07:28:21Z</time>
      </trkpt>
      <trkpt lat="49.31975" lon="0.9549">
        <ele>78.09</ele>
        <time>2014-06-29T07:28:23Z</time>
      </trkpt>
      <trkpt lat="49.31971" lon="0.95507">
        <ele>79.5</ele>
        <time>2014-06-29T07:28:31Z</time>
      </trkpt>
      <trkpt lat="49.3197" lon="0.9552">
        <ele>80.31</ele>
        <time>2014-06-29T07:28:35Z</time>
      </trkpt>
      <trkpt lat="49.31972" lon="0.95551">
        <ele>79.95</ele>
        <time>2014-06-29T07:28:42Z</time>
      </trkpt>
      <trkpt lat="49.31967" lon="0.95582">
        <ele>80.24</ele>
        <time>2014-06-29T07:28:49Z</time>
      </trkpt>
      <trkpt lat="49.31964" lon="0.95616">
        <ele>79.87</ele>
        <time>2014-06-29T07:28:55Z</time>
      </trkpt>
      <trkpt lat="49.31968" lon="0.95669">
        <ele>77.76</ele>
        <time>2014-06-29T07:29:02Z</time>
      </trkpt>
      <trkpt lat="49.31969" lon="0.9572">
        <ele>74.13</ele>
        <time>2014-06-29T07:29:07Z</time>
      </trkpt>
      <trkpt lat="49.31972" lon="0.95751">
        <ele>70.89</ele>
        <time>2014-06-29T07:29:10Z</time>
      </trkpt>
      <trkpt lat="49.31975" lon="0.95794">
        <ele>69.19</ele>
        <time>2014-06-29T07:29:14Z</time>
      </trkpt>
      <trkpt lat="49.31976" lon="0.95829">
        <ele>67.87</ele>
        <time>2014-06-29T07:29:18Z</time>
      </trkpt>
      <trkpt lat="49.31978" lon="0.95852">
        <ele>68.09</ele>
        <time>2014-06-29T07:29:21Z</time>
      </trkpt>
      <trkpt lat="49.31976" lon="0.95899">
        <ele>67.76</ele>
        <time>2014-06-29T07:29:27Z</time>
      </trkpt>
      <trkpt lat="49.31968" lon="0.95949">
        <ele>67.73</ele>
        <time>2014-06-29T07:29:34Z</time>
      </trkpt>
      <trkpt lat="49.31965" lon="0.95988">
        <ele>68.53</ele>
        <time>2014-06-29T07:29:41Z</time>
      </trkpt>
      <trkpt lat="49.31968" lon="0.9602">
        <ele>69.08</ele>
        <time>2014-06-29T07:29:47Z</time>
      </trkpt>
      <trkpt lat="49.31967" lon="0.96048">
        <ele>69.96</ele>
        <time>2014-06-29T07:29:52Z</time>
      </trkpt>
      <trkpt lat="49.31964" lon="0.9608">
        <ele>71.41</ele>
        <time>2014-06-29T07:29:59Z</time>
      </trkpt>
      <trkpt lat="49.31961" lon="0.96114">
        <ele>73.19</ele>
        <time>2014-06-29T07:30:06Z</time>
      </trkpt>
      <trkpt lat="49.31958" lon="0.96139">
        <ele>74.65</ele>
        <time>2014-06-29T07:30:13Z</time>
      </trkpt>
      <trkpt lat="49.3196" lon="0.96169">
        <ele>76.28</ele>
        <time>2014-06-29T07:30:20Z</time>
      </trkpt>
      <trkpt lat="49.31967" lon="0.9619">
        <ele>77.8</ele>
        <time>2014-06-29T07:30:26Z</time>
      </trkpt>
      <trkpt lat="49.31969" lon="0.96196">
        <ele>78.46</ele>
        <time>2014-06-29T07:30:28Z</time>
      </trkpt>
      <trkpt lat="49.31964" lon="0.96218">
        <ele>80.41</ele>
        <time>2014-06-29T07:30:35Z</time>
      </trkpt>
      <trkpt lat="49.31959" lon="0.96242">
        <ele>82.97</ele>
        <time>2014-06-29T07:30:44Z</time>
      </trkpt>
      <trkpt lat="49.31951" lon="0.96269">
        <ele>83.73</ele>
        <time>2014-06-29T07:30:52Z</time>
      </trkpt>
      <trkpt lat="49.31943" lon="0.96295">
        <ele>85.26</ele>
        <time>2014-06-29T07:31:01Z</time>
      </trkpt>
      <trkpt lat="49.31938" lon="0.96321">
        <ele>85.94</ele>
        <time>2014-06-29T07:31:08Z</time>
      </trkpt>
      <trkpt lat="49.31929" lon="0.96346">
        <ele>86.73</ele>
        <time>2014-06-29T07:31:16Z</time>
      </trkpt>
      <trkpt lat="49.3192" lon="0.96359">
        <ele>88.02</ele>
        <time>2014-06-29T07:31:22Z</time>
      </trkpt>
      <trkpt lat="49.31912" lon="0.96362">
        <ele>89.51</ele>
        <time>2014-06-29T07:31:27Z</time>
      </trkpt>
      <trkpt lat="49.31895" lon="0.96367">
        <ele>91.32</ele>
        <time>2014-06-29T07:31:35Z</time>
      </trkpt>
      <trkpt lat="49.31877" lon="0.96378">
        <ele>93.02</ele>
        <time>2014-06-29T07:31:44Z</time>
      </trkpt>
      <trkpt lat="49.31859" lon="0.96382">
        <ele>94.73</ele>
        <time>2014-06-29T07:31:53Z</time>
      </trkpt>
      <trkpt lat="49.31842" lon="0.96387">
        <ele>95.65</ele>
        <time>2014-06-29T07:32:00Z</time>
      </trkpt>
      <trkpt lat="49.31831" lon="0.964">
        <ele>96.05</ele>
        <time>2014-06-29T07:32:06Z</time>
      </trkpt>
      <trkpt lat="49.31825" lon="0.96426">
        <ele>95.54</ele>
        <time>2014-06-29T07:32:12Z</time>
      </trkpt>
      <trkpt lat="49.31824" lon="0.9645">
        <ele>95.67</ele>
        <time>2014-06-29T07:32:17Z</time>
      </trkpt>
      <trkpt lat="49.31816" lon="0.96466">
        <ele>95.04</ele>
        <time>2014-06-29T07:32:22Z</time>
      </trkpt>
      <trkpt lat="49.31802" lon="0.96474">
        <ele>95.54</ele>
        <time>2014-06-29T07:32:28Z</time>
      </trkpt>
      <trkpt lat="49.318" lon="0.96476">
        <ele>95.69</ele>
        <time>2014-06-29T07:32:29Z</time>
      </trkpt>
      <trkpt lat="49.31794" lon="0.96499">
        <ele>96.52</ele>
        <time>2014-06-29T07:32:37Z</time>
      </trkpt>
      <trkpt lat="49.31793" lon="0.96493">
        <ele>96.65</ele>
        <time>2014-06-29T07:32:39Z</time>
      </trkpt>
      <trkpt lat="49.31791" lon="0.96483">
        <ele>96.66</ele>
        <time>2014-06-29T07:32:42Z</time>
      </trkpt>
      <trkpt lat="49.31778" lon="0.96479">
        <ele>97.47</ele>
        <time>2014-06-29T07:32:48Z</time>
      </trkpt>
      <trkpt lat="49.31759" lon="0.96483">
        <ele>98.61</ele>
        <time>2014-06-29T07:32:55Z</time>
      </trkpt>
      <trkpt lat="49.31739" lon="0.96491">
        <ele>99.36</ele>
        <time>2014-06-29T07:33:03Z</time>
      </trkpt>
      <trkpt lat="49.31727" lon="0.96508">
        <ele>100.16</ele>
        <time>2014-06-29T07:33:09Z</time>
      </trkpt>
      <trkpt lat="49.31723" lon="0.96535">
        <ele>100.3</ele>
        <time>2014-06-29T07:33:16Z</time>
      </trkpt>
      <trkpt lat="49.3172" lon="0.96557">
        <ele>99.8</ele>
        <time>2014-06-29T07:33:21Z</time>
      </trkpt>
      <trkpt lat="49.31705" lon="0.96568">
        <ele>99.97</ele>
        <time>2014-06-29T07:33:28Z</time>
      </trkpt>
      <trkpt lat="49.31688" lon="0.96579">
        <ele>100.41</ele>
        <time>2014-06-29T07:33:34Z</time>
      </trkpt>
      <trkpt lat="49.31684" lon="0.96595">
        <ele>99.76</ele>
        <time>2014-06-29T07:33:37Z</time>
      </trkpt>
      <trkpt lat="49.31676" lon="0.96622">
        <ele>98.65</ele>
        <time>2014-06-29T07:33:42Z</time>
      </trkpt>
      <trkpt lat="49.31688" lon="0.96638">
        <ele>97.97</ele>
        <time>2014-06-29T07:33:48Z</time>
      </trkpt>
      <trkpt lat="49.31703" lon="0.96656">
        <ele>97.4</ele>
        <time>2014-06-29T07:33:54Z</time>
      </trkpt>
      <trkpt lat="49.31706" lon="0.9666">
        <ele>97.19</ele>
        <time>2014-06-29T07:33:55Z</time>
      </trkpt>
      <trkpt lat="49.3172" lon="0.96679">
        <ele>95.66</ele>
        <time>2014-06-29T07:34:00Z</time>
      </trkpt>
      <trkpt lat="49.31736" lon="0.96704">
        <ele>93.8</ele>
        <time>2014-06-29T07:34:06Z</time>
      </trkpt>
      <trkpt lat="49.31743" lon="0.9671">
        <ele>94.19</ele>
        <time>2014-06-29T07:34:08Z</time>
      </trkpt>
      <trkpt lat="49.31764" lon="0.96756">
        <ele>92.36</ele>
        <time>2014-06-29T07:34:17Z</time>
      </trkpt>
      <trkpt lat="49.31774" lon="0.9677">
        <ele>91.6</ele>
        <time>2014-06-29T07:34:20Z</time>
      </trkpt>
      <trkpt lat="49.31793" lon="0.96793">
        <ele>90.72</ele>
        <time>2014-06-29T07:34:26Z</time>
      </trkpt>
      <trkpt lat="49.31795" lon="0.96797">
        <ele>90.42</ele>
        <time>2014-06-29T07:34:27Z</time>
      </trkpt>
      <trkpt lat="49.31804" lon="0.9681">
        <ele>89.17</ele>
        <time>2014-06-29T07:34:30Z</time>
      </trkpt>
      <trkpt lat="49.3182" lon="0.96828">
        <ele>87.83</ele>
        <time>2014-06-29T07:34:35Z</time>
      </trkpt>
      <trkpt lat="49.31829" lon="0.96841">
        <ele>88.05</ele>
        <time>2014-06-29T07:34:39Z</time>
      </trkpt>
      <trkpt lat="49.31843" lon="0.96868">
        <ele>85.48</ele>
        <time>2014-06-29T07:34:45Z</time>
      </trkpt>
      <trkpt lat="49.31853" lon="0.96888">
        <ele>83.19</ele>
        <time>2014-06-29T07:34:50Z</time>
      </trkpt>
      <trkpt lat="49.31854" lon="0.96891">
        <ele>82.7</ele>
        <time>2014-06-29T07:34:51Z</time>
      </trkpt>
      <trkpt lat="49.31863" lon="0.96908">
        <ele>81.37</ele>
        <time>2014-06-29T07:34:57Z</time>
      </trkpt>
      <trkpt lat="49.31865" lon="0.96909">
        <ele>81.9</ele>
        <time>2014-06-29T07:34:58Z</time>
      </trkpt>
      <trkpt lat="49.3187" lon="0.9691">
        <ele>83.02</ele>
        <time>2014-06-29T07:35:01Z</time>
      </trkpt>
      <trkpt lat="49.31879" lon="0.96893">
        <ele>85.2</ele>
        <time>2014-06-29T07:35:09Z</time>
      </trkpt>
      <trkpt lat="49.31883" lon="0.96872">
        <ele>86.17</ele>
        <time>2014-06-29T07:35:16Z</time>
      </trkpt>
      <trkpt lat="49.31896" lon="0.96853">
        <ele>86.66</ele>
        <time>2014-06-29T07:35:22Z</time>
      </trkpt>
      <trkpt lat="49.31916" lon="0.96835">
        <ele>85.24</ele>
        <time>2014-06-29T07:35:28Z</time>
      </trkpt>
      <trkpt lat="49.31936" lon="0.96824">
        <ele>83.48</ele>
        <time>2014-06-29T07:35:33Z</time>
      </trkpt>
      <trkpt lat="49.31945" lon="0.96815">
        <ele>82.38</ele>
        <time>2014-06-29T07:35:35Z</time>
      </trkpt>
      <trkpt lat="49.31983" lon="0.96773">
        <ele>79.2</ele>
        <time>2014-06-29T07:35:42Z</time>
      </trkpt>
      <trkpt lat="49.31997" lon="0.96762">
        <ele>77.81</ele>
        <time>2014-06-29T07:35:44Z</time>
      </trkpt>
      <trkpt lat="49.32023" lon="0.96737">
        <ele>73.63</ele>
        <time>2014-06-29T07:35:48Z</time>
      </trkpt>
      <trkpt lat="49.32037" lon="0.96726">
        <ele>70.47</ele>
        <time>2014-06-29T07:35:51Z</time>
      </trkpt>
      <trkpt lat="49.32054" lon="0.96706">
        <ele>67.1</ele>
        <time>2014-06-29T07:35:55Z</time>
      </trkpt>
      <trkpt lat="49.32088" lon="0.96677">
        <ele>62.19</ele>
        <time>2014-06-29T07:36:00Z</time>
      </trkpt>
      <trkpt lat="49.32102" lon="0.96664">
        <ele>59.44</ele>
        <time>2014-06-29T07:36:02Z</time>
      </trkpt>
      <trkpt lat="49.3212" lon="0.96653">
        <ele>54.81</ele>
        <time>2014-06-29T07:36:05Z</time>
      </trkpt>
      <trkpt lat="49.32131" lon="0.96643">
        <ele>51.52</ele>
        <time>2014-06-29T07:36:07Z</time>
      </trkpt>
      <trkpt lat="49.32143" lon="0.96634">
        <ele>48.2</ele>
        <time>2014-06-29T07:36:09Z</time>
      </trkpt>
      <trkpt lat="49.32155" lon="0.96622">
        <ele>45.18</ele>
        <time>2014-06-29T07:36:11Z</time>
      </trkpt>
      <trkpt lat="49.32168" lon="0.96616">
        <ele>42.32</ele>
        <time>2014-06-29T07:36:15Z</time>
      </trkpt>
      <trkpt lat="49.32172" lon="0.96628">
        <ele>42.06</ele>
        <time>2014-06-29T07:36:18Z</time>
      </trkpt>
      <trkpt lat="49.32176" lon="0.96655">
        <ele>41.61</ele>
        <time>2014-06-29T07:36:22Z</time>
      </trkpt>
      <trkpt lat="49.32192" lon="0.96687">
        <ele>41.11</ele>
        <time>2014-06-29T07:36:28Z</time>
      </trkpt>
      <trkpt lat="49.32194" lon="0.96688">
        <ele>41.47</ele>
        <time>2014-06-29T07:36:29Z</time>
      </trkpt>
      <trkpt lat="49.32207" lon="0.96693">
        <ele>43.98</ele>
        <time>2014-06-29T07:36:37Z</time>
      </trkpt>
      <trkpt lat="49.32207" lon="0.96693">
        <ele>44.62</ele>
        <time>2014-06-29T07:36:42Z</time>
      </trkpt>
      <trkpt lat="49.32213" lon="0.96692">
        <ele>47.62</ele>
        <time>2014-06-29T07:36:52Z</time>
      </trkpt>
      <trkpt lat="49.3222" lon="0.96686">
        <ele>50.52</ele>
        <time>2014-06-29T07:37:03Z</time>
      </trkpt>
      <trkpt lat="49.3222" lon="0.9668">
        <ele>51.33</ele>
        <time>2014-06-29T07:37:09Z</time>
      </trkpt>
      <trkpt lat="49.32222" lon="0.96654">
        <ele>53.58</ele>
        <time>2014-06-29T07:37:23Z</time>
      </trkpt>
      <trkpt lat="49.32216" lon="0.96635">
        <ele>54.3</ele>
        <time>2014-06-29T07:37:36Z</time>
      </trkpt>
      <trkpt lat="49.32214" lon="0.96615">
        <ele>56.04</ele>
        <time>2014-06-29T07:37:45Z</time>
      </trkpt>
      <trkpt lat="49.3221" lon="0.966">
        <ele>57.24</ele>
        <time>2014-06-29T07:37:54Z</time>
      </trkpt>
      <trkpt lat="49.32206" lon="0.96581">
        <ele>58.51</ele>
        <time>2014-06-29T07:38:01Z</time>
      </trkpt>
      <trkpt lat="49.32203" lon="0.96554">
        <ele>58.1</ele>
        <time>2014-06-29T07:38:08Z</time>
      </trkpt>
      <trkpt lat="49.32204" lon="0.96517">
        <ele>57.47</ele>
        <time>2014-06-29T07:38:16Z</time>
      </trkpt>
      <trkpt lat="49.32211" lon="0.96479">
        <ele>59.07</ele>
        <time>2014-06-29T07:38:25Z</time>
      </trkpt>
      <trkpt lat="49.32218" lon="0.96458">
        <ele>60.49</ele>
        <time>2014-06-29T07:38:31Z</time>
      </trkpt>
      <trkpt lat="49.32223" lon="0.96434">
        <ele>61.83</ele>
        <time>2014-06-29T07:38:38Z</time>
      </trkpt>
      <trkpt lat="49.32229" lon="0.96414">
        <ele>63.41</ele>
        <time>2014-06-29T07:38:44Z</time>
      </trkpt>
      <trkpt lat="49.32238" lon="0.96386">
        <ele>64.4</ele>
        <time>2014-06-29T07:38:52Z</time>
      </trkpt>
      <trkpt lat="49.32243" lon="0.96364">
        <ele>65.29</ele>
        <time>2014-06-29T07:38:58Z</time>
      </trkpt>
      <trkpt lat="49.3225" lon="0.96336">
        <ele>66.28</ele>
        <time>2014-06-29T07:39:06Z</time>
      </trkpt>
      <trkpt lat="49.32254" lon="0.96316">
        <ele>68.54</ele>
        <time>2014-06-29T07:39:14Z</time>
      </trkpt>
      <trkpt lat="49.32258" lon="0.963">
        <ele>70.17</ele>
        <time>2014-06-29T07:39:21Z</time>
      </trkpt>
      <trkpt lat="49.32262" lon="0.96275">
        <ele>71.89</ele>
        <time>2014-06-29T07:39:29Z</time>
      </trkpt>
      <trkpt lat="49.32261" lon="0.96267">
        <ele>72.42</ele>
        <time>2014-06-29T07:39:32Z</time>
      </trkpt>
      <trkpt lat="49.32261" lon="0.96242">
        <ele>74.34</ele>
        <time>2014-06-29T07:39:40Z</time>
      </trkpt>
      <trkpt lat="49.32264" lon="0.96207">
        <ele>74.02</ele>
        <time>2014-06-29T07:39:48Z</time>
      </trkpt>
      <trkpt lat="49.32266" lon="0.96191">
        <ele>75.53</ele>
        <time>2014-06-29T07:39:54Z</time>
      </trkpt>
      <trkpt lat="49.32263" lon="0.96181">
        <ele>76.94</ele>
        <time>2014-06-29T07:39:59Z</time>
      </trkpt>
      <trkpt lat="49.32253" lon="0.96163">
        <ele>77.31</ele>
        <time>2014-06-29T07:40:06Z</time>
      </trkpt>
      <trkpt lat="49.3224" lon="0.96141">
        <ele>77.3</ele>
        <time>2014-06-29T07:40:12Z</time>
      </trkpt>
      <trkpt lat="49.32238" lon="0.9612">
        <ele>77.08</ele>
        <time>2014-06-29T07:40:16Z</time>
      </trkpt>
      <trkpt lat="49.3224" lon="0.96105">
        <ele>78.57</ele>
        <time>2014-06-29T07:40:22Z</time>
      </trkpt>
      <trkpt lat="49.32245" lon="0.96093">
        <ele>80.93</ele>
        <time>2014-06-29T07:40:29Z</time>
      </trkpt>
      <trkpt lat="49.32253" lon="0.96081">
        <ele>83.61</ele>
        <time>2014-06-29T07:40:38Z</time>
      </trkpt>
      <trkpt lat="49.32255" lon="0.9608">
        <ele>84.19</ele>
        <time>2014-06-29T07:40:40Z</time>
      </trkpt>
      <trkpt lat="49.3227" lon="0.96064">
        <ele>85.48</ele>
        <time>2014-06-29T07:40:48Z</time>
      </trkpt>
      <trkpt lat="49.32284" lon="0.96048">
        <ele>87.06</ele>
        <time>2014-06-29T07:40:56Z</time>
      </trkpt>
      <trkpt lat="49.32299" lon="0.96027">
        <ele>88.37</ele>
        <time>2014-06-29T07:41:05Z</time>
      </trkpt>
      <trkpt lat="49.3231" lon="0.9601">
        <ele>88.96</ele>
        <time>2014-06-29T07:41:12Z</time>
      </trkpt>
      <trkpt lat="49.32323" lon="0.95991">
        <ele>90.1</ele>
        <time>2014-06-29T07:41:20Z</time>
      </trkpt>
      <trkpt lat="49.32336" lon="0.95971">
        <ele>91.24</ele>
        <time>2014-06-29T07:41:28Z</time>
      </trkpt>
      <trkpt lat="49.32346" lon="0.95955">
        <ele>93.53</ele>
        <time>2014-06-29T07:41:36Z</time>
      </trkpt>
      <trkpt lat="49.32354" lon="0.95942">
        <ele>94.89</ele>
        <time>2014-06-29T07:41:42Z</time>
      </trkpt>
      <trkpt lat="49.32365" lon="0.95923">
        <ele>96.96</ele>
        <time>2014-06-29T07:41:51Z</time>
      </trkpt>
      <trkpt lat="49.32367" lon="0.9592">
        <ele>97.55</ele>
        <time>2014-06-29T07:41:53Z</time>
      </trkpt>
      <trkpt lat="49.32374" lon="0.95899">
        <ele>99.44</ele>
        <time>2014-06-29T07:42:02Z</time>
      </trkpt>
      <trkpt lat="49.32382" lon="0.9588">
        <ele>101.42</ele>
        <time>2014-06-29T07:42:10Z</time>
      </trkpt>
      <trkpt lat="49.3239" lon="0.95862">
        <ele>103.23</ele>
        <time>2014-06-29T07:42:19Z</time>
      </trkpt>
      <trkpt lat="49.32399" lon="0.95847">
        <ele>104.83</ele>
        <time>2014-06-29T07:42:26Z</time>
      </trkpt>
      <trkpt lat="49.32403" lon="0.95842">
        <ele>105.21</ele>
        <time>2014-06-29T07:42:29Z</time>
      </trkpt>
      <trkpt lat="49.32414" lon="0.95836">
        <ele>107.7</ele>
        <time>2014-06-29T07:42:36Z</time>
      </trkpt>
      <trkpt lat="49.32419" lon="0.95838">
        <ele>108.53</ele>
        <time>2014-06-29T07:42:39Z</time>
      </trkpt>
      <trkpt lat="49.32429" lon="0.95858">
        <ele>109.6</ele>
        <time>2014-06-29T07:42:47Z</time>
      </trkpt>
      <trkpt lat="49.32432" lon="0.95876">
        <ele>109.77</ele>
        <time>2014-06-29T07:42:53Z</time>
      </trkpt>
      <trkpt lat="49.3243" lon="0.95911">
        <ele>109.15</ele>
        <time>2014-06-29T07:42:59Z</time>
      </trkpt>
      <trkpt lat="49.32426" lon="0.95931">
        <ele>108.58</ele>
        <time>2014-06-29T07:43:02Z</time>
      </trkpt>
      <trkpt lat="49.32424" lon="0.95961">
        <ele>107.75</ele>
        <time>2014-06-29T07:43:06Z</time>
      </trkpt>
      <trkpt lat="49.32416" lon="0.9601">
        <ele>105.93</ele>
        <time>2014-06-29T07:43:12Z</time>
      </trkpt>
      <trkpt lat="49.32415" lon="0.96019">
        <ele>105.73</ele>
        <time>2014-06-29T07:43:13Z</time>
      </trkpt>
      <trkpt lat="49.32397" lon="0.96088">
        <ele>103.51</ele>
        <time>2014-06-29T07:43:20Z</time>
      </trkpt>
      <trkpt lat="49.32388" lon="0.9614">
        <ele>101.88</ele>
        <time>2014-06-29T07:43:25Z</time>
      </trkpt>
      <trkpt lat="49.32378" lon="0.96178">
        <ele>100.77</ele>
        <time>2014-06-29T07:43:29Z</time>
      </trkpt>
      <trkpt lat="49.3237" lon="0.96208">
        <ele>101.07</ele>
        <time>2014-06-29T07:43:32Z</time>
      </trkpt>
      <trkpt lat="49.32365" lon="0.96236">
        <ele>101.01</ele>
        <time>2014-06-29T07:43:35Z</time>
      </trkpt>
      <trkpt lat="49.32355" lon="0.9628">
        <ele>100.28</ele>
        <time>2014-06-29T07:43:40Z</time>
      </trkpt>
      <trkpt lat="49.32354" lon="0.96314">
        <ele>99.47</ele>
        <time>2014-06-29T07:43:44Z</time>
      </trkpt>
      <trkpt lat="49.32339" lon="0.96396">
        <ele>98.2</ele>
        <time>2014-06-29T07:43:53Z</time>
      </trkpt>
      <trkpt lat="49.3233" lon="0.96469">
        <ele>97.18</ele>
        <time>2014-06-29T07:44:01Z</time>
      </trkpt>
      <trkpt lat="49.32326" lon="0.9653">
        <ele>95.93</ele>
        <time>2014-06-29T07:44:07Z</time>
      </trkpt>
      <trkpt lat="49.32324" lon="0.96541">
        <ele>95.54</ele>
        <time>2014-06-29T07:44:08Z</time>
      </trkpt>
      <trkpt lat="49.32326" lon="0.96584">
        <ele>94.03</ele>
        <time>2014-06-29T07:44:12Z</time>
      </trkpt>
      <trkpt lat="49.32333" lon="0.96627">
        <ele>93.11</ele>
        <time>2014-06-29T07:44:16Z</time>
      </trkpt>
      <trkpt lat="49.32337" lon="0.9666">
        <ele>92.87</ele>
        <time>2014-06-29T07:44:19Z</time>
      </trkpt>
      <trkpt lat="49.32349" lon="0.96714">
        <ele>94.13</ele>
        <time>2014-06-29T07:44:25Z</time>
      </trkpt>
      <trkpt lat="49.32354" lon="0.96754">
        <ele>95.3</ele>
        <time>2014-06-29T07:44:31Z</time>
      </trkpt>
      <trkpt lat="49.32353" lon="0.96777">
        <ele>96.35</ele>
        <time>2014-06-29T07:44:36Z</time>
      </trkpt>
      <trkpt lat="49.32353" lon="0.96788">
        <ele>96.48</ele>
        <time>2014-06-29T07:44:38Z</time>
      </trkpt>
      <trkpt lat="49.32353" lon="0.96811">
        <ele>96.95</ele>
        <time>2014-06-29T07:44:44Z</time>
      </trkpt>
      <trkpt lat="49.3235" lon="0.96823">
        <ele>96.57</ele>
        <time>2014-06-29T07:44:47Z</time>
      </trkpt>
      <trkpt lat="49.32345" lon="0.96869">
        <ele>96.15</ele>
        <time>2014-06-29T07:44:55Z</time>
      </trkpt>
      <trkpt lat="49.32341" lon="0.96894">
        <ele>96</ele>
        <time>2014-06-29T07:45:01Z</time>
      </trkpt>
      <trkpt lat="49.32332" lon="0.96913">
        <ele>95.46</ele>
        <time>2014-06-29T07:45:05Z</time>
      </trkpt>
      <trkpt lat="49.32329" lon="0.96937">
        <ele>94.97</ele>
        <time>2014-06-29T07:45:10Z</time>
      </trkpt>
      <trkpt lat="49.32324" lon="0.96964">
        <ele>95.37</ele>
        <time>2014-06-29T07:45:15Z</time>
      </trkpt>
      <trkpt lat="49.32329" lon="0.96981">
        <ele>95.81</ele>
        <time>2014-06-29T07:45:20Z</time>
      </trkpt>
      <trkpt lat="49.32326" lon="0.97009">
        <ele>95.04</ele>
        <time>2014-06-29T07:45:26Z</time>
      </trkpt>
      <trkpt lat="49.32325" lon="0.97036">
        <ele>94.78</ele>
        <time>2014-06-29T07:45:31Z</time>
      </trkpt>
      <trkpt lat="49.3232" lon="0.97062">
        <ele>92.21</ele>
        <time>2014-06-29T07:45:36Z</time>
      </trkpt>
      <trkpt lat="49.32319" lon="0.97066">
        <ele>92.02</ele>
        <time>2014-06-29T07:45:37Z</time>
      </trkpt>
      <trkpt lat="49.32322" lon="0.97079">
        <ele>90.56</ele>
        <time>2014-06-29T07:45:41Z</time>
      </trkpt>
      <trkpt lat="49.32322" lon="0.97087">
        <ele>89.63</ele>
        <time>2014-06-29T07:45:43Z</time>
      </trkpt>
      <trkpt lat="49.32329" lon="0.97113">
        <ele>87.36</ele>
        <time>2014-06-29T07:45:49Z</time>
      </trkpt>
      <trkpt lat="49.32339" lon="0.97145">
        <ele>83.87</ele>
        <time>2014-06-29T07:45:55Z</time>
      </trkpt>
      <trkpt lat="49.32345" lon="0.97166">
        <ele>80.65</ele>
        <time>2014-06-29T07:45:59Z</time>
      </trkpt>
      <trkpt lat="49.32354" lon="0.97181">
        <ele>77.73</ele>
        <time>2014-06-29T07:46:04Z</time>
      </trkpt>
      <trkpt lat="49.32356" lon="0.97183">
        <ele>77.51</ele>
        <time>2014-06-29T07:46:05Z</time>
      </trkpt>
      <trkpt lat="49.32364" lon="0.97193">
        <ele>76.44</ele>
        <time>2014-06-29T07:46:11Z</time>
      </trkpt>
      <trkpt lat="49.3237" lon="0.97203">
        <ele>77</ele>
        <time>2014-06-29T07:46:15Z</time>
      </trkpt>
      <trkpt lat="49.32388" lon="0.97223">
        <ele>76.09</ele>
        <time>2014-06-29T07:46:22Z</time>
      </trkpt>
      <trkpt lat="49.32402" lon="0.97248">
        <ele>74.65</ele>
        <time>2014-06-29T07:46:27Z</time>
      </trkpt>
      <trkpt lat="49.32418" lon="0.97269">
        <ele>71.34</ele>
        <time>2014-06-29T07:46:31Z</time>
      </trkpt>
      <trkpt lat="49.3242" lon="0.97271">
        <ele>71.06</ele>
        <time>2014-06-29T07:46:32Z</time>
      </trkpt>
      <trkpt lat="49.32429" lon="0.97284">
        <ele>68.84</ele>
        <time>2014-06-29T07:46:37Z</time>
      </trkpt>
      <trkpt lat="49.3244" lon="0.973">
        <ele>66.89</ele>
        <time>2014-06-29T07:46:41Z</time>
      </trkpt>
      <trkpt lat="49.32449" lon="0.97328">
        <ele>62.66</ele>
        <time>2014-06-29T07:46:48Z</time>
      </trkpt>
      <trkpt lat="49.32449" lon="0.97331">
        <ele>62.05</ele>
        <time>2014-06-29T07:46:49Z</time>
      </trkpt>
      <trkpt lat="49.32457" lon="0.97341">
        <ele>60.73</ele>
        <time>2014-06-29T07:46:52Z</time>
      </trkpt>
      <trkpt lat="49.32468" lon="0.97336">
        <ele>62.12</ele>
        <time>2014-06-29T07:46:58Z</time>
      </trkpt>
      <trkpt lat="49.32483" lon="0.97329">
        <ele>62.66</ele>
        <time>2014-06-29T07:47:04Z</time>
      </trkpt>
      <trkpt lat="49.32495" lon="0.97316">
        <ele>62.15</ele>
        <time>2014-06-29T07:47:09Z</time>
      </trkpt>
      <trkpt lat="49.32498" lon="0.97312">
        <ele>61.91</ele>
        <time>2014-06-29T07:47:10Z</time>
      </trkpt>
      <trkpt lat="49.3252" lon="0.97281">
        <ele>60.21</ele>
        <time>2014-06-29T07:47:15Z</time>
      </trkpt>
      <trkpt lat="49.32533" lon="0.97253">
        <ele>60.37</ele>
        <time>2014-06-29T07:47:21Z</time>
      </trkpt>
      <trkpt lat="49.32554" lon="0.9723">
        <ele>59.35</ele>
        <time>2014-06-29T07:47:28Z</time>
      </trkpt>
      <trkpt lat="49.32561" lon="0.97216">
        <ele>57.74</ele>
        <time>2014-06-29T07:47:33Z</time>
      </trkpt>
      <trkpt lat="49.32565" lon="0.97199">
        <ele>54.99</ele>
        <time>2014-06-29T07:47:38Z</time>
      </trkpt>
      <trkpt lat="49.32576" lon="0.97177">
        <ele>50.94</ele>
        <time>2014-06-29T07:47:44Z</time>
      </trkpt>
      <trkpt lat="49.32578" lon="0.97168">
        <ele>50.26</ele>
        <time>2014-06-29T07:47:46Z</time>
      </trkpt>
      <trkpt lat="49.32591" lon="0.97149">
        <ele>47.77</ele>
        <time>2014-06-29T07:47:52Z</time>
      </trkpt>
      <trkpt lat="49.326" lon="0.97136">
        <ele>45.49</ele>
        <time>2014-06-29T07:47:57Z</time>
      </trkpt>
      <trkpt lat="49.32606" lon="0.97126">
        <ele>44.25</ele>
        <time>2014-06-29T07:48:00Z</time>
      </trkpt>
      <trkpt lat="49.32614" lon="0.97104">
        <ele>43.33</ele>
        <time>2014-06-29T07:48:06Z</time>
      </trkpt>
      <trkpt lat="49.3261" lon="0.97092">
        <ele>44.03</ele>
        <time>2014-06-29T07:48:10Z</time>
      </trkpt>
      <trkpt lat="49.32604" lon="0.97069">
        <ele>46.04</ele>
        <time>2014-06-29T07:48:17Z</time>
      </trkpt>
      <trkpt lat="49.32602" lon="0.97055">
        <ele>47.29</ele>
        <time>2014-06-29T07:48:21Z</time>
      </trkpt>
      <trkpt lat="49.32602" lon="0.97027">
        <ele>50.09</ele>
        <time>2014-06-29T07:48:30Z</time>
      </trkpt>
      <trkpt lat="49.326" lon="0.97001">
        <ele>52.66</ele>
        <time>2014-06-29T07:48:39Z</time>
      </trkpt>
      <trkpt lat="49.32599" lon="0.96977">
        <ele>54.81</ele>
        <time>2014-06-29T07:48:47Z</time>
      </trkpt>
      <trkpt lat="49.32602" lon="0.96959">
        <ele>56.54</ele>
        <time>2014-06-29T07:48:53Z</time>
      </trkpt>
      <trkpt lat="49.326" lon="0.96938">
        <ele>58.74</ele>
        <time>2014-06-29T07:49:01Z</time>
      </trkpt>
      <trkpt lat="49.32602" lon="0.96913">
        <ele>61.25</ele>
        <time>2014-06-29T07:49:10Z</time>
      </trkpt>
      <trkpt lat="49.32601" lon="0.96889">
        <ele>63.73</ele>
        <time>2014-06-29T07:49:19Z</time>
      </trkpt>
      <trkpt lat="49.32603" lon="0.9687">
        <ele>66.25</ele>
        <time>2014-06-29T07:49:26Z</time>
      </trkpt>
      <trkpt lat="49.32603" lon="0.96861">
        <ele>67.26</ele>
        <time>2014-06-29T07:49:30Z</time>
      </trkpt>
      <trkpt lat="49.32606" lon="0.96842">
        <ele>69.16</ele>
        <time>2014-06-29T07:49:37Z</time>
      </trkpt>
      <trkpt lat="49.32605" lon="0.9682">
        <ele>71.13</ele>
        <time>2014-06-29T07:49:44Z</time>
      </trkpt>
      <trkpt lat="49.32605" lon="0.96817">
        <ele>71.41</ele>
        <time>2014-06-29T07:49:45Z</time>
      </trkpt>
      <trkpt lat="49.32602" lon="0.96789">
        <ele>73.53</ele>
        <time>2014-06-29T07:49:53Z</time>
      </trkpt>
      <trkpt lat="49.326" lon="0.96765">
        <ele>75.57</ele>
        <time>2014-06-29T07:50:01Z</time>
      </trkpt>
      <trkpt lat="49.32596" lon="0.96732">
        <ele>78.03</ele>
        <time>2014-06-29T07:50:11Z</time>
      </trkpt>
      <trkpt lat="49.32593" lon="0.96707">
        <ele>79.63</ele>
        <time>2014-06-29T07:50:19Z</time>
      </trkpt>
      <trkpt lat="49.32579" lon="0.96681">
        <ele>81.36</ele>
        <time>2014-06-29T07:50:26Z</time>
      </trkpt>
      <trkpt lat="49.32567" lon="0.96662">
        <ele>83.13</ele>
        <time>2014-06-29T07:50:34Z</time>
      </trkpt>
      <trkpt lat="49.32557" lon="0.96644">
        <ele>84.73</ele>
        <time>2014-06-29T07:50:41Z</time>
      </trkpt>
      <trkpt lat="49.32542" lon="0.9663">
        <ele>86.78</ele>
        <time>2014-06-29T07:50:49Z</time>
      </trkpt>
      <trkpt lat="49.32525" lon="0.96617">
        <ele>87.76</ele>
        <time>2014-06-29T07:50:54Z</time>
      </trkpt>
      <trkpt lat="49.32516" lon="0.96599">
        <ele>89.29</ele>
        <time>2014-06-29T07:51:01Z</time>
      </trkpt>
      <trkpt lat="49.32513" lon="0.96575">
        <ele>90.71</ele>
        <time>2014-06-29T07:51:08Z</time>
      </trkpt>
      <trkpt lat="49.32517" lon="0.96549">
        <ele>92.7</ele>
        <time>2014-06-29T07:51:16Z</time>
      </trkpt>
      <trkpt lat="49.32523" lon="0.96531">
        <ele>94.09</ele>
        <time>2014-06-29T07:51:22Z</time>
      </trkpt>
      <trkpt lat="49.32536" lon="0.96507">
        <ele>96.02</ele>
        <time>2014-06-29T07:51:30Z</time>
      </trkpt>
      <trkpt lat="49.32549" lon="0.96485">
        <ele>98.22</ele>
        <time>2014-06-29T07:51:39Z</time>
      </trkpt>
      <trkpt lat="49.32565" lon="0.96467">
        <ele>99.62</ele>
        <time>2014-06-29T07:51:47Z</time>
      </trkpt>
      <trkpt lat="49.32579" lon="0.96446">
        <ele>101.06</ele>
        <time>2014-06-29T07:51:55Z</time>
      </trkpt>
      <trkpt lat="49.32592" lon="0.96423">
        <ele>102.17</ele>
        <time>2014-06-29T07:52:02Z</time>
      </trkpt>
      <trkpt lat="49.32601" lon="0.96399">
        <ele>102.75</ele>
        <time>2014-06-29T07:52:09Z</time>
      </trkpt>
      <trkpt lat="49.32609" lon="0.96393">
        <ele>103.11</ele>
        <time>2014-06-29T07:52:15Z</time>
      </trkpt>
      <trkpt lat="49.32609" lon="0.96389">
        <ele>103.22</ele>
        <time>2014-06-29T07:52:18Z</time>
      </trkpt>
      <trkpt lat="49.32609" lon="0.9638">
        <ele>103.07</ele>
        <time>2014-06-29T07:52:29Z</time>
      </trkpt>
      <trkpt lat="49.32608" lon="0.9638">
        <ele>103</ele>
        <time>2014-06-29T07:52:45Z</time>
      </trkpt>
      <trkpt lat="49.3261" lon="0.96379">
        <ele>104.2</ele>
        <time>2014-06-29T07:52:59Z</time>
      </trkpt>
      <trkpt lat="49.32609" lon="0.96385">
        <ele>103.85</ele>
        <time>2014-06-29T07:53:11Z</time>
      </trkpt>
      <trkpt lat="49.32612" lon="0.96388">
        <ele>103.61</ele>
        <time>2014-06-29T07:53:18Z</time>
      </trkpt>
      <trkpt lat="49.32618" lon="0.96408">
        <ele>103.3</ele>
        <time>2014-06-29T07:53:24Z</time>
      </trkpt>
      <trkpt lat="49.32627" lon="0.96439">
        <ele>103.58</ele>
        <time>2014-06-29T07:53:31Z</time>
      </trkpt>
      <trkpt lat="49.32638" lon="0.96471">
        <ele>103.16</ele>
        <time>2014-06-29T07:53:39Z</time>
      </trkpt>
      <trkpt lat="49.32647" lon="0.96504">
        <ele>102.76</ele>
        <time>2014-06-29T07:53:45Z</time>
      </trkpt>
      <trkpt lat="49.32659" lon="0.96542">
        <ele>102.1</ele>
        <time>2014-06-29T07:53:52Z</time>
      </trkpt>
      <trkpt lat="49.32671" lon="0.96576">
        <ele>101.68</ele>
        <time>2014-06-29T07:53:57Z</time>
      </trkpt>
      <trkpt lat="49.32674" lon="0.96583">
        <ele>101.66</ele>
        <time>2014-06-29T07:53:58Z</time>
      </trkpt>
      <trkpt lat="49.32683" lon="0.96612">
        <ele>101.87</ele>
        <time>2014-06-29T07:54:03Z</time>
      </trkpt>
      <trkpt lat="49.32696" lon="0.96648">
        <ele>100.87</ele>
        <time>2014-06-29T07:54:09Z</time>
      </trkpt>
      <trkpt lat="49.32709" lon="0.96684">
        <ele>100.16</ele>
        <time>2014-06-29T07:54:15Z</time>
      </trkpt>
      <trkpt lat="49.32718" lon="0.96721">
        <ele>99.32</ele>
        <time>2014-06-29T07:54:20Z</time>
      </trkpt>
      <trkpt lat="49.32724" lon="0.96737">
        <ele>98.25</ele>
        <time>2014-06-29T07:54:22Z</time>
      </trkpt>
      <trkpt lat="49.32737" lon="0.9677">
        <ele>96.81</ele>
        <time>2014-06-29T07:54:29Z</time>
      </trkpt>
      <trkpt lat="49.32757" lon="0.96819">
        <ele>94.82</ele>
        <time>2014-06-29T07:54:36Z</time>
      </trkpt>
      <trkpt lat="49.32761" lon="0.96834">
        <ele>93.89</ele>
        <time>2014-06-29T07:54:38Z</time>
      </trkpt>
      <trkpt lat="49.32775" lon="0.9685">
        <ele>91.94</ele>
        <time>2014-06-29T07:54:42Z</time>
      </trkpt>
      <trkpt lat="49.32801" lon="0.96863">
        <ele>89.74</ele>
        <time>2014-06-29T07:54:47Z</time>
      </trkpt>
      <trkpt lat="49.32834" lon="0.96878">
        <ele>85.93</ele>
        <time>2014-06-29T07:54:53Z</time>
      </trkpt>
      <trkpt lat="49.32845" lon="0.96906">
        <ele>82.64</ele>
        <time>2014-06-29T07:54:59Z</time>
      </trkpt>
      <trkpt lat="49.32852" lon="0.9691">
        <ele>81.92</ele>
        <time>2014-06-29T07:55:01Z</time>
      </trkpt>
      <trkpt lat="49.32858" lon="0.96916">
        <ele>81.25</ele>
        <time>2014-06-29T07:55:03Z</time>
      </trkpt>
      <trkpt lat="49.32882" lon="0.96936">
        <ele>78.6</ele>
        <time>2014-06-29T07:55:10Z</time>
      </trkpt>
      <trkpt lat="49.32904" lon="0.96954">
        <ele>77.88</ele>
        <time>2014-06-29T07:55:17Z</time>
      </trkpt>
      <trkpt lat="49.32922" lon="0.96967">
        <ele>76.52</ele>
        <time>2014-06-29T07:55:22Z</time>
      </trkpt>
      <trkpt lat="49.32939" lon="0.96978">
        <ele>74.82</ele>
        <time>2014-06-29T07:55:29Z</time>
      </trkpt>
      <trkpt lat="49.32951" lon="0.96984">
        <ele>76.73</ele>
        <time>2014-06-29T07:55:35Z</time>
      </trkpt>
      <trkpt lat="49.32981" lon="0.96995">
        <ele>78.57</ele>
        <time>2014-06-29T07:55:44Z</time>
      </trkpt>
      <trkpt lat="49.3299" lon="0.96997">
        <ele>78.91</ele>
        <time>2014-06-29T07:55:47Z</time>
      </trkpt>
      <trkpt lat="49.33009" lon="0.97017">
        <ele>77.57</ele>
        <time>2014-06-29T07:55:53Z</time>
      </trkpt>
      <trkpt lat="49.33018" lon="0.97034">
        <ele>76.17</ele>
        <time>2014-06-29T07:55:56Z</time>
      </trkpt>
      <trkpt lat="49.33029" lon="0.9707">
        <ele>71.59</ele>
        <time>2014-06-29T07:56:02Z</time>
      </trkpt>
      <trkpt lat="49.33038" lon="0.97083">
        <ele>69.54</ele>
        <time>2014-06-29T07:56:05Z</time>
      </trkpt>
      <trkpt lat="49.33046" lon="0.97087">
        <ele>68.72</ele>
        <time>2014-06-29T07:56:07Z</time>
      </trkpt>
      <trkpt lat="49.33059" lon="0.97093">
        <ele>67.81</ele>
        <time>2014-06-29T07:56:11Z</time>
      </trkpt>
      <trkpt lat="49.33092" lon="0.97109">
        <ele>64.2</ele>
        <time>2014-06-29T07:56:18Z</time>
      </trkpt>
      <trkpt lat="49.33109" lon="0.97121">
        <ele>61.21</ele>
        <time>2014-06-29T07:56:23Z</time>
      </trkpt>
      <trkpt lat="49.33114" lon="0.97123">
        <ele>60.89</ele>
        <time>2014-06-29T07:56:25Z</time>
      </trkpt>
      <trkpt lat="49.33129" lon="0.97112">
        <ele>59.38</ele>
        <time>2014-06-29T07:56:31Z</time>
      </trkpt>
      <trkpt lat="49.33136" lon="0.9711">
        <ele>58.62</ele>
        <time>2014-06-29T07:56:36Z</time>
      </trkpt>
      <trkpt lat="49.3314" lon="0.97114">
        <ele>57.51</ele>
        <time>2014-06-29T07:56:38Z</time>
      </trkpt>
      <trkpt lat="49.33154" lon="0.9711">
        <ele>55.33</ele>
        <time>2014-06-29T07:56:42Z</time>
      </trkpt>
      <trkpt lat="49.33174" lon="0.97095">
        <ele>52.53</ele>
        <time>2014-06-29T07:56:47Z</time>
      </trkpt>
      <trkpt lat="49.3319" lon="0.97088">
        <ele>49.52</ele>
        <time>2014-06-29T07:56:51Z</time>
      </trkpt>
      <trkpt lat="49.33203" lon="0.9707">
        <ele>46.07</ele>
        <time>2014-06-29T07:56:57Z</time>
      </trkpt>
      <trkpt lat="49.33204" lon="0.97069">
        <ele>45.87</ele>
        <time>2014-06-29T07:56:58Z</time>
      </trkpt>
      <trkpt lat="49.33207" lon="0.97072">
        <ele>45.81</ele>
        <time>2014-06-29T07:57:01Z</time>
      </trkpt>
      <trkpt lat="49.33203" lon="0.971">
        <ele>46.1</ele>
        <time>2014-06-29T07:57:09Z</time>
      </trkpt>
      <trkpt lat="49.33206" lon="0.97109">
        <ele>45.49</ele>
        <time>2014-06-29T07:57:12Z</time>
      </trkpt>
      <trkpt lat="49.33195" lon="0.97122">
        <ele>45.81</ele>
        <time>2014-06-29T07:57:17Z</time>
      </trkpt>
      <trkpt lat="49.33182" lon="0.97131">
        <ele>45.75</ele>
        <time>2014-06-29T07:57:20Z</time>
      </trkpt>
      <trkpt lat="49.33175" lon="0.97138">
        <ele>45.66</ele>
        <time>2014-06-29T07:57:22Z</time>
      </trkpt>
      <trkpt lat="49.33152" lon="0.97152">
        <ele>45.96</ele>
        <time>2014-06-29T07:57:28Z</time>
      </trkpt>
      <trkpt lat="49.33136" lon="0.97159">
        <ele>46.26</ele>
        <time>2014-06-29T07:57:32Z</time>
      </trkpt>
      <trkpt lat="49.33097" lon="0.97148">
        <ele>47.39</ele>
        <time>2014-06-29T07:57:42Z</time>
      </trkpt>
      <trkpt lat="49.3308" lon="0.97145">
        <ele>47.35</ele>
        <time>2014-06-29T07:57:48Z</time>
      </trkpt>
      <trkpt lat="49.33052" lon="0.97138">
        <ele>46.91</ele>
        <time>2014-06-29T07:57:56Z</time>
      </trkpt>
      <trkpt lat="49.33028" lon="0.97134">
        <ele>46.45</ele>
        <time>2014-06-29T07:58:04Z</time>
      </trkpt>
      <trkpt lat="49.33005" lon="0.9713">
        <ele>46.97</ele>
        <time>2014-06-29T07:58:11Z</time>
      </trkpt>
      <trkpt lat="49.32993" lon="0.97128">
        <ele>46.13</ele>
        <time>2014-06-29T07:58:18Z</time>
      </trkpt>
      <trkpt lat="49.32987" lon="0.97128">
        <ele>46.08</ele>
        <time>2014-06-29T07:58:22Z</time>
      </trkpt>
      <trkpt lat="49.32986" lon="0.97132">
        <ele>46.88</ele>
        <time>2014-06-29T07:58:28Z</time>
      </trkpt>
      <trkpt lat="49.32987" lon="0.97133">
        <ele>47.43</ele>
        <time>2014-06-29T07:58:30Z</time>
      </trkpt>
      <trkpt lat="49.32992" lon="0.97139">
        <ele>49.37</ele>
        <time>2014-06-29T07:58:39Z</time>
      </trkpt>
      <trkpt lat="49.32997" lon="0.97143">
        <ele>50.61</ele>
        <time>2014-06-29T07:58:46Z</time>
      </trkpt>
      <trkpt lat="49.33" lon="0.97143">
        <ele>50.96</ele>
        <time>2014-06-29T07:58:48Z</time>
      </trkpt>
      <trkpt lat="49.33011" lon="0.97149">
        <ele>51.94</ele>
        <time>2014-06-29T07:58:56Z</time>
      </trkpt>
      <trkpt lat="49.33014" lon="0.97151">
        <ele>52.16</ele>
        <time>2014-06-29T07:58:58Z</time>
      </trkpt>
      <trkpt lat="49.33026" lon="0.97157">
        <ele>51.36</ele>
        <time>2014-06-29T07:59:04Z</time>
      </trkpt>
      <trkpt lat="49.33036" lon="0.97162">
        <ele>52.2</ele>
        <time>2014-06-29T07:59:11Z</time>
      </trkpt>
      <trkpt lat="49.33051" lon="0.97166">
        <ele>53.37</ele>
        <time>2014-06-29T07:59:18Z</time>
      </trkpt>
      <trkpt lat="49.33057" lon="0.97167">
        <ele>54.42</ele>
        <time>2014-06-29T07:59:21Z</time>
      </trkpt>
      <trkpt lat="49.3307" lon="0.97177">
        <ele>55.26</ele>
        <time>2014-06-29T07:59:28Z</time>
      </trkpt>
      <trkpt lat="49.33088" lon="0.97183">
        <ele>56.03</ele>
        <time>2014-06-29T07:59:34Z</time>
      </trkpt>
      <trkpt lat="49.33086" lon="0.97196">
        <ele>54.21</ele>
        <time>2014-06-29T07:59:38Z</time>
      </trkpt>
      <trkpt lat="49.33074" lon="0.97213">
        <ele>51.06</ele>
        <time>2014-06-29T07:59:43Z</time>
      </trkpt>
      <trkpt lat="49.33066" lon="0.97211">
        <ele>48.85</ele>
        <time>2014-06-29T07:59:47Z</time>
      </trkpt>
      <trkpt lat="49.33061" lon="0.97216">
        <ele>47.09</ele>
        <time>2014-06-29T07:59:50Z</time>
      </trkpt>
      <trkpt lat="49.33066" lon="0.97233">
        <ele>44.68</ele>
        <time>2014-06-29T07:59:56Z</time>
      </trkpt>
      <trkpt lat="49.33074" lon="0.97234">
        <ele>45.2</ele>
        <time>2014-06-29T08:00:02Z</time>
      </trkpt>
      <trkpt lat="49.33075" lon="0.97235">
        <ele>45.11</ele>
        <time>2014-06-29T08:00:03Z</time>
      </trkpt>
      <trkpt lat="49.33091" lon="0.97237">
        <ele>44.15</ele>
        <time>2014-06-29T08:00:09Z</time>
      </trkpt>
      <trkpt lat="49.33118" lon="0.97229">
        <ele>41.2</ele>
        <time>2014-06-29T08:00:16Z</time>
      </trkpt>
      <trkpt lat="49.33134" lon="0.97214">
        <ele>40.55</ele>
        <time>2014-06-29T08:00:22Z</time>
      </trkpt>
      <trkpt lat="49.33141" lon="0.97213">
        <ele>39.91</ele>
        <time>2014-06-29T08:00:25Z</time>
      </trkpt>
      <trkpt lat="49.33137" lon="0.97231">
        <ele>37.9</ele>
        <time>2014-06-29T08:00:30Z</time>
      </trkpt>
      <trkpt lat="49.33124" lon="0.97257">
        <ele>33.9</ele>
        <time>2014-06-29T08:00:37Z</time>
      </trkpt>
      <trkpt lat="49.33122" lon="0.97262">
        <ele>33.04</ele>
        <time>2014-06-29T08:00:38Z</time>
      </trkpt>
      <trkpt lat="49.33107" lon="0.97293">
        <ele>28.43</ele>
        <time>2014-06-29T08:00:44Z</time>
      </trkpt>
      <trkpt lat="49.33081" lon="0.97316">
        <ele>25.22</ele>
        <time>2014-06-29T08:00:52Z</time>
      </trkpt>
      <trkpt lat="49.33062" lon="0.97336">
        <ele>24.32</ele>
        <time>2014-06-29T08:00:58Z</time>
      </trkpt>
      <trkpt lat="49.33063" lon="0.97359">
        <ele>20.76</ele>
        <time>2014-06-29T08:01:02Z</time>
      </trkpt>
      <trkpt lat="49.33066" lon="0.97365">
        <ele>20.06</ele>
        <time>2014-06-29T08:01:04Z</time>
      </trkpt>
      <trkpt lat="49.33078" lon="0.97376">
        <ele>19.51</ele>
        <time>2014-06-29T08:01:08Z</time>
      </trkpt>
      <trkpt lat="49.33092" lon="0.9737">
        <ele>19.56</ele>
        <time>2014-06-29T08:01:12Z</time>
      </trkpt>
      <trkpt lat="49.331" lon="0.97365">
        <ele>19.27</ele>
        <time>2014-06-29T08:01:14Z</time>
      </trkpt>
      <trkpt lat="49.33116" lon="0.97341">
        <ele>19.42</ele>
        <time>2014-06-29T08:01:19Z</time>
      </trkpt>
      <trkpt lat="49.33125" lon="0.97334">
        <ele>19.97</ele>
        <time>2014-06-29T08:01:23Z</time>
      </trkpt>
      <trkpt lat="49.33141" lon="0.97312">
        <ele>20.92</ele>
        <time>2014-06-29T08:01:29Z</time>
      </trkpt>
      <trkpt lat="49.33155" lon="0.97295">
        <ele>21.91</ele>
        <time>2014-06-29T08:01:34Z</time>
      </trkpt>
      <trkpt lat="49.33172" lon="0.97284">
        <ele>22.65</ele>
        <time>2014-06-29T08:01:39Z</time>
      </trkpt>
      <trkpt lat="49.33193" lon="0.97263">
        <ele>24.59</ele>
        <time>2014-06-29T08:01:46Z</time>
      </trkpt>
      <trkpt lat="49.33202" lon="0.97247">
        <ele>25.68</ele>
        <time>2014-06-29T08:01:52Z</time>
      </trkpt>
      <trkpt lat="49.33206" lon="0.97239">
        <ele>26.31</ele>
        <time>2014-06-29T08:01:55Z</time>
      </trkpt>
      <trkpt lat="49.33215" lon="0.97217">
        <ele>28.24</ele>
        <time>2014-06-29T08:02:03Z</time>
      </trkpt>
      <trkpt lat="49.33216" lon="0.97211">
        <ele>28.96</ele>
        <time>2014-06-29T08:02:05Z</time>
      </trkpt>
      <trkpt lat="49.33222" lon="0.97194">
        <ele>30.37</ele>
        <time>2014-06-29T08:02:11Z</time>
      </trkpt>
      <trkpt lat="49.33228" lon="0.9718">
        <ele>31.7</ele>
        <time>2014-06-29T08:02:17Z</time>
      </trkpt>
      <trkpt lat="49.33236" lon="0.97164">
        <ele>33.01</ele>
        <time>2014-06-29T08:02:25Z</time>
      </trkpt>
      <trkpt lat="49.33241" lon="0.97148">
        <ele>33.89</ele>
        <time>2014-06-29T08:02:31Z</time>
      </trkpt>
      <trkpt lat="49.33252" lon="0.97126">
        <ele>34.38</ele>
        <time>2014-06-29T08:02:38Z</time>
      </trkpt>
      <trkpt lat="49.33256" lon="0.97117">
        <ele>34.52</ele>
        <time>2014-06-29T08:02:41Z</time>
      </trkpt>
      <trkpt lat="49.33265" lon="0.97092">
        <ele>34.3</ele>
        <time>2014-06-29T08:02:49Z</time>
      </trkpt>
      <trkpt lat="49.33272" lon="0.97064">
        <ele>34.2</ele>
        <time>2014-06-29T08:02:57Z</time>
      </trkpt>
      <trkpt lat="49.33272" lon="0.97061">
        <ele>34.36</ele>
        <time>2014-06-29T08:02:58Z</time>
      </trkpt>
      <trkpt lat="49.33276" lon="0.97046">
        <ele>34.97</ele>
        <time>2014-06-29T08:03:02Z</time>
      </trkpt>
      <trkpt lat="49.33284" lon="0.97014">
        <ele>36.61</ele>
        <time>2014-06-29T08:03:10Z</time>
      </trkpt>
      <trkpt lat="49.33285" lon="0.96987">
        <ele>38.54</ele>
        <time>2014-06-29T08:03:17Z</time>
      </trkpt>
      <trkpt lat="49.33284" lon="0.9698">
        <ele>39.01</ele>
        <time>2014-06-29T08:03:19Z</time>
      </trkpt>
      <trkpt lat="49.33281" lon="0.96959">
        <ele>40.69</ele>
        <time>2014-06-29T08:03:26Z</time>
      </trkpt>
      <trkpt lat="49.33281" lon="0.9693">
        <ele>42.35</ele>
        <time>2014-06-29T08:03:34Z</time>
      </trkpt>
      <trkpt lat="49.3328" lon="0.96914">
        <ele>42.86</ele>
        <time>2014-06-29T08:03:38Z</time>
      </trkpt>
      <trkpt lat="49.33291" lon="0.96888">
        <ele>43.7</ele>
        <time>2014-06-29T08:03:44Z</time>
      </trkpt>
      <trkpt lat="49.33287" lon="0.96868">
        <ele>44.57</ele>
        <time>2014-06-29T08:03:51Z</time>
      </trkpt>
      <trkpt lat="49.33284" lon="0.96847">
        <ele>45</ele>
        <time>2014-06-29T08:03:59Z</time>
      </trkpt>
      <trkpt lat="49.33286" lon="0.96827">
        <ele>45.26</ele>
        <time>2014-06-29T08:04:06Z</time>
      </trkpt>
      <trkpt lat="49.33287" lon="0.96822">
        <ele>45.18</ele>
        <time>2014-06-29T08:04:08Z</time>
      </trkpt>
      <trkpt lat="49.33289" lon="0.96811">
        <ele>44.76</ele>
        <time>2014-06-29T08:04:15Z</time>
      </trkpt>
      <trkpt lat="49.33286" lon="0.96796">
        <ele>46.7</ele>
        <time>2014-06-29T08:04:22Z</time>
      </trkpt>
      <trkpt lat="49.33284" lon="0.96787">
        <ele>46.73</ele>
        <time>2014-06-29T08:04:26Z</time>
      </trkpt>
      <trkpt lat="49.33285" lon="0.96783">
        <ele>46.44</ele>
        <time>2014-06-29T08:04:28Z</time>
      </trkpt>
      <trkpt lat="49.33287" lon="0.96769">
        <ele>46.42</ele>
        <time>2014-06-29T08:04:33Z</time>
      </trkpt>
      <trkpt lat="49.33289" lon="0.96737">
        <ele>46.35</ele>
        <time>2014-06-29T08:04:40Z</time>
      </trkpt>
      <trkpt lat="49.33287" lon="0.96704">
        <ele>46.15</ele>
        <time>2014-06-29T08:04:47Z</time>
      </trkpt>
      <trkpt lat="49.33282" lon="0.96685">
        <ele>46.6</ele>
        <time>2014-06-29T08:04:52Z</time>
      </trkpt>
      <trkpt lat="49.33281" lon="0.96682">
        <ele>46.69</ele>
        <time>2014-06-29T08:04:53Z</time>
      </trkpt>
      <trkpt lat="49.33277" lon="0.96654">
        <ele>46.09</ele>
        <time>2014-06-29T08:05:00Z</time>
      </trkpt>
      <trkpt lat="49.33271" lon="0.96645">
        <ele>46.19</ele>
        <time>2014-06-29T08:05:05Z</time>
      </trkpt>
      <trkpt lat="49.33269" lon="0.9662">
        <ele>45.15</ele>
        <time>2014-06-29T08:05:12Z</time>
      </trkpt>
      <trkpt lat="49.33268" lon="0.96615">
        <ele>46.22</ele>
        <time>2014-06-29T08:05:17Z</time>
      </trkpt>
      <trkpt lat="49.33267" lon="0.96609">
        <ele>48.07</ele>
        <time>2014-06-29T08:05:22Z</time>
      </trkpt>
      <trkpt lat="49.33263" lon="0.96607">
        <ele>48.64</ele>
        <time>2014-06-29T08:05:25Z</time>
      </trkpt>
      <trkpt lat="49.33252" lon="0.96612">
        <ele>50.09</ele>
        <time>2014-06-29T08:05:34Z</time>
      </trkpt>
      <trkpt lat="49.33247" lon="0.96619">
        <ele>51.41</ele>
        <time>2014-06-29T08:05:42Z</time>
      </trkpt>
      <trkpt lat="49.3324" lon="0.9663">
        <ele>53.25</ele>
        <time>2014-06-29T08:05:50Z</time>
      </trkpt>
      <trkpt lat="49.33233" lon="0.96643">
        <ele>54.91</ele>
        <time>2014-06-29T08:05:58Z</time>
      </trkpt>
      <trkpt lat="49.33226" lon="0.96654">
        <ele>56.61</ele>
        <time>2014-06-29T08:06:05Z</time>
      </trkpt>
      <trkpt lat="49.33222" lon="0.96659">
        <ele>58.16</ele>
        <time>2014-06-29T08:06:12Z</time>
      </trkpt>
      <trkpt lat="49.3322" lon="0.96656">
        <ele>59.33</ele>
        <time>2014-06-29T08:06:16Z</time>
      </trkpt>
      <trkpt lat="49.33212" lon="0.96638">
        <ele>59.71</ele>
        <time>2014-06-29T08:06:26Z</time>
      </trkpt>
      <trkpt lat="49.33199" lon="0.96619">
        <ele>60.5</ele>
        <time>2014-06-29T08:06:33Z</time>
      </trkpt>
      <trkpt lat="49.33189" lon="0.96598">
        <ele>61.54</ele>
        <time>2014-06-29T08:06:39Z</time>
      </trkpt>
      <trkpt lat="49.33183" lon="0.96574">
        <ele>62.15</ele>
        <time>2014-06-29T08:06:46Z</time>
      </trkpt>
      <trkpt lat="49.3317" lon="0.96543">
        <ele>62.67</ele>
        <time>2014-06-29T08:06:53Z</time>
      </trkpt>
      <trkpt lat="49.33164" lon="0.96515">
        <ele>62.65</ele>
        <time>2014-06-29T08:06:59Z</time>
      </trkpt>
      <trkpt lat="49.33157" lon="0.96497">
        <ele>61.4</ele>
        <time>2014-06-29T08:07:02Z</time>
      </trkpt>
      <trkpt lat="49.33144" lon="0.96448">
        <ele>60.29</ele>
        <time>2014-06-29T08:07:09Z</time>
      </trkpt>
      <trkpt lat="49.33139" lon="0.96434">
        <ele>60.25</ele>
        <time>2014-06-29T08:07:11Z</time>
      </trkpt>
      <trkpt lat="49.33127" lon="0.96396">
        <ele>59.01</ele>
        <time>2014-06-29T08:07:17Z</time>
      </trkpt>
      <trkpt lat="49.33122" lon="0.9637">
        <ele>58.48</ele>
        <time>2014-06-29T08:07:21Z</time>
      </trkpt>
      <trkpt lat="49.33118" lon="0.96356">
        <ele>57.77</ele>
        <time>2014-06-29T08:07:23Z</time>
      </trkpt>
      <trkpt lat="49.3311" lon="0.96324">
        <ele>55.96</ele>
        <time>2014-06-29T08:07:28Z</time>
      </trkpt>
      <trkpt lat="49.33112" lon="0.9632">
        <ele>55.99</ele>
        <time>2014-06-29T08:07:29Z</time>
      </trkpt>
      <trkpt lat="49.33119" lon="0.96301">
        <ele>55.69</ele>
        <time>2014-06-29T08:07:35Z</time>
      </trkpt>
      <trkpt lat="49.33134" lon="0.96282">
        <ele>57.46</ele>
        <time>2014-06-29T08:07:43Z</time>
      </trkpt>
      <trkpt lat="49.33136" lon="0.96278">
        <ele>57.61</ele>
        <time>2014-06-29T08:07:44Z</time>
      </trkpt>
      <trkpt lat="49.33149" lon="0.9625">
        <ele>59.52</ele>
        <time>2014-06-29T08:07:51Z</time>
      </trkpt>
      <trkpt lat="49.33154" lon="0.96221">
        <ele>60.24</ele>
        <time>2014-06-29T08:07:57Z</time>
      </trkpt>
      <trkpt lat="49.33146" lon="0.9618">
        <ele>62.75</ele>
        <time>2014-06-29T08:08:06Z</time>
      </trkpt>
      <trkpt lat="49.33136" lon="0.96152">
        <ele>64.11</ele>
        <time>2014-06-29T08:08:13Z</time>
      </trkpt>
      <trkpt lat="49.33124" lon="0.96129">
        <ele>66.75</ele>
        <time>2014-06-29T08:08:21Z</time>
      </trkpt>
      <trkpt lat="49.33123" lon="0.96107">
        <ele>66.36</ele>
        <time>2014-06-29T08:08:27Z</time>
      </trkpt>
      <trkpt lat="49.33119" lon="0.96081">
        <ele>63.2</ele>
        <time>2014-06-29T08:08:33Z</time>
      </trkpt>
      <trkpt lat="49.33119" lon="0.96077">
        <ele>62.98</ele>
        <time>2014-06-29T08:08:34Z</time>
      </trkpt>
      <trkpt lat="49.33116" lon="0.96044">
        <ele>59.71</ele>
        <time>2014-06-29T08:08:39Z</time>
      </trkpt>
      <trkpt lat="49.33116" lon="0.96005">
        <ele>54.64</ele>
        <time>2014-06-29T08:08:44Z</time>
      </trkpt>
      <trkpt lat="49.33117" lon="0.95987">
        <ele>53.79</ele>
        <time>2014-06-29T08:08:46Z</time>
      </trkpt>
      <trkpt lat="49.33121" lon="0.95972">
        <ele>52.4</ele>
        <time>2014-06-29T08:08:48Z</time>
      </trkpt>
      <trkpt lat="49.33127" lon="0.95957">
        <ele>51.1</ele>
        <time>2014-06-29T08:08:50Z</time>
      </trkpt>
      <trkpt lat="49.33134" lon="0.9594">
        <ele>50.11</ele>
        <time>2014-06-29T08:08:52Z</time>
      </trkpt>
      <trkpt lat="49.3315" lon="0.95881">
        <ele>46.09</ele>
        <time>2014-06-29T08:08:58Z</time>
      </trkpt>
      <trkpt lat="49.33152" lon="0.95872">
        <ele>45.87</ele>
        <time>2014-06-29T08:08:59Z</time>
      </trkpt>
      <trkpt lat="49.3316" lon="0.95844">
        <ele>44.85</ele>
        <time>2014-06-29T08:09:02Z</time>
      </trkpt>
      <trkpt lat="49.3317" lon="0.95802">
        <ele>44.38</ele>
        <time>2014-06-29T08:09:07Z</time>
      </trkpt>
      <trkpt lat="49.33172" lon="0.95789">
        <ele>43.66</ele>
        <time>2014-06-29T08:09:09Z</time>
      </trkpt>
      <trkpt lat="49.33186" lon="0.95745">
        <ele>44.39</ele>
        <time>2014-06-29T08:09:17Z</time>
      </trkpt>
      <trkpt lat="49.33188" lon="0.95739">
        <ele>44.07</ele>
        <time>2014-06-29T08:09:18Z</time>
      </trkpt>
      <trkpt lat="49.33208" lon="0.95696">
        <ele>44.33</ele>
        <time>2014-06-29T08:09:27Z</time>
      </trkpt>
      <trkpt lat="49.33225" lon="0.95673">
        <ele>44.14</ele>
        <time>2014-06-29T08:09:33Z</time>
      </trkpt>
      <trkpt lat="49.33244" lon="0.95645">
        <ele>42.91</ele>
        <time>2014-06-29T08:09:39Z</time>
      </trkpt>
      <trkpt lat="49.3326" lon="0.95624">
        <ele>42.45</ele>
        <time>2014-06-29T08:09:44Z</time>
      </trkpt>
      <trkpt lat="49.33289" lon="0.95602">
        <ele>41.7</ele>
        <time>2014-06-29T08:09:52Z</time>
      </trkpt>
      <trkpt lat="49.33294" lon="0.95587">
        <ele>42.2</ele>
        <time>2014-06-29T08:09:57Z</time>
      </trkpt>
      <trkpt lat="49.33296" lon="0.95582">
        <ele>42.51</ele>
        <time>2014-06-29T08:09:59Z</time>
      </trkpt>
      <trkpt lat="49.33308" lon="0.95577">
        <ele>42.7</ele>
        <time>2014-06-29T08:10:06Z</time>
      </trkpt>
      <trkpt lat="49.33311" lon="0.95576">
        <ele>42.67</ele>
        <time>2014-06-29T08:10:07Z</time>
      </trkpt>
      <trkpt lat="49.33317" lon="0.95569">
        <ele>42.93</ele>
        <time>2014-06-29T08:10:11Z</time>
      </trkpt>
      <trkpt lat="49.3332" lon="0.95556">
        <ele>44.28</ele>
        <time>2014-06-29T08:10:18Z</time>
      </trkpt>
      <trkpt lat="49.33331" lon="0.95542">
        <ele>44.3</ele>
        <time>2014-06-29T08:10:24Z</time>
      </trkpt>
      <trkpt lat="49.33334" lon="0.95532">
        <ele>45.53</ele>
        <time>2014-06-29T08:10:28Z</time>
      </trkpt>
      <trkpt lat="49.33332" lon="0.95519">
        <ele>46.13</ele>
        <time>2014-06-29T08:10:33Z</time>
      </trkpt>
      <trkpt lat="49.33327" lon="0.95496">
        <ele>47.58</ele>
        <time>2014-06-29T08:10:41Z</time>
      </trkpt>
      <trkpt lat="49.33325" lon="0.95474">
        <ele>49.09</ele>
        <time>2014-06-29T08:10:48Z</time>
      </trkpt>
      <trkpt lat="49.33323" lon="0.9547">
        <ele>49.83</ele>
        <time>2014-06-29T08:10:50Z</time>
      </trkpt>
      <trkpt lat="49.33317" lon="0.95451">
        <ele>52.75</ele>
        <time>2014-06-29T08:11:00Z</time>
      </trkpt>
      <trkpt lat="49.33317" lon="0.95449">
        <ele>53.16</ele>
        <time>2014-06-29T08:11:01Z</time>
      </trkpt>
      <trkpt lat="49.33321" lon="0.95442">
        <ele>54.98</ele>
        <time>2014-06-29T08:11:08Z</time>
      </trkpt>
      <trkpt lat="49.33323" lon="0.95447">
        <ele>54.86</ele>
        <time>2014-06-29T08:11:15Z</time>
      </trkpt>
      <trkpt lat="49.33325" lon="0.95447">
        <ele>55.17</ele>
        <time>2014-06-29T08:11:19Z</time>
      </trkpt>
      <trkpt lat="49.33342" lon="0.95441">
        <ele>56.57</ele>
        <time>2014-06-29T08:11:25Z</time>
      </trkpt>
      <trkpt lat="49.33349" lon="0.95433">
        <ele>58.02</ele>
        <time>2014-06-29T08:11:30Z</time>
      </trkpt>
      <trkpt lat="49.33353" lon="0.95425">
        <ele>60.29</ele>
        <time>2014-06-29T08:11:39Z</time>
      </trkpt>
      <trkpt lat="49.33354" lon="0.95412">
        <ele>62.59</ele>
        <time>2014-06-29T08:11:51Z</time>
      </trkpt>
      <trkpt lat="49.33354" lon="0.95399">
        <ele>65.28</ele>
        <time>2014-06-29T08:12:02Z</time>
      </trkpt>
      <trkpt lat="49.33352" lon="0.95388">
        <ele>68.31</ele>
        <time>2014-06-29T08:12:13Z</time>
      </trkpt>
      <trkpt lat="49.3335" lon="0.95386">
        <ele>69.28</ele>
        <time>2014-06-29T08:12:17Z</time>
      </trkpt>
      <trkpt lat="49.33348" lon="0.95376">
        <ele>69.96</ele>
        <time>2014-06-29T08:12:23Z</time>
      </trkpt>
      <trkpt lat="49.33348" lon="0.95363">
        <ele>72.56</ele>
        <time>2014-06-29T08:12:35Z</time>
      </trkpt>
      <trkpt lat="49.33342" lon="0.95343">
        <ele>74.77</ele>
        <time>2014-06-29T08:12:51Z</time>
      </trkpt>
      <trkpt lat="49.33337" lon="0.95333">
        <ele>75.4</ele>
        <time>2014-06-29T08:12:55Z</time>
      </trkpt>
      <trkpt lat="49.33316" lon="0.95312">
        <ele>78.04</ele>
        <time>2014-06-29T08:13:09Z</time>
      </trkpt>
      <trkpt lat="49.33301" lon="0.95301">
        <ele>79.62</ele>
        <time>2014-06-29T08:13:21Z</time>
      </trkpt>
      <trkpt lat="49.33285" lon="0.95279">
        <ele>82.32</ele>
        <time>2014-06-29T08:13:32Z</time>
      </trkpt>
      <trkpt lat="49.33283" lon="0.95273">
        <ele>83.38</ele>
        <time>2014-06-29T08:13:36Z</time>
      </trkpt>
      <trkpt lat="49.33278" lon="0.95267">
        <ele>84.11</ele>
        <time>2014-06-29T08:13:41Z</time>
      </trkpt>
      <trkpt lat="49.33273" lon="0.95254">
        <ele>85.83</ele>
        <time>2014-06-29T08:13:49Z</time>
      </trkpt>
      <trkpt lat="49.33272" lon="0.95252">
        <ele>86.14</ele>
        <time>2014-06-29T08:13:50Z</time>
      </trkpt>
      <trkpt lat="49.33264" lon="0.95243">
        <ele>88.28</ele>
        <time>2014-06-29T08:13:58Z</time>
      </trkpt>
      <trkpt lat="49.33255" lon="0.95237">
        <ele>89.21</ele>
        <time>2014-06-29T08:14:05Z</time>
      </trkpt>
      <trkpt lat="49.33243" lon="0.95227">
        <ele>90.18</ele>
        <time>2014-06-29T08:14:13Z</time>
      </trkpt>
      <trkpt lat="49.33226" lon="0.9522">
        <ele>90.23</ele>
        <time>2014-06-29T08:14:21Z</time>
      </trkpt>
      <trkpt lat="49.33217" lon="0.95217">
        <ele>90.62</ele>
        <time>2014-06-29T08:14:27Z</time>
      </trkpt>
      <trkpt lat="49.33202" lon="0.95217">
        <ele>90.27</ele>
        <time>2014-06-29T08:14:33Z</time>
      </trkpt>
      <trkpt lat="49.33185" lon="0.95204">
        <ele>90.19</ele>
        <time>2014-06-29T08:14:39Z</time>
      </trkpt>
      <trkpt lat="49.33173" lon="0.95188">
        <ele>91.83</ele>
        <time>2014-06-29T08:14:46Z</time>
      </trkpt>
      <trkpt lat="49.3317" lon="0.95181">
        <ele>92.34</ele>
        <time>2014-06-29T08:14:49Z</time>
      </trkpt>
      <trkpt lat="49.3316" lon="0.95172">
        <ele>92.6</ele>
        <time>2014-06-29T08:14:54Z</time>
      </trkpt>
      <trkpt lat="49.33149" lon="0.95147">
        <ele>93.5</ele>
        <time>2014-06-29T08:15:01Z</time>
      </trkpt>
      <trkpt lat="49.33145" lon="0.9513">
        <ele>94.24</ele>
        <time>2014-06-29T08:15:06Z</time>
      </trkpt>
      <trkpt lat="49.33146" lon="0.95119">
        <ele>95.23</ele>
        <time>2014-06-29T08:15:10Z</time>
      </trkpt>
      <trkpt lat="49.33144" lon="0.95104">
        <ele>95.58</ele>
        <time>2014-06-29T08:15:16Z</time>
      </trkpt>
      <trkpt lat="49.33143" lon="0.95104">
        <ele>95.52</ele>
        <time>2014-06-29T08:15:17Z</time>
      </trkpt>
      <trkpt lat="49.33125" lon="0.95098">
        <ele>92</ele>
        <time>2014-06-29T08:15:24Z</time>
      </trkpt>
      <trkpt lat="49.3312" lon="0.95095">
        <ele>90.08</ele>
        <time>2014-06-29T08:15:25Z</time>
      </trkpt>
      <trkpt lat="49.33104" lon="0.95088">
        <ele>87.78</ele>
        <time>2014-06-29T08:15:28Z</time>
      </trkpt>
      <trkpt lat="49.33084" lon="0.95075">
        <ele>89.3</ele>
        <time>2014-06-29T08:15:34Z</time>
      </trkpt>
      <trkpt lat="49.33071" lon="0.95082">
        <ele>90.14</ele>
        <time>2014-06-29T08:15:40Z</time>
      </trkpt>
      <trkpt lat="49.33062" lon="0.95086">
        <ele>89.89</ele>
        <time>2014-06-29T08:15:45Z</time>
      </trkpt>
      <trkpt lat="49.33051" lon="0.9508">
        <ele>90.32</ele>
        <time>2014-06-29T08:15:50Z</time>
      </trkpt>
      <trkpt lat="49.33037" lon="0.95075">
        <ele>90.59</ele>
        <time>2014-06-29T08:15:56Z</time>
      </trkpt>
      <trkpt lat="49.33033" lon="0.95073">
        <ele>90.55</ele>
        <time>2014-06-29T08:15:58Z</time>
      </trkpt>
      <trkpt lat="49.33018" lon="0.95065">
        <ele>91.74</ele>
        <time>2014-06-29T08:16:07Z</time>
      </trkpt>
      <trkpt lat="49.33013" lon="0.9506">
        <ele>91.61</ele>
        <time>2014-06-29T08:16:09Z</time>
      </trkpt>
      <trkpt lat="49.33008" lon="0.95042">
        <ele>93.12</ele>
        <time>2014-06-29T08:16:15Z</time>
      </trkpt>
      <trkpt lat="49.3301" lon="0.95027">
        <ele>93.98</ele>
        <time>2014-06-29T08:16:19Z</time>
      </trkpt>
      <trkpt lat="49.33014" lon="0.94991">
        <ele>95.53</ele>
        <time>2014-06-29T08:16:28Z</time>
      </trkpt>
      <trkpt lat="49.33018" lon="0.94965">
        <ele>96.1</ele>
        <time>2014-06-29T08:16:34Z</time>
      </trkpt>
      <trkpt lat="49.33017" lon="0.94936">
        <ele>96.55</ele>
        <time>2014-06-29T08:16:41Z</time>
      </trkpt>
      <trkpt lat="49.33022" lon="0.94904">
        <ele>97.2</ele>
        <time>2014-06-29T08:16:48Z</time>
      </trkpt>
      <trkpt lat="49.33027" lon="0.94877">
        <ele>97.28</ele>
        <time>2014-06-29T08:16:54Z</time>
      </trkpt>
      <trkpt lat="49.33034" lon="0.94848">
        <ele>98</ele>
        <time>2014-06-29T08:17:00Z</time>
      </trkpt>
      <trkpt lat="49.33037" lon="0.94827">
        <ele>97.47</ele>
        <time>2014-06-29T08:17:06Z</time>
      </trkpt>
      <trkpt lat="49.33038" lon="0.94802">
        <ele>97.73</ele>
        <time>2014-06-29T08:17:12Z</time>
      </trkpt>
      <trkpt lat="49.33043" lon="0.94768">
        <ele>98.06</ele>
        <time>2014-06-29T08:17:19Z</time>
      </trkpt>
      <trkpt lat="49.33046" lon="0.94731">
        <ele>97.09</ele>
        <time>2014-06-29T08:17:27Z</time>
      </trkpt>
      <trkpt lat="49.33047" lon="0.94725">
        <ele>96.97</ele>
        <time>2014-06-29T08:17:28Z</time>
      </trkpt>
      <trkpt lat="49.33058" lon="0.94676">
        <ele>97.3</ele>
        <time>2014-06-29T08:17:35Z</time>
      </trkpt>
      <trkpt lat="49.33061" lon="0.94654">
        <ele>97.77</ele>
        <time>2014-06-29T08:17:41Z</time>
      </trkpt>
      <trkpt lat="49.33065" lon="0.94632">
        <ele>98.19</ele>
        <time>2014-06-29T08:17:46Z</time>
      </trkpt>
      <trkpt lat="49.33073" lon="0.94596">
        <ele>97.93</ele>
        <time>2014-06-29T08:17:52Z</time>
      </trkpt>
      <trkpt lat="49.33073" lon="0.94582">
        <ele>97.79</ele>
        <time>2014-06-29T08:17:54Z</time>
      </trkpt>
      <trkpt lat="49.33083" lon="0.9453">
        <ele>96.11</ele>
        <time>2014-06-29T08:18:00Z</time>
      </trkpt>
      <trkpt lat="49.33087" lon="0.94493">
        <ele>94.87</ele>
        <time>2014-06-29T08:18:04Z</time>
      </trkpt>
      <trkpt lat="49.33093" lon="0.9445">
        <ele>93.42</ele>
        <time>2014-06-29T08:18:08Z</time>
      </trkpt>
      <trkpt lat="49.33106" lon="0.94372">
        <ele>91.29</ele>
        <time>2014-06-29T08:18:15Z</time>
      </trkpt>
      <trkpt lat="49.33111" lon="0.9434">
        <ele>89.81</ele>
        <time>2014-06-29T08:18:18Z</time>
      </trkpt>
      <trkpt lat="49.33116" lon="0.94307">
        <ele>88.18</ele>
        <time>2014-06-29T08:18:21Z</time>
      </trkpt>
      <trkpt lat="49.33121" lon="0.94258">
        <ele>84.39</ele>
        <time>2014-06-29T08:18:27Z</time>
      </trkpt>
      <trkpt lat="49.33123" lon="0.94247">
        <ele>83.34</ele>
        <time>2014-06-29T08:18:29Z</time>
      </trkpt>
      <trkpt lat="49.33128" lon="0.94206">
        <ele>81.68</ele>
        <time>2014-06-29T08:18:36Z</time>
      </trkpt>
      <trkpt lat="49.33135" lon="0.94168">
        <ele>81.76</ele>
        <time>2014-06-29T08:18:43Z</time>
      </trkpt>
      <trkpt lat="49.33141" lon="0.94142">
        <ele>82.43</ele>
        <time>2014-06-29T08:18:50Z</time>
      </trkpt>
      <trkpt lat="49.33145" lon="0.94115">
        <ele>85.09</ele>
        <time>2014-06-29T08:18:58Z</time>
      </trkpt>
      <trkpt lat="49.33144" lon="0.94101">
        <ele>86.45</ele>
        <time>2014-06-29T08:19:03Z</time>
      </trkpt>
      <trkpt lat="49.33151" lon="0.94076">
        <ele>87.74</ele>
        <time>2014-06-29T08:19:10Z</time>
      </trkpt>
      <trkpt lat="49.33154" lon="0.94042">
        <ele>88.28</ele>
        <time>2014-06-29T08:19:17Z</time>
      </trkpt>
      <trkpt lat="49.33154" lon="0.94017">
        <ele>88.32</ele>
        <time>2014-06-29T08:19:22Z</time>
      </trkpt>
      <trkpt lat="49.33156" lon="0.94003">
        <ele>87.57</ele>
        <time>2014-06-29T08:19:24Z</time>
      </trkpt>
      <trkpt lat="49.33162" lon="0.93978">
        <ele>84.26</ele>
        <time>2014-06-29T08:19:27Z</time>
      </trkpt>
      <trkpt lat="49.33167" lon="0.93955">
        <ele>80.23</ele>
        <time>2014-06-29T08:19:30Z</time>
      </trkpt>
      <trkpt lat="49.33171" lon="0.93943">
        <ele>79.25</ele>
        <time>2014-06-29T08:19:32Z</time>
      </trkpt>
      <trkpt lat="49.33175" lon="0.93918">
        <ele>77.65</ele>
        <time>2014-06-29T08:19:35Z</time>
      </trkpt>
      <trkpt lat="49.33176" lon="0.93901">
        <ele>76.71</ele>
        <time>2014-06-29T08:19:37Z</time>
      </trkpt>
      <trkpt lat="49.33186" lon="0.93873">
        <ele>73.76</ele>
        <time>2014-06-29T08:19:42Z</time>
      </trkpt>
      <trkpt lat="49.33188" lon="0.93859">
        <ele>71.78</ele>
        <time>2014-06-29T08:19:46Z</time>
      </trkpt>
      <trkpt lat="49.3319" lon="0.93848">
        <ele>71.56</ele>
        <time>2014-06-29T08:19:49Z</time>
      </trkpt>
      <trkpt lat="49.33198" lon="0.93816">
        <ele>69.81</ele>
        <time>2014-06-29T08:19:55Z</time>
      </trkpt>
      <trkpt lat="49.33197" lon="0.93789">
        <ele>66.92</ele>
        <time>2014-06-29T08:20:00Z</time>
      </trkpt>
      <trkpt lat="49.33195" lon="0.9378">
        <ele>66.15</ele>
        <time>2014-06-29T08:20:02Z</time>
      </trkpt>
      <trkpt lat="49.33195" lon="0.93751">
        <ele>63.6</ele>
        <time>2014-06-29T08:20:08Z</time>
      </trkpt>
      <trkpt lat="49.33197" lon="0.93746">
        <ele>63.01</ele>
        <time>2014-06-29T08:20:09Z</time>
      </trkpt>
      <trkpt lat="49.33206" lon="0.93705">
        <ele>58.38</ele>
        <time>2014-06-29T08:20:14Z</time>
      </trkpt>
      <trkpt lat="49.33208" lon="0.93691">
        <ele>56.75</ele>
        <time>2014-06-29T08:20:16Z</time>
      </trkpt>
      <trkpt lat="49.33215" lon="0.93662">
        <ele>53.56</ele>
        <time>2014-06-29T08:20:20Z</time>
      </trkpt>
      <trkpt lat="49.33221" lon="0.93631">
        <ele>48.6</ele>
        <time>2014-06-29T08:20:25Z</time>
      </trkpt>
      <trkpt lat="49.33222" lon="0.93621">
        <ele>47.81</ele>
        <time>2014-06-29T08:20:27Z</time>
      </trkpt>
      <trkpt lat="49.3323" lon="0.93595">
        <ele>49.3</ele>
        <time>2014-06-29T08:20:33Z</time>
      </trkpt>
      <trkpt lat="49.33231" lon="0.93573">
        <ele>51.47</ele>
        <time>2014-06-29T08:20:40Z</time>
      </trkpt>
      <trkpt lat="49.33231" lon="0.93565">
        <ele>52.02</ele>
        <time>2014-06-29T08:20:43Z</time>
      </trkpt>
      <trkpt lat="49.33228" lon="0.93551">
        <ele>53.59</ele>
        <time>2014-06-29T08:20:50Z</time>
      </trkpt>
      <trkpt lat="49.33228" lon="0.93543">
        <ele>53.66</ele>
        <time>2014-06-29T08:20:53Z</time>
      </trkpt>
      <trkpt lat="49.33233" lon="0.93521">
        <ele>51.77</ele>
        <time>2014-06-29T08:20:59Z</time>
      </trkpt>
      <trkpt lat="49.33232" lon="0.93509">
        <ele>51.23</ele>
        <time>2014-06-29T08:21:02Z</time>
      </trkpt>
      <trkpt lat="49.33232" lon="0.9349">
        <ele>52.58</ele>
        <time>2014-06-29T08:21:09Z</time>
      </trkpt>
      <trkpt lat="49.3324" lon="0.93468">
        <ele>52.46</ele>
        <time>2014-06-29T08:21:16Z</time>
      </trkpt>
      <trkpt lat="49.33241" lon="0.93454">
        <ele>52.66</ele>
        <time>2014-06-29T08:21:20Z</time>
      </trkpt>
      <trkpt lat="49.33245" lon="0.93424">
        <ele>53.68</ele>
        <time>2014-06-29T08:21:29Z</time>
      </trkpt>
      <trkpt lat="49.33251" lon="0.93399">
        <ele>55.39</ele>
        <time>2014-06-29T08:21:37Z</time>
      </trkpt>
      <trkpt lat="49.33252" lon="0.93377">
        <ele>56.94</ele>
        <time>2014-06-29T08:21:44Z</time>
      </trkpt>
      <trkpt lat="49.33251" lon="0.93375">
        <ele>57.36</ele>
        <time>2014-06-29T08:21:45Z</time>
      </trkpt>
      <trkpt lat="49.33253" lon="0.93362">
        <ele>58</ele>
        <time>2014-06-29T08:21:49Z</time>
      </trkpt>
      <trkpt lat="49.33258" lon="0.93344">
        <ele>59.35</ele>
        <time>2014-06-29T08:21:56Z</time>
      </trkpt>
      <trkpt lat="49.33261" lon="0.93324">
        <ele>60.89</ele>
        <time>2014-06-29T08:22:04Z</time>
      </trkpt>
      <trkpt lat="49.33265" lon="0.93306">
        <ele>62.7</ele>
        <time>2014-06-29T08:22:13Z</time>
      </trkpt>
      <trkpt lat="49.33267" lon="0.933">
        <ele>64.05</ele>
        <time>2014-06-29T08:22:18Z</time>
      </trkpt>
      <trkpt lat="49.3327" lon="0.93298">
        <ele>63.44</ele>
        <time>2014-06-29T08:22:21Z</time>
      </trkpt>
      <trkpt lat="49.3328" lon="0.93289">
        <ele>63</ele>
        <time>2014-06-29T08:22:27Z</time>
      </trkpt>
      <trkpt lat="49.33298" lon="0.9327">
        <ele>63.13</ele>
        <time>2014-06-29T08:22:35Z</time>
      </trkpt>
      <trkpt lat="49.33314" lon="0.93266">
        <ele>61.4</ele>
        <time>2014-06-29T08:22:42Z</time>
      </trkpt>
      <trkpt lat="49.33312" lon="0.93283">
        <ele>59.33</ele>
        <time>2014-06-29T08:22:47Z</time>
      </trkpt>
      <trkpt lat="49.33316" lon="0.93289">
        <ele>57.39</ele>
        <time>2014-06-29T08:22:52Z</time>
      </trkpt>
      <trkpt lat="49.33318" lon="0.93289">
        <ele>57.14</ele>
        <time>2014-06-29T08:22:53Z</time>
      </trkpt>
      <trkpt lat="49.33334" lon="0.93288">
        <ele>54.61</ele>
        <time>2014-06-29T08:22:59Z</time>
      </trkpt>
      <trkpt lat="49.33341" lon="0.93287">
        <ele>53.49</ele>
        <time>2014-06-29T08:23:02Z</time>
      </trkpt>
      <trkpt lat="49.3336" lon="0.93283">
        <ele>52.82</ele>
        <time>2014-06-29T08:23:09Z</time>
      </trkpt>
      <trkpt lat="49.33364" lon="0.9328">
        <ele>52.71</ele>
        <time>2014-06-29T08:23:10Z</time>
      </trkpt>
      <trkpt lat="49.33389" lon="0.93253">
        <ele>51.64</ele>
        <time>2014-06-29T08:23:19Z</time>
      </trkpt>
      <trkpt lat="49.33408" lon="0.93238">
        <ele>52.7</ele>
        <time>2014-06-29T08:23:26Z</time>
      </trkpt>
      <trkpt lat="49.33424" lon="0.93225">
        <ele>54.43</ele>
        <time>2014-06-29T08:23:34Z</time>
      </trkpt>
      <trkpt lat="49.33442" lon="0.93213">
        <ele>55.65</ele>
        <time>2014-06-29T08:23:42Z</time>
      </trkpt>
      <trkpt lat="49.33458" lon="0.93206">
        <ele>57.48</ele>
        <time>2014-06-29T08:23:49Z</time>
      </trkpt>
      <trkpt lat="49.33471" lon="0.93194">
        <ele>58.63</ele>
        <time>2014-06-29T08:23:56Z</time>
      </trkpt>
      <trkpt lat="49.33483" lon="0.93177">
        <ele>60.64</ele>
        <time>2014-06-29T08:24:04Z</time>
      </trkpt>
      <trkpt lat="49.33493" lon="0.93158">
        <ele>62.1</ele>
        <time>2014-06-29T08:24:11Z</time>
      </trkpt>
      <trkpt lat="49.33498" lon="0.93136">
        <ele>61.75</ele>
        <time>2014-06-29T08:24:16Z</time>
      </trkpt>
      <trkpt lat="49.335" lon="0.93121">
        <ele>61.55</ele>
        <time>2014-06-29T08:24:18Z</time>
      </trkpt>
      <trkpt lat="49.33495" lon="0.93065">
        <ele>60.57</ele>
        <time>2014-06-29T08:24:25Z</time>
      </trkpt>
      <trkpt lat="49.33487" lon="0.93031">
        <ele>58.64</ele>
        <time>2014-06-29T08:24:29Z</time>
      </trkpt>
      <trkpt lat="49.33484" lon="0.92988">
        <ele>56.81</ele>
        <time>2014-06-29T08:24:33Z</time>
      </trkpt>
      <trkpt lat="49.33483" lon="0.92928">
        <ele>51.84</ele>
        <time>2014-06-29T08:24:38Z</time>
      </trkpt>
      <trkpt lat="49.3348" lon="0.92873">
        <ele>48.43</ele>
        <time>2014-06-29T08:24:42Z</time>
      </trkpt>
      <trkpt lat="49.33472" lon="0.92804">
        <ele>45.08</ele>
        <time>2014-06-29T08:24:47Z</time>
      </trkpt>
      <trkpt lat="49.33467" lon="0.92781">
        <ele>43.4</ele>
        <time>2014-06-29T08:24:49Z</time>
      </trkpt>
      <trkpt lat="49.33453" lon="0.9276">
        <ele>42.76</ele>
        <time>2014-06-29T08:24:54Z</time>
      </trkpt>
      <trkpt lat="49.33439" lon="0.92738">
        <ele>42.87</ele>
        <time>2014-06-29T08:25:01Z</time>
      </trkpt>
      <trkpt lat="49.33427" lon="0.92724">
        <ele>43.2</ele>
        <time>2014-06-29T08:25:06Z</time>
      </trkpt>
      <trkpt lat="49.33407" lon="0.92693">
        <ele>44.79</ele>
        <time>2014-06-29T08:25:16Z</time>
      </trkpt>
      <trkpt lat="49.33392" lon="0.92682">
        <ele>46.25</ele>
        <time>2014-06-29T08:25:22Z</time>
      </trkpt>
      <trkpt lat="49.33382" lon="0.92673">
        <ele>47.6</ele>
        <time>2014-06-29T08:25:28Z</time>
      </trkpt>
      <trkpt lat="49.33373" lon="0.92664">
        <ele>48.83</ele>
        <time>2014-06-29T08:25:34Z</time>
      </trkpt>
      <trkpt lat="49.33364" lon="0.92657">
        <ele>50.09</ele>
        <time>2014-06-29T08:25:40Z</time>
      </trkpt>
      <trkpt lat="49.33362" lon="0.92654">
        <ele>50.26</ele>
        <time>2014-06-29T08:25:43Z</time>
      </trkpt>
      <trkpt lat="49.3336" lon="0.92647">
        <ele>50.39</ele>
        <time>2014-06-29T08:25:47Z</time>
      </trkpt>
      <trkpt lat="49.33347" lon="0.92621">
        <ele>49.4</ele>
        <time>2014-06-29T08:25:55Z</time>
      </trkpt>
      <trkpt lat="49.33344" lon="0.9261">
        <ele>48.79</ele>
        <time>2014-06-29T08:25:57Z</time>
      </trkpt>
      <trkpt lat="49.33332" lon="0.92566">
        <ele>45.68</ele>
        <time>2014-06-29T08:26:04Z</time>
      </trkpt>
      <trkpt lat="49.33332" lon="0.92561">
        <ele>45.47</ele>
        <time>2014-06-29T08:26:05Z</time>
      </trkpt>
      <trkpt lat="49.33335" lon="0.92535">
        <ele>44.71</ele>
        <time>2014-06-29T08:26:12Z</time>
      </trkpt>
      <trkpt lat="49.33337" lon="0.92516">
        <ele>44.68</ele>
        <time>2014-06-29T08:26:18Z</time>
      </trkpt>
      <trkpt lat="49.33333" lon="0.92495">
        <ele>44.38</ele>
        <time>2014-06-29T08:26:23Z</time>
      </trkpt>
      <trkpt lat="49.33345" lon="0.9249">
        <ele>43.85</ele>
        <time>2014-06-29T08:26:29Z</time>
      </trkpt>
      <trkpt lat="49.33362" lon="0.92481">
        <ele>43.88</ele>
        <time>2014-06-29T08:26:35Z</time>
      </trkpt>
      <trkpt lat="49.33376" lon="0.92463">
        <ele>43.95</ele>
        <time>2014-06-29T08:26:42Z</time>
      </trkpt>
      <trkpt lat="49.33377" lon="0.9246">
        <ele>44.04</ele>
        <time>2014-06-29T08:26:43Z</time>
      </trkpt>
      <trkpt lat="49.3338" lon="0.92445">
        <ele>45.03</ele>
        <time>2014-06-29T08:26:49Z</time>
      </trkpt>
      <trkpt lat="49.33379" lon="0.92442">
        <ele>45.17</ele>
        <time>2014-06-29T08:26:50Z</time>
      </trkpt>
      <trkpt lat="49.33376" lon="0.92428">
        <ele>45.66</ele>
        <time>2014-06-29T08:26:55Z</time>
      </trkpt>
      <trkpt lat="49.33372" lon="0.92422">
        <ele>46.49</ele>
        <time>2014-06-29T08:26:59Z</time>
      </trkpt>
      <trkpt lat="49.33364" lon="0.92404">
        <ele>48.18</ele>
        <time>2014-06-29T08:27:07Z</time>
      </trkpt>
      <trkpt lat="49.33356" lon="0.92392">
        <ele>48.11</ele>
        <time>2014-06-29T08:27:13Z</time>
      </trkpt>
      <trkpt lat="49.33355" lon="0.92389">
        <ele>48.23</ele>
        <time>2014-06-29T08:27:14Z</time>
      </trkpt>
      <trkpt lat="49.33357" lon="0.92364">
        <ele>48.75</ele>
        <time>2014-06-29T08:27:20Z</time>
      </trkpt>
      <trkpt lat="49.33358" lon="0.92354">
        <ele>47.87</ele>
        <time>2014-06-29T08:27:22Z</time>
      </trkpt>
      <trkpt lat="49.33364" lon="0.92331">
        <ele>49.09</ele>
        <time>2014-06-29T08:27:29Z</time>
      </trkpt>
      <trkpt lat="49.33364" lon="0.92329">
        <ele>49.44</ele>
        <time>2014-06-29T08:27:30Z</time>
      </trkpt>
      <trkpt lat="49.33369" lon="0.92309">
        <ele>50.97</ele>
        <time>2014-06-29T08:27:39Z</time>
      </trkpt>
      <trkpt lat="49.3337" lon="0.9231">
        <ele>51.36</ele>
        <time>2014-06-29T08:27:42Z</time>
      </trkpt>
      <trkpt lat="49.33364" lon="0.92319">
        <ele>53.4</ele>
        <time>2014-06-29T08:27:49Z</time>
      </trkpt>
      <trkpt lat="49.33371" lon="0.92335">
        <ele>55.06</ele>
        <time>2014-06-29T08:27:57Z</time>
      </trkpt>
      <trkpt lat="49.33382" lon="0.92331">
        <ele>57.59</ele>
        <time>2014-06-29T08:28:06Z</time>
      </trkpt>
      <trkpt lat="49.3339" lon="0.92318">
        <ele>59.47</ele>
        <time>2014-06-29T08:28:14Z</time>
      </trkpt>
      <trkpt lat="49.33395" lon="0.92286">
        <ele>58.25</ele>
        <time>2014-06-29T08:28:21Z</time>
      </trkpt>
      <trkpt lat="49.33402" lon="0.92268">
        <ele>57.73</ele>
        <time>2014-06-29T08:28:26Z</time>
      </trkpt>
      <trkpt lat="49.33422" lon="0.9226">
        <ele>57.92</ele>
        <time>2014-06-29T08:28:34Z</time>
      </trkpt>
      <trkpt lat="49.33441" lon="0.92255">
        <ele>58.23</ele>
        <time>2014-06-29T08:28:40Z</time>
      </trkpt>
      <trkpt lat="49.33464" lon="0.92237">
        <ele>54.98</ele>
        <time>2014-06-29T08:28:45Z</time>
      </trkpt>
      <trkpt lat="49.33468" lon="0.92233">
        <ele>54.78</ele>
        <time>2014-06-29T08:28:46Z</time>
      </trkpt>
      <trkpt lat="49.33485" lon="0.92211">
        <ele>51.92</ele>
        <time>2014-06-29T08:28:52Z</time>
      </trkpt>
      <trkpt lat="49.33495" lon="0.92192">
        <ele>49.36</ele>
        <time>2014-06-29T08:28:57Z</time>
      </trkpt>
      <trkpt lat="49.33499" lon="0.92178">
        <ele>50.88</ele>
        <time>2014-06-29T08:29:03Z</time>
      </trkpt>
      <trkpt lat="49.33505" lon="0.92163">
        <ele>52.25</ele>
        <time>2014-06-29T08:29:12Z</time>
      </trkpt>
      <trkpt lat="49.33506" lon="0.92161">
        <ele>52.55</ele>
        <time>2014-06-29T08:29:13Z</time>
      </trkpt>
      <trkpt lat="49.33506" lon="0.92159">
        <ele>52.9</ele>
        <time>2014-06-29T08:29:14Z</time>
      </trkpt>
      <trkpt lat="49.33508" lon="0.9215">
        <ele>54.29</ele>
        <time>2014-06-29T08:29:18Z</time>
      </trkpt>
      <trkpt lat="49.33507" lon="0.92137">
        <ele>56.23</ele>
        <time>2014-06-29T08:29:24Z</time>
      </trkpt>
      <trkpt lat="49.33525" lon="0.92128">
        <ele>58.73</ele>
        <time>2014-06-29T08:29:33Z</time>
      </trkpt>
      <trkpt lat="49.33536" lon="0.92119">
        <ele>60.25</ele>
        <time>2014-06-29T08:29:40Z</time>
      </trkpt>
      <trkpt lat="49.33537" lon="0.92118">
        <ele>60.49</ele>
        <time>2014-06-29T08:29:41Z</time>
      </trkpt>
      <trkpt lat="49.33545" lon="0.92114">
        <ele>61.74</ele>
        <time>2014-06-29T08:29:45Z</time>
      </trkpt>
      <trkpt lat="49.33564" lon="0.92103">
        <ele>62.98</ele>
        <time>2014-06-29T08:29:54Z</time>
      </trkpt>
      <trkpt lat="49.33573" lon="0.92089">
        <ele>63.32</ele>
        <time>2014-06-29T08:30:00Z</time>
      </trkpt>
      <trkpt lat="49.33578" lon="0.92065">
        <ele>62.1</ele>
        <time>2014-06-29T08:30:07Z</time>
      </trkpt>
      <trkpt lat="49.33586" lon="0.92058">
        <ele>62.2</ele>
        <time>2014-06-29T08:30:12Z</time>
      </trkpt>
      <trkpt lat="49.33598" lon="0.92057">
        <ele>63.72</ele>
        <time>2014-06-29T08:30:19Z</time>
      </trkpt>
      <trkpt lat="49.33611" lon="0.9205">
        <ele>64.03</ele>
        <time>2014-06-29T08:30:27Z</time>
      </trkpt>
      <trkpt lat="49.3362" lon="0.92052">
        <ele>66.56</ele>
        <time>2014-06-29T08:30:35Z</time>
      </trkpt>
      <trkpt lat="49.33635" lon="0.92054">
        <ele>69.18</ele>
        <time>2014-06-29T08:30:43Z</time>
      </trkpt>
      <trkpt lat="49.3365" lon="0.92054">
        <ele>69.72</ele>
        <time>2014-06-29T08:30:51Z</time>
      </trkpt>
      <trkpt lat="49.33666" lon="0.92057">
        <ele>71.06</ele>
        <time>2014-06-29T08:31:00Z</time>
      </trkpt>
      <trkpt lat="49.3368" lon="0.92056">
        <ele>71.99</ele>
        <time>2014-06-29T08:31:07Z</time>
      </trkpt>
      <trkpt lat="49.33693" lon="0.92061">
        <ele>74.2</ele>
        <time>2014-06-29T08:31:14Z</time>
      </trkpt>
      <trkpt lat="49.33716" lon="0.92071">
        <ele>75.17</ele>
        <time>2014-06-29T08:31:22Z</time>
      </trkpt>
      <trkpt lat="49.33728" lon="0.92082">
        <ele>76.99</ele>
        <time>2014-06-29T08:31:28Z</time>
      </trkpt>
      <trkpt lat="49.33733" lon="0.92086">
        <ele>77.52</ele>
        <time>2014-06-29T08:31:31Z</time>
      </trkpt>
      <trkpt lat="49.33746" lon="0.92089">
        <ele>77.44</ele>
        <time>2014-06-29T08:31:38Z</time>
      </trkpt>
      <trkpt lat="49.33752" lon="0.92088">
        <ele>77.14</ele>
        <time>2014-06-29T08:31:40Z</time>
      </trkpt>
      <trkpt lat="49.33773" lon="0.92097">
        <ele>77.1</ele>
        <time>2014-06-29T08:31:48Z</time>
      </trkpt>
      <trkpt lat="49.33792" lon="0.92109">
        <ele>77.47</ele>
        <time>2014-06-29T08:31:55Z</time>
      </trkpt>
      <trkpt lat="49.33804" lon="0.92114">
        <ele>78.29</ele>
        <time>2014-06-29T08:32:01Z</time>
      </trkpt>
      <trkpt lat="49.33816" lon="0.92115">
        <ele>78.02</ele>
        <time>2014-06-29T08:32:07Z</time>
      </trkpt>
      <trkpt lat="49.33827" lon="0.92124">
        <ele>80.35</ele>
        <time>2014-06-29T08:32:16Z</time>
      </trkpt>
      <trkpt lat="49.33837" lon="0.92134">
        <ele>81.96</ele>
        <time>2014-06-29T08:32:23Z</time>
      </trkpt>
      <trkpt lat="49.33842" lon="0.92144">
        <ele>83.49</ele>
        <time>2014-06-29T08:32:30Z</time>
      </trkpt>
      <trkpt lat="49.33851" lon="0.92152">
        <ele>84.18</ele>
        <time>2014-06-29T08:32:36Z</time>
      </trkpt>
      <trkpt lat="49.33866" lon="0.92173">
        <ele>85.08</ele>
        <time>2014-06-29T08:32:43Z</time>
      </trkpt>
      <trkpt lat="49.33865" lon="0.9219">
        <ele>85.96</ele>
        <time>2014-06-29T08:32:50Z</time>
      </trkpt>
      <trkpt lat="49.33864" lon="0.92197">
        <ele>86.36</ele>
        <time>2014-06-29T08:32:53Z</time>
      </trkpt>
      <trkpt lat="49.33862" lon="0.92202">
        <ele>87.59</ele>
        <time>2014-06-29T08:32:59Z</time>
      </trkpt>
      <trkpt lat="49.33863" lon="0.9221">
        <ele>89.15</ele>
        <time>2014-06-29T08:33:06Z</time>
      </trkpt>
      <trkpt lat="49.33878" lon="0.92227">
        <ele>89.19</ele>
        <time>2014-06-29T08:33:15Z</time>
      </trkpt>
      <trkpt lat="49.33878" lon="0.92247">
        <ele>90.56</ele>
        <time>2014-06-29T08:33:23Z</time>
      </trkpt>
      <trkpt lat="49.33881" lon="0.92254">
        <ele>90.7</ele>
        <time>2014-06-29T08:33:25Z</time>
      </trkpt>
      <trkpt lat="49.33897" lon="0.92285">
        <ele>89.4</ele>
        <time>2014-06-29T08:33:33Z</time>
      </trkpt>
      <trkpt lat="49.33899" lon="0.92293">
        <ele>89.37</ele>
        <time>2014-06-29T08:33:36Z</time>
      </trkpt>
      <trkpt lat="49.339" lon="0.92315">
        <ele>91.38</ele>
        <time>2014-06-29T08:33:44Z</time>
      </trkpt>
      <trkpt lat="49.33902" lon="0.9232">
        <ele>91.73</ele>
        <time>2014-06-29T08:33:46Z</time>
      </trkpt>
      <trkpt lat="49.33907" lon="0.92332">
        <ele>92.27</ele>
        <time>2014-06-29T08:33:51Z</time>
      </trkpt>
      <trkpt lat="49.33911" lon="0.92349">
        <ele>93.75</ele>
        <time>2014-06-29T08:33:57Z</time>
      </trkpt>
      <trkpt lat="49.33921" lon="0.92371">
        <ele>94.22</ele>
        <time>2014-06-29T08:34:05Z</time>
      </trkpt>
      <trkpt lat="49.33933" lon="0.92393">
        <ele>95.32</ele>
        <time>2014-06-29T08:34:14Z</time>
      </trkpt>
      <trkpt lat="49.33948" lon="0.92406">
        <ele>95.14</ele>
        <time>2014-06-29T08:34:21Z</time>
      </trkpt>
      <trkpt lat="49.33966" lon="0.92428">
        <ele>96.29</ele>
        <time>2014-06-29T08:34:28Z</time>
      </trkpt>
      <trkpt lat="49.33974" lon="0.92437">
        <ele>97.9</ele>
        <time>2014-06-29T08:34:33Z</time>
      </trkpt>
      <trkpt lat="49.33986" lon="0.92453">
        <ele>99.83</ele>
        <time>2014-06-29T08:34:41Z</time>
      </trkpt>
      <trkpt lat="49.33997" lon="0.92476">
        <ele>102.21</ele>
        <time>2014-06-29T08:34:49Z</time>
      </trkpt>
      <trkpt lat="49.34007" lon="0.92493">
        <ele>103.5</ele>
        <time>2014-06-29T08:34:56Z</time>
      </trkpt>
      <trkpt lat="49.34019" lon="0.92507">
        <ele>104.09</ele>
        <time>2014-06-29T08:35:03Z</time>
      </trkpt>
      <trkpt lat="49.34036" lon="0.92527">
        <ele>104.93</ele>
        <time>2014-06-29T08:35:10Z</time>
      </trkpt>
      <trkpt lat="49.3405" lon="0.92553">
        <ele>104.93</ele>
        <time>2014-06-29T08:35:17Z</time>
      </trkpt>
      <trkpt lat="49.34053" lon="0.92578">
        <ele>105.58</ele>
        <time>2014-06-29T08:35:23Z</time>
      </trkpt>
      <trkpt lat="49.34054" lon="0.92601">
        <ele>105.94</ele>
        <time>2014-06-29T08:35:29Z</time>
      </trkpt>
      <trkpt lat="49.34053" lon="0.92604">
        <ele>106.02</ele>
        <time>2014-06-29T08:35:30Z</time>
      </trkpt>
      <trkpt lat="49.3404" lon="0.9262">
        <ele>106.95</ele>
        <time>2014-06-29T08:35:38Z</time>
      </trkpt>
      <trkpt lat="49.34033" lon="0.92632">
        <ele>107.75</ele>
        <time>2014-06-29T08:35:44Z</time>
      </trkpt>
      <trkpt lat="49.34032" lon="0.92632">
        <ele>107.94</ele>
        <time>2014-06-29T08:35:45Z</time>
      </trkpt>
      <trkpt lat="49.3403" lon="0.92634">
        <ele>108.25</ele>
        <time>2014-06-29T08:35:47Z</time>
      </trkpt>
      <trkpt lat="49.34015" lon="0.92647">
        <ele>108.27</ele>
        <time>2014-06-29T08:35:55Z</time>
      </trkpt>
      <trkpt lat="49.34001" lon="0.92656">
        <ele>108.87</ele>
        <time>2014-06-29T08:36:02Z</time>
      </trkpt>
      <trkpt lat="49.34" lon="0.92657">
        <ele>108.98</ele>
        <time>2014-06-29T08:36:03Z</time>
      </trkpt>
      <trkpt lat="49.34001" lon="0.92674">
        <ele>108.76</ele>
        <time>2014-06-29T08:36:09Z</time>
      </trkpt>
      <trkpt lat="49.34001" lon="0.92676">
        <ele>108.65</ele>
        <time>2014-06-29T08:36:10Z</time>
      </trkpt>
      <trkpt lat="49.33999" lon="0.92691">
        <ele>109.37</ele>
        <time>2014-06-29T08:36:16Z</time>
      </trkpt>
      <trkpt lat="49.33988" lon="0.92708">
        <ele>109.8</ele>
        <time>2014-06-29T08:36:23Z</time>
      </trkpt>
      <trkpt lat="49.33975" lon="0.92709">
        <ele>110.24</ele>
        <time>2014-06-29T08:36:30Z</time>
      </trkpt>
      <trkpt lat="49.3397" lon="0.92715">
        <ele>110.09</ele>
        <time>2014-06-29T08:36:33Z</time>
      </trkpt>
      <trkpt lat="49.33961" lon="0.92734">
        <ele>109.96</ele>
        <time>2014-06-29T08:36:39Z</time>
      </trkpt>
      <trkpt lat="49.33951" lon="0.9274">
        <ele>110.51</ele>
        <time>2014-06-29T08:36:44Z</time>
      </trkpt>
      <trkpt lat="49.33931" lon="0.92752">
        <ele>110.19</ele>
        <time>2014-06-29T08:36:51Z</time>
      </trkpt>
      <trkpt lat="49.33914" lon="0.92771">
        <ele>110.75</ele>
        <time>2014-06-29T08:36:56Z</time>
      </trkpt>
      <trkpt lat="49.33913" lon="0.92774">
        <ele>110.44</ele>
        <time>2014-06-29T08:36:57Z</time>
      </trkpt>
      <trkpt lat="49.3391" lon="0.928">
        <ele>110.76</ele>
        <time>2014-06-29T08:37:04Z</time>
      </trkpt>
      <trkpt lat="49.33906" lon="0.92805">
        <ele>110.83</ele>
        <time>2014-06-29T08:37:08Z</time>
      </trkpt>
      <trkpt lat="49.33898" lon="0.92805">
        <ele>110.31</ele>
        <time>2014-06-29T08:37:14Z</time>
      </trkpt>
      <trkpt lat="49.3389" lon="0.92817">
        <ele>109.24</ele>
        <time>2014-06-29T08:37:18Z</time>
      </trkpt>
      <trkpt lat="49.33886" lon="0.92835">
        <ele>107.92</ele>
        <time>2014-06-29T08:37:22Z</time>
      </trkpt>
      <trkpt lat="49.33881" lon="0.92853">
        <ele>106.07</ele>
        <time>2014-06-29T08:37:30Z</time>
      </trkpt>
      <trkpt lat="49.33881" lon="0.9287">
        <ele>105.06</ele>
        <time>2014-06-29T08:37:36Z</time>
      </trkpt>
      <trkpt lat="49.33886" lon="0.92883">
        <ele>105.29</ele>
        <time>2014-06-29T08:37:41Z</time>
      </trkpt>
      <trkpt lat="49.33891" lon="0.92912">
        <ele>104.19</ele>
        <time>2014-06-29T08:37:49Z</time>
      </trkpt>
      <trkpt lat="49.33898" lon="0.92933">
        <ele>103.85</ele>
        <time>2014-06-29T08:37:54Z</time>
      </trkpt>
      <trkpt lat="49.33895" lon="0.9296">
        <ele>102.44</ele>
        <time>2014-06-29T08:37:58Z</time>
      </trkpt>
      <trkpt lat="49.33889" lon="0.92998">
        <ele>98.2</ele>
        <time>2014-06-29T08:38:04Z</time>
      </trkpt>
      <trkpt lat="49.33891" lon="0.93003">
        <ele>97.93</ele>
        <time>2014-06-29T08:38:05Z</time>
      </trkpt>
      <trkpt lat="49.33895" lon="0.9301">
        <ele>97.93</ele>
        <time>2014-06-29T08:38:07Z</time>
      </trkpt>
      <trkpt lat="49.339" lon="0.93042">
        <ele>96.59</ele>
        <time>2014-06-29T08:38:14Z</time>
      </trkpt>
      <trkpt lat="49.33908" lon="0.9307">
        <ele>94.87</ele>
        <time>2014-06-29T08:38:18Z</time>
      </trkpt>
      <trkpt lat="49.33915" lon="0.93085">
        <ele>94.49</ele>
        <time>2014-06-29T08:38:20Z</time>
      </trkpt>
      <trkpt lat="49.33923" lon="0.9311">
        <ele>96.46</ele>
        <time>2014-06-29T08:38:26Z</time>
      </trkpt>
      <trkpt lat="49.33928" lon="0.9314">
        <ele>97.73</ele>
        <time>2014-06-29T08:38:34Z</time>
      </trkpt>
      <trkpt lat="49.3393" lon="0.93156">
        <ele>97.74</ele>
        <time>2014-06-29T08:38:38Z</time>
      </trkpt>
      <trkpt lat="49.33932" lon="0.9316">
        <ele>97.93</ele>
        <time>2014-06-29T08:38:40Z</time>
      </trkpt>
      <trkpt lat="49.33936" lon="0.93165">
        <ele>98.31</ele>
        <time>2014-06-29T08:38:47Z</time>
      </trkpt>
      <trkpt lat="49.33935" lon="0.93167">
        <ele>99.33</ele>
        <time>2014-06-29T08:39:04Z</time>
      </trkpt>
      <trkpt lat="49.33946" lon="0.93179">
        <ele>101.14</ele>
        <time>2014-06-29T08:39:15Z</time>
      </trkpt>
      <trkpt lat="49.33961" lon="0.93204">
        <ele>103.16</ele>
        <time>2014-06-29T08:39:30Z</time>
      </trkpt>
      <trkpt lat="49.33966" lon="0.93216">
        <ele>104.6</ele>
        <time>2014-06-29T08:39:42Z</time>
      </trkpt>
      <trkpt lat="49.3397" lon="0.93221">
        <ele>104.34</ele>
        <time>2014-06-29T08:39:52Z</time>
      </trkpt>
      <trkpt lat="49.33969" lon="0.9322">
        <ele>104.62</ele>
        <time>2014-06-29T08:40:03Z</time>
      </trkpt>
      <trkpt lat="49.3397" lon="0.93219">
        <ele>104.65</ele>
        <time>2014-06-29T08:40:15Z</time>
      </trkpt>
      <trkpt lat="49.3397" lon="0.93219">
        <ele>105.24</ele>
        <time>2014-06-29T08:40:30Z</time>
      </trkpt>
      <trkpt lat="49.33972" lon="0.9322">
        <ele>104.85</ele>
        <time>2014-06-29T08:40:46Z</time>
      </trkpt>
      <trkpt lat="49.33972" lon="0.93219">
        <ele>104.66</ele>
        <time>2014-06-29T08:41:02Z</time>
      </trkpt>
      <trkpt lat="49.33972" lon="0.93223">
        <ele>104.55</ele>
        <time>2014-06-29T08:41:11Z</time>
      </trkpt>
      <trkpt lat="49.33969" lon="0.93247">
        <ele>104.13</ele>
        <time>2014-06-29T08:41:19Z</time>
      </trkpt>
      <trkpt lat="49.33967" lon="0.93273">
        <ele>103.55</ele>
        <time>2014-06-29T08:41:26Z</time>
      </trkpt>
      <trkpt lat="49.33962" lon="0.93298">
        <ele>102.67</ele>
        <time>2014-06-29T08:41:32Z</time>
      </trkpt>
      <trkpt lat="49.33957" lon="0.93318">
        <ele>101.46</ele>
        <time>2014-06-29T08:41:37Z</time>
      </trkpt>
      <trkpt lat="49.33956" lon="0.93339">
        <ele>100.05</ele>
        <time>2014-06-29T08:41:42Z</time>
      </trkpt>
      <trkpt lat="49.33947" lon="0.93367">
        <ele>98.2</ele>
        <time>2014-06-29T08:41:48Z</time>
      </trkpt>
      <trkpt lat="49.33948" lon="0.93394">
        <ele>97.78</ele>
        <time>2014-06-29T08:41:54Z</time>
      </trkpt>
      <trkpt lat="49.33941" lon="0.93419">
        <ele>96.15</ele>
        <time>2014-06-29T08:42:00Z</time>
      </trkpt>
      <trkpt lat="49.33931" lon="0.93451">
        <ele>95.67</ele>
        <time>2014-06-29T08:42:07Z</time>
      </trkpt>
      <trkpt lat="49.33921" lon="0.93482">
        <ele>95.88</ele>
        <time>2014-06-29T08:42:14Z</time>
      </trkpt>
      <trkpt lat="49.3392" lon="0.93508">
        <ele>97.49</ele>
        <time>2014-06-29T08:42:21Z</time>
      </trkpt>
      <trkpt lat="49.33919" lon="0.93512">
        <ele>98.17</ele>
        <time>2014-06-29T08:42:23Z</time>
      </trkpt>
      <trkpt lat="49.33916" lon="0.93521">
        <ele>98.79</ele>
        <time>2014-06-29T08:42:27Z</time>
      </trkpt>
      <trkpt lat="49.33907" lon="0.93551">
        <ele>100.11</ele>
        <time>2014-06-29T08:42:36Z</time>
      </trkpt>
      <trkpt lat="49.339" lon="0.93572">
        <ele>101.68</ele>
        <time>2014-06-29T08:42:43Z</time>
      </trkpt>
      <trkpt lat="49.33896" lon="0.93603">
        <ele>101.7</ele>
        <time>2014-06-29T08:42:51Z</time>
      </trkpt>
      <trkpt lat="49.33892" lon="0.93632">
        <ele>102.48</ele>
        <time>2014-06-29T08:42:58Z</time>
      </trkpt>
      <trkpt lat="49.33887" lon="0.9365">
        <ele>103.13</ele>
        <time>2014-06-29T08:43:04Z</time>
      </trkpt>
      <trkpt lat="49.3388" lon="0.93672">
        <ele>104.73</ele>
        <time>2014-06-29T08:43:12Z</time>
      </trkpt>
      <trkpt lat="49.33875" lon="0.93693">
        <ele>106.76</ele>
        <time>2014-06-29T08:43:20Z</time>
      </trkpt>
      <trkpt lat="49.33866" lon="0.93705">
        <ele>106.25</ele>
        <time>2014-06-29T08:43:25Z</time>
      </trkpt>
      <trkpt lat="49.3386" lon="0.93711">
        <ele>105.85</ele>
        <time>2014-06-29T08:43:27Z</time>
      </trkpt>
      <trkpt lat="49.3385" lon="0.93725">
        <ele>106.25</ele>
        <time>2014-06-29T08:43:32Z</time>
      </trkpt>
      <trkpt lat="49.33832" lon="0.9373">
        <ele>104.65</ele>
        <time>2014-06-29T08:43:38Z</time>
      </trkpt>
      <trkpt lat="49.33828" lon="0.9373">
        <ele>103.99</ele>
        <time>2014-06-29T08:43:39Z</time>
      </trkpt>
      <trkpt lat="49.33806" lon="0.93724">
        <ele>99.9</ele>
        <time>2014-06-29T08:43:44Z</time>
      </trkpt>
      <trkpt lat="49.33785" lon="0.93717">
        <ele>97.32</ele>
        <time>2014-06-29T08:43:49Z</time>
      </trkpt>
      <trkpt lat="49.33763" lon="0.93711">
        <ele>95.7</ele>
        <time>2014-06-29T08:43:55Z</time>
      </trkpt>
      <trkpt lat="49.33755" lon="0.93708">
        <ele>94.36</ele>
        <time>2014-06-29T08:43:57Z</time>
      </trkpt>
      <trkpt lat="49.33735" lon="0.93702">
        <ele>91.55</ele>
        <time>2014-06-29T08:44:01Z</time>
      </trkpt>
      <trkpt lat="49.33723" lon="0.93697">
        <ele>90.37</ele>
        <time>2014-06-29T08:44:03Z</time>
      </trkpt>
      <trkpt lat="49.33705" lon="0.93692">
        <ele>90.52</ele>
        <time>2014-06-29T08:44:08Z</time>
      </trkpt>
      <trkpt lat="49.33687" lon="0.93686">
        <ele>91.24</ele>
        <time>2014-06-29T08:44:17Z</time>
      </trkpt>
      <trkpt lat="49.33668" lon="0.93676">
        <ele>91.5</ele>
        <time>2014-06-29T08:44:24Z</time>
      </trkpt>
      <trkpt lat="49.33651" lon="0.93675">
        <ele>88.78</ele>
        <time>2014-06-29T08:44:31Z</time>
      </trkpt>
      <trkpt lat="49.33637" lon="0.93672">
        <ele>85.1</ele>
        <time>2014-06-29T08:44:36Z</time>
      </trkpt>
      <trkpt lat="49.33624" lon="0.93679">
        <ele>83.5</ele>
        <time>2014-06-29T08:44:41Z</time>
      </trkpt>
      <trkpt lat="49.33614" lon="0.93691">
        <ele>84.98</ele>
        <time>2014-06-29T08:44:47Z</time>
      </trkpt>
      <trkpt lat="49.33603" lon="0.93714">
        <ele>87.39</ele>
        <time>2014-06-29T08:44:54Z</time>
      </trkpt>
      <trkpt lat="49.33591" lon="0.93732">
        <ele>87.7</ele>
        <time>2014-06-29T08:45:01Z</time>
      </trkpt>
      <trkpt lat="49.33589" lon="0.93742">
        <ele>88.28</ele>
        <time>2014-06-29T08:45:06Z</time>
      </trkpt>
      <trkpt lat="49.33591" lon="0.93745">
        <ele>88.78</ele>
        <time>2014-06-29T08:45:08Z</time>
      </trkpt>
      <trkpt lat="49.33597" lon="0.93753">
        <ele>91.89</ele>
        <time>2014-06-29T08:45:17Z</time>
      </trkpt>
      <trkpt lat="49.33598" lon="0.93754">
        <ele>91.98</ele>
        <time>2014-06-29T08:45:19Z</time>
      </trkpt>
      <trkpt lat="49.3361" lon="0.9378">
        <ele>94.46</ele>
        <time>2014-06-29T08:45:29Z</time>
      </trkpt>
      <trkpt lat="49.33612" lon="0.9379">
        <ele>94.71</ele>
        <time>2014-06-29T08:45:32Z</time>
      </trkpt>
      <trkpt lat="49.33612" lon="0.93802">
        <ele>95.13</ele>
        <time>2014-06-29T08:45:36Z</time>
      </trkpt>
      <trkpt lat="49.33617" lon="0.93812">
        <ele>96.79</ele>
        <time>2014-06-29T08:45:41Z</time>
      </trkpt>
      <trkpt lat="49.33626" lon="0.93824">
        <ele>99.35</ele>
        <time>2014-06-29T08:45:50Z</time>
      </trkpt>
      <trkpt lat="49.33636" lon="0.93839">
        <ele>101.21</ele>
        <time>2014-06-29T08:45:59Z</time>
      </trkpt>
      <trkpt lat="49.33638" lon="0.93842">
        <ele>101.56</ele>
        <time>2014-06-29T08:46:01Z</time>
      </trkpt>
      <trkpt lat="49.33641" lon="0.93844">
        <ele>102.24</ele>
        <time>2014-06-29T08:46:03Z</time>
      </trkpt>
      <trkpt lat="49.33648" lon="0.93852">
        <ele>103.41</ele>
        <time>2014-06-29T08:46:08Z</time>
      </trkpt>
      <trkpt lat="49.33658" lon="0.9387">
        <ele>104.77</ele>
        <time>2014-06-29T08:46:17Z</time>
      </trkpt>
      <trkpt lat="49.33663" lon="0.93876">
        <ele>105.39</ele>
        <time>2014-06-29T08:46:20Z</time>
      </trkpt>
      <trkpt lat="49.33666" lon="0.93887">
        <ele>105.96</ele>
        <time>2014-06-29T08:46:25Z</time>
      </trkpt>
      <trkpt lat="49.33672" lon="0.93913">
        <ele>107.17</ele>
        <time>2014-06-29T08:46:33Z</time>
      </trkpt>
      <trkpt lat="49.33674" lon="0.93935">
        <ele>107.27</ele>
        <time>2014-06-29T08:46:39Z</time>
      </trkpt>
      <trkpt lat="49.33682" lon="0.93959">
        <ele>108.02</ele>
        <time>2014-06-29T08:46:46Z</time>
      </trkpt>
      <trkpt lat="49.33691" lon="0.93986">
        <ele>109.53</ele>
        <time>2014-06-29T08:46:55Z</time>
      </trkpt>
      <trkpt lat="49.33695" lon="0.94006">
        <ele>110.08</ele>
        <time>2014-06-29T08:47:01Z</time>
      </trkpt>
      <trkpt lat="49.33698" lon="0.94026">
        <ele>110.41</ele>
        <time>2014-06-29T08:47:06Z</time>
      </trkpt>
      <trkpt lat="49.33689" lon="0.94056">
        <ele>110.2</ele>
        <time>2014-06-29T08:47:13Z</time>
      </trkpt>
      <trkpt lat="49.33685" lon="0.94077">
        <ele>108.68</ele>
        <time>2014-06-29T08:47:17Z</time>
      </trkpt>
      <trkpt lat="49.33682" lon="0.94083">
        <ele>108.43</ele>
        <time>2014-06-29T08:47:18Z</time>
      </trkpt>
      <trkpt lat="49.3367" lon="0.94138">
        <ele>106.97</ele>
        <time>2014-06-29T08:47:26Z</time>
      </trkpt>
      <trkpt lat="49.3366" lon="0.94196">
        <ele>104.23</ele>
        <time>2014-06-29T08:47:32Z</time>
      </trkpt>
      <trkpt lat="49.3366" lon="0.94242">
        <ele>102.63</ele>
        <time>2014-06-29T08:47:38Z</time>
      </trkpt>
      <trkpt lat="49.33662" lon="0.94265">
        <ele>102.51</ele>
        <time>2014-06-29T08:47:41Z</time>
      </trkpt>
      <trkpt lat="49.33661" lon="0.94308">
        <ele>98.91</ele>
        <time>2014-06-29T08:47:46Z</time>
      </trkpt>
      <trkpt lat="49.33663" lon="0.9432">
        <ele>99.11</ele>
        <time>2014-06-29T08:47:47Z</time>
      </trkpt>
      <trkpt lat="49.3366" lon="0.94353">
        <ele>98.5</ele>
        <time>2014-06-29T08:47:52Z</time>
      </trkpt>
      <trkpt lat="49.33659" lon="0.9437">
        <ele>97.41</ele>
        <time>2014-06-29T08:47:54Z</time>
      </trkpt>
      <trkpt lat="49.33652" lon="0.9442">
        <ele>93.71</ele>
        <time>2014-06-29T08:48:00Z</time>
      </trkpt>
      <trkpt lat="49.33648" lon="0.94458">
        <ele>89.99</ele>
        <time>2014-06-29T08:48:04Z</time>
      </trkpt>
      <trkpt lat="49.33646" lon="0.94481">
        <ele>87.37</ele>
        <time>2014-06-29T08:48:07Z</time>
      </trkpt>
      <trkpt lat="49.33637" lon="0.9451">
        <ele>83.77</ele>
        <time>2014-06-29T08:48:11Z</time>
      </trkpt>
      <trkpt lat="49.33632" lon="0.94522">
        <ele>81.35</ele>
        <time>2014-06-29T08:48:13Z</time>
      </trkpt>
      <trkpt lat="49.3362" lon="0.94559">
        <ele>76.47</ele>
        <time>2014-06-29T08:48:18Z</time>
      </trkpt>
      <trkpt lat="49.33616" lon="0.94565">
        <ele>75.44</ele>
        <time>2014-06-29T08:48:19Z</time>
      </trkpt>
      <trkpt lat="49.33613" lon="0.9458">
        <ele>73.7</ele>
        <time>2014-06-29T08:48:21Z</time>
      </trkpt>
      <trkpt lat="49.33607" lon="0.94611">
        <ele>69.49</ele>
        <time>2014-06-29T08:48:26Z</time>
      </trkpt>
      <trkpt lat="49.33606" lon="0.94628">
        <ele>68.4</ele>
        <time>2014-06-29T08:48:31Z</time>
      </trkpt>
      <trkpt lat="49.33606" lon="0.94648">
        <ele>67.31</ele>
        <time>2014-06-29T08:48:35Z</time>
      </trkpt>
      <trkpt lat="49.33606" lon="0.94676">
        <ele>65.51</ele>
        <time>2014-06-29T08:48:41Z</time>
      </trkpt>
      <trkpt lat="49.33612" lon="0.94702">
        <ele>63.24</ele>
        <time>2014-06-29T08:48:46Z</time>
      </trkpt>
      <trkpt lat="49.33623" lon="0.94727">
        <ele>61.74</ele>
        <time>2014-06-29T08:48:52Z</time>
      </trkpt>
      <trkpt lat="49.33628" lon="0.94758">
        <ele>60.04</ele>
        <time>2014-06-29T08:48:58Z</time>
      </trkpt>
      <trkpt lat="49.33632" lon="0.94774">
        <ele>58.76</ele>
        <time>2014-06-29T08:49:01Z</time>
      </trkpt>
      <trkpt lat="49.33645" lon="0.94814">
        <ele>56.64</ele>
        <time>2014-06-29T08:49:08Z</time>
      </trkpt>
      <trkpt lat="49.33667" lon="0.94856">
        <ele>57.08</ele>
        <time>2014-06-29T08:49:16Z</time>
      </trkpt>
      <trkpt lat="49.33687" lon="0.94892">
        <ele>54.94</ele>
        <time>2014-06-29T08:49:23Z</time>
      </trkpt>
      <trkpt lat="49.337" lon="0.94906">
        <ele>52.73</ele>
        <time>2014-06-29T08:49:29Z</time>
      </trkpt>
      <trkpt lat="49.33706" lon="0.94913">
        <ele>51.8</ele>
        <time>2014-06-29T08:49:32Z</time>
      </trkpt>
      <trkpt lat="49.33715" lon="0.94919">
        <ele>51.43</ele>
        <time>2014-06-29T08:49:38Z</time>
      </trkpt>
      <trkpt lat="49.33707" lon="0.94934">
        <ele>50.51</ele>
        <time>2014-06-29T08:49:42Z</time>
      </trkpt>
      <trkpt lat="49.33686" lon="0.94952">
        <ele>46.18</ele>
        <time>2014-06-29T08:49:47Z</time>
      </trkpt>
      <trkpt lat="49.33677" lon="0.94962">
        <ele>44.44</ele>
        <time>2014-06-29T08:49:49Z</time>
      </trkpt>
      <trkpt lat="49.33661" lon="0.94985">
        <ele>40.5</ele>
        <time>2014-06-29T08:49:54Z</time>
      </trkpt>
      <trkpt lat="49.33652" lon="0.94997">
        <ele>37.01</ele>
        <time>2014-06-29T08:49:57Z</time>
      </trkpt>
      <trkpt lat="49.33644" lon="0.9501">
        <ele>33.55</ele>
        <time>2014-06-29T08:50:01Z</time>
      </trkpt>
      <trkpt lat="49.33641" lon="0.95022">
        <ele>32.03</ele>
        <time>2014-06-29T08:50:03Z</time>
      </trkpt>
      <trkpt lat="49.33643" lon="0.95064">
        <ele>28.18</ele>
        <time>2014-06-29T08:50:09Z</time>
      </trkpt>
      <trkpt lat="49.33647" lon="0.95074">
        <ele>28.09</ele>
        <time>2014-06-29T08:50:11Z</time>
      </trkpt>
      <trkpt lat="49.33659" lon="0.95105">
        <ele>28.87</ele>
        <time>2014-06-29T08:50:17Z</time>
      </trkpt>
      <trkpt lat="49.33658" lon="0.9513">
        <ele>28.91</ele>
        <time>2014-06-29T08:50:22Z</time>
      </trkpt>
      <trkpt lat="49.33661" lon="0.9514">
        <ele>28.81</ele>
        <time>2014-06-29T08:50:25Z</time>
      </trkpt>
      <trkpt lat="49.3366" lon="0.95163">
        <ele>28.93</ele>
        <time>2014-06-29T08:50:30Z</time>
      </trkpt>
      <trkpt lat="49.33662" lon="0.95198">
        <ele>28.24</ele>
        <time>2014-06-29T08:50:37Z</time>
      </trkpt>
      <trkpt lat="49.33667" lon="0.9522">
        <ele>28.96</ele>
        <time>2014-06-29T08:50:42Z</time>
      </trkpt>
      <trkpt lat="49.33668" lon="0.95245">
        <ele>28.65</ele>
        <time>2014-06-29T08:50:48Z</time>
      </trkpt>
      <trkpt lat="49.33666" lon="0.95268">
        <ele>29.23</ele>
        <time>2014-06-29T08:50:55Z</time>
      </trkpt>
      <trkpt lat="49.33672" lon="0.95305">
        <ele>30.55</ele>
        <time>2014-06-29T08:51:03Z</time>
      </trkpt>
      <trkpt lat="49.33667" lon="0.95324">
        <ele>29.87</ele>
        <time>2014-06-29T08:51:06Z</time>
      </trkpt>
      <trkpt lat="49.33672" lon="0.95346">
        <ele>30.14</ele>
        <time>2014-06-29T08:51:10Z</time>
      </trkpt>
      <trkpt lat="49.33668" lon="0.95366">
        <ele>28.82</ele>
        <time>2014-06-29T08:51:14Z</time>
      </trkpt>
      <trkpt lat="49.33658" lon="0.95397">
        <ele>27.37</ele>
        <time>2014-06-29T08:51:20Z</time>
      </trkpt>
      <trkpt lat="49.33657" lon="0.954">
        <ele>27.15</ele>
        <time>2014-06-29T08:51:21Z</time>
      </trkpt>
      <trkpt lat="49.33644" lon="0.95422">
        <ele>26.7</ele>
        <time>2014-06-29T08:51:28Z</time>
      </trkpt>
      <trkpt lat="49.33642" lon="0.95429">
        <ele>27.01</ele>
        <time>2014-06-29T08:51:33Z</time>
      </trkpt>
      <trkpt lat="49.33649" lon="0.95438">
        <ele>27.28</ele>
        <time>2014-06-29T08:51:35Z</time>
      </trkpt>
      <trkpt lat="49.33662" lon="0.95459">
        <ele>29.66</ele>
        <time>2014-06-29T08:51:43Z</time>
      </trkpt>
      <trkpt lat="49.33666" lon="0.95467">
        <ele>31</ele>
        <time>2014-06-29T08:51:51Z</time>
      </trkpt>
      <trkpt lat="49.33667" lon="0.95471">
        <ele>32.05</ele>
        <time>2014-06-29T08:51:57Z</time>
      </trkpt>
      <trkpt lat="49.33668" lon="0.95478">
        <ele>33.53</ele>
        <time>2014-06-29T08:52:04Z</time>
      </trkpt>
      <trkpt lat="49.3367" lon="0.95483">
        <ele>35.09</ele>
        <time>2014-06-29T08:52:12Z</time>
      </trkpt>
      <trkpt lat="49.33671" lon="0.95488">
        <ele>37.2</ele>
        <time>2014-06-29T08:52:21Z</time>
      </trkpt>
      <trkpt lat="49.33672" lon="0.95496">
        <ele>38.95</ele>
        <time>2014-06-29T08:52:29Z</time>
      </trkpt>
      <trkpt lat="49.33675" lon="0.95515">
        <ele>40.82</ele>
        <time>2014-06-29T08:52:39Z</time>
      </trkpt>
      <trkpt lat="49.33682" lon="0.95563">
        <ele>42.93</ele>
        <time>2014-06-29T08:52:54Z</time>
      </trkpt>
      <trkpt lat="49.33677" lon="0.95589">
        <ele>42.23</ele>
        <time>2014-06-29T08:53:00Z</time>
      </trkpt>
      <trkpt lat="49.33676" lon="0.95592">
        <ele>42.3</ele>
        <time>2014-06-29T08:53:01Z</time>
      </trkpt>
      <trkpt lat="49.33684" lon="0.95621">
        <ele>42.51</ele>
        <time>2014-06-29T08:53:09Z</time>
      </trkpt>
      <trkpt lat="49.33682" lon="0.95644">
        <ele>42.04</ele>
        <time>2014-06-29T08:53:14Z</time>
      </trkpt>
      <trkpt lat="49.33681" lon="0.95687">
        <ele>40.6</ele>
        <time>2014-06-29T08:53:22Z</time>
      </trkpt>
      <trkpt lat="49.33681" lon="0.95722">
        <ele>40.26</ele>
        <time>2014-06-29T08:53:28Z</time>
      </trkpt>
      <trkpt lat="49.33678" lon="0.95736">
        <ele>39.61</ele>
        <time>2014-06-29T08:53:31Z</time>
      </trkpt>
      <trkpt lat="49.33681" lon="0.95744">
        <ele>40.42</ele>
        <time>2014-06-29T08:53:36Z</time>
      </trkpt>
      <trkpt lat="49.33686" lon="0.95737">
        <ele>41.02</ele>
        <time>2014-06-29T08:53:42Z</time>
      </trkpt>
      <trkpt lat="49.33698" lon="0.95719">
        <ele>42.16</ele>
        <time>2014-06-29T08:53:50Z</time>
      </trkpt>
      <trkpt lat="49.33706" lon="0.95695">
        <ele>43.65</ele>
        <time>2014-06-29T08:53:58Z</time>
      </trkpt>
      <trkpt lat="49.33712" lon="0.95675">
        <ele>45.39</ele>
        <time>2014-06-29T08:54:06Z</time>
      </trkpt>
      <trkpt lat="49.33718" lon="0.95654">
        <ele>46.56</ele>
        <time>2014-06-29T08:54:13Z</time>
      </trkpt>
      <trkpt lat="49.33725" lon="0.95627">
        <ele>47.92</ele>
        <time>2014-06-29T08:54:22Z</time>
      </trkpt>
      <trkpt lat="49.33727" lon="0.95618">
        <ele>48.74</ele>
        <time>2014-06-29T08:54:25Z</time>
      </trkpt>
      <trkpt lat="49.33732" lon="0.95593">
        <ele>50.54</ele>
        <time>2014-06-29T08:54:33Z</time>
      </trkpt>
      <trkpt lat="49.33733" lon="0.95584">
        <ele>51.11</ele>
        <time>2014-06-29T08:54:36Z</time>
      </trkpt>
      <trkpt lat="49.33736" lon="0.95557">
        <ele>53</ele>
        <time>2014-06-29T08:54:44Z</time>
      </trkpt>
      <trkpt lat="49.33737" lon="0.95552">
        <ele>53.38</ele>
        <time>2014-06-29T08:54:46Z</time>
      </trkpt>
      <trkpt lat="49.33748" lon="0.95528">
        <ele>53.38</ele>
        <time>2014-06-29T08:54:53Z</time>
      </trkpt>
      <trkpt lat="49.33754" lon="0.95501">
        <ele>53.4</ele>
        <time>2014-06-29T08:54:59Z</time>
      </trkpt>
      <trkpt lat="49.33759" lon="0.95484">
        <ele>55.28</ele>
        <time>2014-06-29T08:55:06Z</time>
      </trkpt>
      <trkpt lat="49.33765" lon="0.9545">
        <ele>57.3</ele>
        <time>2014-06-29T08:55:16Z</time>
      </trkpt>
      <trkpt lat="49.33766" lon="0.95403">
        <ele>56.83</ele>
        <time>2014-06-29T08:55:24Z</time>
      </trkpt>
      <trkpt lat="49.33771" lon="0.95365">
        <ele>57.71</ele>
        <time>2014-06-29T08:55:32Z</time>
      </trkpt>
      <trkpt lat="49.33774" lon="0.95347">
        <ele>58.98</ele>
        <time>2014-06-29T08:55:38Z</time>
      </trkpt>
      <trkpt lat="49.33777" lon="0.95324">
        <ele>59.88</ele>
        <time>2014-06-29T08:55:45Z</time>
      </trkpt>
      <trkpt lat="49.33776" lon="0.95317">
        <ele>60.2</ele>
        <time>2014-06-29T08:55:47Z</time>
      </trkpt>
      <trkpt lat="49.33775" lon="0.95305">
        <ele>61.02</ele>
        <time>2014-06-29T08:55:51Z</time>
      </trkpt>
      <trkpt lat="49.33768" lon="0.95271">
        <ele>62.55</ele>
        <time>2014-06-29T08:55:58Z</time>
      </trkpt>
      <trkpt lat="49.33761" lon="0.95239">
        <ele>63.65</ele>
        <time>2014-06-29T08:56:06Z</time>
      </trkpt>
      <trkpt lat="49.3376" lon="0.95216">
        <ele>64.85</ele>
        <time>2014-06-29T08:56:12Z</time>
      </trkpt>
      <trkpt lat="49.33761" lon="0.95201">
        <ele>65.88</ele>
        <time>2014-06-29T08:56:16Z</time>
      </trkpt>
      <trkpt lat="49.33759" lon="0.95174">
        <ele>66.63</ele>
        <time>2014-06-29T08:56:23Z</time>
      </trkpt>
      <trkpt lat="49.33759" lon="0.95171">
        <ele>66.83</ele>
        <time>2014-06-29T08:56:24Z</time>
      </trkpt>
      <trkpt lat="49.33756" lon="0.95154">
        <ele>66.97</ele>
        <time>2014-06-29T08:56:28Z</time>
      </trkpt>
      <trkpt lat="49.3375" lon="0.9511">
        <ele>67.13</ele>
        <time>2014-06-29T08:56:36Z</time>
      </trkpt>
      <trkpt lat="49.33753" lon="0.95071">
        <ele>67.48</ele>
        <time>2014-06-29T08:56:42Z</time>
      </trkpt>
      <trkpt lat="49.33766" lon="0.95023">
        <ele>65.49</ele>
        <time>2014-06-29T08:56:49Z</time>
      </trkpt>
      <trkpt lat="49.33785" lon="0.94981">
        <ele>63.08</ele>
        <time>2014-06-29T08:56:54Z</time>
      </trkpt>
      <trkpt lat="49.33794" lon="0.94967">
        <ele>61.78</ele>
        <time>2014-06-29T08:56:56Z</time>
      </trkpt>
      <trkpt lat="49.33804" lon="0.94956">
        <ele>63.12</ele>
        <time>2014-06-29T08:57:00Z</time>
      </trkpt>
      <trkpt lat="49.33815" lon="0.94953">
        <ele>65.46</ele>
        <time>2014-06-29T08:57:09Z</time>
      </trkpt>
      <trkpt lat="49.33825" lon="0.94946">
        <ele>67.36</ele>
        <time>2014-06-29T08:57:18Z</time>
      </trkpt>
      <trkpt lat="49.33834" lon="0.94936">
        <ele>69.97</ele>
        <time>2014-06-29T08:57:27Z</time>
      </trkpt>
      <trkpt lat="49.33844" lon="0.94926">
        <ele>71.97</ele>
        <time>2014-06-29T08:57:35Z</time>
      </trkpt>
      <trkpt lat="49.33855" lon="0.94918">
        <ele>73.7</ele>
        <time>2014-06-29T08:57:42Z</time>
      </trkpt>
      <trkpt lat="49.33864" lon="0.9491">
        <ele>75.75</ele>
        <time>2014-06-29T08:57:49Z</time>
      </trkpt>
      <trkpt lat="49.33869" lon="0.94903">
        <ele>76.62</ele>
        <time>2014-06-29T08:57:52Z</time>
      </trkpt>
      <trkpt lat="49.33873" lon="0.94887">
        <ele>78.43</ele>
        <time>2014-06-29T08:57:59Z</time>
      </trkpt>
      <trkpt lat="49.33875" lon="0.94882">
        <ele>79.42</ele>
        <time>2014-06-29T08:58:05Z</time>
      </trkpt>
      <trkpt lat="49.33879" lon="0.94876">
        <ele>81.62</ele>
        <time>2014-06-29T08:58:14Z</time>
      </trkpt>
      <trkpt lat="49.3388" lon="0.94866">
        <ele>84.71</ele>
        <time>2014-06-29T08:58:24Z</time>
      </trkpt>
      <trkpt lat="49.33877" lon="0.94848">
        <ele>87.28</ele>
        <time>2014-06-29T08:58:40Z</time>
      </trkpt>
      <trkpt lat="49.33872" lon="0.94834">
        <ele>89.12</ele>
        <time>2014-06-29T08:58:55Z</time>
      </trkpt>
      <trkpt lat="49.33863" lon="0.94819">
        <ele>92.28</ele>
        <time>2014-06-29T08:59:10Z</time>
      </trkpt>
      <trkpt lat="49.33855" lon="0.948">
        <ele>95.11</ele>
        <time>2014-06-29T08:59:22Z</time>
      </trkpt>
      <trkpt lat="49.33856" lon="0.94786">
        <ele>96.93</ele>
        <time>2014-06-29T08:59:35Z</time>
      </trkpt>
      <trkpt lat="49.33862" lon="0.94769">
        <ele>98.77</ele>
        <time>2014-06-29T08:59:44Z</time>
      </trkpt>
      <trkpt lat="49.33862" lon="0.94772">
        <ele>98.84</ele>
        <time>2014-06-29T08:59:46Z</time>
      </trkpt>
      <trkpt lat="49.33873" lon="0.94795">
        <ele>97.08</ele>
        <time>2014-06-29T08:59:53Z</time>
      </trkpt>
      <trkpt lat="49.3389" lon="0.94811">
        <ele>96.53</ele>
        <time>2014-06-29T08:59:59Z</time>
      </trkpt>
      <trkpt lat="49.33899" lon="0.94813">
        <ele>96.41</ele>
        <time>2014-06-29T09:00:06Z</time>
      </trkpt>
      <trkpt lat="49.33902" lon="0.94829">
        <ele>95.37</ele>
        <time>2014-06-29T09:00:11Z</time>
      </trkpt>
      <trkpt lat="49.33901" lon="0.94865">
        <ele>94.51</ele>
        <time>2014-06-29T09:00:18Z</time>
      </trkpt>
      <trkpt lat="49.33899" lon="0.94879">
        <ele>94.28</ele>
        <time>2014-06-29T09:00:20Z</time>
      </trkpt>
      <trkpt lat="49.33895" lon="0.94916">
        <ele>93.13</ele>
        <time>2014-06-29T09:00:26Z</time>
      </trkpt>
      <trkpt lat="49.33895" lon="0.94937">
        <ele>94.61</ele>
        <time>2014-06-29T09:00:32Z</time>
      </trkpt>
      <trkpt lat="49.33896" lon="0.94948">
        <ele>95.42</ele>
        <time>2014-06-29T09:00:35Z</time>
      </trkpt>
      <trkpt lat="49.33894" lon="0.94962">
        <ele>95.37</ele>
        <time>2014-06-29T09:00:39Z</time>
      </trkpt>
      <trkpt lat="49.33891" lon="0.94984">
        <ele>95.9</ele>
        <time>2014-06-29T09:00:46Z</time>
      </trkpt>
      <trkpt lat="49.33886" lon="0.9501">
        <ele>95.15</ele>
        <time>2014-06-29T09:00:52Z</time>
      </trkpt>
      <trkpt lat="49.33877" lon="0.9502">
        <ele>95.08</ele>
        <time>2014-06-29T09:00:57Z</time>
      </trkpt>
      <trkpt lat="49.33875" lon="0.95023">
        <ele>95.05</ele>
        <time>2014-06-29T09:00:58Z</time>
      </trkpt>
      <trkpt lat="49.33864" lon="0.9503">
        <ele>94.15</ele>
        <time>2014-06-29T09:01:04Z</time>
      </trkpt>
      <trkpt lat="49.33855" lon="0.95036">
        <ele>93.81</ele>
        <time>2014-06-29T09:01:07Z</time>
      </trkpt>
      <trkpt lat="49.33833" lon="0.95063">
        <ele>93.77</ele>
        <time>2014-06-29T09:01:14Z</time>
      </trkpt>
      <trkpt lat="49.33829" lon="0.95069">
        <ele>93.89</ele>
        <time>2014-06-29T09:01:15Z</time>
      </trkpt>
      <trkpt lat="49.33812" lon="0.95095">
        <ele>92.64</ele>
        <time>2014-06-29T09:01:19Z</time>
      </trkpt>
      <trkpt lat="49.33805" lon="0.95116">
        <ele>92.09</ele>
        <time>2014-06-29T09:01:22Z</time>
      </trkpt>
      <trkpt lat="49.33804" lon="0.95142">
        <ele>92.34</ele>
        <time>2014-06-29T09:01:26Z</time>
      </trkpt>
      <trkpt lat="49.33808" lon="0.95173">
        <ele>91.51</ele>
        <time>2014-06-29T09:01:32Z</time>
      </trkpt>
      <trkpt lat="49.33812" lon="0.95198">
        <ele>90.87</ele>
        <time>2014-06-29T09:01:36Z</time>
      </trkpt>
      <trkpt lat="49.33818" lon="0.95241">
        <ele>90.57</ele>
        <time>2014-06-29T09:01:43Z</time>
      </trkpt>
      <trkpt lat="49.33824" lon="0.95272">
        <ele>90.55</ele>
        <time>2014-06-29T09:01:49Z</time>
      </trkpt>
      <trkpt lat="49.33826" lon="0.95282">
        <ele>90.01</ele>
        <time>2014-06-29T09:01:51Z</time>
      </trkpt>
      <trkpt lat="49.33829" lon="0.95323">
        <ele>89.65</ele>
        <time>2014-06-29T09:01:58Z</time>
      </trkpt>
      <trkpt lat="49.33831" lon="0.95359">
        <ele>89.23</ele>
        <time>2014-06-29T09:02:04Z</time>
      </trkpt>
      <trkpt lat="49.33833" lon="0.95392">
        <ele>88.71</ele>
        <time>2014-06-29T09:02:10Z</time>
      </trkpt>
      <trkpt lat="49.33834" lon="0.95428">
        <ele>88.3</ele>
        <time>2014-06-29T09:02:17Z</time>
      </trkpt>
      <trkpt lat="49.33838" lon="0.95466">
        <ele>87.02</ele>
        <time>2014-06-29T09:02:22Z</time>
      </trkpt>
      <trkpt lat="49.33839" lon="0.95505">
        <ele>86.73</ele>
        <time>2014-06-29T09:02:27Z</time>
      </trkpt>
      <trkpt lat="49.33846" lon="0.95541">
        <ele>86.14</ele>
        <time>2014-06-29T09:02:34Z</time>
      </trkpt>
      <trkpt lat="49.33855" lon="0.95571">
        <ele>85.11</ele>
        <time>2014-06-29T09:02:40Z</time>
      </trkpt>
      <trkpt lat="49.3386" lon="0.95602">
        <ele>84.59</ele>
        <time>2014-06-29T09:02:45Z</time>
      </trkpt>
      <trkpt lat="49.33861" lon="0.95616">
        <ele>83.72</ele>
        <time>2014-06-29T09:02:47Z</time>
      </trkpt>
      <trkpt lat="49.33854" lon="0.95659">
        <ele>79.41</ele>
        <time>2014-06-29T09:02:51Z</time>
      </trkpt>
      <trkpt lat="49.33851" lon="0.95688">
        <ele>77.92</ele>
        <time>2014-06-29T09:02:53Z</time>
      </trkpt>
      <trkpt lat="49.33855" lon="0.95756">
        <ele>74.05</ele>
        <time>2014-06-29T09:02:57Z</time>
      </trkpt>
      <trkpt lat="49.33858" lon="0.958">
        <ele>70.98</ele>
        <time>2014-06-29T09:03:00Z</time>
      </trkpt>
      <trkpt lat="49.3386" lon="0.9588">
        <ele>69.83</ele>
        <time>2014-06-29T09:03:06Z</time>
      </trkpt>
      <trkpt lat="49.33861" lon="0.95891">
        <ele>69.74</ele>
        <time>2014-06-29T09:03:07Z</time>
      </trkpt>
      <trkpt lat="49.33867" lon="0.95925">
        <ele>69.43</ele>
        <time>2014-06-29T09:03:10Z</time>
      </trkpt>
      <trkpt lat="49.33872" lon="0.95996">
        <ele>68.1</ele>
        <time>2014-06-29T09:03:17Z</time>
      </trkpt>
      <trkpt lat="49.33864" lon="0.96029">
        <ele>66</ele>
        <time>2014-06-29T09:03:21Z</time>
      </trkpt>
      <trkpt lat="49.3386" lon="0.96039">
        <ele>65.13</ele>
        <time>2014-06-29T09:03:23Z</time>
      </trkpt>
      <trkpt lat="49.33861" lon="0.96053">
        <ele>63.08</ele>
        <time>2014-06-29T09:03:26Z</time>
      </trkpt>
      <trkpt lat="49.33865" lon="0.96066">
        <ele>63.17</ele>
        <time>2014-06-29T09:03:30Z</time>
      </trkpt>
      <trkpt lat="49.33865" lon="0.96093">
        <ele>61.99</ele>
        <time>2014-06-29T09:03:36Z</time>
      </trkpt>
      <trkpt lat="49.33866" lon="0.96116">
        <ele>63.18</ele>
        <time>2014-06-29T09:03:41Z</time>
      </trkpt>
      <trkpt lat="49.33867" lon="0.9613">
        <ele>63.62</ele>
        <time>2014-06-29T09:03:47Z</time>
      </trkpt>
      <trkpt lat="49.3386" lon="0.96154">
        <ele>66.05</ele>
        <time>2014-06-29T09:03:55Z</time>
      </trkpt>
      <trkpt lat="49.33854" lon="0.96172">
        <ele>67.14</ele>
        <time>2014-06-29T09:04:03Z</time>
      </trkpt>
      <trkpt lat="49.33853" lon="0.96195">
        <ele>68.21</ele>
        <time>2014-06-29T09:04:10Z</time>
      </trkpt>
      <trkpt lat="49.33848" lon="0.96209">
        <ele>69.36</ele>
        <time>2014-06-29T09:04:15Z</time>
      </trkpt>
      <trkpt lat="49.33848" lon="0.96209">
        <ele>69.42</ele>
        <time>2014-06-29T09:04:16Z</time>
      </trkpt>
      <trkpt lat="49.33836" lon="0.96217">
        <ele>68.75</ele>
        <time>2014-06-29T09:04:22Z</time>
      </trkpt>
      <trkpt lat="49.33829" lon="0.96229">
        <ele>68.57</ele>
        <time>2014-06-29T09:04:26Z</time>
      </trkpt>
      <trkpt lat="49.33816" lon="0.96249">
        <ele>69.15</ele>
        <time>2014-06-29T09:04:33Z</time>
      </trkpt>
      <trkpt lat="49.338" lon="0.9626">
        <ele>68.71</ele>
        <time>2014-06-29T09:04:38Z</time>
      </trkpt>
      <trkpt lat="49.33782" lon="0.96272">
        <ele>68.09</ele>
        <time>2014-06-29T09:04:44Z</time>
      </trkpt>
      <trkpt lat="49.33754" lon="0.96281">
        <ele>67.53</ele>
        <time>2014-06-29T09:04:52Z</time>
      </trkpt>
      <trkpt lat="49.3373" lon="0.9629">
        <ele>67.55</ele>
        <time>2014-06-29T09:04:59Z</time>
      </trkpt>
      <trkpt lat="49.33712" lon="0.96291">
        <ele>67.29</ele>
        <time>2014-06-29T09:05:04Z</time>
      </trkpt>
      <trkpt lat="49.33691" lon="0.96298">
        <ele>67.68</ele>
        <time>2014-06-29T09:05:11Z</time>
      </trkpt>
      <trkpt lat="49.33675" lon="0.96303">
        <ele>67.46</ele>
        <time>2014-06-29T09:05:17Z</time>
      </trkpt>
      <trkpt lat="49.33655" lon="0.96313">
        <ele>66.8</ele>
        <time>2014-06-29T09:05:23Z</time>
      </trkpt>
      <trkpt lat="49.33651" lon="0.96315">
        <ele>66.72</ele>
        <time>2014-06-29T09:05:24Z</time>
      </trkpt>
      <trkpt lat="49.33636" lon="0.96331">
        <ele>65.89</ele>
        <time>2014-06-29T09:05:29Z</time>
      </trkpt>
      <trkpt lat="49.33624" lon="0.9635">
        <ele>65.22</ele>
        <time>2014-06-29T09:05:33Z</time>
      </trkpt>
      <trkpt lat="49.33618" lon="0.9636">
        <ele>64.45</ele>
        <time>2014-06-29T09:05:35Z</time>
      </trkpt>
      <trkpt lat="49.33607" lon="0.96381">
        <ele>63.91</ele>
        <time>2014-06-29T09:05:40Z</time>
      </trkpt>
      <trkpt lat="49.33609" lon="0.96395">
        <ele>63.29</ele>
        <time>2014-06-29T09:05:45Z</time>
      </trkpt>
      <trkpt lat="49.33608" lon="0.96412">
        <ele>63.13</ele>
        <time>2014-06-29T09:05:49Z</time>
      </trkpt>
      <trkpt lat="49.33614" lon="0.96421">
        <ele>64.48</ele>
        <time>2014-06-29T09:05:54Z</time>
      </trkpt>
      <trkpt lat="49.3361" lon="0.96436">
        <ele>63.6</ele>
        <time>2014-06-29T09:05:58Z</time>
      </trkpt>
      <trkpt lat="49.33613" lon="0.96444">
        <ele>63.93</ele>
        <time>2014-06-29T09:06:02Z</time>
      </trkpt>
      <trkpt lat="49.33614" lon="0.96474">
        <ele>64.06</ele>
        <time>2014-06-29T09:06:11Z</time>
      </trkpt>
      <trkpt lat="49.33621" lon="0.965">
        <ele>64.89</ele>
        <time>2014-06-29T09:06:17Z</time>
      </trkpt>
      <trkpt lat="49.33629" lon="0.96528">
        <ele>65.68</ele>
        <time>2014-06-29T09:06:24Z</time>
      </trkpt>
      <trkpt lat="49.33631" lon="0.96532">
        <ele>65.72</ele>
        <time>2014-06-29T09:06:25Z</time>
      </trkpt>
      <trkpt lat="49.3363" lon="0.96545">
        <ele>65.39</ele>
        <time>2014-06-29T09:06:27Z</time>
      </trkpt>
      <trkpt lat="49.33628" lon="0.96561">
        <ele>64.61</ele>
        <time>2014-06-29T09:06:29Z</time>
      </trkpt>
      <trkpt lat="49.33625" lon="0.96601">
        <ele>61.06</ele>
        <time>2014-06-29T09:06:35Z</time>
      </trkpt>
      <trkpt lat="49.33626" lon="0.96612">
        <ele>60.5</ele>
        <time>2014-06-29T09:06:37Z</time>
      </trkpt>
      <trkpt lat="49.33633" lon="0.96639">
        <ele>60.52</ele>
        <time>2014-06-29T09:06:43Z</time>
      </trkpt>
      <trkpt lat="49.3363" lon="0.96659">
        <ele>59.31</ele>
        <time>2014-06-29T09:06:47Z</time>
      </trkpt>
      <trkpt lat="49.33629" lon="0.96681">
        <ele>57.29</ele>
        <time>2014-06-29T09:06:50Z</time>
      </trkpt>
      <trkpt lat="49.33628" lon="0.96695">
        <ele>56.32</ele>
        <time>2014-06-29T09:06:52Z</time>
      </trkpt>
      <trkpt lat="49.33634" lon="0.9674">
        <ele>54.99</ele>
        <time>2014-06-29T09:06:59Z</time>
      </trkpt>
      <trkpt lat="49.33636" lon="0.96763">
        <ele>55.42</ele>
        <time>2014-06-29T09:07:04Z</time>
      </trkpt>
      <trkpt lat="49.33629" lon="0.96788">
        <ele>54.3</ele>
        <time>2014-06-29T09:07:09Z</time>
      </trkpt>
      <trkpt lat="49.33629" lon="0.96814">
        <ele>53.94</ele>
        <time>2014-06-29T09:07:14Z</time>
      </trkpt>
      <trkpt lat="49.33629" lon="0.96853">
        <ele>54.64</ele>
        <time>2014-06-29T09:07:22Z</time>
      </trkpt>
      <trkpt lat="49.33627" lon="0.96874">
        <ele>54.66</ele>
        <time>2014-06-29T09:07:27Z</time>
      </trkpt>
      <trkpt lat="49.33622" lon="0.96905">
        <ele>54.64</ele>
        <time>2014-06-29T09:07:33Z</time>
      </trkpt>
      <trkpt lat="49.33616" lon="0.96933">
        <ele>54.6</ele>
        <time>2014-06-29T09:07:39Z</time>
      </trkpt>
      <trkpt lat="49.33604" lon="0.96954">
        <ele>53.57</ele>
        <time>2014-06-29T09:07:44Z</time>
      </trkpt>
      <trkpt lat="49.33599" lon="0.96965">
        <ele>53.02</ele>
        <time>2014-06-29T09:07:46Z</time>
      </trkpt>
      <trkpt lat="49.33596" lon="0.96977">
        <ele>53.08</ele>
        <time>2014-06-29T09:07:48Z</time>
      </trkpt>
      <trkpt lat="49.33594" lon="0.97003">
        <ele>53.71</ele>
        <time>2014-06-29T09:07:53Z</time>
      </trkpt>
      <trkpt lat="49.33591" lon="0.97014">
        <ele>53.96</ele>
        <time>2014-06-29T09:07:56Z</time>
      </trkpt>
      <trkpt lat="49.33578" lon="0.97042">
        <ele>52.6</ele>
        <time>2014-06-29T09:08:02Z</time>
      </trkpt>
      <trkpt lat="49.33573" lon="0.97067">
        <ele>51.59</ele>
        <time>2014-06-29T09:08:07Z</time>
      </trkpt>
      <trkpt lat="49.33566" lon="0.97106">
        <ele>51.7</ele>
        <time>2014-06-29T09:08:14Z</time>
      </trkpt>
      <trkpt lat="49.33545" lon="0.97134">
        <ele>49.39</ele>
        <time>2014-06-29T09:08:20Z</time>
      </trkpt>
      <trkpt lat="49.33541" lon="0.97161">
        <ele>49.61</ele>
        <time>2014-06-29T09:08:25Z</time>
      </trkpt>
      <trkpt lat="49.33537" lon="0.97166">
        <ele>49.49</ele>
        <time>2014-06-29T09:08:26Z</time>
      </trkpt>
      <trkpt lat="49.33515" lon="0.97201">
        <ele>48.17</ele>
        <time>2014-06-29T09:08:32Z</time>
      </trkpt>
      <trkpt lat="49.33498" lon="0.97226">
        <ele>49.26</ele>
        <time>2014-06-29T09:08:37Z</time>
      </trkpt>
      <trkpt lat="49.33472" lon="0.97244">
        <ele>47.08</ele>
        <time>2014-06-29T09:08:42Z</time>
      </trkpt>
      <trkpt lat="49.33454" lon="0.97264">
        <ele>45.22</ele>
        <time>2014-06-29T09:08:46Z</time>
      </trkpt>
      <trkpt lat="49.33449" lon="0.97267">
        <ele>44.41</ele>
        <time>2014-06-29T09:08:47Z</time>
      </trkpt>
      <trkpt lat="49.33432" lon="0.97288">
        <ele>42.25</ele>
        <time>2014-06-29T09:08:52Z</time>
      </trkpt>
      <trkpt lat="49.33432" lon="0.9729">
        <ele>42.53</ele>
        <time>2014-06-29T09:08:53Z</time>
      </trkpt>
      <trkpt lat="49.33436" lon="0.97297">
        <ele>44.25</ele>
        <time>2014-06-29T09:08:58Z</time>
      </trkpt>
      <trkpt lat="49.33446" lon="0.97304">
        <ele>46.21</ele>
        <time>2014-06-29T09:09:05Z</time>
      </trkpt>
      <trkpt lat="49.33451" lon="0.97312">
        <ele>49.03</ele>
        <time>2014-06-29T09:09:11Z</time>
      </trkpt>
      <trkpt lat="49.3345" lon="0.97328">
        <ele>50.58</ele>
        <time>2014-06-29T09:09:18Z</time>
      </trkpt>
      <trkpt lat="49.33454" lon="0.9734">
        <ele>52.47</ele>
        <time>2014-06-29T09:09:25Z</time>
      </trkpt>
      <trkpt lat="49.33462" lon="0.97347">
        <ele>53.55</ele>
        <time>2014-06-29T09:09:30Z</time>
      </trkpt>
      <trkpt lat="49.33467" lon="0.97361">
        <ele>55.21</ele>
        <time>2014-06-29T09:09:36Z</time>
      </trkpt>
      <trkpt lat="49.33474" lon="0.97364">
        <ele>56.78</ele>
        <time>2014-06-29T09:09:41Z</time>
      </trkpt>
      <trkpt lat="49.33477" lon="0.97368">
        <ele>57.17</ele>
        <time>2014-06-29T09:09:44Z</time>
      </trkpt>
      <trkpt lat="49.33486" lon="0.97367">
        <ele>58.56</ele>
        <time>2014-06-29T09:09:51Z</time>
      </trkpt>
      <trkpt lat="49.33491" lon="0.97374">
        <ele>59.65</ele>
        <time>2014-06-29T09:09:55Z</time>
      </trkpt>
      <trkpt lat="49.33497" lon="0.97389">
        <ele>60.36</ele>
        <time>2014-06-29T09:10:01Z</time>
      </trkpt>
      <trkpt lat="49.33517" lon="0.97406">
        <ele>58.15</ele>
        <time>2014-06-29T09:10:08Z</time>
      </trkpt>
      <trkpt lat="49.33533" lon="0.97418">
        <ele>58.38</ele>
        <time>2014-06-29T09:10:14Z</time>
      </trkpt>
      <trkpt lat="49.33543" lon="0.97426">
        <ele>59.46</ele>
        <time>2014-06-29T09:10:20Z</time>
      </trkpt>
      <trkpt lat="49.33558" lon="0.97434">
        <ele>61.19</ele>
        <time>2014-06-29T09:10:28Z</time>
      </trkpt>
      <trkpt lat="49.3357" lon="0.97447">
        <ele>62.26</ele>
        <time>2014-06-29T09:10:34Z</time>
      </trkpt>
      <trkpt lat="49.33584" lon="0.97457">
        <ele>64.01</ele>
        <time>2014-06-29T09:10:42Z</time>
      </trkpt>
      <trkpt lat="49.33594" lon="0.97461">
        <ele>65.79</ele>
        <time>2014-06-29T09:10:49Z</time>
      </trkpt>
      <trkpt lat="49.33603" lon="0.97466">
        <ele>67.77</ele>
        <time>2014-06-29T09:10:56Z</time>
      </trkpt>
      <trkpt lat="49.33602" lon="0.97475">
        <ele>67.82</ele>
        <time>2014-06-29T09:11:00Z</time>
      </trkpt>
      <trkpt lat="49.33607" lon="0.97499">
        <ele>66.2</ele>
        <time>2014-06-29T09:11:08Z</time>
      </trkpt>
      <trkpt lat="49.33604" lon="0.97505">
        <ele>65.38</ele>
        <time>2014-06-29T09:11:10Z</time>
      </trkpt>
      <trkpt lat="49.3361" lon="0.97528">
        <ele>65.07</ele>
        <time>2014-06-29T09:11:15Z</time>
      </trkpt>
      <trkpt lat="49.33622" lon="0.97545">
        <ele>66.71</ele>
        <time>2014-06-29T09:11:23Z</time>
      </trkpt>
      <trkpt lat="49.33624" lon="0.97548">
        <ele>67.07</ele>
        <time>2014-06-29T09:11:25Z</time>
      </trkpt>
      <trkpt lat="49.33615" lon="0.97571">
        <ele>67.55</ele>
        <time>2014-06-29T09:11:34Z</time>
      </trkpt>
      <trkpt lat="49.33609" lon="0.97572">
        <ele>67.47</ele>
        <time>2014-06-29T09:11:36Z</time>
      </trkpt>
      <trkpt lat="49.33602" lon="0.97572">
        <ele>67.51</ele>
        <time>2014-06-29T09:11:38Z</time>
      </trkpt>
      <trkpt lat="49.33585" lon="0.97566">
        <ele>66.87</ele>
        <time>2014-06-29T09:11:44Z</time>
      </trkpt>
      <trkpt lat="49.3357" lon="0.97562">
        <ele>64.87</ele>
        <time>2014-06-29T09:11:48Z</time>
      </trkpt>
      <trkpt lat="49.33558" lon="0.97565">
        <ele>66.37</ele>
        <time>2014-06-29T09:11:54Z</time>
      </trkpt>
      <trkpt lat="49.33541" lon="0.97565">
        <ele>66.15</ele>
        <time>2014-06-29T09:12:00Z</time>
      </trkpt>
      <trkpt lat="49.33522" lon="0.97552">
        <ele>63.48</ele>
        <time>2014-06-29T09:12:06Z</time>
      </trkpt>
      <trkpt lat="49.33518" lon="0.97549">
        <ele>62.76</ele>
        <time>2014-06-29T09:12:07Z</time>
      </trkpt>
      <trkpt lat="49.33492" lon="0.97544">
        <ele>58.73</ele>
        <time>2014-06-29T09:12:12Z</time>
      </trkpt>
      <trkpt lat="49.33489" lon="0.97546">
        <ele>58.57</ele>
        <time>2014-06-29T09:12:13Z</time>
      </trkpt>
      <trkpt lat="49.33479" lon="0.97552">
        <ele>58.44</ele>
        <time>2014-06-29T09:12:15Z</time>
      </trkpt>
      <trkpt lat="49.33451" lon="0.97576">
        <ele>56.25</ele>
        <time>2014-06-29T09:12:20Z</time>
      </trkpt>
      <trkpt lat="49.3342" lon="0.97598">
        <ele>54.27</ele>
        <time>2014-06-29T09:12:25Z</time>
      </trkpt>
      <trkpt lat="49.33407" lon="0.97626">
        <ele>52.25</ele>
        <time>2014-06-29T09:12:30Z</time>
      </trkpt>
      <trkpt lat="49.33408" lon="0.9764">
        <ele>52.92</ele>
        <time>2014-06-29T09:12:34Z</time>
      </trkpt>
      <trkpt lat="49.33412" lon="0.97656">
        <ele>54.82</ele>
        <time>2014-06-29T09:12:41Z</time>
      </trkpt>
      <trkpt lat="49.33416" lon="0.97664">
        <ele>56.11</ele>
        <time>2014-06-29T09:12:46Z</time>
      </trkpt>
      <trkpt lat="49.3342" lon="0.9769">
        <ele>57.03</ele>
        <time>2014-06-29T09:12:55Z</time>
      </trkpt>
      <trkpt lat="49.33424" lon="0.977">
        <ele>57.72</ele>
        <time>2014-06-29T09:12:59Z</time>
      </trkpt>
      <trkpt lat="49.33425" lon="0.97734">
        <ele>58.2</ele>
        <time>2014-06-29T09:13:07Z</time>
      </trkpt>
      <trkpt lat="49.33422" lon="0.97762">
        <ele>58</ele>
        <time>2014-06-29T09:13:14Z</time>
      </trkpt>
      <trkpt lat="49.3342" lon="0.97794">
        <ele>57.61</ele>
        <time>2014-06-29T09:13:20Z</time>
      </trkpt>
      <trkpt lat="49.33414" lon="0.97821">
        <ele>57.65</ele>
        <time>2014-06-29T09:13:26Z</time>
      </trkpt>
      <trkpt lat="49.33405" lon="0.9784">
        <ele>56.5</ele>
        <time>2014-06-29T09:13:30Z</time>
      </trkpt>
      <trkpt lat="49.33399" lon="0.97851">
        <ele>55.83</ele>
        <time>2014-06-29T09:13:32Z</time>
      </trkpt>
      <trkpt lat="49.33389" lon="0.97877">
        <ele>56.39</ele>
        <time>2014-06-29T09:13:38Z</time>
      </trkpt>
      <trkpt lat="49.33373" lon="0.97898">
        <ele>56.07</ele>
        <time>2014-06-29T09:13:44Z</time>
      </trkpt>
      <trkpt lat="49.3336" lon="0.97925">
        <ele>55.13</ele>
        <time>2014-06-29T09:13:50Z</time>
      </trkpt>
      <trkpt lat="49.33354" lon="0.97956">
        <ele>54.06</ele>
        <time>2014-06-29T09:13:55Z</time>
      </trkpt>
      <trkpt lat="49.33355" lon="0.97966">
        <ele>53.96</ele>
        <time>2014-06-29T09:13:58Z</time>
      </trkpt>
      <trkpt lat="49.3335" lon="0.97992">
        <ele>55.39</ele>
        <time>2014-06-29T09:14:05Z</time>
      </trkpt>
      <trkpt lat="49.33356" lon="0.98014">
        <ele>57.63</ele>
        <time>2014-06-29T09:14:13Z</time>
      </trkpt>
      <trkpt lat="49.33358" lon="0.98036">
        <ele>60.16</ele>
        <time>2014-06-29T09:14:22Z</time>
      </trkpt>
      <trkpt lat="49.33357" lon="0.98045">
        <ele>60.61</ele>
        <time>2014-06-29T09:14:25Z</time>
      </trkpt>
      <trkpt lat="49.33357" lon="0.9807">
        <ele>61.64</ele>
        <time>2014-06-29T09:14:33Z</time>
      </trkpt>
      <trkpt lat="49.33357" lon="0.98086">
        <ele>62.18</ele>
        <time>2014-06-29T09:14:38Z</time>
      </trkpt>
      <trkpt lat="49.33355" lon="0.9809">
        <ele>61.61</ele>
        <time>2014-06-29T09:14:39Z</time>
      </trkpt>
      <trkpt lat="49.33354" lon="0.98118">
        <ele>61.01</ele>
        <time>2014-06-29T09:14:44Z</time>
      </trkpt>
      <trkpt lat="49.33356" lon="0.98135">
        <ele>61.64</ele>
        <time>2014-06-29T09:14:49Z</time>
      </trkpt>
      <trkpt lat="49.33355" lon="0.98168">
        <ele>62.18</ele>
        <time>2014-06-29T09:14:59Z</time>
      </trkpt>
      <trkpt lat="49.33338" lon="0.9818">
        <ele>61.11</ele>
        <time>2014-06-29T09:15:05Z</time>
      </trkpt>
      <trkpt lat="49.3333" lon="0.98164">
        <ele>58.58</ele>
        <time>2014-06-29T09:15:10Z</time>
      </trkpt>
      <trkpt lat="49.33328" lon="0.98156">
        <ele>57.79</ele>
        <time>2014-06-29T09:15:12Z</time>
      </trkpt>
      <trkpt lat="49.33326" lon="0.98149">
        <ele>56.95</ele>
        <time>2014-06-29T09:15:14Z</time>
      </trkpt>
      <trkpt lat="49.33324" lon="0.9814">
        <ele>56.45</ele>
        <time>2014-06-29T09:15:18Z</time>
      </trkpt>
      <trkpt lat="49.33323" lon="0.98116">
        <ele>54.81</ele>
        <time>2014-06-29T09:15:24Z</time>
      </trkpt>
      <trkpt lat="49.33316" lon="0.98085">
        <ele>52.37</ele>
        <time>2014-06-29T09:15:31Z</time>
      </trkpt>
      <trkpt lat="49.33303" lon="0.98056">
        <ele>51.59</ele>
        <time>2014-06-29T09:15:37Z</time>
      </trkpt>
      <trkpt lat="49.33291" lon="0.98026">
        <ele>51.1</ele>
        <time>2014-06-29T09:15:41Z</time>
      </trkpt>
      <trkpt lat="49.33278" lon="0.98001">
        <ele>50.29</ele>
        <time>2014-06-29T09:15:45Z</time>
      </trkpt>
      <trkpt lat="49.3325" lon="0.97963">
        <ele>47.96</ele>
        <time>2014-06-29T09:15:53Z</time>
      </trkpt>
      <trkpt lat="49.33233" lon="0.97932">
        <ele>47.47</ele>
        <time>2014-06-29T09:15:59Z</time>
      </trkpt>
      <trkpt lat="49.33218" lon="0.97911">
        <ele>47.35</ele>
        <time>2014-06-29T09:16:04Z</time>
      </trkpt>
      <trkpt lat="49.3321" lon="0.97899">
        <ele>48.27</ele>
        <time>2014-06-29T09:16:10Z</time>
      </trkpt>
      <trkpt lat="49.33192" lon="0.97885">
        <ele>47.83</ele>
        <time>2014-06-29T09:16:17Z</time>
      </trkpt>
      <trkpt lat="49.33174" lon="0.9787">
        <ele>48.5</ele>
        <time>2014-06-29T09:16:23Z</time>
      </trkpt>
      <trkpt lat="49.33161" lon="0.97861">
        <ele>49.79</ele>
        <time>2014-06-29T09:16:28Z</time>
      </trkpt>
      <trkpt lat="49.33152" lon="0.97854">
        <ele>50.72</ele>
        <time>2014-06-29T09:16:32Z</time>
      </trkpt>
      <trkpt lat="49.33138" lon="0.97856">
        <ele>52.57</ele>
        <time>2014-06-29T09:16:39Z</time>
      </trkpt>
      <trkpt lat="49.33127" lon="0.97852">
        <ele>54.04</ele>
        <time>2014-06-29T09:16:45Z</time>
      </trkpt>
      <trkpt lat="49.33111" lon="0.97846">
        <ele>54.15</ele>
        <time>2014-06-29T09:16:51Z</time>
      </trkpt>
      <trkpt lat="49.33095" lon="0.97846">
        <ele>53.97</ele>
        <time>2014-06-29T09:16:57Z</time>
      </trkpt>
      <trkpt lat="49.33072" lon="0.97855">
        <ele>53.14</ele>
        <time>2014-06-29T09:17:03Z</time>
      </trkpt>
      <trkpt lat="49.33062" lon="0.97856">
        <ele>52.5</ele>
        <time>2014-06-29T09:17:05Z</time>
      </trkpt>
      <trkpt lat="49.33048" lon="0.97883">
        <ele>50.23</ele>
        <time>2014-06-29T09:17:10Z</time>
      </trkpt>
      <trkpt lat="49.33042" lon="0.97906">
        <ele>51.48</ele>
        <time>2014-06-29T09:17:16Z</time>
      </trkpt>
      <trkpt lat="49.33036" lon="0.97916">
        <ele>51.37</ele>
        <time>2014-06-29T09:17:19Z</time>
      </trkpt>
      <trkpt lat="49.33021" lon="0.97931">
        <ele>49.43</ele>
        <time>2014-06-29T09:17:23Z</time>
      </trkpt>
      <trkpt lat="49.33021" lon="0.97948">
        <ele>50.6</ele>
        <time>2014-06-29T09:17:29Z</time>
      </trkpt>
      <trkpt lat="49.33021" lon="0.97951">
        <ele>50.85</ele>
        <time>2014-06-29T09:17:30Z</time>
      </trkpt>
      <trkpt lat="49.33019" lon="0.97979">
        <ele>53.25</ele>
        <time>2014-06-29T09:17:39Z</time>
      </trkpt>
      <trkpt lat="49.33015" lon="0.97996">
        <ele>54.95</ele>
        <time>2014-06-29T09:17:46Z</time>
      </trkpt>
      <trkpt lat="49.33009" lon="0.98011">
        <ele>56.64</ele>
        <time>2014-06-29T09:17:53Z</time>
      </trkpt>
      <trkpt lat="49.33001" lon="0.98027">
        <ele>56.9</ele>
        <time>2014-06-29T09:17:58Z</time>
      </trkpt>
      <trkpt lat="49.32999" lon="0.98036">
        <ele>58.22</ele>
        <time>2014-06-29T09:18:02Z</time>
      </trkpt>
      <trkpt lat="49.3299" lon="0.9806">
        <ele>58.54</ele>
        <time>2014-06-29T09:18:09Z</time>
      </trkpt>
      <trkpt lat="49.32989" lon="0.98063">
        <ele>59.48</ele>
        <time>2014-06-29T09:18:11Z</time>
      </trkpt>
      <trkpt lat="49.32985" lon="0.98077">
        <ele>59.23</ele>
        <time>2014-06-29T09:18:18Z</time>
      </trkpt>
      <trkpt lat="49.32979" lon="0.98096">
        <ele>59.59</ele>
        <time>2014-06-29T09:18:24Z</time>
      </trkpt>
      <trkpt lat="49.32972" lon="0.9812">
        <ele>59.07</ele>
        <time>2014-06-29T09:18:31Z</time>
      </trkpt>
      <trkpt lat="49.32964" lon="0.98157">
        <ele>59.32</ele>
        <time>2014-06-29T09:18:37Z</time>
      </trkpt>
      <trkpt lat="49.32959" lon="0.98169">
        <ele>59.03</ele>
        <time>2014-06-29T09:18:39Z</time>
      </trkpt>
      <trkpt lat="49.3295" lon="0.98188">
        <ele>58.95</ele>
        <time>2014-06-29T09:18:45Z</time>
      </trkpt>
      <trkpt lat="49.32943" lon="0.98183">
        <ele>58.44</ele>
        <time>2014-06-29T09:18:48Z</time>
      </trkpt>
      <trkpt lat="49.32939" lon="0.98162">
        <ele>56.98</ele>
        <time>2014-06-29T09:18:54Z</time>
      </trkpt>
      <trkpt lat="49.32941" lon="0.98149">
        <ele>55.06</ele>
        <time>2014-06-29T09:18:58Z</time>
      </trkpt>
      <trkpt lat="49.32942" lon="0.98129">
        <ele>54.4</ele>
        <time>2014-06-29T09:19:03Z</time>
      </trkpt>
      <trkpt lat="49.32945" lon="0.98085">
        <ele>50.24</ele>
        <time>2014-06-29T09:19:09Z</time>
      </trkpt>
      <trkpt lat="49.3294" lon="0.98067">
        <ele>50.4</ele>
        <time>2014-06-29T09:19:14Z</time>
      </trkpt>
      <trkpt lat="49.32944" lon="0.98045">
        <ele>47.51</ele>
        <time>2014-06-29T09:19:21Z</time>
      </trkpt>
      <trkpt lat="49.32942" lon="0.98035">
        <ele>49.7</ele>
        <time>2014-06-29T09:19:28Z</time>
      </trkpt>
      <trkpt lat="49.32943" lon="0.9802">
        <ele>50.46</ele>
        <time>2014-06-29T09:19:35Z</time>
      </trkpt>
      <trkpt lat="49.3294" lon="0.97999">
        <ele>51.23</ele>
        <time>2014-06-29T09:19:42Z</time>
      </trkpt>
      <trkpt lat="49.32939" lon="0.97996">
        <ele>52.05</ele>
        <time>2014-06-29T09:19:44Z</time>
      </trkpt>
      <trkpt lat="49.32935" lon="0.97992">
        <ele>52.79</ele>
        <time>2014-06-29T09:19:46Z</time>
      </trkpt>
      <trkpt lat="49.32931" lon="0.97991">
        <ele>53.09</ele>
        <time>2014-06-29T09:19:49Z</time>
      </trkpt>
      <trkpt lat="49.32924" lon="0.97986">
        <ele>56.02</ele>
        <time>2014-06-29T09:19:56Z</time>
      </trkpt>
      <trkpt lat="49.32908" lon="0.97979">
        <ele>56.42</ele>
        <time>2014-06-29T09:20:07Z</time>
      </trkpt>
      <trkpt lat="49.32907" lon="0.97972">
        <ele>56.56</ele>
        <time>2014-06-29T09:20:15Z</time>
      </trkpt>
      <trkpt lat="49.32905" lon="0.97962">
        <ele>57.18</ele>
        <time>2014-06-29T09:20:19Z</time>
      </trkpt>
      <trkpt lat="49.32903" lon="0.97948">
        <ele>57.2</ele>
        <time>2014-06-29T09:20:27Z</time>
      </trkpt>
      <trkpt lat="49.32903" lon="0.97942">
        <ele>58.81</ele>
        <time>2014-06-29T09:20:35Z</time>
      </trkpt>
      <trkpt lat="49.32905" lon="0.9794">
        <ele>60.02</ele>
        <time>2014-06-29T09:20:39Z</time>
      </trkpt>
      <trkpt lat="49.32907" lon="0.97925">
        <ele>61.28</ele>
        <time>2014-06-29T09:20:48Z</time>
      </trkpt>
      <trkpt lat="49.32909" lon="0.9791">
        <ele>61.27</ele>
        <time>2014-06-29T09:20:52Z</time>
      </trkpt>
      <trkpt lat="49.32915" lon="0.97888">
        <ele>59.79</ele>
        <time>2014-06-29T09:20:59Z</time>
      </trkpt>
      <trkpt lat="49.32913" lon="0.97875">
        <ele>59.64</ele>
        <time>2014-06-29T09:21:03Z</time>
      </trkpt>
      <trkpt lat="49.32913" lon="0.97866">
        <ele>59.49</ele>
        <time>2014-06-29T09:21:05Z</time>
      </trkpt>
      <trkpt lat="49.3291" lon="0.9784">
        <ele>58.59</ele>
        <time>2014-06-29T09:21:11Z</time>
      </trkpt>
      <trkpt lat="49.32908" lon="0.97818">
        <ele>57.09</ele>
        <time>2014-06-29T09:21:15Z</time>
      </trkpt>
      <trkpt lat="49.32905" lon="0.97811">
        <ele>56.05</ele>
        <time>2014-06-29T09:21:17Z</time>
      </trkpt>
      <trkpt lat="49.32899" lon="0.97782">
        <ele>52.35</ele>
        <time>2014-06-29T09:21:24Z</time>
      </trkpt>
      <trkpt lat="49.32912" lon="0.97774">
        <ele>50.85</ele>
        <time>2014-06-29T09:21:28Z</time>
      </trkpt>
      <trkpt lat="49.32919" lon="0.97775">
        <ele>48.5</ele>
        <time>2014-06-29T09:21:32Z</time>
      </trkpt>
      <trkpt lat="49.32911" lon="0.97752">
        <ele>45.45</ele>
        <time>2014-06-29T09:21:37Z</time>
      </trkpt>
      <trkpt lat="49.32904" lon="0.97734">
        <ele>41.38</ele>
        <time>2014-06-29T09:21:40Z</time>
      </trkpt>
      <trkpt lat="49.32893" lon="0.97702">
        <ele>38.54</ele>
        <time>2014-06-29T09:21:45Z</time>
      </trkpt>
      <trkpt lat="49.32872" lon="0.97674">
        <ele>37.57</ele>
        <time>2014-06-29T09:21:52Z</time>
      </trkpt>
      <trkpt lat="49.32866" lon="0.9766">
        <ele>38.14</ele>
        <time>2014-06-29T09:21:56Z</time>
      </trkpt>
      <trkpt lat="49.32856" lon="0.97637">
        <ele>36.99</ele>
        <time>2014-06-29T09:22:03Z</time>
      </trkpt>
      <trkpt lat="49.32852" lon="0.97613">
        <ele>36.35</ele>
        <time>2014-06-29T09:22:09Z</time>
      </trkpt>
      <trkpt lat="49.32848" lon="0.97578">
        <ele>34.81</ele>
        <time>2014-06-29T09:22:15Z</time>
      </trkpt>
      <trkpt lat="49.3284" lon="0.97562">
        <ele>34.57</ele>
        <time>2014-06-29T09:22:19Z</time>
      </trkpt>
      <trkpt lat="49.32827" lon="0.97542">
        <ele>35.76</ele>
        <time>2014-06-29T09:22:24Z</time>
      </trkpt>
      <trkpt lat="49.32816" lon="0.97508">
        <ele>34.16</ele>
        <time>2014-06-29T09:22:30Z</time>
      </trkpt>
      <trkpt lat="49.32806" lon="0.97489">
        <ele>32.4</ele>
        <time>2014-06-29T09:22:34Z</time>
      </trkpt>
      <trkpt lat="49.32787" lon="0.97474">
        <ele>30.59</ele>
        <time>2014-06-29T09:22:40Z</time>
      </trkpt>
      <trkpt lat="49.32782" lon="0.97474">
        <ele>31.84</ele>
        <time>2014-06-29T09:22:46Z</time>
      </trkpt>
      <trkpt lat="49.32777" lon="0.97479">
        <ele>32.65</ele>
        <time>2014-06-29T09:22:49Z</time>
      </trkpt>
      <trkpt lat="49.32774" lon="0.97481">
        <ele>32.73</ele>
        <time>2014-06-29T09:22:51Z</time>
      </trkpt>
      <trkpt lat="49.32762" lon="0.9748">
        <ele>31.39</ele>
        <time>2014-06-29T09:22:56Z</time>
      </trkpt>
      <trkpt lat="49.32762" lon="0.97484">
        <ele>31.28</ele>
        <time>2014-06-29T09:22:58Z</time>
      </trkpt>
      <trkpt lat="49.32763" lon="0.97488">
        <ele>32.41</ele>
        <time>2014-06-29T09:23:03Z</time>
      </trkpt>
      <trkpt lat="49.32762" lon="0.97491">
        <ele>32.95</ele>
        <time>2014-06-29T09:23:06Z</time>
      </trkpt>
      <trkpt lat="49.32759" lon="0.975">
        <ele>33.01</ele>
        <time>2014-06-29T09:23:10Z</time>
      </trkpt>
      <trkpt lat="49.32761" lon="0.97512">
        <ele>33.6</ele>
        <time>2014-06-29T09:23:15Z</time>
      </trkpt>
      <trkpt lat="49.32762" lon="0.97531">
        <ele>35.06</ele>
        <time>2014-06-29T09:23:23Z</time>
      </trkpt>
      <trkpt lat="49.32764" lon="0.97539">
        <ele>35.52</ele>
        <time>2014-06-29T09:23:26Z</time>
      </trkpt>
      <trkpt lat="49.32763" lon="0.97562">
        <ele>34.98</ele>
        <time>2014-06-29T09:23:32Z</time>
      </trkpt>
      <trkpt lat="49.32766" lon="0.97568">
        <ele>35.25</ele>
        <time>2014-06-29T09:23:34Z</time>
      </trkpt>
      <trkpt lat="49.3277" lon="0.97582">
        <ele>35.48</ele>
        <time>2014-06-29T09:23:38Z</time>
      </trkpt>
      <trkpt lat="49.32777" lon="0.97595">
        <ele>35.68</ele>
        <time>2014-06-29T09:23:43Z</time>
      </trkpt>
      <trkpt lat="49.3278" lon="0.97611">
        <ele>34.91</ele>
        <time>2014-06-29T09:23:47Z</time>
      </trkpt>
      <trkpt lat="49.3279" lon="0.97625">
        <ele>34.41</ele>
        <time>2014-06-29T09:23:53Z</time>
      </trkpt>
      <trkpt lat="49.32795" lon="0.97644">
        <ele>35.63</ele>
        <time>2014-06-29T09:23:57Z</time>
      </trkpt>
      <trkpt lat="49.32807" lon="0.97665">
        <ele>37.84</ele>
        <time>2014-06-29T09:24:06Z</time>
      </trkpt>
      <trkpt lat="49.32819" lon="0.97689">
        <ele>39.92</ele>
        <time>2014-06-29T09:24:13Z</time>
      </trkpt>
      <trkpt lat="49.32826" lon="0.97716">
        <ele>40.02</ele>
        <time>2014-06-29T09:24:19Z</time>
      </trkpt>
      <trkpt lat="49.3283" lon="0.97714">
        <ele>41.74</ele>
        <time>2014-06-29T09:24:25Z</time>
      </trkpt>
      <trkpt lat="49.3283" lon="0.97713">
        <ele>41.89</ele>
        <time>2014-06-29T09:24:26Z</time>
      </trkpt>
      <trkpt lat="49.3283" lon="0.97709">
        <ele>42.37</ele>
        <time>2014-06-29T09:24:28Z</time>
      </trkpt>
      <trkpt lat="49.32834" lon="0.97706">
        <ele>43.94</ele>
        <time>2014-06-29T09:24:32Z</time>
      </trkpt>
      <trkpt lat="49.32843" lon="0.97702">
        <ele>45.59</ele>
        <time>2014-06-29T09:24:39Z</time>
      </trkpt>
      <trkpt lat="49.32847" lon="0.97703">
        <ele>45.9</ele>
        <time>2014-06-29T09:24:42Z</time>
      </trkpt>
      <trkpt lat="49.32854" lon="0.97705">
        <ele>46.27</ele>
        <time>2014-06-29T09:24:45Z</time>
      </trkpt>
      <trkpt lat="49.32858" lon="0.97717">
        <ele>47.14</ele>
        <time>2014-06-29T09:24:50Z</time>
      </trkpt>
      <trkpt lat="49.3287" lon="0.9775">
        <ele>48.45</ele>
        <time>2014-06-29T09:24:59Z</time>
      </trkpt>
      <trkpt lat="49.32872" lon="0.97778">
        <ele>49.85</ele>
        <time>2014-06-29T09:25:06Z</time>
      </trkpt>
      <trkpt lat="49.32876" lon="0.97809">
        <ele>51.26</ele>
        <time>2014-06-29T09:25:14Z</time>
      </trkpt>
      <trkpt lat="49.32869" lon="0.97838">
        <ele>51.02</ele>
        <time>2014-06-29T09:25:21Z</time>
      </trkpt>
      <trkpt lat="49.32864" lon="0.9785">
        <ele>50.52</ele>
        <time>2014-06-29T09:25:24Z</time>
      </trkpt>
      <trkpt lat="49.32866" lon="0.97878">
        <ele>51.59</ele>
        <time>2014-06-29T09:25:32Z</time>
      </trkpt>
      <trkpt lat="49.32866" lon="0.9788">
        <ele>51.88</ele>
        <time>2014-06-29T09:25:33Z</time>
      </trkpt>
      <trkpt lat="49.32857" lon="0.97894">
        <ele>51.07</ele>
        <time>2014-06-29T09:25:39Z</time>
      </trkpt>
      <trkpt lat="49.32852" lon="0.97918">
        <ele>49.81</ele>
        <time>2014-06-29T09:25:45Z</time>
      </trkpt>
      <trkpt lat="49.32852" lon="0.97938">
        <ele>50.25</ele>
        <time>2014-06-29T09:25:50Z</time>
      </trkpt>
      <trkpt lat="49.32844" lon="0.9796">
        <ele>50.25</ele>
        <time>2014-06-29T09:25:55Z</time>
      </trkpt>
      <trkpt lat="49.32843" lon="0.97977">
        <ele>50.74</ele>
        <time>2014-06-29T09:25:59Z</time>
      </trkpt>
      <trkpt lat="49.32833" lon="0.97991">
        <ele>50.11</ele>
        <time>2014-06-29T09:26:02Z</time>
      </trkpt>
      <trkpt lat="49.32827" lon="0.98001">
        <ele>49.87</ele>
        <time>2014-06-29T09:26:04Z</time>
      </trkpt>
      <trkpt lat="49.32808" lon="0.98016">
        <ele>48.03</ele>
        <time>2014-06-29T09:26:10Z</time>
      </trkpt>
      <trkpt lat="49.32802" lon="0.98025">
        <ele>47.37</ele>
        <time>2014-06-29T09:26:12Z</time>
      </trkpt>
      <trkpt lat="49.32786" lon="0.98033">
        <ele>45.59</ele>
        <time>2014-06-29T09:26:17Z</time>
      </trkpt>
      <trkpt lat="49.3277" lon="0.98047">
        <ele>43.11</ele>
        <time>2014-06-29T09:26:22Z</time>
      </trkpt>
      <trkpt lat="49.32754" lon="0.98065">
        <ele>40.4</ele>
        <time>2014-06-29T09:26:27Z</time>
      </trkpt>
      <trkpt lat="49.32741" lon="0.9808">
        <ele>39.2</ele>
        <time>2014-06-29T09:26:31Z</time>
      </trkpt>
      <trkpt lat="49.32718" lon="0.9811">
        <ele>37.08</ele>
        <time>2014-06-29T09:26:37Z</time>
      </trkpt>
      <trkpt lat="49.32709" lon="0.98115">
        <ele>36.31</ele>
        <time>2014-06-29T09:26:39Z</time>
      </trkpt>
      <trkpt lat="49.32703" lon="0.98121">
        <ele>35.09</ele>
        <time>2014-06-29T09:26:41Z</time>
      </trkpt>
      <trkpt lat="49.32695" lon="0.98142">
        <ele>35.76</ele>
        <time>2014-06-29T09:26:47Z</time>
      </trkpt>
      <trkpt lat="49.32684" lon="0.98168">
        <ele>35.22</ele>
        <time>2014-06-29T09:26:53Z</time>
      </trkpt>
      <trkpt lat="49.32671" lon="0.98183">
        <ele>36.41</ele>
        <time>2014-06-29T09:27:00Z</time>
      </trkpt>
      <trkpt lat="49.32656" lon="0.98194">
        <ele>38.46</ele>
        <time>2014-06-29T09:27:07Z</time>
      </trkpt>
      <trkpt lat="49.3264" lon="0.98208">
        <ele>38.28</ele>
        <time>2014-06-29T09:27:14Z</time>
      </trkpt>
      <trkpt lat="49.32631" lon="0.98221">
        <ele>39.79</ele>
        <time>2014-06-29T09:27:19Z</time>
      </trkpt>
      <trkpt lat="49.32612" lon="0.98237">
        <ele>40.53</ele>
        <time>2014-06-29T09:27:25Z</time>
      </trkpt>
      <trkpt lat="49.32592" lon="0.98245">
        <ele>40.44</ele>
        <time>2014-06-29T09:27:31Z</time>
      </trkpt>
      <trkpt lat="49.32574" lon="0.98252">
        <ele>39.59</ele>
        <time>2014-06-29T09:27:36Z</time>
      </trkpt>
      <trkpt lat="49.32559" lon="0.98253">
        <ele>38.96</ele>
        <time>2014-06-29T09:27:40Z</time>
      </trkpt>
      <trkpt lat="49.32538" lon="0.98257">
        <ele>36.3</ele>
        <time>2014-06-29T09:27:45Z</time>
      </trkpt>
      <trkpt lat="49.32517" lon="0.98266">
        <ele>36.48</ele>
        <time>2014-06-29T09:27:51Z</time>
      </trkpt>
      <trkpt lat="49.3251" lon="0.98267">
        <ele>36.93</ele>
        <time>2014-06-29T09:27:53Z</time>
      </trkpt>
      <trkpt lat="49.32479" lon="0.98274">
        <ele>38.04</ele>
        <time>2014-06-29T09:28:01Z</time>
      </trkpt>
      <trkpt lat="49.32458" lon="0.98281">
        <ele>39.63</ele>
        <time>2014-06-29T09:28:07Z</time>
      </trkpt>
      <trkpt lat="49.32443" lon="0.9829">
        <ele>40.48</ele>
        <time>2014-06-29T09:28:12Z</time>
      </trkpt>
      <trkpt lat="49.32418" lon="0.98293">
        <ele>41.38</ele>
        <time>2014-06-29T09:28:20Z</time>
      </trkpt>
      <trkpt lat="49.32392" lon="0.98295">
        <ele>42.54</ele>
        <time>2014-06-29T09:28:27Z</time>
      </trkpt>
      <trkpt lat="49.32373" lon="0.98284">
        <ele>42.04</ele>
        <time>2014-06-29T09:28:33Z</time>
      </trkpt>
      <trkpt lat="49.32354" lon="0.98272">
        <ele>39.52</ele>
        <time>2014-06-29T09:28:38Z</time>
      </trkpt>
      <trkpt lat="49.32331" lon="0.98249">
        <ele>37.06</ele>
        <time>2014-06-29T09:28:43Z</time>
      </trkpt>
      <trkpt lat="49.32313" lon="0.98236">
        <ele>35.18</ele>
        <time>2014-06-29T09:28:48Z</time>
      </trkpt>
      <trkpt lat="49.32296" lon="0.98241">
        <ele>36.02</ele>
        <time>2014-06-29T09:28:55Z</time>
      </trkpt>
      <trkpt lat="49.32294" lon="0.98245">
        <ele>36.49</ele>
        <time>2014-06-29T09:28:57Z</time>
      </trkpt>
      <trkpt lat="49.32293" lon="0.98259">
        <ele>37.5</ele>
        <time>2014-06-29T09:29:04Z</time>
      </trkpt>
      <trkpt lat="49.32283" lon="0.98271">
        <ele>38.27</ele>
        <time>2014-06-29T09:29:10Z</time>
      </trkpt>
      <trkpt lat="49.32273" lon="0.98284">
        <ele>37.69</ele>
        <time>2014-06-29T09:29:14Z</time>
      </trkpt>
      <trkpt lat="49.32268" lon="0.98312">
        <ele>38.83</ele>
        <time>2014-06-29T09:29:18Z</time>
      </trkpt>
      <trkpt lat="49.3225" lon="0.98374">
        <ele>39.64</ele>
        <time>2014-06-29T09:29:25Z</time>
      </trkpt>
      <trkpt lat="49.32246" lon="0.98397">
        <ele>39.36</ele>
        <time>2014-06-29T09:29:27Z</time>
      </trkpt>
      <trkpt lat="49.32223" lon="0.98479">
        <ele>39.8</ele>
        <time>2014-06-29T09:29:35Z</time>
      </trkpt>
      <trkpt lat="49.32197" lon="0.98538">
        <ele>40.66</ele>
        <time>2014-06-29T09:29:42Z</time>
      </trkpt>
      <trkpt lat="49.32176" lon="0.98566">
        <ele>40.13</ele>
        <time>2014-06-29T09:29:46Z</time>
      </trkpt>
      <trkpt lat="49.32165" lon="0.98595">
        <ele>37.94</ele>
        <time>2014-06-29T09:29:50Z</time>
      </trkpt>
      <trkpt lat="49.32175" lon="0.9861">
        <ele>36.7</ele>
        <time>2014-06-29T09:29:54Z</time>
      </trkpt>
      <trkpt lat="49.32191" lon="0.98622">
        <ele>35.63</ele>
        <time>2014-06-29T09:29:57Z</time>
      </trkpt>
      <trkpt lat="49.32202" lon="0.98635">
        <ele>33.87</ele>
        <time>2014-06-29T09:29:59Z</time>
      </trkpt>
      <trkpt lat="49.3222" lon="0.98659">
        <ele>32.18</ele>
        <time>2014-06-29T09:30:02Z</time>
      </trkpt>
      <trkpt lat="49.32237" lon="0.987">
        <ele>30.91</ele>
        <time>2014-06-29T09:30:07Z</time>
      </trkpt>
      <trkpt lat="49.32232" lon="0.98709">
        <ele>29.83</ele>
        <time>2014-06-29T09:30:09Z</time>
      </trkpt>
      <trkpt lat="49.32219" lon="0.98716">
        <ele>27.64</ele>
        <time>2014-06-29T09:30:14Z</time>
      </trkpt>
      <trkpt lat="49.32194" lon="0.98707">
        <ele>23.86</ele>
        <time>2014-06-29T09:30:20Z</time>
      </trkpt>
      <trkpt lat="49.32175" lon="0.98715">
        <ele>22.63</ele>
        <time>2014-06-29T09:30:25Z</time>
      </trkpt>
      <trkpt lat="49.32163" lon="0.98732">
        <ele>21.78</ele>
        <time>2014-06-29T09:30:30Z</time>
      </trkpt>
      <trkpt lat="49.32154" lon="0.98749">
        <ele>20.51</ele>
        <time>2014-06-29T09:30:33Z</time>
      </trkpt>
      <trkpt lat="49.32146" lon="0.9879">
        <ele>17.5</ele>
        <time>2014-06-29T09:30:39Z</time>
      </trkpt>
      <trkpt lat="49.32144" lon="0.98795">
        <ele>17.3</ele>
        <time>2014-06-29T09:30:40Z</time>
      </trkpt>
      <trkpt lat="49.32142" lon="0.98804">
        <ele>17.75</ele>
        <time>2014-06-29T09:30:44Z</time>
      </trkpt>
      <trkpt lat="49.32141" lon="0.98815">
        <ele>18.05</ele>
        <time>2014-06-29T09:30:49Z</time>
      </trkpt>
      <trkpt lat="49.32135" lon="0.98849">
        <ele>17.1</ele>
        <time>2014-06-29T09:30:56Z</time>
      </trkpt>
      <trkpt lat="49.32125" lon="0.98882">
        <ele>14</ele>
        <time>2014-06-29T09:31:02Z</time>
      </trkpt>
      <trkpt lat="49.32113" lon="0.98922">
        <ele>12.37</ele>
        <time>2014-06-29T09:31:09Z</time>
      </trkpt>
      <trkpt lat="49.32107" lon="0.98946">
        <ele>9.84</ele>
        <time>2014-06-29T09:31:15Z</time>
      </trkpt>
      <trkpt lat="49.32099" lon="0.98972">
        <ele>11.03</ele>
        <time>2014-06-29T09:31:22Z</time>
      </trkpt>
      <trkpt lat="49.3209" lon="0.98992">
        <ele>11.9</ele>
        <time>2014-06-29T09:31:27Z</time>
      </trkpt>
      <trkpt lat="49.32072" lon="0.99019">
        <ele>8.46</ele>
        <time>2014-06-29T09:31:34Z</time>
      </trkpt>
      <trkpt lat="49.32065" lon="0.99028">
        <ele>6.64</ele>
        <time>2014-06-29T09:31:37Z</time>
      </trkpt>
      <trkpt lat="49.32048" lon="0.99045">
        <ele>4.79</ele>
        <time>2014-06-29T09:31:43Z</time>
      </trkpt>
      <trkpt lat="49.32045" lon="0.99047">
        <ele>3.77</ele>
        <time>2014-06-29T09:31:44Z</time>
      </trkpt>
      <trkpt lat="49.32039" lon="0.9905">
        <ele>0.62</ele>
        <time>2014-06-29T09:31:48Z</time>
      </trkpt>
      <trkpt lat="49.32039" lon="0.9905">
        <ele>0.33</ele>
        <time>2014-06-29T09:31:49Z</time>
      </trkpt>
      <trkpt lat="49.32045" lon="0.9904">
        <ele>0.62</ele>
        <time>2014-06-29T09:31:54Z</time>
      </trkpt>
      <trkpt lat="49.32066" lon="0.98992">
        <ele>-0.55</ele>
        <time>2014-06-29T09:32:02Z</time>
      </trkpt>
      <trkpt lat="49.32077" lon="0.98967">
        <ele>-0.36</ele>
        <time>2014-06-29T09:32:06Z</time>
      </trkpt>
      <trkpt lat="49.32087" lon="0.98937">
        <ele>-0.44</ele>
        <time>2014-06-29T09:32:12Z</time>
      </trkpt>
      <trkpt lat="49.32094" lon="0.98915">
        <ele>-0.11</ele>
        <time>2014-06-29T09:32:16Z</time>
      </trkpt>
      <trkpt lat="49.32103" lon="0.98867">
        <ele>1.09</ele>
        <time>2014-06-29T09:32:23Z</time>
      </trkpt>
      <trkpt lat="49.32112" lon="0.98838">
        <ele>2.52</ele>
        <time>2014-06-29T09:32:29Z</time>
      </trkpt>
      <trkpt lat="49.3212" lon="0.9882">
        <ele>4.88</ele>
        <time>2014-06-29T09:32:36Z</time>
      </trkpt>
      <trkpt lat="49.32129" lon="0.98796">
        <ele>7.11</ele>
        <time>2014-06-29T09:32:45Z</time>
      </trkpt>
      <trkpt lat="49.32134" lon="0.98776">
        <ele>9.6</ele>
        <time>2014-06-29T09:32:53Z</time>
      </trkpt>
      <trkpt lat="49.32138" lon="0.98752">
        <ele>11.33</ele>
        <time>2014-06-29T09:32:59Z</time>
      </trkpt>
      <trkpt lat="49.32144" lon="0.98736">
        <ele>13.23</ele>
        <time>2014-06-29T09:33:06Z</time>
      </trkpt>
      <trkpt lat="49.32155" lon="0.98726">
        <ele>15.11</ele>
        <time>2014-06-29T09:33:13Z</time>
      </trkpt>
      <trkpt lat="49.32167" lon="0.98714">
        <ele>16.99</ele>
        <time>2014-06-29T09:33:21Z</time>
      </trkpt>
      <trkpt lat="49.32177" lon="0.98698">
        <ele>18.7</ele>
        <time>2014-06-29T09:33:28Z</time>
      </trkpt>
      <trkpt lat="49.32187" lon="0.98687">
        <ele>20.42</ele>
        <time>2014-06-29T09:33:36Z</time>
      </trkpt>
      <trkpt lat="49.32197" lon="0.98678">
        <ele>22.21</ele>
        <time>2014-06-29T09:33:44Z</time>
      </trkpt>
      <trkpt lat="49.322" lon="0.98672">
        <ele>22.93</ele>
        <time>2014-06-29T09:33:48Z</time>
      </trkpt>
      <trkpt lat="49.32201" lon="0.98654">
        <ele>24.9</ele>
        <time>2014-06-29T09:33:57Z</time>
      </trkpt>
      <trkpt lat="49.32197" lon="0.98632">
        <ele>27.35</ele>
        <time>2014-06-29T09:34:04Z</time>
      </trkpt>
      <trkpt lat="49.32188" lon="0.98627">
        <ele>29.27</ele>
        <time>2014-06-29T09:34:12Z</time>
      </trkpt>
      <trkpt lat="49.32184" lon="0.98623">
        <ele>31.55</ele>
        <time>2014-06-29T09:34:18Z</time>
      </trkpt>
      <trkpt lat="49.32175" lon="0.98609">
        <ele>34.34</ele>
        <time>2014-06-29T09:34:26Z</time>
      </trkpt>
      <trkpt lat="49.32166" lon="0.98595">
        <ele>35.54</ele>
        <time>2014-06-29T09:34:34Z</time>
      </trkpt>
      <trkpt lat="49.32166" lon="0.98593">
        <ele>35.62</ele>
        <time>2014-06-29T09:34:35Z</time>
      </trkpt>
      <trkpt lat="49.32157" lon="0.98575">
        <ele>36.39</ele>
        <time>2014-06-29T09:34:43Z</time>
      </trkpt>
      <trkpt lat="49.32151" lon="0.98569">
        <ele>36.65</ele>
        <time>2014-06-29T09:34:47Z</time>
      </trkpt>
      <trkpt lat="49.32145" lon="0.98556">
        <ele>36.94</ele>
        <time>2014-06-29T09:34:51Z</time>
      </trkpt>
      <trkpt lat="49.32128" lon="0.98535">
        <ele>36.75</ele>
        <time>2014-06-29T09:34:58Z</time>
      </trkpt>
      <trkpt lat="49.32123" lon="0.98528">
        <ele>36.76</ele>
        <time>2014-06-29T09:35:00Z</time>
      </trkpt>
      <trkpt lat="49.32104" lon="0.98511">
        <ele>35.63</ele>
        <time>2014-06-29T09:35:05Z</time>
      </trkpt>
      <trkpt lat="49.32086" lon="0.98495">
        <ele>35.75</ele>
        <time>2014-06-29T09:35:11Z</time>
      </trkpt>
      <trkpt lat="49.32084" lon="0.98492">
        <ele>36.02</ele>
        <time>2014-06-29T09:35:12Z</time>
      </trkpt>
      <trkpt lat="49.32079" lon="0.98476">
        <ele>37.08</ele>
        <time>2014-06-29T09:35:17Z</time>
      </trkpt>
      <trkpt lat="49.32069" lon="0.98472">
        <ele>37.78</ele>
        <time>2014-06-29T09:35:20Z</time>
      </trkpt>
      <trkpt lat="49.3204" lon="0.9847">
        <ele>36.87</ele>
        <time>2014-06-29T09:35:27Z</time>
      </trkpt>
      <trkpt lat="49.32018" lon="0.98465">
        <ele>36.29</ele>
        <time>2014-06-29T09:35:32Z</time>
      </trkpt>
      <trkpt lat="49.31996" lon="0.98471">
        <ele>35.17</ele>
        <time>2014-06-29T09:35:37Z</time>
      </trkpt>
      <trkpt lat="49.31976" lon="0.98474">
        <ele>32.63</ele>
        <time>2014-06-29T09:35:42Z</time>
      </trkpt>
      <trkpt lat="49.31969" lon="0.98476">
        <ele>31.99</ele>
        <time>2014-06-29T09:35:45Z</time>
      </trkpt>
      <trkpt lat="49.31944" lon="0.98486">
        <ele>28.8</ele>
        <time>2014-06-29T09:35:51Z</time>
      </trkpt>
      <trkpt lat="49.31911" lon="0.98495">
        <ele>25.49</ele>
        <time>2014-06-29T09:35:57Z</time>
      </trkpt>
      <trkpt lat="49.31896" lon="0.98498">
        <ele>21.58</ele>
        <time>2014-06-29T09:36:00Z</time>
      </trkpt>
      <trkpt lat="49.31868" lon="0.98499">
        <ele>16.9</ele>
        <time>2014-06-29T09:36:05Z</time>
      </trkpt>
      <trkpt lat="49.31856" lon="0.98498">
        <ele>13.43</ele>
        <time>2014-06-29T09:36:08Z</time>
      </trkpt>
      <trkpt lat="49.31844" lon="0.98497">
        <ele>9.43</ele>
        <time>2014-06-29T09:36:11Z</time>
      </trkpt>
      <trkpt lat="49.31836" lon="0.98496">
        <ele>5.95</ele>
        <time>2014-06-29T09:36:13Z</time>
      </trkpt>
      <trkpt lat="49.31834" lon="0.98495">
        <ele>4.98</ele>
        <time>2014-06-29T09:36:14Z</time>
      </trkpt>
      <trkpt lat="49.31833" lon="0.98488">
        <ele>4.1</ele>
        <time>2014-06-29T09:36:16Z</time>
      </trkpt>
      <trkpt lat="49.31833" lon="0.98474">
        <ele>4.21</ele>
        <time>2014-06-29T09:36:19Z</time>
      </trkpt>
      <trkpt lat="49.31845" lon="0.98451">
        <ele>4.94</ele>
        <time>2014-06-29T09:36:27Z</time>
      </trkpt>
      <trkpt lat="49.31856" lon="0.98426">
        <ele>4.85</ele>
        <time>2014-06-29T09:36:33Z</time>
      </trkpt>
      <trkpt lat="49.31861" lon="0.98407">
        <ele>4.91</ele>
        <time>2014-06-29T09:36:37Z</time>
      </trkpt>
      <trkpt lat="49.31872" lon="0.98396">
        <ele>4.84</ele>
        <time>2014-06-29T09:36:42Z</time>
      </trkpt>
      <trkpt lat="49.31895" lon="0.98366">
        <ele>6.25</ele>
        <time>2014-06-29T09:36:50Z</time>
      </trkpt>
      <trkpt lat="49.31913" lon="0.98343">
        <ele>6.95</ele>
        <time>2014-06-29T09:36:56Z</time>
      </trkpt>
      <trkpt lat="49.31937" lon="0.98317">
        <ele>7.18</ele>
        <time>2014-06-29T09:37:04Z</time>
      </trkpt>
      <trkpt lat="49.31959" lon="0.98277">
        <ele>6.94</ele>
        <time>2014-06-29T09:37:12Z</time>
      </trkpt>
      <trkpt lat="49.31977" lon="0.9825">
        <ele>6.57</ele>
        <time>2014-06-29T09:37:17Z</time>
      </trkpt>
      <trkpt lat="49.31999" lon="0.98219">
        <ele>6.93</ele>
        <time>2014-06-29T09:37:24Z</time>
      </trkpt>
      <trkpt lat="49.32031" lon="0.98187">
        <ele>7.29</ele>
        <time>2014-06-29T09:37:32Z</time>
      </trkpt>
      <trkpt lat="49.3205" lon="0.98176">
        <ele>8.14</ele>
        <time>2014-06-29T09:37:38Z</time>
      </trkpt>
      <trkpt lat="49.32054" lon="0.98176">
        <ele>8.79</ele>
        <time>2014-06-29T09:37:39Z</time>
      </trkpt>
      <trkpt lat="49.32065" lon="0.98163">
        <ele>10.09</ele>
        <time>2014-06-29T09:37:44Z</time>
      </trkpt>
      <trkpt lat="49.32076" lon="0.98144">
        <ele>8.99</ele>
        <time>2014-06-29T09:37:48Z</time>
      </trkpt>
      <trkpt lat="49.32093" lon="0.98115">
        <ele>7.98</ele>
        <time>2014-06-29T09:37:55Z</time>
      </trkpt>
      <trkpt lat="49.32113" lon="0.98096">
        <ele>7.21</ele>
        <time>2014-06-29T09:38:01Z</time>
      </trkpt>
      <trkpt lat="49.32135" lon="0.98082">
        <ele>6.9</ele>
        <time>2014-06-29T09:38:08Z</time>
      </trkpt>
      <trkpt lat="49.3216" lon="0.98071">
        <ele>7.16</ele>
        <time>2014-06-29T09:38:16Z</time>
      </trkpt>
      <trkpt lat="49.32191" lon="0.98055">
        <ele>7.64</ele>
        <time>2014-06-29T09:38:23Z</time>
      </trkpt>
      <trkpt lat="49.32215" lon="0.98049">
        <ele>7.31</ele>
        <time>2014-06-29T09:38:30Z</time>
      </trkpt>
      <trkpt lat="49.32239" lon="0.98051">
        <ele>7.09</ele>
        <time>2014-06-29T09:38:37Z</time>
      </trkpt>
      <trkpt lat="49.32257" lon="0.98054">
        <ele>6.92</ele>
        <time>2014-06-29T09:38:43Z</time>
      </trkpt>
      <trkpt lat="49.32272" lon="0.98057">
        <ele>7.45</ele>
        <time>2014-06-29T09:38:48Z</time>
      </trkpt>
      <trkpt lat="49.32288" lon="0.98073">
        <ele>8.02</ele>
        <time>2014-06-29T09:38:55Z</time>
      </trkpt>
      <trkpt lat="49.32312" lon="0.98085">
        <ele>7.09</ele>
        <time>2014-06-29T09:39:02Z</time>
      </trkpt>
      <trkpt lat="49.32332" lon="0.98105">
        <ele>8.02</ele>
        <time>2014-06-29T09:39:09Z</time>
      </trkpt>
      <trkpt lat="49.32335" lon="0.98106">
        <ele>8.01</ele>
        <time>2014-06-29T09:39:10Z</time>
      </trkpt>
      <trkpt lat="49.32356" lon="0.9812">
        <ele>8.2</ele>
        <time>2014-06-29T09:39:18Z</time>
      </trkpt>
      <trkpt lat="49.32377" lon="0.98129">
        <ele>8.19</ele>
        <time>2014-06-29T09:39:25Z</time>
      </trkpt>
      <trkpt lat="49.3239" lon="0.98136">
        <ele>8.03</ele>
        <time>2014-06-29T09:39:30Z</time>
      </trkpt>
      <trkpt lat="49.32409" lon="0.98129">
        <ele>7.23</ele>
        <time>2014-06-29T09:39:35Z</time>
      </trkpt>
      <trkpt lat="49.32423" lon="0.9812">
        <ele>7.76</ele>
        <time>2014-06-29T09:39:40Z</time>
      </trkpt>
      <trkpt lat="49.32426" lon="0.98113">
        <ele>7.7</ele>
        <time>2014-06-29T09:39:42Z</time>
      </trkpt>
      <trkpt lat="49.32427" lon="0.98108">
        <ele>8.15</ele>
        <time>2014-06-29T09:39:44Z</time>
      </trkpt>
      <trkpt lat="49.32428" lon="0.98104">
        <ele>8.22</ele>
        <time>2014-06-29T09:39:46Z</time>
      </trkpt>
      <trkpt lat="49.32441" lon="0.98101">
        <ele>8.05</ele>
        <time>2014-06-29T09:39:51Z</time>
      </trkpt>
      <trkpt lat="49.3246" lon="0.98074">
        <ele>8.45</ele>
        <time>2014-06-29T09:40:00Z</time>
      </trkpt>
      <trkpt lat="49.32466" lon="0.98067">
        <ele>8.84</ele>
        <time>2014-06-29T09:40:02Z</time>
      </trkpt>
      <trkpt lat="49.32475" lon="0.98048">
        <ele>9.87</ele>
        <time>2014-06-29T09:40:08Z</time>
      </trkpt>
      <trkpt lat="49.32484" lon="0.98037">
        <ele>11.32</ele>
        <time>2014-06-29T09:40:15Z</time>
      </trkpt>
      <trkpt lat="49.32495" lon="0.9802">
        <ele>13.04</ele>
        <time>2014-06-29T09:40:23Z</time>
      </trkpt>
      <trkpt lat="49.32498" lon="0.98014">
        <ele>13.39</ele>
        <time>2014-06-29T09:40:25Z</time>
      </trkpt>
      <trkpt lat="49.32504" lon="0.98004">
        <ele>14.03</ele>
        <time>2014-06-29T09:40:29Z</time>
      </trkpt>
      <trkpt lat="49.32515" lon="0.97996">
        <ele>15.53</ele>
        <time>2014-06-29T09:40:34Z</time>
      </trkpt>
      <trkpt lat="49.32525" lon="0.97985">
        <ele>16.4</ele>
        <time>2014-06-29T09:40:40Z</time>
      </trkpt>
      <trkpt lat="49.32534" lon="0.97973">
        <ele>17.98</ele>
        <time>2014-06-29T09:40:47Z</time>
      </trkpt>
      <trkpt lat="49.32539" lon="0.97973">
        <ele>18.5</ele>
        <time>2014-06-29T09:40:50Z</time>
      </trkpt>
      <trkpt lat="49.32542" lon="0.97964">
        <ele>18.91</ele>
        <time>2014-06-29T09:40:54Z</time>
      </trkpt>
      <trkpt lat="49.32553" lon="0.97952">
        <ele>20.17</ele>
        <time>2014-06-29T09:41:03Z</time>
      </trkpt>
      <trkpt lat="49.32557" lon="0.97946">
        <ele>20.76</ele>
        <time>2014-06-29T09:41:06Z</time>
      </trkpt>
      <trkpt lat="49.32569" lon="0.9794">
        <ele>21.26</ele>
        <time>2014-06-29T09:41:12Z</time>
      </trkpt>
      <trkpt lat="49.32577" lon="0.97932">
        <ele>21.54</ele>
        <time>2014-06-29T09:41:15Z</time>
      </trkpt>
      <trkpt lat="49.3259" lon="0.97916">
        <ele>21.14</ele>
        <time>2014-06-29T09:41:22Z</time>
      </trkpt>
      <trkpt lat="49.32592" lon="0.97914">
        <ele>21.13</ele>
        <time>2014-06-29T09:41:23Z</time>
      </trkpt>
      <trkpt lat="49.32597" lon="0.97911">
        <ele>20.9</ele>
        <time>2014-06-29T09:41:25Z</time>
      </trkpt>
      <trkpt lat="49.326" lon="0.97904">
        <ele>20.4</ele>
        <time>2014-06-29T09:41:28Z</time>
      </trkpt>
      <trkpt lat="49.32611" lon="0.97888">
        <ele>19.25</ele>
        <time>2014-06-29T09:41:35Z</time>
      </trkpt>
      <trkpt lat="49.32617" lon="0.97877">
        <ele>19.41</ele>
        <time>2014-06-29T09:41:40Z</time>
      </trkpt>
      <trkpt lat="49.32617" lon="0.97875">
        <ele>19.68</ele>
        <time>2014-06-29T09:41:41Z</time>
      </trkpt>
      <trkpt lat="49.32621" lon="0.97869">
        <ele>19.54</ele>
        <time>2014-06-29T09:41:47Z</time>
      </trkpt>
      <trkpt lat="49.32625" lon="0.97869">
        <ele>19.24</ele>
        <time>2014-06-29T09:41:49Z</time>
      </trkpt>
      <trkpt lat="49.32629" lon="0.97859">
        <ele>18.44</ele>
        <time>2014-06-29T09:41:53Z</time>
      </trkpt>
      <trkpt lat="49.32632" lon="0.97839">
        <ele>17.8</ele>
        <time>2014-06-29T09:42:00Z</time>
      </trkpt>
      <trkpt lat="49.32632" lon="0.97834">
        <ele>17.88</ele>
        <time>2014-06-29T09:42:02Z</time>
      </trkpt>
      <trkpt lat="49.32631" lon="0.97814">
        <ele>17.87</ele>
        <time>2014-06-29T09:42:08Z</time>
      </trkpt>
      <trkpt lat="49.32619" lon="0.97805">
        <ele>18.6</ele>
        <time>2014-06-29T09:42:14Z</time>
      </trkpt>
      <trkpt lat="49.32596" lon="0.97794">
        <ele>19.37</ele>
        <time>2014-06-29T09:42:23Z</time>
      </trkpt>
      <trkpt lat="49.32585" lon="0.97788">
        <ele>20.34</ele>
        <time>2014-06-29T09:42:29Z</time>
      </trkpt>
      <trkpt lat="49.32567" lon="0.97782">
        <ele>20.89</ele>
        <time>2014-06-29T09:42:36Z</time>
      </trkpt>
      <trkpt lat="49.32549" lon="0.97781">
        <ele>21.75</ele>
        <time>2014-06-29T09:42:42Z</time>
      </trkpt>
      <trkpt lat="49.32527" lon="0.9777">
        <ele>23.49</ele>
        <time>2014-06-29T09:42:50Z</time>
      </trkpt>
      <trkpt lat="49.3252" lon="0.97764">
        <ele>24.38</ele>
        <time>2014-06-29T09:42:54Z</time>
      </trkpt>
      <trkpt lat="49.32512" lon="0.97762">
        <ele>25.28</ele>
        <time>2014-06-29T09:42:58Z</time>
      </trkpt>
      <trkpt lat="49.32504" lon="0.97757">
        <ele>26.84</ele>
        <time>2014-06-29T09:43:03Z</time>
      </trkpt>
      <trkpt lat="49.32492" lon="0.97756">
        <ele>29.3</ele>
        <time>2014-06-29T09:43:11Z</time>
      </trkpt>
      <trkpt lat="49.32473" lon="0.97744">
        <ele>31.1</ele>
        <time>2014-06-29T09:43:19Z</time>
      </trkpt>
      <trkpt lat="49.32469" lon="0.97741">
        <ele>31.6</ele>
        <time>2014-06-29T09:43:22Z</time>
      </trkpt>
      <trkpt lat="49.32458" lon="0.97738">
        <ele>33.86</ele>
        <time>2014-06-29T09:43:32Z</time>
      </trkpt>
      <trkpt lat="49.32443" lon="0.97737">
        <ele>36.07</ele>
        <time>2014-06-29T09:43:40Z</time>
      </trkpt>
      <trkpt lat="49.32426" lon="0.97729">
        <ele>38.48</ele>
        <time>2014-06-29T09:43:49Z</time>
      </trkpt>
      <trkpt lat="49.32415" lon="0.97724">
        <ele>40.66</ele>
        <time>2014-06-29T09:43:57Z</time>
      </trkpt>
      <trkpt lat="49.32404" lon="0.97721">
        <ele>42.39</ele>
        <time>2014-06-29T09:44:05Z</time>
      </trkpt>
      <trkpt lat="49.32402" lon="0.97718">
        <ele>43.14</ele>
        <time>2014-06-29T09:44:08Z</time>
      </trkpt>
      <trkpt lat="49.32398" lon="0.97704">
        <ele>44.28</ele>
        <time>2014-06-29T09:44:14Z</time>
      </trkpt>
      <trkpt lat="49.32385" lon="0.97691">
        <ele>45.16</ele>
        <time>2014-06-29T09:44:19Z</time>
      </trkpt>
      <trkpt lat="49.32372" lon="0.97689">
        <ele>47.17</ele>
        <time>2014-06-29T09:44:29Z</time>
      </trkpt>
      <trkpt lat="49.3237" lon="0.97688">
        <ele>47.6</ele>
        <time>2014-06-29T09:44:31Z</time>
      </trkpt>
      <trkpt lat="49.3236" lon="0.97679">
        <ele>49.41</ele>
        <time>2014-06-29T09:44:40Z</time>
      </trkpt>
      <trkpt lat="49.32344" lon="0.97687">
        <ele>50.72</ele>
        <time>2014-06-29T09:44:47Z</time>
      </trkpt>
      <trkpt lat="49.32337" lon="0.97694">
        <ele>51.37</ele>
        <time>2014-06-29T09:44:50Z</time>
      </trkpt>
      <trkpt lat="49.32327" lon="0.97712">
        <ele>52.08</ele>
        <time>2014-06-29T09:44:57Z</time>
      </trkpt>
      <trkpt lat="49.32317" lon="0.97728">
        <ele>52.39</ele>
        <time>2014-06-29T09:45:03Z</time>
      </trkpt>
      <trkpt lat="49.323" lon="0.97748">
        <ele>52.11</ele>
        <time>2014-06-29T09:45:10Z</time>
      </trkpt>
      <trkpt lat="49.32273" lon="0.97764">
        <ele>49.7</ele>
        <time>2014-06-29T09:45:15Z</time>
      </trkpt>
      <trkpt lat="49.32255" lon="0.97774">
        <ele>47.41</ele>
        <time>2014-06-29T09:45:18Z</time>
      </trkpt>
      <trkpt lat="49.32243" lon="0.9779">
        <ele>43.31</ele>
        <time>2014-06-29T09:45:21Z</time>
      </trkpt>
      <trkpt lat="49.3222" lon="0.97807">
        <ele>38.96</ele>
        <time>2014-06-29T09:45:26Z</time>
      </trkpt>
      <trkpt lat="49.32203" lon="0.97819">
        <ele>37.54</ele>
        <time>2014-06-29T09:45:31Z</time>
      </trkpt>
      <trkpt lat="49.32184" lon="0.97833">
        <ele>36.73</ele>
        <time>2014-06-29T09:45:36Z</time>
      </trkpt>
      <trkpt lat="49.32158" lon="0.97849">
        <ele>33.33</ele>
        <time>2014-06-29T09:45:43Z</time>
      </trkpt>
      <trkpt lat="49.32145" lon="0.97855">
        <ele>33.99</ele>
        <time>2014-06-29T09:45:48Z</time>
      </trkpt>
      <trkpt lat="49.32129" lon="0.97859">
        <ele>35.45</ele>
        <time>2014-06-29T09:45:54Z</time>
      </trkpt>
      <trkpt lat="49.32128" lon="0.97859">
        <ele>35.75</ele>
        <time>2014-06-29T09:45:55Z</time>
      </trkpt>
      <trkpt lat="49.32117" lon="0.9787">
        <ele>35.73</ele>
        <time>2014-06-29T09:46:01Z</time>
      </trkpt>
      <trkpt lat="49.32107" lon="0.97878">
        <ele>36.62</ele>
        <time>2014-06-29T09:46:07Z</time>
      </trkpt>
      <trkpt lat="49.32096" lon="0.97882">
        <ele>38.14</ele>
        <time>2014-06-29T09:46:14Z</time>
      </trkpt>
      <trkpt lat="49.32078" lon="0.97898">
        <ele>40.17</ele>
        <time>2014-06-29T09:46:23Z</time>
      </trkpt>
      <trkpt lat="49.32075" lon="0.97899">
        <ele>40.36</ele>
        <time>2014-06-29T09:46:25Z</time>
      </trkpt>
      <trkpt lat="49.32069" lon="0.9791">
        <ele>40.07</ele>
        <time>2014-06-29T09:46:28Z</time>
      </trkpt>
      <trkpt lat="49.32059" lon="0.97923">
        <ele>39.42</ele>
        <time>2014-06-29T09:46:33Z</time>
      </trkpt>
      <trkpt lat="49.32047" lon="0.97934">
        <ele>39.85</ele>
        <time>2014-06-29T09:46:40Z</time>
      </trkpt>
      <trkpt lat="49.3203" lon="0.9794">
        <ele>41.4</ele>
        <time>2014-06-29T09:46:48Z</time>
      </trkpt>
      <trkpt lat="49.32028" lon="0.9794">
        <ele>41.78</ele>
        <time>2014-06-29T09:46:49Z</time>
      </trkpt>
      <trkpt lat="49.32006" lon="0.97928">
        <ele>42.34</ele>
        <time>2014-06-29T09:46:58Z</time>
      </trkpt>
      <trkpt lat="49.31986" lon="0.97913">
        <ele>41.9</ele>
        <time>2014-06-29T09:47:04Z</time>
      </trkpt>
      <trkpt lat="49.31972" lon="0.97919">
        <ele>40.17</ele>
        <time>2014-06-29T09:47:08Z</time>
      </trkpt>
      <trkpt lat="49.31959" lon="0.97921">
        <ele>40.18</ele>
        <time>2014-06-29T09:47:11Z</time>
      </trkpt>
      <trkpt lat="49.31941" lon="0.97923">
        <ele>41.96</ele>
        <time>2014-06-29T09:47:18Z</time>
      </trkpt>
      <trkpt lat="49.31923" lon="0.97933">
        <ele>42.1</ele>
        <time>2014-06-29T09:47:24Z</time>
      </trkpt>
      <trkpt lat="49.31904" lon="0.97941">
        <ele>42.17</ele>
        <time>2014-06-29T09:47:30Z</time>
      </trkpt>
      <trkpt lat="49.3189" lon="0.97945">
        <ele>42.52</ele>
        <time>2014-06-29T09:47:34Z</time>
      </trkpt>
      <trkpt lat="49.3187" lon="0.97966">
        <ele>42.91</ele>
        <time>2014-06-29T09:47:41Z</time>
      </trkpt>
      <trkpt lat="49.31866" lon="0.9797">
        <ele>42.84</ele>
        <time>2014-06-29T09:47:42Z</time>
      </trkpt>
      <trkpt lat="49.31851" lon="0.97983">
        <ele>42.85</ele>
        <time>2014-06-29T09:47:48Z</time>
      </trkpt>
      <trkpt lat="49.31839" lon="0.97986">
        <ele>42.12</ele>
        <time>2014-06-29T09:47:51Z</time>
      </trkpt>
      <trkpt lat="49.31825" lon="0.98003">
        <ele>41.62</ele>
        <time>2014-06-29T09:47:55Z</time>
      </trkpt>
      <trkpt lat="49.31819" lon="0.98025">
        <ele>41.17</ele>
        <time>2014-06-29T09:48:00Z</time>
      </trkpt>
      <trkpt lat="49.31819" lon="0.98034">
        <ele>40.82</ele>
        <time>2014-06-29T09:48:02Z</time>
      </trkpt>
      <trkpt lat="49.31807" lon="0.98059">
        <ele>40.15</ele>
        <time>2014-06-29T09:48:08Z</time>
      </trkpt>
      <trkpt lat="49.31795" lon="0.98065">
        <ele>39.92</ele>
        <time>2014-06-29T09:48:13Z</time>
      </trkpt>
      <trkpt lat="49.31788" lon="0.98069">
        <ele>40.55</ele>
        <time>2014-06-29T09:48:16Z</time>
      </trkpt>
      <trkpt lat="49.31785" lon="0.98066">
        <ele>40.77</ele>
        <time>2014-06-29T09:48:19Z</time>
      </trkpt>
      <trkpt lat="49.3178" lon="0.9805">
        <ele>40.57</ele>
        <time>2014-06-29T09:48:25Z</time>
      </trkpt>
      <trkpt lat="49.31774" lon="0.98064">
        <ele>39.47</ele>
        <time>2014-06-29T09:48:28Z</time>
      </trkpt>
      <trkpt lat="49.31771" lon="0.98074">
        <ele>37.96</ele>
        <time>2014-06-29T09:48:30Z</time>
      </trkpt>
      <trkpt lat="49.31755" lon="0.98094">
        <ele>38.15</ele>
        <time>2014-06-29T09:48:37Z</time>
      </trkpt>
      <trkpt lat="49.31745" lon="0.98122">
        <ele>38.53</ele>
        <time>2014-06-29T09:48:44Z</time>
      </trkpt>
      <trkpt lat="49.31742" lon="0.98129">
        <ele>38.5</ele>
        <time>2014-06-29T09:48:46Z</time>
      </trkpt>
      <trkpt lat="49.3173" lon="0.98149">
        <ele>39.51</ele>
        <time>2014-06-29T09:48:52Z</time>
      </trkpt>
      <trkpt lat="49.31718" lon="0.98167">
        <ele>39.5</ele>
        <time>2014-06-29T09:48:58Z</time>
      </trkpt>
      <trkpt lat="49.31712" lon="0.98174">
        <ele>39.99</ele>
        <time>2014-06-29T09:49:02Z</time>
      </trkpt>
      <trkpt lat="49.31706" lon="0.98189">
        <ele>40.82</ele>
        <time>2014-06-29T09:49:08Z</time>
      </trkpt>
      <trkpt lat="49.31702" lon="0.982">
        <ele>40.91</ele>
        <time>2014-06-29T09:49:13Z</time>
      </trkpt>
      <trkpt lat="49.31691" lon="0.98209">
        <ele>41.78</ele>
        <time>2014-06-29T09:49:19Z</time>
      </trkpt>
      <trkpt lat="49.31687" lon="0.98222">
        <ele>42.67</ele>
        <time>2014-06-29T09:49:24Z</time>
      </trkpt>
      <trkpt lat="49.31678" lon="0.98241">
        <ele>42.91</ele>
        <time>2014-06-29T09:49:30Z</time>
      </trkpt>
      <trkpt lat="49.31675" lon="0.98253">
        <ele>42.62</ele>
        <time>2014-06-29T09:49:34Z</time>
      </trkpt>
      <trkpt lat="49.31673" lon="0.98257">
        <ele>43.01</ele>
        <time>2014-06-29T09:49:36Z</time>
      </trkpt>
      <trkpt lat="49.3167" lon="0.98264">
        <ele>43.28</ele>
        <time>2014-06-29T09:49:39Z</time>
      </trkpt>
      <trkpt lat="49.31666" lon="0.98276">
        <ele>44.21</ele>
        <time>2014-06-29T09:49:44Z</time>
      </trkpt>
      <trkpt lat="49.31657" lon="0.98286">
        <ele>46.76</ele>
        <time>2014-06-29T09:49:50Z</time>
      </trkpt>
      <trkpt lat="49.31648" lon="0.98305">
        <ele>49.33</ele>
        <time>2014-06-29T09:49:59Z</time>
      </trkpt>
      <trkpt lat="49.31642" lon="0.98319">
        <ele>51.44</ele>
        <time>2014-06-29T09:50:08Z</time>
      </trkpt>
      <trkpt lat="49.31637" lon="0.98332">
        <ele>52.13</ele>
        <time>2014-06-29T09:50:14Z</time>
      </trkpt>
      <trkpt lat="49.31638" lon="0.98339">
        <ele>50.92</ele>
        <time>2014-06-29T09:50:20Z</time>
      </trkpt>
      <trkpt lat="49.31637" lon="0.9834">
        <ele>51.01</ele>
        <time>2014-06-29T09:50:22Z</time>
      </trkpt>
      <trkpt lat="49.31631" lon="0.98354">
        <ele>51.76</ele>
        <time>2014-06-29T09:50:29Z</time>
      </trkpt>
      <trkpt lat="49.31629" lon="0.98353">
        <ele>52.15</ele>
        <time>2014-06-29T09:50:31Z</time>
      </trkpt>
      <trkpt lat="49.31624" lon="0.98357">
        <ele>52.75</ele>
        <time>2014-06-29T09:50:35Z</time>
      </trkpt>
      <trkpt lat="49.31611" lon="0.98379">
        <ele>52.2</ele>
        <time>2014-06-29T09:50:43Z</time>
      </trkpt>
      <trkpt lat="49.31615" lon="0.98389">
        <ele>50.4</ele>
        <time>2014-06-29T09:50:49Z</time>
      </trkpt>
      <trkpt lat="49.31627" lon="0.98397">
        <ele>48.59</ele>
        <time>2014-06-29T09:50:54Z</time>
      </trkpt>
      <trkpt lat="49.31622" lon="0.9841">
        <ele>46.79</ele>
        <time>2014-06-29T09:50:58Z</time>
      </trkpt>
      <trkpt lat="49.3162" lon="0.98411">
        <ele>46.84</ele>
        <time>2014-06-29T09:50:59Z</time>
      </trkpt>
      <trkpt lat="49.31612" lon="0.98416">
        <ele>46.62</ele>
        <time>2014-06-29T09:51:03Z</time>
      </trkpt>
      <trkpt lat="49.31621" lon="0.98426">
        <ele>45.72</ele>
        <time>2014-06-29T09:51:09Z</time>
      </trkpt>
      <trkpt lat="49.31628" lon="0.98443">
        <ele>44.78</ele>
        <time>2014-06-29T09:51:13Z</time>
      </trkpt>
      <trkpt lat="49.31638" lon="0.98465">
        <ele>44.23</ele>
        <time>2014-06-29T09:51:19Z</time>
      </trkpt>
      <trkpt lat="49.31628" lon="0.98474">
        <ele>43.37</ele>
        <time>2014-06-29T09:51:25Z</time>
      </trkpt>
      <trkpt lat="49.31623" lon="0.98476">
        <ele>43.86</ele>
        <time>2014-06-29T09:51:27Z</time>
      </trkpt>
      <trkpt lat="49.31604" lon="0.98498">
        <ele>43.58</ele>
        <time>2014-06-29T09:51:33Z</time>
      </trkpt>
      <trkpt lat="49.31601" lon="0.98499">
        <ele>43.36</ele>
        <time>2014-06-29T09:51:34Z</time>
      </trkpt>
      <trkpt lat="49.31594" lon="0.98489">
        <ele>43.84</ele>
        <time>2014-06-29T09:51:40Z</time>
      </trkpt>
      <trkpt lat="49.31584" lon="0.98486">
        <ele>44.37</ele>
        <time>2014-06-29T09:51:45Z</time>
      </trkpt>
      <trkpt lat="49.31576" lon="0.98488">
        <ele>44.32</ele>
        <time>2014-06-29T09:51:49Z</time>
      </trkpt>
      <trkpt lat="49.31564" lon="0.98497">
        <ele>43.24</ele>
        <time>2014-06-29T09:51:53Z</time>
      </trkpt>
      <trkpt lat="49.31548" lon="0.98491">
        <ele>42.96</ele>
        <time>2014-06-29T09:51:58Z</time>
      </trkpt>
      <trkpt lat="49.31543" lon="0.98488">
        <ele>43.59</ele>
        <time>2014-06-29T09:52:01Z</time>
      </trkpt>
      <trkpt lat="49.31531" lon="0.98486">
        <ele>44.44</ele>
        <time>2014-06-29T09:52:06Z</time>
      </trkpt>
      <trkpt lat="49.31523" lon="0.98489">
        <ele>44.58</ele>
        <time>2014-06-29T09:52:11Z</time>
      </trkpt>
      <trkpt lat="49.31515" lon="0.98486">
        <ele>44.52</ele>
        <time>2014-06-29T09:52:15Z</time>
      </trkpt>
      <trkpt lat="49.315" lon="0.98498">
        <ele>44.18</ele>
        <time>2014-06-29T09:52:23Z</time>
      </trkpt>
      <trkpt lat="49.315" lon="0.98497">
        <ele>44.12</ele>
        <time>2014-06-29T09:52:29Z</time>
      </trkpt>
      <trkpt lat="49.31498" lon="0.98497">
        <ele>44.06</ele>
        <time>2014-06-29T09:52:39Z</time>
      </trkpt>
      <trkpt lat="49.31502" lon="0.98495">
        <ele>43.6</ele>
        <time>2014-06-29T09:52:52Z</time>
      </trkpt>
      <trkpt lat="49.31503" lon="0.98495">
        <ele>44.07</ele>
        <time>2014-06-29T09:53:07Z</time>
      </trkpt>
      <trkpt lat="49.31502" lon="0.98494">
        <ele>44.52</ele>
        <time>2014-06-29T09:53:24Z</time>
      </trkpt>
      <trkpt lat="49.31502" lon="0.98494">
        <ele>44.19</ele>
        <time>2014-06-29T09:53:35Z</time>
      </trkpt>
      <trkpt lat="49.31501" lon="0.98494">
        <ele>44.26</ele>
        <time>2014-06-29T09:53:52Z</time>
      </trkpt>
      <trkpt lat="49.31501" lon="0.98493">
        <ele>44.4</ele>
        <time>2014-06-29T09:54:11Z</time>
      </trkpt>
      <trkpt lat="49.31502" lon="0.98491">
        <ele>44.41</ele>
        <time>2014-06-29T09:54:28Z</time>
      </trkpt>
      <trkpt lat="49.31501" lon="0.98491">
        <ele>44.42</ele>
        <time>2014-06-29T09:54:46Z</time>
      </trkpt>
      <trkpt lat="49.31502" lon="0.98493">
        <ele>44.31</ele>
        <time>2014-06-29T09:55:01Z</time>
      </trkpt>
      <trkpt lat="49.315" lon="0.98492">
        <ele>43.82</ele>
        <time>2014-06-29T09:55:16Z</time>
      </trkpt>
      <trkpt lat="49.31503" lon="0.98491">
        <ele>44.58</ele>
        <time>2014-06-29T09:55:27Z</time>
      </trkpt>
      <trkpt lat="49.31503" lon="0.9849">
        <ele>44.43</ele>
        <time>2014-06-29T09:55:41Z</time>
      </trkpt>
      <trkpt lat="49.31501" lon="0.98491">
        <ele>45.82</ele>
        <time>2014-06-29T09:55:55Z</time>
      </trkpt>
      <trkpt lat="49.31499" lon="0.98491">
        <ele>45.87</ele>
        <time>2014-06-29T09:56:10Z</time>
      </trkpt>
      <trkpt lat="49.31497" lon="0.9849">
        <ele>44.68</ele>
        <time>2014-06-29T09:56:17Z</time>
      </trkpt>
      <trkpt lat="49.31485" lon="0.98501">
        <ele>44.68</ele>
        <time>2014-06-29T09:56:25Z</time>
      </trkpt>
      <trkpt lat="49.31464" lon="0.98519">
        <ele>44.94</ele>
        <time>2014-06-29T09:56:34Z</time>
      </trkpt>
      <trkpt lat="49.31441" lon="0.98537">
        <ele>46.09</ele>
        <time>2014-06-29T09:56:42Z</time>
      </trkpt>
      <trkpt lat="49.31428" lon="0.98543">
        <ele>45.01</ele>
        <time>2014-06-29T09:56:49Z</time>
      </trkpt>
      <trkpt lat="49.3141" lon="0.98553">
        <ele>44.7</ele>
        <time>2014-06-29T09:57:00Z</time>
      </trkpt>
      <trkpt lat="49.31406" lon="0.98556">
        <ele>43.85</ele>
        <time>2014-06-29T09:57:34Z</time>
      </trkpt>
      <trkpt lat="49.31406" lon="0.98556">
        <ele>40.83</ele>
        <time>2014-06-29T09:59:19Z</time>
      </trkpt>
      <trkpt lat="49.31406" lon="0.98556">
        <ele>37.83</ele>
        <time>2014-06-29T10:01:21Z</time>
      </trkpt>
      <trkpt lat="49.31406" lon="0.98556">
        <ele>37.1</ele>
        <time>2014-06-29T10:01:47Z</time>
      </trkpt>
      <trkpt lat="49.30289" lon="0.99065">
        <ele>38.02</ele>
        <time>2014-06-29T10:01:53Z</time>
      </trkpt>
      <trkpt lat="49.30287" lon="0.99073">
        <ele>38.2</ele>
        <time>2014-06-29T10:02:03Z</time>
      </trkpt>
      <trkpt lat="49.30282" lon="0.99079">
        <ele>37.96</ele>
        <time>2014-06-29T10:02:12Z</time>
      </trkpt>
      <trkpt lat="49.30281" lon="0.9908">
        <ele>37.6</ele>
        <time>2014-06-29T10:02:13Z</time>
      </trkpt>
      <trkpt lat="49.30263" lon="0.99094">
        <ele>36.72</ele>
        <time>2014-06-29T10:02:20Z</time>
      </trkpt>
      <trkpt lat="49.30259" lon="0.99096">
        <ele>36.9</ele>
        <time>2014-06-29T10:02:21Z</time>
      </trkpt>
      <trkpt lat="49.30231" lon="0.99109">
        <ele>36.49</ele>
        <time>2014-06-29T10:02:29Z</time>
      </trkpt>
      <trkpt lat="49.30225" lon="0.99121">
        <ele>36.26</ele>
        <time>2014-06-29T10:02:34Z</time>
      </trkpt>
      <trkpt lat="49.30226" lon="0.99134">
        <ele>33.15</ele>
        <time>2014-06-29T10:02:39Z</time>
      </trkpt>
      <trkpt lat="49.30228" lon="0.99147">
        <ele>29.51</ele>
        <time>2014-06-29T10:02:44Z</time>
      </trkpt>
      <trkpt lat="49.30225" lon="0.99148">
        <ele>28.14</ele>
        <time>2014-06-29T10:02:50Z</time>
      </trkpt>
      <trkpt lat="49.30224" lon="0.99142">
        <ele>29.87</ele>
        <time>2014-06-29T10:03:00Z</time>
      </trkpt>
      <trkpt lat="49.30225" lon="0.99127">
        <ele>31.73</ele>
        <time>2014-06-29T10:03:09Z</time>
      </trkpt>
      <trkpt lat="49.30225" lon="0.99104">
        <ele>33.61</ele>
        <time>2014-06-29T10:03:18Z</time>
      </trkpt>
      <trkpt lat="49.3023" lon="0.99091">
        <ele>34.73</ele>
        <time>2014-06-29T10:03:26Z</time>
      </trkpt>
      <trkpt lat="49.30232" lon="0.99089">
        <ele>35.33</ele>
        <time>2014-06-29T10:03:35Z</time>
      </trkpt>
      <trkpt lat="49.30239" lon="0.99083">
        <ele>36.12</ele>
        <time>2014-06-29T10:03:43Z</time>
      </trkpt>
      <trkpt lat="49.30244" lon="0.99078">
        <ele>36.52</ele>
        <time>2014-06-29T10:03:45Z</time>
      </trkpt>
      <trkpt lat="49.3025" lon="0.99068">
        <ele>37.59</ele>
        <time>2014-06-29T10:03:49Z</time>
      </trkpt>
      <trkpt lat="49.30247" lon="0.99063">
        <ele>38.87</ele>
        <time>2014-06-29T10:03:57Z</time>
      </trkpt>
      <trkpt lat="49.30244" lon="0.99058">
        <ele>40.71</ele>
        <time>2014-06-29T10:04:05Z</time>
      </trkpt>
      <trkpt lat="49.30242" lon="0.99053">
        <ele>42.45</ele>
        <time>2014-06-29T10:04:13Z</time>
      </trkpt>
      <trkpt lat="49.30239" lon="0.99051">
        <ele>43.87</ele>
        <time>2014-06-29T10:04:22Z</time>
      </trkpt>
      <trkpt lat="49.30229" lon="0.99054">
        <ele>44.99</ele>
        <time>2014-06-29T10:04:31Z</time>
      </trkpt>
      <trkpt lat="49.30218" lon="0.99059">
        <ele>47.48</ele>
        <time>2014-06-29T10:04:39Z</time>
      </trkpt>
      <trkpt lat="49.30208" lon="0.9905">
        <ele>50.65</ele>
        <time>2014-06-29T10:04:48Z</time>
      </trkpt>
      <trkpt lat="49.30207" lon="0.99049">
        <ele>50.82</ele>
        <time>2014-06-29T10:04:49Z</time>
      </trkpt>
      <trkpt lat="49.30195" lon="0.99049">
        <ele>51.76</ele>
        <time>2014-06-29T10:04:57Z</time>
      </trkpt>
      <trkpt lat="49.30188" lon="0.99048">
        <ele>52.54</ele>
        <time>2014-06-29T10:05:01Z</time>
      </trkpt>
      <trkpt lat="49.30182" lon="0.99044">
        <ele>53.79</ele>
        <time>2014-06-29T10:05:08Z</time>
      </trkpt>
      <trkpt lat="49.30177" lon="0.99037">
        <ele>55.63</ele>
        <time>2014-06-29T10:05:16Z</time>
      </trkpt>
      <trkpt lat="49.30172" lon="0.99029">
        <ele>57.72</ele>
        <time>2014-06-29T10:05:25Z</time>
      </trkpt>
      <trkpt lat="49.30166" lon="0.99027">
        <ele>59.07</ele>
        <time>2014-06-29T10:05:33Z</time>
      </trkpt>
      <trkpt lat="49.30159" lon="0.99034">
        <ele>60.23</ele>
        <time>2014-06-29T10:05:44Z</time>
      </trkpt>
      <trkpt lat="49.30151" lon="0.99035">
        <ele>62.35</ele>
        <time>2014-06-29T10:05:53Z</time>
      </trkpt>
      <trkpt lat="49.30146" lon="0.9904">
        <ele>62.91</ele>
        <time>2014-06-29T10:05:55Z</time>
      </trkpt>
      <trkpt lat="49.30136" lon="0.99048">
        <ele>65.23</ele>
        <time>2014-06-29T10:06:04Z</time>
      </trkpt>
      <trkpt lat="49.30135" lon="0.99051">
        <ele>66.25</ele>
        <time>2014-06-29T10:06:12Z</time>
      </trkpt>
      <trkpt lat="49.30129" lon="0.99055">
        <ele>66.95</ele>
        <time>2014-06-29T10:06:19Z</time>
      </trkpt>
      <trkpt lat="49.30122" lon="0.99048">
        <ele>69.22</ele>
        <time>2014-06-29T10:06:31Z</time>
      </trkpt>
      <trkpt lat="49.30129" lon="0.99044">
        <ele>68.9</ele>
        <time>2014-06-29T10:06:41Z</time>
      </trkpt>
      <trkpt lat="49.30138" lon="0.9904">
        <ele>67.2</ele>
        <time>2014-06-29T10:06:45Z</time>
      </trkpt>
      <trkpt lat="49.30146" lon="0.99038">
        <ele>64.78</ele>
        <time>2014-06-29T10:06:48Z</time>
      </trkpt>
      <trkpt lat="49.30172" lon="0.99033">
        <ele>60.78</ele>
        <time>2014-06-29T10:06:55Z</time>
      </trkpt>
      <trkpt lat="49.30184" lon="0.99031">
        <ele>58.75</ele>
        <time>2014-06-29T10:06:59Z</time>
      </trkpt>
      <trkpt lat="49.30193" lon="0.99029">
        <ele>57.38</ele>
        <time>2014-06-29T10:07:03Z</time>
      </trkpt>
      <trkpt lat="49.302" lon="0.99018">
        <ele>57.69</ele>
        <time>2014-06-29T10:07:11Z</time>
      </trkpt>
      <trkpt lat="49.30203" lon="0.99017">
        <ele>58.07</ele>
        <time>2014-06-29T10:07:16Z</time>
      </trkpt>
      <trkpt lat="49.30235" lon="0.98995">
        <ele>59.41</ele>
        <time>2014-06-29T10:07:25Z</time>
      </trkpt>
      <trkpt lat="49.30256" lon="0.98978">
        <ele>60.81</ele>
        <time>2014-06-29T10:07:32Z</time>
      </trkpt>
      <trkpt lat="49.30263" lon="0.98971">
        <ele>62.17</ele>
        <time>2014-06-29T10:07:38Z</time>
      </trkpt>
      <trkpt lat="49.30263" lon="0.9897">
        <ele>62.35</ele>
        <time>2014-06-29T10:07:39Z</time>
      </trkpt>
      <trkpt lat="49.30275" lon="0.98966">
        <ele>63.81</ele>
        <time>2014-06-29T10:07:46Z</time>
      </trkpt>
      <trkpt lat="49.30291" lon="0.98954">
        <ele>65.92</ele>
        <time>2014-06-29T10:07:55Z</time>
      </trkpt>
      <trkpt lat="49.30292" lon="0.98953">
        <ele>66.18</ele>
        <time>2014-06-29T10:07:56Z</time>
      </trkpt>
      <trkpt lat="49.30305" lon="0.98956">
        <ele>67.63</ele>
        <time>2014-06-29T10:08:04Z</time>
      </trkpt>
      <trkpt lat="49.30328" lon="0.98936">
        <ele>69.51</ele>
        <time>2014-06-29T10:08:14Z</time>
      </trkpt>
      <trkpt lat="49.30343" lon="0.98935">
        <ele>70.92</ele>
        <time>2014-06-29T10:08:22Z</time>
      </trkpt>
      <trkpt lat="49.30354" lon="0.98947">
        <ele>72.58</ele>
        <time>2014-06-29T10:08:31Z</time>
      </trkpt>
      <trkpt lat="49.30357" lon="0.98955">
        <ele>73.35</ele>
        <time>2014-06-29T10:08:35Z</time>
      </trkpt>
      <trkpt lat="49.3036" lon="0.98962">
        <ele>73.86</ele>
        <time>2014-06-29T10:08:39Z</time>
      </trkpt>
      <trkpt lat="49.30361" lon="0.98971">
        <ele>74.5</ele>
        <time>2014-06-29T10:08:43Z</time>
      </trkpt>
      <trkpt lat="49.30363" lon="0.98989">
        <ele>76.55</ele>
        <time>2014-06-29T10:08:50Z</time>
      </trkpt>
      <trkpt lat="49.30368" lon="0.99005">
        <ele>78.28</ele>
        <time>2014-06-29T10:08:57Z</time>
      </trkpt>
      <trkpt lat="49.30375" lon="0.99025">
        <ele>80.22</ele>
        <time>2014-06-29T10:09:05Z</time>
      </trkpt>
      <trkpt lat="49.30375" lon="0.99037">
        <ele>80.16</ele>
        <time>2014-06-29T10:09:09Z</time>
      </trkpt>
      <trkpt lat="49.30366" lon="0.99053">
        <ele>78.1</ele>
        <time>2014-06-29T10:09:15Z</time>
      </trkpt>
      <trkpt lat="49.30365" lon="0.99057">
        <ele>77.28</ele>
        <time>2014-06-29T10:09:16Z</time>
      </trkpt>
      <trkpt lat="49.30363" lon="0.99077">
        <ele>74.25</ele>
        <time>2014-06-29T10:09:23Z</time>
      </trkpt>
      <trkpt lat="49.30364" lon="0.99078">
        <ele>73.91</ele>
        <time>2014-06-29T10:09:24Z</time>
      </trkpt>
      <trkpt lat="49.30377" lon="0.99077">
        <ele>73.58</ele>
        <time>2014-06-29T10:09:30Z</time>
      </trkpt>
      <trkpt lat="49.30384" lon="0.99071">
        <ele>74.41</ele>
        <time>2014-06-29T10:09:37Z</time>
      </trkpt>
      <trkpt lat="49.30396" lon="0.99079">
        <ele>71.23</ele>
        <time>2014-06-29T10:09:44Z</time>
      </trkpt>
      <trkpt lat="49.30403" lon="0.99083">
        <ele>67.88</ele>
        <time>2014-06-29T10:09:48Z</time>
      </trkpt>
      <trkpt lat="49.30409" lon="0.99085">
        <ele>66.77</ele>
        <time>2014-06-29T10:09:50Z</time>
      </trkpt>
      <trkpt lat="49.3043" lon="0.99073">
        <ele>67.27</ele>
        <time>2014-06-29T10:09:57Z</time>
      </trkpt>
      <trkpt lat="49.30437" lon="0.99074">
        <ele>68.9</ele>
        <time>2014-06-29T10:10:04Z</time>
      </trkpt>
      <trkpt lat="49.30446" lon="0.99076">
        <ele>71.32</ele>
        <time>2014-06-29T10:10:12Z</time>
      </trkpt>
      <trkpt lat="49.30457" lon="0.99084">
        <ele>73.17</ele>
        <time>2014-06-29T10:10:21Z</time>
      </trkpt>
      <trkpt lat="49.30459" lon="0.99085">
        <ele>73.45</ele>
        <time>2014-06-29T10:10:23Z</time>
      </trkpt>
      <trkpt lat="49.30465" lon="0.9909">
        <ele>75.14</ele>
        <time>2014-06-29T10:10:31Z</time>
      </trkpt>
      <trkpt lat="49.30471" lon="0.99093">
        <ele>76.83</ele>
        <time>2014-06-29T10:10:39Z</time>
      </trkpt>
      <trkpt lat="49.30474" lon="0.99098">
        <ele>77.6</ele>
        <time>2014-06-29T10:10:47Z</time>
      </trkpt>
      <trkpt lat="49.30484" lon="0.99104">
        <ele>76.28</ele>
        <time>2014-06-29T10:10:55Z</time>
      </trkpt>
      <trkpt lat="49.30499" lon="0.99099">
        <ele>75.63</ele>
        <time>2014-06-29T10:11:00Z</time>
      </trkpt>
      <trkpt lat="49.30521" lon="0.991">
        <ele>76.63</ele>
        <time>2014-06-29T10:11:07Z</time>
      </trkpt>
      <trkpt lat="49.30543" lon="0.99101">
        <ele>75.92</ele>
        <time>2014-06-29T10:11:14Z</time>
      </trkpt>
      <trkpt lat="49.3055" lon="0.99102">
        <ele>74.37</ele>
        <time>2014-06-29T10:11:17Z</time>
      </trkpt>
      <trkpt lat="49.30564" lon="0.99099">
        <ele>73.18</ele>
        <time>2014-06-29T10:11:23Z</time>
      </trkpt>
      <trkpt lat="49.30574" lon="0.99097">
        <ele>71.42</ele>
        <time>2014-06-29T10:11:28Z</time>
      </trkpt>
      <trkpt lat="49.30582" lon="0.99099">
        <ele>72.18</ele>
        <time>2014-06-29T10:11:35Z</time>
      </trkpt>
      <trkpt lat="49.30584" lon="0.99099">
        <ele>72.44</ele>
        <time>2014-06-29T10:11:37Z</time>
      </trkpt>
      <trkpt lat="49.30591" lon="0.991">
        <ele>73.12</ele>
        <time>2014-06-29T10:11:42Z</time>
      </trkpt>
      <trkpt lat="49.30604" lon="0.99103">
        <ele>72.37</ele>
        <time>2014-06-29T10:11:48Z</time>
      </trkpt>
      <trkpt lat="49.30626" lon="0.99107">
        <ele>69.79</ele>
        <time>2014-06-29T10:11:55Z</time>
      </trkpt>
      <trkpt lat="49.30645" lon="0.99119">
        <ele>70.53</ele>
        <time>2014-06-29T10:12:01Z</time>
      </trkpt>
      <trkpt lat="49.30655" lon="0.99125">
        <ele>70.8</ele>
        <time>2014-06-29T10:12:05Z</time>
      </trkpt>
      <trkpt lat="49.30669" lon="0.9915">
        <ele>71.29</ele>
        <time>2014-06-29T10:12:11Z</time>
      </trkpt>
      <trkpt lat="49.30685" lon="0.99157">
        <ele>70.74</ele>
        <time>2014-06-29T10:12:17Z</time>
      </trkpt>
      <trkpt lat="49.30706" lon="0.99168">
        <ele>68.73</ele>
        <time>2014-06-29T10:12:24Z</time>
      </trkpt>
      <trkpt lat="49.30724" lon="0.99175">
        <ele>65.33</ele>
        <time>2014-06-29T10:12:28Z</time>
      </trkpt>
      <trkpt lat="49.30722" lon="0.99215">
        <ele>61.72</ele>
        <time>2014-06-29T10:12:33Z</time>
      </trkpt>
      <trkpt lat="49.3072" lon="0.99241">
        <ele>59.89</ele>
        <time>2014-06-29T10:12:36Z</time>
      </trkpt>
      <trkpt lat="49.30717" lon="0.99264">
        <ele>58</ele>
        <time>2014-06-29T10:12:39Z</time>
      </trkpt>
      <trkpt lat="49.30729" lon="0.99283">
        <ele>56.32</ele>
        <time>2014-06-29T10:12:43Z</time>
      </trkpt>
      <trkpt lat="49.30737" lon="0.99284">
        <ele>56.67</ele>
        <time>2014-06-29T10:12:45Z</time>
      </trkpt>
      <trkpt lat="49.30766" lon="0.99282">
        <ele>57.03</ele>
        <time>2014-06-29T10:12:53Z</time>
      </trkpt>
      <trkpt lat="49.30779" lon="0.99281">
        <ele>58.75</ele>
        <time>2014-06-29T10:12:59Z</time>
      </trkpt>
      <trkpt lat="49.30793" lon="0.99279">
        <ele>58.33</ele>
        <time>2014-06-29T10:13:05Z</time>
      </trkpt>
      <trkpt lat="49.30804" lon="0.99273">
        <ele>59.93</ele>
        <time>2014-06-29T10:13:11Z</time>
      </trkpt>
      <trkpt lat="49.3081" lon="0.99274">
        <ele>61.45</ele>
        <time>2014-06-29T10:13:16Z</time>
      </trkpt>
      <trkpt lat="49.3082" lon="0.99272">
        <ele>62.49</ele>
        <time>2014-06-29T10:13:24Z</time>
      </trkpt>
      <trkpt lat="49.3082" lon="0.99273">
        <ele>62.36</ele>
        <time>2014-06-29T10:13:26Z</time>
      </trkpt>
      <trkpt lat="49.30831" lon="0.99281">
        <ele>63.46</ele>
        <time>2014-06-29T10:13:32Z</time>
      </trkpt>
      <trkpt lat="49.30835" lon="0.99304">
        <ele>62</ele>
        <time>2014-06-29T10:13:40Z</time>
      </trkpt>
      <trkpt lat="49.3084" lon="0.99298">
        <ele>62.55</ele>
        <time>2014-06-29T10:13:45Z</time>
      </trkpt>
      <trkpt lat="49.30843" lon="0.99299">
        <ele>64.26</ele>
        <time>2014-06-29T10:13:52Z</time>
      </trkpt>
      <trkpt lat="49.30846" lon="0.99308">
        <ele>63.48</ele>
        <time>2014-06-29T10:13:59Z</time>
      </trkpt>
      <trkpt lat="49.30849" lon="0.99313">
        <ele>61.62</ele>
        <time>2014-06-29T10:14:10Z</time>
      </trkpt>
      <trkpt lat="49.30849" lon="0.99313">
        <ele>63.93</ele>
        <time>2014-06-29T10:14:40Z</time>
      </trkpt>
      <trkpt lat="49.30872" lon="0.99394">
        <ele>63.18</ele>
        <time>2014-06-29T10:14:54Z</time>
      </trkpt>
      <trkpt lat="49.30891" lon="0.99374">
        <ele>63.22</ele>
        <time>2014-06-29T10:14:58Z</time>
      </trkpt>
      <trkpt lat="49.30897" lon="0.99364">
        <ele>61.5</ele>
        <time>2014-06-29T10:15:03Z</time>
      </trkpt>
      <trkpt lat="49.30899" lon="0.99363">
        <ele>60.78</ele>
        <time>2014-06-29T10:15:05Z</time>
      </trkpt>
      <trkpt lat="49.30908" lon="0.9936">
        <ele>59.65</ele>
        <time>2014-06-29T10:15:10Z</time>
      </trkpt>
      <trkpt lat="49.30914" lon="0.99364">
        <ele>58.91</ele>
        <time>2014-06-29T10:15:14Z</time>
      </trkpt>
      <trkpt lat="49.30919" lon="0.99361">
        <ele>59.57</ele>
        <time>2014-06-29T10:15:23Z</time>
      </trkpt>
      <trkpt lat="49.30925" lon="0.99359">
        <ele>61.9</ele>
        <time>2014-06-29T10:15:32Z</time>
      </trkpt>
      <trkpt lat="49.30928" lon="0.99361">
        <ele>63.54</ele>
        <time>2014-06-29T10:15:41Z</time>
      </trkpt>
      <trkpt lat="49.3093" lon="0.99368">
        <ele>65.38</ele>
        <time>2014-06-29T10:15:49Z</time>
      </trkpt>
      <trkpt lat="49.30933" lon="0.99375">
        <ele>67.04</ele>
        <time>2014-06-29T10:15:57Z</time>
      </trkpt>
      <trkpt lat="49.30937" lon="0.99377">
        <ele>68.26</ele>
        <time>2014-06-29T10:16:04Z</time>
      </trkpt>
      <trkpt lat="49.30952" lon="0.99382">
        <ele>66.54</ele>
        <time>2014-06-29T10:16:10Z</time>
      </trkpt>
      <trkpt lat="49.30964" lon="0.99386">
        <ele>64.99</ele>
        <time>2014-06-29T10:16:15Z</time>
      </trkpt>
      <trkpt lat="49.30973" lon="0.99383">
        <ele>66.21</ele>
        <time>2014-06-29T10:16:20Z</time>
      </trkpt>
      <trkpt lat="49.30975" lon="0.99384">
        <ele>66.01</ele>
        <time>2014-06-29T10:16:22Z</time>
      </trkpt>
      <trkpt lat="49.30984" lon="0.99394">
        <ele>63.18</ele>
        <time>2014-06-29T10:16:29Z</time>
      </trkpt>
      <trkpt lat="49.30982" lon="0.994">
        <ele>62.05</ele>
        <time>2014-06-29T10:16:31Z</time>
      </trkpt>
      <trkpt lat="49.3098" lon="0.99411">
        <ele>59.32</ele>
        <time>2014-06-29T10:16:37Z</time>
      </trkpt>
      <trkpt lat="49.30985" lon="0.99414">
        <ele>58.86</ele>
        <time>2014-06-29T10:16:39Z</time>
      </trkpt>
      <trkpt lat="49.31003" lon="0.99423">
        <ele>57.51</ele>
        <time>2014-06-29T10:16:44Z</time>
      </trkpt>
      <trkpt lat="49.31031" lon="0.99448">
        <ele>53.29</ele>
        <time>2014-06-29T10:16:51Z</time>
      </trkpt>
      <trkpt lat="49.31048" lon="0.99451">
        <ele>50.51</ele>
        <time>2014-06-29T10:16:56Z</time>
      </trkpt>
      <trkpt lat="49.31062" lon="0.99449">
        <ele>47.26</ele>
        <time>2014-06-29T10:17:01Z</time>
      </trkpt>
      <trkpt lat="49.3107" lon="0.99451">
        <ele>44.41</ele>
        <time>2014-06-29T10:17:04Z</time>
      </trkpt>
      <trkpt lat="49.31089" lon="0.99445">
        <ele>40.22</ele>
        <time>2014-06-29T10:17:10Z</time>
      </trkpt>
      <trkpt lat="49.31103" lon="0.99452">
        <ele>36.46</ele>
        <time>2014-06-29T10:17:14Z</time>
      </trkpt>
      <trkpt lat="49.31115" lon="0.99465">
        <ele>32.56</ele>
        <time>2014-06-29T10:17:17Z</time>
      </trkpt>
      <trkpt lat="49.31128" lon="0.99479">
        <ele>29.02</ele>
        <time>2014-06-29T10:17:20Z</time>
      </trkpt>
      <trkpt lat="49.31144" lon="0.99478">
        <ele>28.96</ele>
        <time>2014-06-29T10:17:24Z</time>
      </trkpt>
      <trkpt lat="49.31157" lon="0.99473">
        <ele>28.82</ele>
        <time>2014-06-29T10:17:29Z</time>
      </trkpt>
      <trkpt lat="49.31175" lon="0.99484">
        <ele>25</ele>
        <time>2014-06-29T10:17:36Z</time>
      </trkpt>
      <trkpt lat="49.31187" lon="0.99485">
        <ele>21.9</ele>
        <time>2014-06-29T10:17:42Z</time>
      </trkpt>
      <trkpt lat="49.31203" lon="0.9948">
        <ele>20.38</ele>
        <time>2014-06-29T10:17:49Z</time>
      </trkpt>
      <trkpt lat="49.31223" lon="0.99466">
        <ele>19.56</ele>
        <time>2014-06-29T10:17:56Z</time>
      </trkpt>
      <trkpt lat="49.31238" lon="0.99464">
        <ele>16.2</ele>
        <time>2014-06-29T10:18:04Z</time>
      </trkpt>
      <trkpt lat="49.3125" lon="0.99471">
        <ele>13.62</ele>
        <time>2014-06-29T10:18:11Z</time>
      </trkpt>
      <trkpt lat="49.31256" lon="0.99472">
        <ele>14.09</ele>
        <time>2014-06-29T10:18:15Z</time>
      </trkpt>
      <trkpt lat="49.31274" lon="0.99471">
        <ele>13.67</ele>
        <time>2014-06-29T10:18:23Z</time>
      </trkpt>
      <trkpt lat="49.31276" lon="0.9947">
        <ele>13.66</ele>
        <time>2014-06-29T10:18:24Z</time>
      </trkpt>
      <trkpt lat="49.31293" lon="0.99469">
        <ele>12.42</ele>
        <time>2014-06-29T10:18:32Z</time>
      </trkpt>
      <trkpt lat="49.31305" lon="0.99471">
        <ele>12.6</ele>
        <time>2014-06-29T10:18:38Z</time>
      </trkpt>
      <trkpt lat="49.31318" lon="0.99476">
        <ele>12.88</ele>
        <time>2014-06-29T10:18:46Z</time>
      </trkpt>
      <trkpt lat="49.31329" lon="0.99461">
        <ele>14.84</ele>
        <time>2014-06-29T10:18:54Z</time>
      </trkpt>
      <trkpt lat="49.31332" lon="0.99456">
        <ele>16.02</ele>
        <time>2014-06-29T10:19:02Z</time>
      </trkpt>
      <trkpt lat="49.31335" lon="0.99455">
        <ele>16.11</ele>
        <time>2014-06-29T10:19:09Z</time>
      </trkpt>
      <trkpt lat="49.31364" lon="0.99435">
        <ele>17.07</ele>
        <time>2014-06-29T10:19:15Z</time>
      </trkpt>
      <trkpt lat="49.31373" lon="0.99438">
        <ele>17.12</ele>
        <time>2014-06-29T10:19:24Z</time>
      </trkpt>
      <trkpt lat="49.31378" lon="0.99434">
        <ele>18.01</ele>
        <time>2014-06-29T10:19:32Z</time>
      </trkpt>
      <trkpt lat="49.31383" lon="0.99434">
        <ele>19.2</ele>
        <time>2014-06-29T10:19:41Z</time>
      </trkpt>
      <trkpt lat="49.31387" lon="0.99435">
        <ele>19.99</ele>
        <time>2014-06-29T10:19:48Z</time>
      </trkpt>
      <trkpt lat="49.31403" lon="0.99415">
        <ele>22.44</ele>
        <time>2014-06-29T10:19:58Z</time>
      </trkpt>
      <trkpt lat="49.31427" lon="0.99389">
        <ele>24.19</ele>
        <time>2014-06-29T10:20:06Z</time>
      </trkpt>
      <trkpt lat="49.31448" lon="0.99376">
        <ele>24.18</ele>
        <time>2014-06-29T10:20:13Z</time>
      </trkpt>
      <trkpt lat="49.31464" lon="0.99368">
        <ele>25.16</ele>
        <time>2014-06-29T10:20:21Z</time>
      </trkpt>
      <trkpt lat="49.31482" lon="0.99372">
        <ele>23.57</ele>
        <time>2014-06-29T10:20:28Z</time>
      </trkpt>
      <trkpt lat="49.31495" lon="0.99377">
        <ele>22.21</ele>
        <time>2014-06-29T10:20:36Z</time>
      </trkpt>
      <trkpt lat="49.31498" lon="0.99378">
        <ele>21.44</ele>
        <time>2014-06-29T10:20:38Z</time>
      </trkpt>
      <trkpt lat="49.31505" lon="0.99378">
        <ele>21.77</ele>
        <time>2014-06-29T10:20:42Z</time>
      </trkpt>
      <trkpt lat="49.31525" lon="0.99387">
        <ele>19.73</ele>
        <time>2014-06-29T10:20:48Z</time>
      </trkpt>
      <trkpt lat="49.31546" lon="0.99394">
        <ele>16.33</ele>
        <time>2014-06-29T10:20:51Z</time>
      </trkpt>
      <trkpt lat="49.31556" lon="0.99401">
        <ele>14.84</ele>
        <time>2014-06-29T10:20:54Z</time>
      </trkpt>
      <trkpt lat="49.3157" lon="0.99404">
        <ele>11.47</ele>
        <time>2014-06-29T10:20:59Z</time>
      </trkpt>
      <trkpt lat="49.31569" lon="0.99406">
        <ele>10.26</ele>
        <time>2014-06-29T10:21:02Z</time>
      </trkpt>
      <trkpt lat="49.31557" lon="0.99412">
        <ele>8.07</ele>
        <time>2014-06-29T10:21:06Z</time>
      </trkpt>
      <trkpt lat="49.31539" lon="0.9942">
        <ele>6.18</ele>
        <time>2014-06-29T10:21:12Z</time>
      </trkpt>
      <trkpt lat="49.31532" lon="0.99424">
        <ele>4.82</ele>
        <time>2014-06-29T10:21:14Z</time>
      </trkpt>
      <trkpt lat="49.31536" lon="0.99432">
        <ele>2.33</ele>
        <time>2014-06-29T10:21:19Z</time>
      </trkpt>
      <trkpt lat="49.31547" lon="0.99449">
        <ele>0.32</ele>
        <time>2014-06-29T10:21:22Z</time>
      </trkpt>
      <trkpt lat="49.31568" lon="0.99458">
        <ele>0.02</ele>
        <time>2014-06-29T10:21:27Z</time>
      </trkpt>
      <trkpt lat="49.31596" lon="0.99466">
        <ele>-0.35</ele>
        <time>2014-06-29T10:21:34Z</time>
      </trkpt>
      <trkpt lat="49.31614" lon="0.99472">
        <ele>0.31</ele>
        <time>2014-06-29T10:21:41Z</time>
      </trkpt>
      <trkpt lat="49.31623" lon="0.99473">
        <ele>0.71</ele>
        <time>2014-06-29T10:21:46Z</time>
      </trkpt>
      <trkpt lat="49.31628" lon="0.99478">
        <ele>0.72</ele>
        <time>2014-06-29T10:21:51Z</time>
      </trkpt>
      <trkpt lat="49.31647" lon="0.99478">
        <ele>0.68</ele>
        <time>2014-06-29T10:21:56Z</time>
      </trkpt>
      <trkpt lat="49.31656" lon="0.99477">
        <ele>0.6</ele>
        <time>2014-06-29T10:21:58Z</time>
      </trkpt>
      <trkpt lat="49.31675" lon="0.99471">
        <ele>0.8</ele>
        <time>2014-06-29T10:22:03Z</time>
      </trkpt>
      <trkpt lat="49.31705" lon="0.99449">
        <ele>1.53</ele>
        <time>2014-06-29T10:22:12Z</time>
      </trkpt>
      <trkpt lat="49.31733" lon="0.99423">
        <ele>1.79</ele>
        <time>2014-06-29T10:22:20Z</time>
      </trkpt>
      <trkpt lat="49.3176" lon="0.99403">
        <ele>2.14</ele>
        <time>2014-06-29T10:22:28Z</time>
      </trkpt>
      <trkpt lat="49.31792" lon="0.99389">
        <ele>2.76</ele>
        <time>2014-06-29T10:22:37Z</time>
      </trkpt>
      <trkpt lat="49.31819" lon="0.99376">
        <ele>4.08</ele>
        <time>2014-06-29T10:22:45Z</time>
      </trkpt>
      <trkpt lat="49.31829" lon="0.99354">
        <ele>3.99</ele>
        <time>2014-06-29T10:22:50Z</time>
      </trkpt>
      <trkpt lat="49.31836" lon="0.99335">
        <ele>3.99</ele>
        <time>2014-06-29T10:22:54Z</time>
      </trkpt>
      <trkpt lat="49.31847" lon="0.99348">
        <ele>4.14</ele>
        <time>2014-06-29T10:22:59Z</time>
      </trkpt>
      <trkpt lat="49.31848" lon="0.99354">
        <ele>4.19</ele>
        <time>2014-06-29T10:23:00Z</time>
      </trkpt>
      <trkpt lat="49.31861" lon="0.99396">
        <ele>4.53</ele>
        <time>2014-06-29T10:23:07Z</time>
      </trkpt>
      <trkpt lat="49.31856" lon="0.99415">
        <ele>3.63</ele>
        <time>2014-06-29T10:23:11Z</time>
      </trkpt>
      <trkpt lat="49.31835" lon="0.99434">
        <ele>2.77</ele>
        <time>2014-06-29T10:23:18Z</time>
      </trkpt>
      <trkpt lat="49.31832" lon="0.99433">
        <ele>2.64</ele>
        <time>2014-06-29T10:23:24Z</time>
      </trkpt>
      <trkpt lat="49.31832" lon="0.99436">
        <ele>2.49</ele>
        <time>2014-06-29T10:23:36Z</time>
      </trkpt>
      <trkpt lat="49.31833" lon="0.9944">
        <ele>3.36</ele>
        <time>2014-06-29T10:23:50Z</time>
      </trkpt>
      <trkpt lat="49.31833" lon="0.99438">
        <ele>3.12</ele>
        <time>2014-06-29T10:24:04Z</time>
      </trkpt>
      <trkpt lat="49.31832" lon="0.99438">
        <ele>3.09</ele>
        <time>2014-06-29T10:24:19Z</time>
      </trkpt>
      <trkpt lat="49.31834" lon="0.99437">
        <ele>3.22</ele>
        <time>2014-06-29T10:24:33Z</time>
      </trkpt>
      <trkpt lat="49.31834" lon="0.99436">
        <ele>4.01</ele>
        <time>2014-06-29T10:24:46Z</time>
      </trkpt>
      <trkpt lat="49.31834" lon="0.99435">
        <ele>3.32</ele>
        <time>2014-06-29T10:25:02Z</time>
      </trkpt>
      <trkpt lat="49.31834" lon="0.99434">
        <ele>2.16</ele>
        <time>2014-06-29T10:25:17Z</time>
      </trkpt>
      <trkpt lat="49.31835" lon="0.99436">
        <ele>2.34</ele>
        <time>2014-06-29T10:25:31Z</time>
      </trkpt>
      <trkpt lat="49.31836" lon="0.99437">
        <ele>2.17</ele>
        <time>2014-06-29T10:25:46Z</time>
      </trkpt>
      <trkpt lat="49.31835" lon="0.99437">
        <ele>2.16</ele>
        <time>2014-06-29T10:26:02Z</time>
      </trkpt>
      <trkpt lat="49.31835" lon="0.99437">
        <ele>2.18</ele>
        <time>2014-06-29T10:26:18Z</time>
      </trkpt>
      <trkpt lat="49.31835" lon="0.99437">
        <ele>1.96</ele>
        <time>2014-06-29T10:26:33Z</time>
      </trkpt>
      <trkpt lat="49.31836" lon="0.99438">
        <ele>1.84</ele>
        <time>2014-06-29T10:26:48Z</time>
      </trkpt>
      <trkpt lat="49.31836" lon="0.99438">
        <ele>2.89</ele>
        <time>2014-06-29T10:27:02Z</time>
      </trkpt>
      <trkpt lat="49.31834" lon="0.99439">
        <ele>2.79</ele>
        <time>2014-06-29T10:27:14Z</time>
      </trkpt>
      <trkpt lat="49.31834" lon="0.99441">
        <ele>2.77</ele>
        <time>2014-06-29T10:27:26Z</time>
      </trkpt>
      <trkpt lat="49.31834" lon="0.99441">
        <ele>2.44</ele>
        <time>2014-06-29T10:27:38Z</time>
      </trkpt>
      <trkpt lat="49.31838" lon="0.99444">
        <ele>1.94</ele>
        <time>2014-06-29T10:27:51Z</time>
      </trkpt>
      <trkpt lat="49.31841" lon="0.99445">
        <ele>2.31</ele>
        <time>2014-06-29T10:28:08Z</time>
      </trkpt>
      <trkpt lat="49.31834" lon="0.99439">
        <ele>1.26</ele>
        <time>2014-06-29T10:28:19Z</time>
      </trkpt>
      <trkpt lat="49.31832" lon="0.99439">
        <ele>1.41</ele>
        <time>2014-06-29T10:28:27Z</time>
      </trkpt>
      <trkpt lat="49.31831" lon="0.99441">
        <ele>1.4</ele>
        <time>2014-06-29T10:28:28Z</time>
      </trkpt>
      <trkpt lat="49.31824" lon="0.99446">
        <ele>1.32</ele>
        <time>2014-06-29T10:28:32Z</time>
      </trkpt>
      <trkpt lat="49.31803" lon="0.99467">
        <ele>0.66</ele>
        <time>2014-06-29T10:28:40Z</time>
      </trkpt>
      <trkpt lat="49.31795" lon="0.99489">
        <ele>1.36</ele>
        <time>2014-06-29T10:28:45Z</time>
      </trkpt>
      <trkpt lat="49.31778" lon="0.99516">
        <ele>2.07</ele>
        <time>2014-06-29T10:28:53Z</time>
      </trkpt>
      <trkpt lat="49.31763" lon="0.99536">
        <ele>3.46</ele>
        <time>2014-06-29T10:29:01Z</time>
      </trkpt>
      <trkpt lat="49.31747" lon="0.99556">
        <ele>4.95</ele>
        <time>2014-06-29T10:29:10Z</time>
      </trkpt>
      <trkpt lat="49.31737" lon="0.99575">
        <ele>6.08</ele>
        <time>2014-06-29T10:29:17Z</time>
      </trkpt>
      <trkpt lat="49.31731" lon="0.99599">
        <ele>8.58</ele>
        <time>2014-06-29T10:29:26Z</time>
      </trkpt>
      <trkpt lat="49.31727" lon="0.99614">
        <ele>10.21</ele>
        <time>2014-06-29T10:29:33Z</time>
      </trkpt>
      <trkpt lat="49.31726" lon="0.99622">
        <ele>10.91</ele>
        <time>2014-06-29T10:29:36Z</time>
      </trkpt>
      <trkpt lat="49.31726" lon="0.9964">
        <ele>12.71</ele>
        <time>2014-06-29T10:29:44Z</time>
      </trkpt>
      <trkpt lat="49.31728" lon="0.99642">
        <ele>13.38</ele>
        <time>2014-06-29T10:29:46Z</time>
      </trkpt>
      <trkpt lat="49.31735" lon="0.99645">
        <ele>15.53</ele>
        <time>2014-06-29T10:29:54Z</time>
      </trkpt>
      <trkpt lat="49.31737" lon="0.99654">
        <ele>17.36</ele>
        <time>2014-06-29T10:30:00Z</time>
      </trkpt>
      <trkpt lat="49.3174" lon="0.99661">
        <ele>19.52</ele>
        <time>2014-06-29T10:30:08Z</time>
      </trkpt>
      <trkpt lat="49.31744" lon="0.99667">
        <ele>20.81</ele>
        <time>2014-06-29T10:30:12Z</time>
      </trkpt>
      <trkpt lat="49.3175" lon="0.99658">
        <ele>21.64</ele>
        <time>2014-06-29T10:30:18Z</time>
      </trkpt>
      <trkpt lat="49.31755" lon="0.99643">
        <ele>23.88</ele>
        <time>2014-06-29T10:30:28Z</time>
      </trkpt>
      <trkpt lat="49.31764" lon="0.99627">
        <ele>24.68</ele>
        <time>2014-06-29T10:30:36Z</time>
      </trkpt>
      <trkpt lat="49.31772" lon="0.99613">
        <ele>25.33</ele>
        <time>2014-06-29T10:30:42Z</time>
      </trkpt>
      <trkpt lat="49.31786" lon="0.99595">
        <ele>25.58</ele>
        <time>2014-06-29T10:30:49Z</time>
      </trkpt>
      <trkpt lat="49.31799" lon="0.99574">
        <ele>25.56</ele>
        <time>2014-06-29T10:30:55Z</time>
      </trkpt>
      <trkpt lat="49.31811" lon="0.9955">
        <ele>25</ele>
        <time>2014-06-29T10:31:02Z</time>
      </trkpt>
      <trkpt lat="49.31831" lon="0.99533">
        <ele>25.2</ele>
        <time>2014-06-29T10:31:08Z</time>
      </trkpt>
      <trkpt lat="49.31854" lon="0.99512">
        <ele>24.27</ele>
        <time>2014-06-29T10:31:16Z</time>
      </trkpt>
      <trkpt lat="49.31879" lon="0.99502">
        <ele>24.48</ele>
        <time>2014-06-29T10:31:22Z</time>
      </trkpt>
      <trkpt lat="49.31893" lon="0.99506">
        <ele>24.74</ele>
        <time>2014-06-29T10:31:28Z</time>
      </trkpt>
      <trkpt lat="49.31911" lon="0.9952">
        <ele>26.72</ele>
        <time>2014-06-29T10:31:37Z</time>
      </trkpt>
      <trkpt lat="49.31931" lon="0.99534">
        <ele>28.09</ele>
        <time>2014-06-29T10:31:45Z</time>
      </trkpt>
      <trkpt lat="49.31947" lon="0.9955">
        <ele>30.66</ele>
        <time>2014-06-29T10:31:54Z</time>
      </trkpt>
      <trkpt lat="49.31959" lon="0.99566">
        <ele>33.06</ele>
        <time>2014-06-29T10:32:04Z</time>
      </trkpt>
      <trkpt lat="49.31973" lon="0.99578">
        <ele>34.42</ele>
        <time>2014-06-29T10:32:10Z</time>
      </trkpt>
      <trkpt lat="49.31993" lon="0.99596">
        <ele>37.26</ele>
        <time>2014-06-29T10:32:20Z</time>
      </trkpt>
      <trkpt lat="49.32007" lon="0.99606">
        <ele>39.27</ele>
        <time>2014-06-29T10:32:29Z</time>
      </trkpt>
      <trkpt lat="49.32027" lon="0.99619">
        <ele>39.64</ele>
        <time>2014-06-29T10:32:37Z</time>
      </trkpt>
      <trkpt lat="49.32047" lon="0.99634">
        <ele>40.93</ele>
        <time>2014-06-29T10:32:45Z</time>
      </trkpt>
      <trkpt lat="49.32063" lon="0.99643">
        <ele>41.65</ele>
        <time>2014-06-29T10:32:52Z</time>
      </trkpt>
      <trkpt lat="49.32076" lon="0.99653">
        <ele>42.28</ele>
        <time>2014-06-29T10:32:58Z</time>
      </trkpt>
      <trkpt lat="49.32096" lon="0.99665">
        <ele>43.52</ele>
        <time>2014-06-29T10:33:07Z</time>
      </trkpt>
      <trkpt lat="49.32112" lon="0.99681">
        <ele>46.73</ele>
        <time>2014-06-29T10:33:17Z</time>
      </trkpt>
      <trkpt lat="49.32114" lon="0.99684">
        <ele>47.48</ele>
        <time>2014-06-29T10:33:19Z</time>
      </trkpt>
      <trkpt lat="49.32118" lon="0.99688">
        <ele>48.18</ele>
        <time>2014-06-29T10:33:22Z</time>
      </trkpt>
      <trkpt lat="49.32133" lon="0.99692">
        <ele>50.12</ele>
        <time>2014-06-29T10:33:29Z</time>
      </trkpt>
      <trkpt lat="49.32157" lon="0.99699">
        <ele>50.82</ele>
        <time>2014-06-29T10:33:38Z</time>
      </trkpt>
      <trkpt lat="49.3218" lon="0.99705">
        <ele>51.59</ele>
        <time>2014-06-29T10:33:46Z</time>
      </trkpt>
      <trkpt lat="49.32204" lon="0.99714">
        <ele>51.57</ele>
        <time>2014-06-29T10:33:55Z</time>
      </trkpt>
      <trkpt lat="49.32221" lon="0.99732">
        <ele>52.34</ele>
        <time>2014-06-29T10:34:01Z</time>
      </trkpt>
      <trkpt lat="49.32232" lon="0.99751">
        <ele>53.71</ele>
        <time>2014-06-29T10:34:09Z</time>
      </trkpt>
      <trkpt lat="49.32239" lon="0.99764">
        <ele>55.8</ele>
        <time>2014-06-29T10:34:17Z</time>
      </trkpt>
      <trkpt lat="49.32249" lon="0.99781">
        <ele>57.78</ele>
        <time>2014-06-29T10:34:25Z</time>
      </trkpt>
      <trkpt lat="49.32256" lon="0.99795">
        <ele>59.46</ele>
        <time>2014-06-29T10:34:33Z</time>
      </trkpt>
      <trkpt lat="49.32267" lon="0.99814">
        <ele>61.65</ele>
        <time>2014-06-29T10:34:43Z</time>
      </trkpt>
      <trkpt lat="49.32277" lon="0.99829">
        <ele>63.07</ele>
        <time>2014-06-29T10:34:50Z</time>
      </trkpt>
      <trkpt lat="49.32285" lon="0.99849">
        <ele>64.37</ele>
        <time>2014-06-29T10:34:59Z</time>
      </trkpt>
      <trkpt lat="49.32293" lon="0.9987">
        <ele>66.17</ele>
        <time>2014-06-29T10:35:08Z</time>
      </trkpt>
      <trkpt lat="49.32297" lon="0.99891">
        <ele>68.34</ele>
        <time>2014-06-29T10:35:18Z</time>
      </trkpt>
      <trkpt lat="49.32296" lon="0.99903">
        <ele>70.05</ele>
        <time>2014-06-29T10:35:26Z</time>
      </trkpt>
      <trkpt lat="49.32298" lon="0.99914">
        <ele>71.89</ele>
        <time>2014-06-29T10:35:32Z</time>
      </trkpt>
      <trkpt lat="49.32304" lon="0.99926">
        <ele>73.54</ele>
        <time>2014-06-29T10:35:36Z</time>
      </trkpt>
      <trkpt lat="49.32305" lon="0.99952">
        <ele>73.56</ele>
        <time>2014-06-29T10:35:42Z</time>
      </trkpt>
      <trkpt lat="49.32309" lon="0.99972">
        <ele>74.29</ele>
        <time>2014-06-29T10:35:48Z</time>
      </trkpt>
      <trkpt lat="49.3232" lon="0.99989">
        <ele>74.44</ele>
        <time>2014-06-29T10:35:56Z</time>
      </trkpt>
      <trkpt lat="49.32331" lon="1.00012">
        <ele>74.79</ele>
        <time>2014-06-29T10:36:03Z</time>
      </trkpt>
      <trkpt lat="49.32345" lon="1.00035">
        <ele>75.23</ele>
        <time>2014-06-29T10:36:10Z</time>
      </trkpt>
      <trkpt lat="49.32351" lon="1.00054">
        <ele>76.24</ele>
        <time>2014-06-29T10:36:16Z</time>
      </trkpt>
      <trkpt lat="49.32352" lon="1.00069">
        <ele>77.83</ele>
        <time>2014-06-29T10:36:22Z</time>
      </trkpt>
      <trkpt lat="49.32354" lon="1.00094">
        <ele>79.59</ele>
        <time>2014-06-29T10:36:31Z</time>
      </trkpt>
      <trkpt lat="49.32354" lon="1.00131">
        <ele>81.77</ele>
        <time>2014-06-29T10:36:40Z</time>
      </trkpt>
      <trkpt lat="49.32349" lon="1.00146">
        <ele>83.41</ele>
        <time>2014-06-29T10:36:46Z</time>
      </trkpt>
      <trkpt lat="49.32348" lon="1.00174">
        <ele>84.91</ele>
        <time>2014-06-29T10:36:54Z</time>
      </trkpt>
      <trkpt lat="49.32345" lon="1.00196">
        <ele>85.56</ele>
        <time>2014-06-29T10:37:01Z</time>
      </trkpt>
      <trkpt lat="49.3234" lon="1.00211">
        <ele>88.44</ele>
        <time>2014-06-29T10:37:09Z</time>
      </trkpt>
      <trkpt lat="49.32329" lon="1.00225">
        <ele>90.03</ele>
        <time>2014-06-29T10:37:18Z</time>
      </trkpt>
      <trkpt lat="49.32321" lon="1.00248">
        <ele>90.11</ele>
        <time>2014-06-29T10:37:25Z</time>
      </trkpt>
      <trkpt lat="49.32311" lon="1.00261">
        <ele>90.62</ele>
        <time>2014-06-29T10:37:31Z</time>
      </trkpt>
      <trkpt lat="49.32297" lon="1.00279">
        <ele>91.25</ele>
        <time>2014-06-29T10:37:38Z</time>
      </trkpt>
      <trkpt lat="49.32287" lon="1.0031">
        <ele>91.63</ele>
        <time>2014-06-29T10:37:45Z</time>
      </trkpt>
      <trkpt lat="49.3228" lon="1.00348">
        <ele>92.26</ele>
        <time>2014-06-29T10:37:52Z</time>
      </trkpt>
      <trkpt lat="49.32267" lon="1.00376">
        <ele>92.46</ele>
        <time>2014-06-29T10:37:59Z</time>
      </trkpt>
      <trkpt lat="49.32262" lon="1.00404">
        <ele>91.36</ele>
        <time>2014-06-29T10:38:06Z</time>
      </trkpt>
      <trkpt lat="49.32254" lon="1.00429">
        <ele>92.42</ele>
        <time>2014-06-29T10:38:13Z</time>
      </trkpt>
      <trkpt lat="49.32251" lon="1.0045">
        <ele>94.14</ele>
        <time>2014-06-29T10:38:20Z</time>
      </trkpt>
      <trkpt lat="49.32251" lon="1.00453">
        <ele>94.44</ele>
        <time>2014-06-29T10:38:21Z</time>
      </trkpt>
      <trkpt lat="49.32236" lon="1.00471">
        <ele>95.17</ele>
        <time>2014-06-29T10:38:27Z</time>
      </trkpt>
      <trkpt lat="49.32226" lon="1.00493">
        <ele>95.29</ele>
        <time>2014-06-29T10:38:35Z</time>
      </trkpt>
      <trkpt lat="49.32225" lon="1.00498">
        <ele>94.86</ele>
        <time>2014-06-29T10:38:36Z</time>
      </trkpt>
      <trkpt lat="49.32217" lon="1.00508">
        <ele>92.75</ele>
        <time>2014-06-29T10:38:40Z</time>
      </trkpt>
      <trkpt lat="49.32214" lon="1.00507">
        <ele>92.63</ele>
        <time>2014-06-29T10:38:41Z</time>
      </trkpt>
      <trkpt lat="49.32211" lon="1.00506">
        <ele>93.44</ele>
        <time>2014-06-29T10:38:43Z</time>
      </trkpt>
      <trkpt lat="49.32194" lon="1.00507">
        <ele>94.24</ele>
        <time>2014-06-29T10:38:51Z</time>
      </trkpt>
      <trkpt lat="49.32189" lon="1.0051">
        <ele>94.03</ele>
        <time>2014-06-29T10:38:54Z</time>
      </trkpt>
      <trkpt lat="49.3216" lon="1.00523">
        <ele>93.13</ele>
        <time>2014-06-29T10:39:01Z</time>
      </trkpt>
      <trkpt lat="49.32134" lon="1.00531">
        <ele>92.34</ele>
        <time>2014-06-29T10:39:08Z</time>
      </trkpt>
      <trkpt lat="49.32122" lon="1.0054">
        <ele>91.89</ele>
        <time>2014-06-29T10:39:11Z</time>
      </trkpt>
      <trkpt lat="49.32109" lon="1.00558">
        <ele>90.39</ele>
        <time>2014-06-29T10:39:15Z</time>
      </trkpt>
      <trkpt lat="49.32097" lon="1.00575">
        <ele>90.94</ele>
        <time>2014-06-29T10:39:21Z</time>
      </trkpt>
      <trkpt lat="49.32083" lon="1.00601">
        <ele>91.69</ele>
        <time>2014-06-29T10:39:28Z</time>
      </trkpt>
      <trkpt lat="49.32077" lon="1.00607">
        <ele>91.17</ele>
        <time>2014-06-29T10:39:33Z</time>
      </trkpt>
      <trkpt lat="49.32074" lon="1.00591">
        <ele>92.89</ele>
        <time>2014-06-29T10:39:42Z</time>
      </trkpt>
      <trkpt lat="49.32074" lon="1.00578">
        <ele>96.22</ele>
        <time>2014-06-29T10:39:49Z</time>
      </trkpt>
      <trkpt lat="49.3207" lon="1.00563">
        <ele>99.38</ele>
        <time>2014-06-29T10:39:59Z</time>
      </trkpt>
      <trkpt lat="49.32067" lon="1.0056">
        <ele>100.07</ele>
        <time>2014-06-29T10:40:02Z</time>
      </trkpt>
      <trkpt lat="49.32057" lon="1.00552">
        <ele>99.9</ele>
        <time>2014-06-29T10:40:06Z</time>
      </trkpt>
      <trkpt lat="49.32051" lon="1.00545">
        <ele>100.38</ele>
        <time>2014-06-29T10:40:11Z</time>
      </trkpt>
      <trkpt lat="49.32042" lon="1.00533">
        <ele>101.56</ele>
        <time>2014-06-29T10:40:18Z</time>
      </trkpt>
      <trkpt lat="49.32033" lon="1.00515">
        <ele>102.93</ele>
        <time>2014-06-29T10:40:27Z</time>
      </trkpt>
      <trkpt lat="49.32026" lon="1.00502">
        <ele>102.53</ele>
        <time>2014-06-29T10:40:32Z</time>
      </trkpt>
      <trkpt lat="49.32017" lon="1.00483">
        <ele>101.97</ele>
        <time>2014-06-29T10:40:38Z</time>
      </trkpt>
      <trkpt lat="49.32007" lon="1.00459">
        <ele>102.54</ele>
        <time>2014-06-29T10:40:45Z</time>
      </trkpt>
      <trkpt lat="49.31996" lon="1.00445">
        <ele>103.81</ele>
        <time>2014-06-29T10:40:52Z</time>
      </trkpt>
      <trkpt lat="49.3198" lon="1.00422">
        <ele>104.13</ele>
        <time>2014-06-29T10:41:00Z</time>
      </trkpt>
      <trkpt lat="49.31974" lon="1.00415">
        <ele>103.26</ele>
        <time>2014-06-29T10:41:02Z</time>
      </trkpt>
      <trkpt lat="49.31949" lon="1.00382">
        <ele>100.25</ele>
        <time>2014-06-29T10:41:08Z</time>
      </trkpt>
      <trkpt lat="49.31932" lon="1.0036">
        <ele>99.02</ele>
        <time>2014-06-29T10:41:15Z</time>
      </trkpt>
      <trkpt lat="49.31921" lon="1.00355">
        <ele>97.97</ele>
        <time>2014-06-29T10:41:19Z</time>
      </trkpt>
      <trkpt lat="49.31917" lon="1.00349">
        <ele>97.01</ele>
        <time>2014-06-29T10:41:21Z</time>
      </trkpt>
      <trkpt lat="49.31915" lon="1.00343">
        <ele>96.73</ele>
        <time>2014-06-29T10:41:23Z</time>
      </trkpt>
      <trkpt lat="49.31913" lon="1.00336">
        <ele>95.7</ele>
        <time>2014-06-29T10:41:25Z</time>
      </trkpt>
      <trkpt lat="49.319" lon="1.00314">
        <ele>91.7</ele>
        <time>2014-06-29T10:41:31Z</time>
      </trkpt>
      <trkpt lat="49.3189" lon="1.00304">
        <ele>89.53</ele>
        <time>2014-06-29T10:41:35Z</time>
      </trkpt>
      <trkpt lat="49.31874" lon="1.00275">
        <ele>89.6</ele>
        <time>2014-06-29T10:41:43Z</time>
      </trkpt>
      <trkpt lat="49.3186" lon="1.00255">
        <ele>87.22</ele>
        <time>2014-06-29T10:41:49Z</time>
      </trkpt>
      <trkpt lat="49.31849" lon="1.00232">
        <ele>83.71</ele>
        <time>2014-06-29T10:41:54Z</time>
      </trkpt>
      <trkpt lat="49.31847" lon="1.00227">
        <ele>83.42</ele>
        <time>2014-06-29T10:41:55Z</time>
      </trkpt>
      <trkpt lat="49.31838" lon="1.00207">
        <ele>83.86</ele>
        <time>2014-06-29T10:42:02Z</time>
      </trkpt>
      <trkpt lat="49.31833" lon="1.00191">
        <ele>84.38</ele>
        <time>2014-06-29T10:42:06Z</time>
      </trkpt>
      <trkpt lat="49.31821" lon="1.00174">
        <ele>81.76</ele>
        <time>2014-06-29T10:42:12Z</time>
      </trkpt>
      <trkpt lat="49.31819" lon="1.00147">
        <ele>79.01</ele>
        <time>2014-06-29T10:42:18Z</time>
      </trkpt>
      <trkpt lat="49.31821" lon="1.00134">
        <ele>77.91</ele>
        <time>2014-06-29T10:42:21Z</time>
      </trkpt>
      <trkpt lat="49.31824" lon="1.00115">
        <ele>76.38</ele>
        <time>2014-06-29T10:42:27Z</time>
      </trkpt>
      <trkpt lat="49.31823" lon="1.00114">
        <ele>74.41</ele>
        <time>2014-06-29T10:42:32Z</time>
      </trkpt>
      <trkpt lat="49.31817" lon="1.00113">
        <ele>73.11</ele>
        <time>2014-06-29T10:42:36Z</time>
      </trkpt>
      <trkpt lat="49.31814" lon="1.00111">
        <ele>72.24</ele>
        <time>2014-06-29T10:42:38Z</time>
      </trkpt>
      <trkpt lat="49.31798" lon="1.00104">
        <ele>69.02</ele>
        <time>2014-06-29T10:42:44Z</time>
      </trkpt>
      <trkpt lat="49.31797" lon="1.00105">
        <ele>68.74</ele>
        <time>2014-06-29T10:42:45Z</time>
      </trkpt>
      <trkpt lat="49.31794" lon="1.00107">
        <ele>68.43</ele>
        <time>2014-06-29T10:42:47Z</time>
      </trkpt>
      <trkpt lat="49.31784" lon="1.0011">
        <ele>67.92</ele>
        <time>2014-06-29T10:42:51Z</time>
      </trkpt>
      <trkpt lat="49.3177" lon="1.0011">
        <ele>63.88</ele>
        <time>2014-06-29T10:42:57Z</time>
      </trkpt>
      <trkpt lat="49.31758" lon="1.00112">
        <ele>61.6</ele>
        <time>2014-06-29T10:43:01Z</time>
      </trkpt>
      <trkpt lat="49.31748" lon="1.00129">
        <ele>59.8</ele>
        <time>2014-06-29T10:43:08Z</time>
      </trkpt>
      <trkpt lat="49.31744" lon="1.0016">
        <ele>56.2</ele>
        <time>2014-06-29T10:43:14Z</time>
      </trkpt>
      <trkpt lat="49.31748" lon="1.00178">
        <ele>53.98</ele>
        <time>2014-06-29T10:43:18Z</time>
      </trkpt>
      <trkpt lat="49.31761" lon="1.00182">
        <ele>52.28</ele>
        <time>2014-06-29T10:43:25Z</time>
      </trkpt>
      <trkpt lat="49.31771" lon="1.00186">
        <ele>53.75</ele>
        <time>2014-06-29T10:43:32Z</time>
      </trkpt>
      <trkpt lat="49.31784" lon="1.00202">
        <ele>55.57</ele>
        <time>2014-06-29T10:43:39Z</time>
      </trkpt>
      <trkpt lat="49.31792" lon="1.00207">
        <ele>55.24</ele>
        <time>2014-06-29T10:43:43Z</time>
      </trkpt>
      <trkpt lat="49.31792" lon="1.00234">
        <ele>56.24</ele>
        <time>2014-06-29T10:43:51Z</time>
      </trkpt>
      <trkpt lat="49.31797" lon="1.00231">
        <ele>58.05</ele>
        <time>2014-06-29T10:43:58Z</time>
      </trkpt>
      <trkpt lat="49.31805" lon="1.00225">
        <ele>59.27</ele>
        <time>2014-06-29T10:44:05Z</time>
      </trkpt>
      <trkpt lat="49.3181" lon="1.00245">
        <ele>58.9</ele>
        <time>2014-06-29T10:44:11Z</time>
      </trkpt>
      <trkpt lat="49.31819" lon="1.00263">
        <ele>59.68</ele>
        <time>2014-06-29T10:44:18Z</time>
      </trkpt>
      <trkpt lat="49.31823" lon="1.00285">
        <ele>58.63</ele>
        <time>2014-06-29T10:44:23Z</time>
      </trkpt>
      <trkpt lat="49.31831" lon="1.00298">
        <ele>58.83</ele>
        <time>2014-06-29T10:44:29Z</time>
      </trkpt>
      <trkpt lat="49.31833" lon="1.00305">
        <ele>58.9</ele>
        <time>2014-06-29T10:44:31Z</time>
      </trkpt>
      <trkpt lat="49.3184" lon="1.00308">
        <ele>59.33</ele>
        <time>2014-06-29T10:44:35Z</time>
      </trkpt>
      <trkpt lat="49.31851" lon="1.00312">
        <ele>60.1</ele>
        <time>2014-06-29T10:44:41Z</time>
      </trkpt>
      <trkpt lat="49.31868" lon="1.00318">
        <ele>61.62</ele>
        <time>2014-06-29T10:44:48Z</time>
      </trkpt>
      <trkpt lat="49.31886" lon="1.00327">
        <ele>62.4</ele>
        <time>2014-06-29T10:45:00Z</time>
      </trkpt>
      <trkpt lat="49.31885" lon="1.00333">
        <ele>62.98</ele>
        <time>2014-06-29T10:45:02Z</time>
      </trkpt>
      <trkpt lat="49.31877" lon="1.00343">
        <ele>62.4</ele>
        <time>2014-06-29T10:45:05Z</time>
      </trkpt>
      <trkpt lat="49.31875" lon="1.00355">
        <ele>62.31</ele>
        <time>2014-06-29T10:45:08Z</time>
      </trkpt>
      <trkpt lat="49.3188" lon="1.00371">
        <ele>62.94</ele>
        <time>2014-06-29T10:45:14Z</time>
      </trkpt>
      <trkpt lat="49.31883" lon="1.0039">
        <ele>62.88</ele>
        <time>2014-06-29T10:45:18Z</time>
      </trkpt>
      <trkpt lat="49.31889" lon="1.00408">
        <ele>64.98</ele>
        <time>2014-06-29T10:45:26Z</time>
      </trkpt>
      <trkpt lat="49.31901" lon="1.00423">
        <ele>63.87</ele>
        <time>2014-06-29T10:45:31Z</time>
      </trkpt>
      <trkpt lat="49.3192" lon="1.00431">
        <ele>63.17</ele>
        <time>2014-06-29T10:45:37Z</time>
      </trkpt>
      <trkpt lat="49.31922" lon="1.00431">
        <ele>63.1</ele>
        <time>2014-06-29T10:45:38Z</time>
      </trkpt>
      <trkpt lat="49.31926" lon="1.0046">
        <ele>62.47</ele>
        <time>2014-06-29T10:45:44Z</time>
      </trkpt>
      <trkpt lat="49.31924" lon="1.00479">
        <ele>59.8</ele>
        <time>2014-06-29T10:45:49Z</time>
      </trkpt>
      <trkpt lat="49.31927" lon="1.00489">
        <ele>59.65</ele>
        <time>2014-06-29T10:45:53Z</time>
      </trkpt>
      <trkpt lat="49.31927" lon="1.00498">
        <ele>59.2</ele>
        <time>2014-06-29T10:45:56Z</time>
      </trkpt>
      <trkpt lat="49.3193" lon="1.005">
        <ele>59.38</ele>
        <time>2014-06-29T10:45:59Z</time>
      </trkpt>
      <trkpt lat="49.31938" lon="1.00504">
        <ele>60.74</ele>
        <time>2014-06-29T10:46:06Z</time>
      </trkpt>
      <trkpt lat="49.31947" lon="1.00515">
        <ele>60.99</ele>
        <time>2014-06-29T10:46:12Z</time>
      </trkpt>
      <trkpt lat="49.31948" lon="1.00514">
        <ele>60.99</ele>
        <time>2014-06-29T10:46:13Z</time>
      </trkpt>
      <trkpt lat="49.3195" lon="1.00512">
        <ele>60.61</ele>
        <time>2014-06-29T10:46:15Z</time>
      </trkpt>
      <trkpt lat="49.31956" lon="1.00521">
        <ele>59.33</ele>
        <time>2014-06-29T10:46:18Z</time>
      </trkpt>
      <trkpt lat="49.3196" lon="1.00527">
        <ele>60.52</ele>
        <time>2014-06-29T10:46:22Z</time>
      </trkpt>
      <trkpt lat="49.31961" lon="1.00528">
        <ele>60.63</ele>
        <time>2014-06-29T10:46:23Z</time>
      </trkpt>
      <trkpt lat="49.31967" lon="1.00552">
        <ele>62.66</ele>
        <time>2014-06-29T10:46:31Z</time>
      </trkpt>
      <trkpt lat="49.3197" lon="1.00574">
        <ele>62.8</ele>
        <time>2014-06-29T10:46:38Z</time>
      </trkpt>
      <trkpt lat="49.31972" lon="1.006">
        <ele>62.43</ele>
        <time>2014-06-29T10:46:43Z</time>
      </trkpt>
      <trkpt lat="49.31972" lon="1.00618">
        <ele>62.05</ele>
        <time>2014-06-29T10:46:47Z</time>
      </trkpt>
      <trkpt lat="49.31981" lon="1.00616">
        <ele>61.06</ele>
        <time>2014-06-29T10:46:53Z</time>
      </trkpt>
      <trkpt lat="49.32002" lon="1.00613">
        <ele>59.89</ele>
        <time>2014-06-29T10:46:59Z</time>
      </trkpt>
      <trkpt lat="49.32008" lon="1.00618">
        <ele>61.23</ele>
        <time>2014-06-29T10:47:04Z</time>
      </trkpt>
      <trkpt lat="49.32012" lon="1.00623">
        <ele>61.59</ele>
        <time>2014-06-29T10:47:08Z</time>
      </trkpt>
      <trkpt lat="49.32015" lon="1.00651">
        <ele>59.95</ele>
        <time>2014-06-29T10:47:13Z</time>
      </trkpt>
      <trkpt lat="49.32014" lon="1.00667">
        <ele>58.65</ele>
        <time>2014-06-29T10:47:16Z</time>
      </trkpt>
      <trkpt lat="49.32021" lon="1.00686">
        <ele>54.97</ele>
        <time>2014-06-29T10:47:22Z</time>
      </trkpt>
      <trkpt lat="49.32024" lon="1.00689">
        <ele>54.7</ele>
        <time>2014-06-29T10:47:23Z</time>
      </trkpt>
      <trkpt lat="49.32036" lon="1.00704">
        <ele>53.24</ele>
        <time>2014-06-29T10:47:26Z</time>
      </trkpt>
      <trkpt lat="49.32042" lon="1.00737">
        <ele>53.95</ele>
        <time>2014-06-29T10:47:32Z</time>
      </trkpt>
      <trkpt lat="49.32044" lon="1.00743">
        <ele>54.62</ele>
        <time>2014-06-29T10:47:34Z</time>
      </trkpt>
      <trkpt lat="49.32045" lon="1.00745">
        <ele>55.16</ele>
        <time>2014-06-29T10:47:35Z</time>
      </trkpt>
      <trkpt lat="49.32052" lon="1.00749">
        <ele>55.83</ele>
        <time>2014-06-29T10:47:39Z</time>
      </trkpt>
      <trkpt lat="49.32067" lon="1.00755">
        <ele>57.95</ele>
        <time>2014-06-29T10:47:48Z</time>
      </trkpt>
      <trkpt lat="49.32072" lon="1.00756">
        <ele>59.46</ele>
        <time>2014-06-29T10:47:52Z</time>
      </trkpt>
      <trkpt lat="49.32082" lon="1.00758">
        <ele>60.48</ele>
        <time>2014-06-29T10:47:58Z</time>
      </trkpt>
      <trkpt lat="49.32088" lon="1.00755">
        <ele>61.92</ele>
        <time>2014-06-29T10:48:05Z</time>
      </trkpt>
      <trkpt lat="49.32094" lon="1.00734">
        <ele>60.17</ele>
        <time>2014-06-29T10:48:12Z</time>
      </trkpt>
      <trkpt lat="49.32097" lon="1.00727">
        <ele>59.35</ele>
        <time>2014-06-29T10:48:14Z</time>
      </trkpt>
      <trkpt lat="49.32112" lon="1.0071">
        <ele>58.62</ele>
        <time>2014-06-29T10:48:21Z</time>
      </trkpt>
      <trkpt lat="49.32126" lon="1.00698">
        <ele>59.15</ele>
        <time>2014-06-29T10:48:28Z</time>
      </trkpt>
      <trkpt lat="49.32132" lon="1.00695">
        <ele>60.88</ele>
        <time>2014-06-29T10:48:36Z</time>
      </trkpt>
      <trkpt lat="49.32136" lon="1.00693">
        <ele>62.64</ele>
        <time>2014-06-29T10:48:43Z</time>
      </trkpt>
      <trkpt lat="49.32146" lon="1.0069">
        <ele>65.19</ele>
        <time>2014-06-29T10:48:51Z</time>
      </trkpt>
      <trkpt lat="49.32148" lon="1.0069">
        <ele>65.57</ele>
        <time>2014-06-29T10:48:52Z</time>
      </trkpt>
      <trkpt lat="49.32165" lon="1.0071">
        <ele>66.83</ele>
        <time>2014-06-29T10:49:02Z</time>
      </trkpt>
      <trkpt lat="49.32179" lon="1.00724">
        <ele>68.28</ele>
        <time>2014-06-29T10:49:10Z</time>
      </trkpt>
      <trkpt lat="49.32191" lon="1.00736">
        <ele>71.1</ele>
        <time>2014-06-29T10:49:19Z</time>
      </trkpt>
      <trkpt lat="49.32193" lon="1.00736">
        <ele>71.63</ele>
        <time>2014-06-29T10:49:21Z</time>
      </trkpt>
      <trkpt lat="49.32201" lon="1.00737">
        <ele>72.7</ele>
        <time>2014-06-29T10:49:27Z</time>
      </trkpt>
      <trkpt lat="49.32213" lon="1.00743">
        <ele>74.3</ele>
        <time>2014-06-29T10:49:37Z</time>
      </trkpt>
      <trkpt lat="49.32229" lon="1.0075">
        <ele>73.96</ele>
        <time>2014-06-29T10:49:44Z</time>
      </trkpt>
      <trkpt lat="49.3226" lon="1.00762">
        <ele>72.64</ele>
        <time>2014-06-29T10:49:51Z</time>
      </trkpt>
      <trkpt lat="49.32265" lon="1.00768">
        <ele>72.46</ele>
        <time>2014-06-29T10:49:54Z</time>
      </trkpt>
      <trkpt lat="49.32269" lon="1.00789">
        <ele>75.09</ele>
        <time>2014-06-29T10:50:03Z</time>
      </trkpt>
      <trkpt lat="49.32275" lon="1.00821">
        <ele>78.02</ele>
        <time>2014-06-29T10:50:15Z</time>
      </trkpt>
      <trkpt lat="49.32281" lon="1.00845">
        <ele>79.7</ele>
        <time>2014-06-29T10:50:22Z</time>
      </trkpt>
      <trkpt lat="49.32284" lon="1.00868">
        <ele>82.1</ele>
        <time>2014-06-29T10:50:30Z</time>
      </trkpt>
      <trkpt lat="49.32283" lon="1.00885">
        <ele>84.33</ele>
        <time>2014-06-29T10:50:38Z</time>
      </trkpt>
      <trkpt lat="49.32282" lon="1.009">
        <ele>86.46</ele>
        <time>2014-06-29T10:50:46Z</time>
      </trkpt>
      <trkpt lat="49.32279" lon="1.00922">
        <ele>88.19</ele>
        <time>2014-06-29T10:50:53Z</time>
      </trkpt>
      <trkpt lat="49.3228" lon="1.00938">
        <ele>89.93</ele>
        <time>2014-06-29T10:51:00Z</time>
      </trkpt>
      <trkpt lat="49.32278" lon="1.00951">
        <ele>91.85</ele>
        <time>2014-06-29T10:51:07Z</time>
      </trkpt>
      <trkpt lat="49.32275" lon="1.00971">
        <ele>94.17</ele>
        <time>2014-06-29T10:51:17Z</time>
      </trkpt>
      <trkpt lat="49.32277" lon="1.00998">
        <ele>96.67</ele>
        <time>2014-06-29T10:51:26Z</time>
      </trkpt>
      <trkpt lat="49.3228" lon="1.01008">
        <ele>98.02</ele>
        <time>2014-06-29T10:51:32Z</time>
      </trkpt>
      <trkpt lat="49.32285" lon="1.01013">
        <ele>100.07</ele>
        <time>2014-06-29T10:51:40Z</time>
      </trkpt>
      <trkpt lat="49.32287" lon="1.01019">
        <ele>100.62</ele>
        <time>2014-06-29T10:51:43Z</time>
      </trkpt>
      <trkpt lat="49.32285" lon="1.01046">
        <ele>100.31</ele>
        <time>2014-06-29T10:51:51Z</time>
      </trkpt>
      <trkpt lat="49.32293" lon="1.01058">
        <ele>98.67</ele>
        <time>2014-06-29T10:51:55Z</time>
      </trkpt>
      <trkpt lat="49.32306" lon="1.01073">
        <ele>99.69</ele>
        <time>2014-06-29T10:52:01Z</time>
      </trkpt>
      <trkpt lat="49.32321" lon="1.01088">
        <ele>101.73</ele>
        <time>2014-06-29T10:52:09Z</time>
      </trkpt>
      <trkpt lat="49.32334" lon="1.01102">
        <ele>103.23</ele>
        <time>2014-06-29T10:52:17Z</time>
      </trkpt>
      <trkpt lat="49.32346" lon="1.01126">
        <ele>103.75</ele>
        <time>2014-06-29T10:52:25Z</time>
      </trkpt>
      <trkpt lat="49.32357" lon="1.01147">
        <ele>105.61</ele>
        <time>2014-06-29T10:52:32Z</time>
      </trkpt>
      <trkpt lat="49.32361" lon="1.01167">
        <ele>105.12</ele>
        <time>2014-06-29T10:52:38Z</time>
      </trkpt>
      <trkpt lat="49.32365" lon="1.01185">
        <ele>105.55</ele>
        <time>2014-06-29T10:52:44Z</time>
      </trkpt>
      <trkpt lat="49.3237" lon="1.01201">
        <ele>105.58</ele>
        <time>2014-06-29T10:52:48Z</time>
      </trkpt>
      <trkpt lat="49.32366" lon="1.01237">
        <ele>105.76</ele>
        <time>2014-06-29T10:52:55Z</time>
      </trkpt>
      <trkpt lat="49.32362" lon="1.0127">
        <ele>106.2</ele>
        <time>2014-06-29T10:53:03Z</time>
      </trkpt>
      <trkpt lat="49.32363" lon="1.01295">
        <ele>106.88</ele>
        <time>2014-06-29T10:53:10Z</time>
      </trkpt>
      <trkpt lat="49.3236" lon="1.01318">
        <ele>107.21</ele>
        <time>2014-06-29T10:53:17Z</time>
      </trkpt>
      <trkpt lat="49.32371" lon="1.01337">
        <ele>107.11</ele>
        <time>2014-06-29T10:53:24Z</time>
      </trkpt>
      <trkpt lat="49.32375" lon="1.01363">
        <ele>103.14</ele>
        <time>2014-06-29T10:53:29Z</time>
      </trkpt>
      <trkpt lat="49.32377" lon="1.01367">
        <ele>102.89</ele>
        <time>2014-06-29T10:53:30Z</time>
      </trkpt>
      <trkpt lat="49.32379" lon="1.0137">
        <ele>102.97</ele>
        <time>2014-06-29T10:53:31Z</time>
      </trkpt>
      <trkpt lat="49.32383" lon="1.01375">
        <ele>103.78</ele>
        <time>2014-06-29T10:53:34Z</time>
      </trkpt>
      <trkpt lat="49.32384" lon="1.01393">
        <ele>102.42</ele>
        <time>2014-06-29T10:53:39Z</time>
      </trkpt>
      <trkpt lat="49.32383" lon="1.01408">
        <ele>100.11</ele>
        <time>2014-06-29T10:53:43Z</time>
      </trkpt>
      <trkpt lat="49.32385" lon="1.01438">
        <ele>99.05</ele>
        <time>2014-06-29T10:53:49Z</time>
      </trkpt>
      <trkpt lat="49.32387" lon="1.01457">
        <ele>100.06</ele>
        <time>2014-06-29T10:53:54Z</time>
      </trkpt>
      <trkpt lat="49.32388" lon="1.01478">
        <ele>100.26</ele>
        <time>2014-06-29T10:54:00Z</time>
      </trkpt>
      <trkpt lat="49.32399" lon="1.01503">
        <ele>98.98</ele>
        <time>2014-06-29T10:54:05Z</time>
      </trkpt>
      <trkpt lat="49.32408" lon="1.01518">
        <ele>96.09</ele>
        <time>2014-06-29T10:54:10Z</time>
      </trkpt>
      <trkpt lat="49.32413" lon="1.0152">
        <ele>95.71</ele>
        <time>2014-06-29T10:54:12Z</time>
      </trkpt>
      <trkpt lat="49.32425" lon="1.01524">
        <ele>95.97</ele>
        <time>2014-06-29T10:54:20Z</time>
      </trkpt>
      <trkpt lat="49.3244" lon="1.01528">
        <ele>98.99</ele>
        <time>2014-06-29T10:54:29Z</time>
      </trkpt>
      <trkpt lat="49.32453" lon="1.01532">
        <ele>101.76</ele>
        <time>2014-06-29T10:54:38Z</time>
      </trkpt>
      <trkpt lat="49.32466" lon="1.01536">
        <ele>104.01</ele>
        <time>2014-06-29T10:54:46Z</time>
      </trkpt>
      <trkpt lat="49.3247" lon="1.01537">
        <ele>104.64</ele>
        <time>2014-06-29T10:54:48Z</time>
      </trkpt>
      <trkpt lat="49.32482" lon="1.01535">
        <ele>106.95</ele>
        <time>2014-06-29T10:54:54Z</time>
      </trkpt>
      <trkpt lat="49.32485" lon="1.01535">
        <ele>107.25</ele>
        <time>2014-06-29T10:54:56Z</time>
      </trkpt>
      <trkpt lat="49.32493" lon="1.01541">
        <ele>107.11</ele>
        <time>2014-06-29T10:55:00Z</time>
      </trkpt>
      <trkpt lat="49.32503" lon="1.01565">
        <ele>106.47</ele>
        <time>2014-06-29T10:55:05Z</time>
      </trkpt>
      <trkpt lat="49.32512" lon="1.01593">
        <ele>105.68</ele>
        <time>2014-06-29T10:55:10Z</time>
      </trkpt>
      <trkpt lat="49.32521" lon="1.01626">
        <ele>105.97</ele>
        <time>2014-06-29T10:55:18Z</time>
      </trkpt>
      <trkpt lat="49.32523" lon="1.01647">
        <ele>106.04</ele>
        <time>2014-06-29T10:55:23Z</time>
      </trkpt>
      <trkpt lat="49.32515" lon="1.01681">
        <ele>104.47</ele>
        <time>2014-06-29T10:55:30Z</time>
      </trkpt>
      <trkpt lat="49.32511" lon="1.01707">
        <ele>102.4</ele>
        <time>2014-06-29T10:55:36Z</time>
      </trkpt>
      <trkpt lat="49.32513" lon="1.01719">
        <ele>100.25</ele>
        <time>2014-06-29T10:55:41Z</time>
      </trkpt>
      <trkpt lat="49.32514" lon="1.01723">
        <ele>99.53</ele>
        <time>2014-06-29T10:55:43Z</time>
      </trkpt>
      <trkpt lat="49.32526" lon="1.01744">
        <ele>95.91</ele>
        <time>2014-06-29T10:55:49Z</time>
      </trkpt>
      <trkpt lat="49.32538" lon="1.01769">
        <ele>94.07</ele>
        <time>2014-06-29T10:55:53Z</time>
      </trkpt>
      <trkpt lat="49.32546" lon="1.01794">
        <ele>94.21</ele>
        <time>2014-06-29T10:55:58Z</time>
      </trkpt>
      <trkpt lat="49.32553" lon="1.01817">
        <ele>94.64</ele>
        <time>2014-06-29T10:56:04Z</time>
      </trkpt>
      <trkpt lat="49.32561" lon="1.01842">
        <ele>96.01</ele>
        <time>2014-06-29T10:56:10Z</time>
      </trkpt>
      <trkpt lat="49.32565" lon="1.01858">
        <ele>97.54</ele>
        <time>2014-06-29T10:56:17Z</time>
      </trkpt>
      <trkpt lat="49.32566" lon="1.01863">
        <ele>98.14</ele>
        <time>2014-06-29T10:56:21Z</time>
      </trkpt>
      <trkpt lat="49.32573" lon="1.01885">
        <ele>100.71</ele>
        <time>2014-06-29T10:56:31Z</time>
      </trkpt>
      <trkpt lat="49.32576" lon="1.01905">
        <ele>103.54</ele>
        <time>2014-06-29T10:56:39Z</time>
      </trkpt>
      <trkpt lat="49.32578" lon="1.0191">
        <ele>104.26</ele>
        <time>2014-06-29T10:56:43Z</time>
      </trkpt>
      <trkpt lat="49.3258" lon="1.0193">
        <ele>107.03</ele>
        <time>2014-06-29T10:56:53Z</time>
      </trkpt>
      <trkpt lat="49.32588" lon="1.01932">
        <ele>109.51</ele>
        <time>2014-06-29T10:57:03Z</time>
      </trkpt>
      <trkpt lat="49.3259" lon="1.01931">
        <ele>110.58</ele>
        <time>2014-06-29T10:57:06Z</time>
      </trkpt>
      <trkpt lat="49.32598" lon="1.01924">
        <ele>112.84</ele>
        <time>2014-06-29T10:57:14Z</time>
      </trkpt>
      <trkpt lat="49.326" lon="1.01924">
        <ele>112.85</ele>
        <time>2014-06-29T10:57:16Z</time>
      </trkpt>
      <trkpt lat="49.32618" lon="1.01933">
        <ele>113.54</ele>
        <time>2014-06-29T10:57:27Z</time>
      </trkpt>
      <trkpt lat="49.32635" lon="1.01949">
        <ele>113.75</ele>
        <time>2014-06-29T10:57:35Z</time>
      </trkpt>
      <trkpt lat="49.32644" lon="1.01959">
        <ele>114.16</ele>
        <time>2014-06-29T10:57:42Z</time>
      </trkpt>
      <trkpt lat="49.32646" lon="1.01961">
        <ele>114.2</ele>
        <time>2014-06-29T10:57:43Z</time>
      </trkpt>
      <trkpt lat="49.32658" lon="1.01983">
        <ele>114.33</ele>
        <time>2014-06-29T10:57:52Z</time>
      </trkpt>
      <trkpt lat="49.32668" lon="1.02004">
        <ele>114.6</ele>
        <time>2014-06-29T10:57:58Z</time>
      </trkpt>
      <trkpt lat="49.32684" lon="1.02043">
        <ele>114.86</ele>
        <time>2014-06-29T10:58:05Z</time>
      </trkpt>
      <trkpt lat="49.32699" lon="1.0207">
        <ele>115.43</ele>
        <time>2014-06-29T10:58:12Z</time>
      </trkpt>
      <trkpt lat="49.32709" lon="1.02091">
        <ele>115.63</ele>
        <time>2014-06-29T10:58:19Z</time>
      </trkpt>
      <trkpt lat="49.32722" lon="1.02132">
        <ele>115.02</ele>
        <time>2014-06-29T10:58:26Z</time>
      </trkpt>
      <trkpt lat="49.32732" lon="1.02183">
        <ele>114.4</ele>
        <time>2014-06-29T10:58:33Z</time>
      </trkpt>
      <trkpt lat="49.3274" lon="1.02229">
        <ele>115.08</ele>
        <time>2014-06-29T10:58:41Z</time>
      </trkpt>
      <trkpt lat="49.32743" lon="1.02252">
        <ele>115.29</ele>
        <time>2014-06-29T10:58:46Z</time>
      </trkpt>
      <trkpt lat="49.32739" lon="1.02273">
        <ele>115.32</ele>
        <time>2014-06-29T10:58:52Z</time>
      </trkpt>
      <trkpt lat="49.32722" lon="1.0229">
        <ele>112.15</ele>
        <time>2014-06-29T10:58:58Z</time>
      </trkpt>
      <trkpt lat="49.32705" lon="1.02301">
        <ele>107.46</ele>
        <time>2014-06-29T10:59:03Z</time>
      </trkpt>
      <trkpt lat="49.32704" lon="1.02303">
        <ele>106.54</ele>
        <time>2014-06-29T10:59:04Z</time>
      </trkpt>
      <trkpt lat="49.32703" lon="1.02308">
        <ele>105.72</ele>
        <time>2014-06-29T10:59:06Z</time>
      </trkpt>
      <trkpt lat="49.32704" lon="1.02322">
        <ele>105.22</ele>
        <time>2014-06-29T10:59:11Z</time>
      </trkpt>
      <trkpt lat="49.32707" lon="1.02341">
        <ele>101.37</ele>
        <time>2014-06-29T10:59:16Z</time>
      </trkpt>
      <trkpt lat="49.32712" lon="1.02364">
        <ele>98.17</ele>
        <time>2014-06-29T10:59:20Z</time>
      </trkpt>
      <trkpt lat="49.3272" lon="1.02411">
        <ele>96.22</ele>
        <time>2014-06-29T10:59:26Z</time>
      </trkpt>
      <trkpt lat="49.32725" lon="1.02426">
        <ele>95.36</ele>
        <time>2014-06-29T10:59:28Z</time>
      </trkpt>
      <trkpt lat="49.32733" lon="1.02454">
        <ele>96.68</ele>
        <time>2014-06-29T10:59:34Z</time>
      </trkpt>
      <trkpt lat="49.32739" lon="1.02478">
        <ele>98.98</ele>
        <time>2014-06-29T10:59:42Z</time>
      </trkpt>
      <trkpt lat="49.32744" lon="1.02499">
        <ele>101.81</ele>
        <time>2014-06-29T10:59:51Z</time>
      </trkpt>
      <trkpt lat="49.32745" lon="1.02506">
        <ele>102.24</ele>
        <time>2014-06-29T10:59:56Z</time>
      </trkpt>
      <trkpt lat="49.32738" lon="1.02516">
        <ele>99.83</ele>
        <time>2014-06-29T11:00:00Z</time>
      </trkpt>
      <trkpt lat="49.32738" lon="1.0253">
        <ele>99.13</ele>
        <time>2014-06-29T11:00:08Z</time>
      </trkpt>
      <trkpt lat="49.32739" lon="1.02531">
        <ele>99.09</ele>
        <time>2014-06-29T11:00:09Z</time>
      </trkpt>
      <trkpt lat="49.32746" lon="1.02555">
        <ele>95.48</ele>
        <time>2014-06-29T11:00:18Z</time>
      </trkpt>
      <trkpt lat="49.32746" lon="1.02569">
        <ele>91.88</ele>
        <time>2014-06-29T11:00:22Z</time>
      </trkpt>
      <trkpt lat="49.32746" lon="1.02585">
        <ele>88.18</ele>
        <time>2014-06-29T11:00:25Z</time>
      </trkpt>
      <trkpt lat="49.32746" lon="1.02605">
        <ele>83.17</ele>
        <time>2014-06-29T11:00:28Z</time>
      </trkpt>
      <trkpt lat="49.32748" lon="1.0262">
        <ele>80.91</ele>
        <time>2014-06-29T11:00:30Z</time>
      </trkpt>
      <trkpt lat="49.32756" lon="1.02659">
        <ele>75.8</ele>
        <time>2014-06-29T11:00:35Z</time>
      </trkpt>
      <trkpt lat="49.3276" lon="1.02684">
        <ele>72.7</ele>
        <time>2014-06-29T11:00:39Z</time>
      </trkpt>
      <trkpt lat="49.32759" lon="1.02691">
        <ele>71.44</ele>
        <time>2014-06-29T11:00:41Z</time>
      </trkpt>
      <trkpt lat="49.32755" lon="1.02692">
        <ele>69.77</ele>
        <time>2014-06-29T11:00:44Z</time>
      </trkpt>
      <trkpt lat="49.32745" lon="1.02689">
        <ele>65.67</ele>
        <time>2014-06-29T11:00:49Z</time>
      </trkpt>
      <trkpt lat="49.32738" lon="1.02689">
        <ele>62.58</ele>
        <time>2014-06-29T11:00:55Z</time>
      </trkpt>
      <trkpt lat="49.32733" lon="1.0268">
        <ele>59.91</ele>
        <time>2014-06-29T11:01:00Z</time>
      </trkpt>
      <trkpt lat="49.32732" lon="1.02679">
        <ele>59.14</ele>
        <time>2014-06-29T11:01:01Z</time>
      </trkpt>
      <trkpt lat="49.32731" lon="1.02683">
        <ele>58.38</ele>
        <time>2014-06-29T11:01:03Z</time>
      </trkpt>
      <trkpt lat="49.3272" lon="1.0269">
        <ele>55.9</ele>
        <time>2014-06-29T11:01:09Z</time>
      </trkpt>
      <trkpt lat="49.32703" lon="1.02693">
        <ele>53.08</ele>
        <time>2014-06-29T11:01:14Z</time>
      </trkpt>
      <trkpt lat="49.32691" lon="1.02702">
        <ele>51.08</ele>
        <time>2014-06-29T11:01:18Z</time>
      </trkpt>
      <trkpt lat="49.32685" lon="1.02718">
        <ele>51.44</ele>
        <time>2014-06-29T11:01:23Z</time>
      </trkpt>
      <trkpt lat="49.32673" lon="1.02733">
        <ele>51.2</ele>
        <time>2014-06-29T11:01:28Z</time>
      </trkpt>
      <trkpt lat="49.32663" lon="1.02751">
        <ele>53.06</ele>
        <time>2014-06-29T11:01:35Z</time>
      </trkpt>
      <trkpt lat="49.32655" lon="1.02769">
        <ele>54.24</ele>
        <time>2014-06-29T11:01:43Z</time>
      </trkpt>
      <trkpt lat="49.32654" lon="1.02771">
        <ele>54.31</ele>
        <time>2014-06-29T11:01:44Z</time>
      </trkpt>
      <trkpt lat="49.3264" lon="1.0278">
        <ele>52.69</ele>
        <time>2014-06-29T11:01:50Z</time>
      </trkpt>
      <trkpt lat="49.32627" lon="1.02794">
        <ele>49.48</ele>
        <time>2014-06-29T11:01:54Z</time>
      </trkpt>
      <trkpt lat="49.32621" lon="1.02799">
        <ele>48.72</ele>
        <time>2014-06-29T11:01:56Z</time>
      </trkpt>
      <trkpt lat="49.32613" lon="1.02813">
        <ele>49.15</ele>
        <time>2014-06-29T11:02:01Z</time>
      </trkpt>
      <trkpt lat="49.32606" lon="1.02824">
        <ele>51.08</ele>
        <time>2014-06-29T11:02:10Z</time>
      </trkpt>
      <trkpt lat="49.32608" lon="1.02825">
        <ele>51.8</ele>
        <time>2014-06-29T11:02:25Z</time>
      </trkpt>
      <trkpt lat="49.32607" lon="1.02831">
        <ele>52.6</ele>
        <time>2014-06-29T11:02:36Z</time>
      </trkpt>
      <trkpt lat="49.32598" lon="1.02847">
        <ele>54.92</ele>
        <time>2014-06-29T11:02:50Z</time>
      </trkpt>
      <trkpt lat="49.32597" lon="1.0285">
        <ele>55.09</ele>
        <time>2014-06-29T11:02:53Z</time>
      </trkpt>
      <trkpt lat="49.326" lon="1.02863">
        <ele>56.25</ele>
        <time>2014-06-29T11:03:01Z</time>
      </trkpt>
      <trkpt lat="49.32598" lon="1.02882">
        <ele>56.64</ele>
        <time>2014-06-29T11:03:07Z</time>
      </trkpt>
      <trkpt lat="49.32596" lon="1.02895">
        <ele>56.07</ele>
        <time>2014-06-29T11:03:14Z</time>
      </trkpt>
      <trkpt lat="49.32597" lon="1.02898">
        <ele>55.97</ele>
        <time>2014-06-29T11:03:15Z</time>
      </trkpt>
      <trkpt lat="49.32607" lon="1.0291">
        <ele>56.95</ele>
        <time>2014-06-29T11:03:22Z</time>
      </trkpt>
      <trkpt lat="49.3261" lon="1.02913">
        <ele>57.5</ele>
        <time>2014-06-29T11:03:24Z</time>
      </trkpt>
      <trkpt lat="49.32617" lon="1.02923">
        <ele>56.4</ele>
        <time>2014-06-29T11:03:30Z</time>
      </trkpt>
      <trkpt lat="49.32623" lon="1.02934">
        <ele>56.48</ele>
        <time>2014-06-29T11:03:35Z</time>
      </trkpt>
      <trkpt lat="49.32635" lon="1.02944">
        <ele>54.28</ele>
        <time>2014-06-29T11:03:39Z</time>
      </trkpt>
      <trkpt lat="49.32642" lon="1.02953">
        <ele>53.41</ele>
        <time>2014-06-29T11:03:42Z</time>
      </trkpt>
      <trkpt lat="49.32661" lon="1.02961">
        <ele>53.4</ele>
        <time>2014-06-29T11:03:50Z</time>
      </trkpt>
      <trkpt lat="49.32675" lon="1.02969">
        <ele>54.31</ele>
        <time>2014-06-29T11:03:56Z</time>
      </trkpt>
      <trkpt lat="49.32688" lon="1.02981">
        <ele>53.14</ele>
        <time>2014-06-29T11:04:03Z</time>
      </trkpt>
      <trkpt lat="49.32696" lon="1.0299">
        <ele>54.9</ele>
        <time>2014-06-29T11:04:10Z</time>
      </trkpt>
      <trkpt lat="49.32702" lon="1.02995">
        <ele>55.66</ele>
        <time>2014-06-29T11:04:16Z</time>
      </trkpt>
      <trkpt lat="49.32706" lon="1.03001">
        <ele>57.58</ele>
        <time>2014-06-29T11:04:25Z</time>
      </trkpt>
      <trkpt lat="49.32713" lon="1.03008">
        <ele>59.79</ele>
        <time>2014-06-29T11:04:35Z</time>
      </trkpt>
      <trkpt lat="49.32718" lon="1.0301">
        <ele>61.67</ele>
        <time>2014-06-29T11:04:45Z</time>
      </trkpt>
      <trkpt lat="49.32725" lon="1.03012">
        <ele>63.39</ele>
        <time>2014-06-29T11:04:56Z</time>
      </trkpt>
      <trkpt lat="49.32734" lon="1.0301">
        <ele>65.1</ele>
        <time>2014-06-29T11:05:04Z</time>
      </trkpt>
      <trkpt lat="49.32743" lon="1.03016">
        <ele>66.2</ele>
        <time>2014-06-29T11:05:11Z</time>
      </trkpt>
      <trkpt lat="49.32743" lon="1.03016">
        <ele>66.48</ele>
        <time>2014-06-29T11:05:13Z</time>
      </trkpt>
      <trkpt lat="49.32745" lon="1.03007">
        <ele>67.5</ele>
        <time>2014-06-29T11:05:21Z</time>
      </trkpt>
      <trkpt lat="49.32747" lon="1.03001">
        <ele>68.58</ele>
        <time>2014-06-29T11:05:29Z</time>
      </trkpt>
      <trkpt lat="49.32748" lon="1.02995">
        <ele>70.29</ele>
        <time>2014-06-29T11:05:38Z</time>
      </trkpt>
      <trkpt lat="49.32748" lon="1.02991">
        <ele>70.49</ele>
        <time>2014-06-29T11:05:41Z</time>
      </trkpt>
      <trkpt lat="49.32747" lon="1.02982">
        <ele>72.23</ele>
        <time>2014-06-29T11:05:50Z</time>
      </trkpt>
      <trkpt lat="49.32745" lon="1.0297">
        <ele>74</ele>
        <time>2014-06-29T11:06:00Z</time>
      </trkpt>
      <trkpt lat="49.32745" lon="1.0297">
        <ele>74.19</ele>
        <time>2014-06-29T11:06:01Z</time>
      </trkpt>
      <trkpt lat="49.32749" lon="1.02968">
        <ele>75.11</ele>
        <time>2014-06-29T11:06:10Z</time>
      </trkpt>
      <trkpt lat="49.32754" lon="1.02969">
        <ele>75.69</ele>
        <time>2014-06-29T11:06:16Z</time>
      </trkpt>
      <trkpt lat="49.32758" lon="1.02977">
        <ele>76.85</ele>
        <time>2014-06-29T11:06:26Z</time>
      </trkpt>
      <trkpt lat="49.32763" lon="1.02984">
        <ele>78.57</ele>
        <time>2014-06-29T11:06:35Z</time>
      </trkpt>
      <trkpt lat="49.32767" lon="1.02993">
        <ele>80.24</ele>
        <time>2014-06-29T11:06:44Z</time>
      </trkpt>
      <trkpt lat="49.3277" lon="1.03002">
        <ele>80.83</ele>
        <time>2014-06-29T11:06:49Z</time>
      </trkpt>
      <trkpt lat="49.32774" lon="1.03014">
        <ele>81.86</ele>
        <time>2014-06-29T11:06:58Z</time>
      </trkpt>
      <trkpt lat="49.32777" lon="1.03027">
        <ele>82.7</ele>
        <time>2014-06-29T11:07:06Z</time>
      </trkpt>
      <trkpt lat="49.32778" lon="1.03035">
        <ele>83.72</ele>
        <time>2014-06-29T11:07:13Z</time>
      </trkpt>
      <trkpt lat="49.32777" lon="1.03039">
        <ele>84.55</ele>
        <time>2014-06-29T11:07:17Z</time>
      </trkpt>
      <trkpt lat="49.32776" lon="1.03041">
        <ele>84.56</ele>
        <time>2014-06-29T11:07:19Z</time>
      </trkpt>
      <trkpt lat="49.32771" lon="1.03054">
        <ele>84.71</ele>
        <time>2014-06-29T11:07:27Z</time>
      </trkpt>
      <trkpt lat="49.3277" lon="1.03059">
        <ele>85.25</ele>
        <time>2014-06-29T11:07:30Z</time>
      </trkpt>
      <trkpt lat="49.32765" lon="1.03071">
        <ele>86.75</ele>
        <time>2014-06-29T11:07:39Z</time>
      </trkpt>
      <trkpt lat="49.32768" lon="1.03071">
        <ele>87.65</ele>
        <time>2014-06-29T11:07:45Z</time>
      </trkpt>
      <trkpt lat="49.32773" lon="1.03071">
        <ele>89.19</ele>
        <time>2014-06-29T11:07:53Z</time>
      </trkpt>
      <trkpt lat="49.32774" lon="1.03071">
        <ele>89.59</ele>
        <time>2014-06-29T11:07:56Z</time>
      </trkpt>
      <trkpt lat="49.3278" lon="1.03067">
        <ele>91.79</ele>
        <time>2014-06-29T11:08:06Z</time>
      </trkpt>
      <trkpt lat="49.32781" lon="1.0307">
        <ele>92.16</ele>
        <time>2014-06-29T11:08:09Z</time>
      </trkpt>
      <trkpt lat="49.32778" lon="1.03079">
        <ele>93.88</ele>
        <time>2014-06-29T11:08:20Z</time>
      </trkpt>
      <trkpt lat="49.32773" lon="1.03085">
        <ele>95.52</ele>
        <time>2014-06-29T11:08:29Z</time>
      </trkpt>
      <trkpt lat="49.32775" lon="1.03099">
        <ele>98.04</ele>
        <time>2014-06-29T11:08:41Z</time>
      </trkpt>
      <trkpt lat="49.32781" lon="1.03106">
        <ele>100.66</ele>
        <time>2014-06-29T11:08:53Z</time>
      </trkpt>
      <trkpt lat="49.3279" lon="1.03103">
        <ele>103.4</ele>
        <time>2014-06-29T11:09:07Z</time>
      </trkpt>
      <trkpt lat="49.32802" lon="1.03094">
        <ele>106.42</ele>
        <time>2014-06-29T11:09:23Z</time>
      </trkpt>
      <trkpt lat="49.32809" lon="1.03097">
        <ele>107.32</ele>
        <time>2014-06-29T11:09:36Z</time>
      </trkpt>
      <trkpt lat="49.32809" lon="1.03106">
        <ele>108.51</ele>
        <time>2014-06-29T11:09:44Z</time>
      </trkpt>
      <trkpt lat="49.32814" lon="1.03116">
        <ele>109.17</ele>
        <time>2014-06-29T11:09:53Z</time>
      </trkpt>
      <trkpt lat="49.32815" lon="1.03119">
        <ele>109.25</ele>
        <time>2014-06-29T11:09:55Z</time>
      </trkpt>
      <trkpt lat="49.32829" lon="1.03135">
        <ele>108.27</ele>
        <time>2014-06-29T11:10:03Z</time>
      </trkpt>
      <trkpt lat="49.32841" lon="1.03152">
        <ele>108.3</ele>
        <time>2014-06-29T11:10:08Z</time>
      </trkpt>
      <trkpt lat="49.32853" lon="1.03179">
        <ele>107.57</ele>
        <time>2014-06-29T11:10:15Z</time>
      </trkpt>
      <trkpt lat="49.32857" lon="1.03191">
        <ele>107.05</ele>
        <time>2014-06-29T11:10:18Z</time>
      </trkpt>
      <trkpt lat="49.32863" lon="1.03228">
        <ele>106.37</ele>
        <time>2014-06-29T11:10:25Z</time>
      </trkpt>
      <trkpt lat="49.32865" lon="1.03241">
        <ele>107.17</ele>
        <time>2014-06-29T11:10:29Z</time>
      </trkpt>
      <trkpt lat="49.32868" lon="1.03271">
        <ele>106.79</ele>
        <time>2014-06-29T11:10:36Z</time>
      </trkpt>
      <trkpt lat="49.32871" lon="1.03297">
        <ele>107.1</ele>
        <time>2014-06-29T11:10:44Z</time>
      </trkpt>
      <trkpt lat="49.32869" lon="1.03321">
        <ele>107.18</ele>
        <time>2014-06-29T11:10:51Z</time>
      </trkpt>
      <trkpt lat="49.32865" lon="1.03334">
        <ele>108.08</ele>
        <time>2014-06-29T11:10:57Z</time>
      </trkpt>
      <trkpt lat="49.32857" lon="1.03353">
        <ele>108.89</ele>
        <time>2014-06-29T11:11:04Z</time>
      </trkpt>
      <trkpt lat="49.32855" lon="1.03376">
        <ele>110.66</ele>
        <time>2014-06-29T11:11:11Z</time>
      </trkpt>
      <trkpt lat="49.32858" lon="1.03413">
        <ele>109.14</ele>
        <time>2014-06-29T11:11:18Z</time>
      </trkpt>
      <trkpt lat="49.32863" lon="1.03436">
        <ele>107.3</ele>
        <time>2014-06-29T11:11:21Z</time>
      </trkpt>
      <trkpt lat="49.32872" lon="1.03474">
        <ele>103.3</ele>
        <time>2014-06-29T11:11:27Z</time>
      </trkpt>
      <trkpt lat="49.32876" lon="1.03495">
        <ele>102.67</ele>
        <time>2014-06-29T11:11:32Z</time>
      </trkpt>
      <trkpt lat="49.32876" lon="1.03529">
        <ele>100.58</ele>
        <time>2014-06-29T11:11:39Z</time>
      </trkpt>
      <trkpt lat="49.32873" lon="1.03559">
        <ele>100.77</ele>
        <time>2014-06-29T11:11:45Z</time>
      </trkpt>
      <trkpt lat="49.32872" lon="1.03575">
        <ele>102.68</ele>
        <time>2014-06-29T11:11:51Z</time>
      </trkpt>
      <trkpt lat="49.32867" lon="1.03593">
        <ele>104.31</ele>
        <time>2014-06-29T11:11:57Z</time>
      </trkpt>
      <trkpt lat="49.32863" lon="1.03603">
        <ele>105.02</ele>
        <time>2014-06-29T11:12:01Z</time>
      </trkpt>
      <trkpt lat="49.32859" lon="1.03616">
        <ele>106.1</ele>
        <time>2014-06-29T11:12:05Z</time>
      </trkpt>
      <trkpt lat="49.32844" lon="1.03635">
        <ele>103.58</ele>
        <time>2014-06-29T11:12:12Z</time>
      </trkpt>
      <trkpt lat="49.32842" lon="1.03637">
        <ele>103.04</ele>
        <time>2014-06-29T11:12:13Z</time>
      </trkpt>
      <trkpt lat="49.32841" lon="1.03644">
        <ele>102.25</ele>
        <time>2014-06-29T11:12:15Z</time>
      </trkpt>
      <trkpt lat="49.32846" lon="1.03652">
        <ele>102.77</ele>
        <time>2014-06-29T11:12:20Z</time>
      </trkpt>
      <trkpt lat="49.32849" lon="1.03653">
        <ele>103.04</ele>
        <time>2014-06-29T11:12:22Z</time>
      </trkpt>
      <trkpt lat="49.32858" lon="1.03654">
        <ele>103.81</ele>
        <time>2014-06-29T11:12:30Z</time>
      </trkpt>
      <trkpt lat="49.32861" lon="1.03655">
        <ele>102.69</ele>
        <time>2014-06-29T11:12:33Z</time>
      </trkpt>
      <trkpt lat="49.32866" lon="1.0367">
        <ele>98.21</ele>
        <time>2014-06-29T11:12:37Z</time>
      </trkpt>
      <trkpt lat="49.32869" lon="1.03674">
        <ele>96.82</ele>
        <time>2014-06-29T11:12:38Z</time>
      </trkpt>
      <trkpt lat="49.32878" lon="1.03688">
        <ele>94.62</ele>
        <time>2014-06-29T11:12:42Z</time>
      </trkpt>
      <trkpt lat="49.32889" lon="1.03711">
        <ele>94.01</ele>
        <time>2014-06-29T11:12:47Z</time>
      </trkpt>
      <trkpt lat="49.32894" lon="1.0372">
        <ele>95.38</ele>
        <time>2014-06-29T11:12:53Z</time>
      </trkpt>
      <trkpt lat="49.32902" lon="1.03733">
        <ele>97.38</ele>
        <time>2014-06-29T11:13:00Z</time>
      </trkpt>
      <trkpt lat="49.32911" lon="1.03758">
        <ele>98.56</ele>
        <time>2014-06-29T11:13:09Z</time>
      </trkpt>
      <trkpt lat="49.32912" lon="1.03765">
        <ele>99.74</ele>
        <time>2014-06-29T11:13:12Z</time>
      </trkpt>
      <trkpt lat="49.32914" lon="1.03777">
        <ele>100.25</ele>
        <time>2014-06-29T11:13:16Z</time>
      </trkpt>
      <trkpt lat="49.32917" lon="1.03798">
        <ele>102.83</ele>
        <time>2014-06-29T11:13:25Z</time>
      </trkpt>
      <trkpt lat="49.32917" lon="1.03803">
        <ele>103.17</ele>
        <time>2014-06-29T11:13:28Z</time>
      </trkpt>
      <trkpt lat="49.32913" lon="1.03825">
        <ele>102.04</ele>
        <time>2014-06-29T11:13:35Z</time>
      </trkpt>
      <trkpt lat="49.32915" lon="1.03842">
        <ele>102.67</ele>
        <time>2014-06-29T11:13:42Z</time>
      </trkpt>
      <trkpt lat="49.32915" lon="1.03862">
        <ele>101.08</ele>
        <time>2014-06-29T11:13:47Z</time>
      </trkpt>
      <trkpt lat="49.32917" lon="1.03887">
        <ele>100.26</ele>
        <time>2014-06-29T11:13:52Z</time>
      </trkpt>
      <trkpt lat="49.32912" lon="1.0392">
        <ele>99.36</ele>
        <time>2014-06-29T11:13:58Z</time>
      </trkpt>
      <trkpt lat="49.32903" lon="1.0396">
        <ele>100.23</ele>
        <time>2014-06-29T11:14:05Z</time>
      </trkpt>
      <trkpt lat="49.32899" lon="1.03981">
        <ele>100.54</ele>
        <time>2014-06-29T11:14:11Z</time>
      </trkpt>
      <trkpt lat="49.32893" lon="1.04004">
        <ele>100.53</ele>
        <time>2014-06-29T11:14:17Z</time>
      </trkpt>
      <trkpt lat="49.3289" lon="1.04025">
        <ele>101</ele>
        <time>2014-06-29T11:14:22Z</time>
      </trkpt>
      <trkpt lat="49.32879" lon="1.0405">
        <ele>101.48</ele>
        <time>2014-06-29T11:14:29Z</time>
      </trkpt>
      <trkpt lat="49.32872" lon="1.04076">
        <ele>101.88</ele>
        <time>2014-06-29T11:14:36Z</time>
      </trkpt>
      <trkpt lat="49.32861" lon="1.04094">
        <ele>102.36</ele>
        <time>2014-06-29T11:14:43Z</time>
      </trkpt>
      <trkpt lat="49.32844" lon="1.0411">
        <ele>102.48</ele>
        <time>2014-06-29T11:14:50Z</time>
      </trkpt>
      <trkpt lat="49.3284" lon="1.04122">
        <ele>104.47</ele>
        <time>2014-06-29T11:14:57Z</time>
      </trkpt>
      <trkpt lat="49.3284" lon="1.04123">
        <ele>104.65</ele>
        <time>2014-06-29T11:14:58Z</time>
      </trkpt>
      <trkpt lat="49.32842" lon="1.04139">
        <ele>107.25</ele>
        <time>2014-06-29T11:15:06Z</time>
      </trkpt>
      <trkpt lat="49.32839" lon="1.04164">
        <ele>106.43</ele>
        <time>2014-06-29T11:15:11Z</time>
      </trkpt>
      <trkpt lat="49.32837" lon="1.04192">
        <ele>105.22</ele>
        <time>2014-06-29T11:15:15Z</time>
      </trkpt>
      <trkpt lat="49.32834" lon="1.04239">
        <ele>103.82</ele>
        <time>2014-06-29T11:15:22Z</time>
      </trkpt>
      <trkpt lat="49.32836" lon="1.04258">
        <ele>101.98</ele>
        <time>2014-06-29T11:15:24Z</time>
      </trkpt>
      <trkpt lat="49.32839" lon="1.04278">
        <ele>100.44</ele>
        <time>2014-06-29T11:15:26Z</time>
      </trkpt>
      <trkpt lat="49.32845" lon="1.04297">
        <ele>99.31</ele>
        <time>2014-06-29T11:15:28Z</time>
      </trkpt>
      <trkpt lat="49.32848" lon="1.04312">
        <ele>99.77</ele>
        <time>2014-06-29T11:15:30Z</time>
      </trkpt>
      <trkpt lat="49.32849" lon="1.04331">
        <ele>99.26</ele>
        <time>2014-06-29T11:15:32Z</time>
      </trkpt>
      <trkpt lat="49.32854" lon="1.04349">
        <ele>100.6</ele>
        <time>2014-06-29T11:15:36Z</time>
      </trkpt>
      <trkpt lat="49.32858" lon="1.04379">
        <ele>100.44</ele>
        <time>2014-06-29T11:15:42Z</time>
      </trkpt>
      <trkpt lat="49.32861" lon="1.04406">
        <ele>99.64</ele>
        <time>2014-06-29T11:15:47Z</time>
      </trkpt>
      <trkpt lat="49.32856" lon="1.04448">
        <ele>96.87</ele>
        <time>2014-06-29T11:15:52Z</time>
      </trkpt>
      <trkpt lat="49.32856" lon="1.04463">
        <ele>96.4</ele>
        <time>2014-06-29T11:15:54Z</time>
      </trkpt>
      <trkpt lat="49.32857" lon="1.04489">
        <ele>92.36</ele>
        <time>2014-06-29T11:15:58Z</time>
      </trkpt>
      <trkpt lat="49.32858" lon="1.04511">
        <ele>88.73</ele>
        <time>2014-06-29T11:16:02Z</time>
      </trkpt>
      <trkpt lat="49.32863" lon="1.04542">
        <ele>85.33</ele>
        <time>2014-06-29T11:16:08Z</time>
      </trkpt>
      <trkpt lat="49.32876" lon="1.04573">
        <ele>83.47</ele>
        <time>2014-06-29T11:16:12Z</time>
      </trkpt>
      <trkpt lat="49.32884" lon="1.04596">
        <ele>84.06</ele>
        <time>2014-06-29T11:16:17Z</time>
      </trkpt>
      <trkpt lat="49.32895" lon="1.04616">
        <ele>84.97</ele>
        <time>2014-06-29T11:16:24Z</time>
      </trkpt>
      <trkpt lat="49.32906" lon="1.04643">
        <ele>85.36</ele>
        <time>2014-06-29T11:16:31Z</time>
      </trkpt>
      <trkpt lat="49.32917" lon="1.04682">
        <ele>84.3</ele>
        <time>2014-06-29T11:16:39Z</time>
      </trkpt>
      <trkpt lat="49.32928" lon="1.0472">
        <ele>83.13</ele>
        <time>2014-06-29T11:16:44Z</time>
      </trkpt>
      <trkpt lat="49.3293" lon="1.04728">
        <ele>83.13</ele>
        <time>2014-06-29T11:16:45Z</time>
      </trkpt>
      <trkpt lat="49.32951" lon="1.0477">
        <ele>83.65</ele>
        <time>2014-06-29T11:16:52Z</time>
      </trkpt>
      <trkpt lat="49.32961" lon="1.048">
        <ele>83.44</ele>
        <time>2014-06-29T11:16:57Z</time>
      </trkpt>
      <trkpt lat="49.32977" lon="1.04854">
        <ele>83.34</ele>
        <time>2014-06-29T11:17:05Z</time>
      </trkpt>
      <trkpt lat="49.32981" lon="1.04876">
        <ele>82.32</ele>
        <time>2014-06-29T11:17:08Z</time>
      </trkpt>
      <trkpt lat="49.32987" lon="1.04898">
        <ele>81.11</ele>
        <time>2014-06-29T11:17:11Z</time>
      </trkpt>
      <trkpt lat="49.32997" lon="1.0492">
        <ele>80.93</ele>
        <time>2014-06-29T11:17:14Z</time>
      </trkpt>
      <trkpt lat="49.32998" lon="1.04944">
        <ele>77.24</ele>
        <time>2014-06-29T11:17:18Z</time>
      </trkpt>
      <trkpt lat="49.33006" lon="1.04978">
        <ele>74.33</ele>
        <time>2014-06-29T11:17:23Z</time>
      </trkpt>
      <trkpt lat="49.33012" lon="1.05005">
        <ele>72.26</ele>
        <time>2014-06-29T11:17:26Z</time>
      </trkpt>
      <trkpt lat="49.33024" lon="1.05052">
        <ele>70.83</ele>
        <time>2014-06-29T11:17:31Z</time>
      </trkpt>
      <trkpt lat="49.33027" lon="1.05061">
        <ele>70.61</ele>
        <time>2014-06-29T11:17:32Z</time>
      </trkpt>
      <trkpt lat="49.33036" lon="1.05086">
        <ele>70.15</ele>
        <time>2014-06-29T11:17:35Z</time>
      </trkpt>
      <trkpt lat="49.33048" lon="1.05146">
        <ele>67.97</ele>
        <time>2014-06-29T11:17:41Z</time>
      </trkpt>
      <trkpt lat="49.33055" lon="1.0521">
        <ele>65.08</ele>
        <time>2014-06-29T11:17:47Z</time>
      </trkpt>
      <trkpt lat="49.33057" lon="1.05231">
        <ele>63.84</ele>
        <time>2014-06-29T11:17:49Z</time>
      </trkpt>
      <trkpt lat="49.3306" lon="1.05257">
        <ele>62.11</ele>
        <time>2014-06-29T11:17:52Z</time>
      </trkpt>
      <trkpt lat="49.3306" lon="1.05276">
        <ele>59.82</ele>
        <time>2014-06-29T11:17:54Z</time>
      </trkpt>
      <trkpt lat="49.33057" lon="1.05325">
        <ele>55.15</ele>
        <time>2014-06-29T11:17:59Z</time>
      </trkpt>
      <trkpt lat="49.33057" lon="1.05343">
        <ele>53.12</ele>
        <time>2014-06-29T11:18:02Z</time>
      </trkpt>
      <trkpt lat="49.33059" lon="1.05347">
        <ele>52.4</ele>
        <time>2014-06-29T11:18:04Z</time>
      </trkpt>
      <trkpt lat="49.33065" lon="1.05355">
        <ele>51.94</ele>
        <time>2014-06-29T11:18:14Z</time>
      </trkpt>
      <trkpt lat="49.33072" lon="1.05369">
        <ele>53.68</ele>
        <time>2014-06-29T11:18:22Z</time>
      </trkpt>
      <trkpt lat="49.33078" lon="1.05384">
        <ele>54.8</ele>
        <time>2014-06-29T11:18:28Z</time>
      </trkpt>
      <trkpt lat="49.33093" lon="1.05399">
        <ele>57.06</ele>
        <time>2014-06-29T11:18:36Z</time>
      </trkpt>
      <trkpt lat="49.33106" lon="1.05412">
        <ele>58.14</ele>
        <time>2014-06-29T11:18:45Z</time>
      </trkpt>
      <trkpt lat="49.3309" lon="1.05404">
        <ele>60.11</ele>
        <time>2014-06-29T11:18:53Z</time>
      </trkpt>
      <trkpt lat="49.33087" lon="1.054">
        <ele>60.42</ele>
        <time>2014-06-29T11:18:57Z</time>
      </trkpt>
      <trkpt lat="49.33087" lon="1.0539">
        <ele>62.03</ele>
        <time>2014-06-29T11:19:05Z</time>
      </trkpt>
      <trkpt lat="49.33095" lon="1.05385">
        <ele>63.76</ele>
        <time>2014-06-29T11:19:13Z</time>
      </trkpt>
      <trkpt lat="49.33091" lon="1.05373">
        <ele>65.03</ele>
        <time>2014-06-29T11:19:21Z</time>
      </trkpt>
      <trkpt lat="49.33092" lon="1.05368">
        <ele>65.79</ele>
        <time>2014-06-29T11:19:28Z</time>
      </trkpt>
      <trkpt lat="49.33092" lon="1.05368">
        <ele>66.28</ele>
        <time>2014-06-29T11:19:34Z</time>
      </trkpt>
      <trkpt lat="49.33094" lon="1.05369">
        <ele>65.23</ele>
        <time>2014-06-29T11:19:40Z</time>
      </trkpt>
      <trkpt lat="49.33093" lon="1.05369">
        <ele>65.06</ele>
        <time>2014-06-29T11:19:50Z</time>
      </trkpt>
      <trkpt lat="49.33096" lon="1.05367">
        <ele>65.22</ele>
        <time>2014-06-29T11:20:01Z</time>
      </trkpt>
      <trkpt lat="49.331" lon="1.05362">
        <ele>65.14</ele>
        <time>2014-06-29T11:20:10Z</time>
      </trkpt>
      <trkpt lat="49.33097" lon="1.05357">
        <ele>65.06</ele>
        <time>2014-06-29T11:20:20Z</time>
      </trkpt>
      <trkpt lat="49.33094" lon="1.05355">
        <ele>65.03</ele>
        <time>2014-06-29T11:20:30Z</time>
      </trkpt>
      <trkpt lat="49.33107" lon="1.05364">
        <ele>65.07</ele>
        <time>2014-06-29T11:20:40Z</time>
      </trkpt>
      <trkpt lat="49.33106" lon="1.05368">
        <ele>65.24</ele>
        <time>2014-06-29T11:20:49Z</time>
      </trkpt>
      <trkpt lat="49.33106" lon="1.05368">
        <ele>65.21</ele>
        <time>2014-06-29T11:20:58Z</time>
      </trkpt>
      <trkpt lat="49.33103" lon="1.05368">
        <ele>65.48</ele>
        <time>2014-06-29T11:21:05Z</time>
      </trkpt>
      <trkpt lat="49.33094" lon="1.05365">
        <ele>65.5</ele>
        <time>2014-06-29T11:21:14Z</time>
      </trkpt>
      <trkpt lat="49.33077" lon="1.05371">
        <ele>65.34</ele>
        <time>2014-06-29T11:21:24Z</time>
      </trkpt>
      <trkpt lat="49.33078" lon="1.05373">
        <ele>65.41</ele>
        <time>2014-06-29T11:21:32Z</time>
      </trkpt>
      <trkpt lat="49.33088" lon="1.05374">
        <ele>65.44</ele>
        <time>2014-06-29T11:21:39Z</time>
      </trkpt>
      <trkpt lat="49.33089" lon="1.05369">
        <ele>65.46</ele>
        <time>2014-06-29T11:21:45Z</time>
      </trkpt>
      <trkpt lat="49.33089" lon="1.05367">
        <ele>65.49</ele>
        <time>2014-06-29T11:21:51Z</time>
      </trkpt>
      <trkpt lat="49.33082" lon="1.05366">
        <ele>65.55</ele>
        <time>2014-06-29T11:22:02Z</time>
      </trkpt>
      <trkpt lat="49.33079" lon="1.05365">
        <ele>65.55</ele>
        <time>2014-06-29T11:22:11Z</time>
      </trkpt>
      <trkpt lat="49.33075" lon="1.05364">
        <ele>65.54</ele>
        <time>2014-06-29T11:22:18Z</time>
      </trkpt>
      <trkpt lat="49.33082" lon="1.05363">
        <ele>65.59</ele>
        <time>2014-06-29T11:22:26Z</time>
      </trkpt>
      <trkpt lat="49.33088" lon="1.0536">
        <ele>65.54</ele>
        <time>2014-06-29T11:22:34Z</time>
      </trkpt>
      <trkpt lat="49.33095" lon="1.05364">
        <ele>65.64</ele>
        <time>2014-06-29T11:22:42Z</time>
      </trkpt>
      <trkpt lat="49.33095" lon="1.05366">
        <ele>65.58</ele>
        <time>2014-06-29T11:22:49Z</time>
      </trkpt>
      <trkpt lat="49.33093" lon="1.05367">
        <ele>65.54</ele>
        <time>2014-06-29T11:22:57Z</time>
      </trkpt>
      <trkpt lat="49.33092" lon="1.05368">
        <ele>65.62</ele>
        <time>2014-06-29T11:23:07Z</time>
      </trkpt>
      <trkpt lat="49.33084" lon="1.05364">
        <ele>65.52</ele>
        <time>2014-06-29T11:23:15Z</time>
      </trkpt>
      <trkpt lat="49.33082" lon="1.05365">
        <ele>65.61</ele>
        <time>2014-06-29T11:23:20Z</time>
      </trkpt>
      <trkpt lat="49.33078" lon="1.05363">
        <ele>65.36</ele>
        <time>2014-06-29T11:23:30Z</time>
      </trkpt>
      <trkpt lat="49.33076" lon="1.05363">
        <ele>65.6</ele>
        <time>2014-06-29T11:23:39Z</time>
      </trkpt>
      <trkpt lat="49.33079" lon="1.05366">
        <ele>65.64</ele>
        <time>2014-06-29T11:23:47Z</time>
      </trkpt>
      <trkpt lat="49.3308" lon="1.05367">
        <ele>65.86</ele>
        <time>2014-06-29T11:23:54Z</time>
      </trkpt>
      <trkpt lat="49.33084" lon="1.05367">
        <ele>65.75</ele>
        <time>2014-06-29T11:24:03Z</time>
      </trkpt>
      <trkpt lat="49.33091" lon="1.05371">
        <ele>65.78</ele>
        <time>2014-06-29T11:24:12Z</time>
      </trkpt>
      <trkpt lat="49.33094" lon="1.05374">
        <ele>65.98</ele>
        <time>2014-06-29T11:24:21Z</time>
      </trkpt>
      <trkpt lat="49.33094" lon="1.05374">
        <ele>65.79</ele>
        <time>2014-06-29T11:24:32Z</time>
      </trkpt>
      <trkpt lat="49.33094" lon="1.05379">
        <ele>65.86</ele>
        <time>2014-06-29T11:24:41Z</time>
      </trkpt>
      <trkpt lat="49.33097" lon="1.05382">
        <ele>65.89</ele>
        <time>2014-06-29T11:24:49Z</time>
      </trkpt>
      <trkpt lat="49.3309" lon="1.05379">
        <ele>65.94</ele>
        <time>2014-06-29T11:25:00Z</time>
      </trkpt>
      <trkpt lat="49.33087" lon="1.05378">
        <ele>65.72</ele>
        <time>2014-06-29T11:25:08Z</time>
      </trkpt>
      <trkpt lat="49.33086" lon="1.05376">
        <ele>65.78</ele>
        <time>2014-06-29T11:25:17Z</time>
      </trkpt>
      <trkpt lat="49.33089" lon="1.05378">
        <ele>65.77</ele>
        <time>2014-06-29T11:25:25Z</time>
      </trkpt>
      <trkpt lat="49.33092" lon="1.05379">
        <ele>65.68</ele>
        <time>2014-06-29T11:25:36Z</time>
      </trkpt>
      <trkpt lat="49.33092" lon="1.05374">
        <ele>65.73</ele>
        <time>2014-06-29T11:25:45Z</time>
      </trkpt>
      <trkpt lat="49.3309" lon="1.05373">
        <ele>65.6</ele>
        <time>2014-06-29T11:25:56Z</time>
      </trkpt>
      <trkpt lat="49.33088" lon="1.05371">
        <ele>65.83</ele>
        <time>2014-06-29T11:26:03Z</time>
      </trkpt>
      <trkpt lat="49.33092" lon="1.05375">
        <ele>66.74</ele>
        <time>2014-06-29T11:26:11Z</time>
      </trkpt>
      <trkpt lat="49.33097" lon="1.05377">
        <ele>66.87</ele>
        <time>2014-06-29T11:26:20Z</time>
      </trkpt>
      <trkpt lat="49.331" lon="1.05379">
        <ele>66.22</ele>
        <time>2014-06-29T11:26:26Z</time>
      </trkpt>
      <trkpt lat="49.33101" lon="1.05377">
        <ele>66.76</ele>
        <time>2014-06-29T11:26:33Z</time>
      </trkpt>
      <trkpt lat="49.33098" lon="1.05376">
        <ele>65.95</ele>
        <time>2014-06-29T11:26:38Z</time>
      </trkpt>
      <trkpt lat="49.33095" lon="1.05374">
        <ele>66.71</ele>
        <time>2014-06-29T11:26:46Z</time>
      </trkpt>
      <trkpt lat="49.3309" lon="1.05372">
        <ele>66.21</ele>
        <time>2014-06-29T11:26:53Z</time>
      </trkpt>
      <trkpt lat="49.33091" lon="1.05371">
        <ele>66.24</ele>
        <time>2014-06-29T11:26:55Z</time>
      </trkpt>
      <trkpt lat="49.33093" lon="1.05363">
        <ele>67.68</ele>
        <time>2014-06-29T11:27:02Z</time>
      </trkpt>
      <trkpt lat="49.33097" lon="1.05362">
        <ele>68.95</ele>
        <time>2014-06-29T11:27:08Z</time>
      </trkpt>
      <trkpt lat="49.33105" lon="1.05366">
        <ele>70.67</ele>
        <time>2014-06-29T11:27:19Z</time>
      </trkpt>
      <trkpt lat="49.33102" lon="1.05365">
        <ele>70.71</ele>
        <time>2014-06-29T11:27:25Z</time>
      </trkpt>
      <trkpt lat="49.33104" lon="1.05373">
        <ele>70.25</ele>
        <time>2014-06-29T11:27:32Z</time>
      </trkpt>
      <trkpt lat="49.33103" lon="1.05374">
        <ele>70.14</ele>
        <time>2014-06-29T11:27:33Z</time>
      </trkpt>
      <trkpt lat="49.331" lon="1.05386">
        <ele>68.21</ele>
        <time>2014-06-29T11:27:39Z</time>
      </trkpt>
      <trkpt lat="49.33099" lon="1.05393">
        <ele>66.42</ele>
        <time>2014-06-29T11:27:43Z</time>
      </trkpt>
      <trkpt lat="49.33105" lon="1.05402">
        <ele>65.58</ele>
        <time>2014-06-29T11:27:48Z</time>
      </trkpt>
      <trkpt lat="49.33111" lon="1.05409">
        <ele>67.16</ele>
        <time>2014-06-29T11:27:55Z</time>
      </trkpt>
      <trkpt lat="49.33114" lon="1.05411">
        <ele>67.58</ele>
        <time>2014-06-29T11:27:57Z</time>
      </trkpt>
      <trkpt lat="49.33118" lon="1.05418">
        <ele>68.03</ele>
        <time>2014-06-29T11:28:01Z</time>
      </trkpt>
      <trkpt lat="49.33123" lon="1.05427">
        <ele>67.25</ele>
        <time>2014-06-29T11:28:07Z</time>
      </trkpt>
      <trkpt lat="49.33138" lon="1.05431">
        <ele>68.83</ele>
        <time>2014-06-29T11:28:15Z</time>
      </trkpt>
      <trkpt lat="49.33152" lon="1.05434">
        <ele>70.14</ele>
        <time>2014-06-29T11:28:24Z</time>
      </trkpt>
      <trkpt lat="49.33159" lon="1.05447">
        <ele>70</ele>
        <time>2014-06-29T11:28:31Z</time>
      </trkpt>
      <trkpt lat="49.33158" lon="1.05449">
        <ele>70.05</ele>
        <time>2014-06-29T11:28:32Z</time>
      </trkpt>
      <trkpt lat="49.33159" lon="1.05455">
        <ele>69.57</ele>
        <time>2014-06-29T11:28:35Z</time>
      </trkpt>
      <trkpt lat="49.33165" lon="1.05466">
        <ele>69.58</ele>
        <time>2014-06-29T11:28:45Z</time>
      </trkpt>
      <trkpt lat="49.33175" lon="1.05479">
        <ele>69.62</ele>
        <time>2014-06-29T11:28:52Z</time>
      </trkpt>
      <trkpt lat="49.33189" lon="1.0549">
        <ele>70.67</ele>
        <time>2014-06-29T11:28:58Z</time>
      </trkpt>
      <trkpt lat="49.33199" lon="1.05498">
        <ele>70.98</ele>
        <time>2014-06-29T11:29:02Z</time>
      </trkpt>
      <trkpt lat="49.33202" lon="1.05496">
        <ele>72.26</ele>
        <time>2014-06-29T11:29:06Z</time>
      </trkpt>
      <trkpt lat="49.33199" lon="1.05488">
        <ele>73.05</ele>
        <time>2014-06-29T11:29:12Z</time>
      </trkpt>
      <trkpt lat="49.33192" lon="1.05471">
        <ele>74.22</ele>
        <time>2014-06-29T11:29:22Z</time>
      </trkpt>
      <trkpt lat="49.33185" lon="1.05457">
        <ele>75.36</ele>
        <time>2014-06-29T11:29:30Z</time>
      </trkpt>
      <trkpt lat="49.33174" lon="1.05439">
        <ele>76.26</ele>
        <time>2014-06-29T11:29:40Z</time>
      </trkpt>
      <trkpt lat="49.33171" lon="1.05427">
        <ele>77.66</ele>
        <time>2014-06-29T11:29:47Z</time>
      </trkpt>
      <trkpt lat="49.33174" lon="1.05419">
        <ele>80.06</ele>
        <time>2014-06-29T11:29:55Z</time>
      </trkpt>
      <trkpt lat="49.3318" lon="1.05419">
        <ele>80.36</ele>
        <time>2014-06-29T11:30:00Z</time>
      </trkpt>
      <trkpt lat="49.33191" lon="1.05422">
        <ele>81.52</ele>
        <time>2014-06-29T11:30:09Z</time>
      </trkpt>
      <trkpt lat="49.33196" lon="1.05425">
        <ele>81.76</ele>
        <time>2014-06-29T11:30:18Z</time>
      </trkpt>
      <trkpt lat="49.33197" lon="1.05423">
        <ele>82.06</ele>
        <time>2014-06-29T11:30:20Z</time>
      </trkpt>
      <trkpt lat="49.33211" lon="1.05424">
        <ele>83.45</ele>
        <time>2014-06-29T11:30:27Z</time>
      </trkpt>
      <trkpt lat="49.33214" lon="1.05425">
        <ele>83.85</ele>
        <time>2014-06-29T11:30:29Z</time>
      </trkpt>
      <trkpt lat="49.33225" lon="1.05435">
        <ele>83.58</ele>
        <time>2014-06-29T11:30:38Z</time>
      </trkpt>
      <trkpt lat="49.33224" lon="1.05436">
        <ele>83.55</ele>
        <time>2014-06-29T11:30:39Z</time>
      </trkpt>
      <trkpt lat="49.33229" lon="1.05441">
        <ele>83.2</ele>
        <time>2014-06-29T11:30:43Z</time>
      </trkpt>
      <trkpt lat="49.33234" lon="1.05445">
        <ele>83.9</ele>
        <time>2014-06-29T11:30:48Z</time>
      </trkpt>
      <trkpt lat="49.33248" lon="1.05463">
        <ele>83.9</ele>
        <time>2014-06-29T11:30:57Z</time>
      </trkpt>
      <trkpt lat="49.33256" lon="1.05466">
        <ele>85.23</ele>
        <time>2014-06-29T11:31:02Z</time>
      </trkpt>
      <trkpt lat="49.33259" lon="1.05466">
        <ele>85.47</ele>
        <time>2014-06-29T11:31:04Z</time>
      </trkpt>
      <trkpt lat="49.33273" lon="1.05465">
        <ele>87.31</ele>
        <time>2014-06-29T11:31:13Z</time>
      </trkpt>
      <trkpt lat="49.33277" lon="1.0546">
        <ele>88.38</ele>
        <time>2014-06-29T11:31:19Z</time>
      </trkpt>
      <trkpt lat="49.33286" lon="1.05452">
        <ele>89.73</ele>
        <time>2014-06-29T11:31:27Z</time>
      </trkpt>
      <trkpt lat="49.33295" lon="1.05448">
        <ele>90.38</ele>
        <time>2014-06-29T11:31:36Z</time>
      </trkpt>
      <trkpt lat="49.333" lon="1.05446">
        <ele>91.4</ele>
        <time>2014-06-29T11:31:43Z</time>
      </trkpt>
      <trkpt lat="49.333" lon="1.05446">
        <ele>91.81</ele>
        <time>2014-06-29T11:31:51Z</time>
      </trkpt>
      <trkpt lat="49.33303" lon="1.05446">
        <ele>91.98</ele>
        <time>2014-06-29T11:31:53Z</time>
      </trkpt>
      <trkpt lat="49.33307" lon="1.05444">
        <ele>92.76</ele>
        <time>2014-06-29T11:31:56Z</time>
      </trkpt>
      <trkpt lat="49.33324" lon="1.05453">
        <ele>92.98</ele>
        <time>2014-06-29T11:32:04Z</time>
      </trkpt>
      <trkpt lat="49.33341" lon="1.05466">
        <ele>92.73</ele>
        <time>2014-06-29T11:32:10Z</time>
      </trkpt>
      <trkpt lat="49.33356" lon="1.05471">
        <ele>93.25</ele>
        <time>2014-06-29T11:32:16Z</time>
      </trkpt>
      <trkpt lat="49.3336" lon="1.05474">
        <ele>93.32</ele>
        <time>2014-06-29T11:32:20Z</time>
      </trkpt>
      <trkpt lat="49.33374" lon="1.05484">
        <ele>93.74</ele>
        <time>2014-06-29T11:32:28Z</time>
      </trkpt>
      <trkpt lat="49.3338" lon="1.05478">
        <ele>95.01</ele>
        <time>2014-06-29T11:32:34Z</time>
      </trkpt>
      <trkpt lat="49.33372" lon="1.05468">
        <ele>96.11</ele>
        <time>2014-06-29T11:32:39Z</time>
      </trkpt>
      <trkpt lat="49.33372" lon="1.05455">
        <ele>97.78</ele>
        <time>2014-06-29T11:32:50Z</time>
      </trkpt>
      <trkpt lat="49.3337" lon="1.05439">
        <ele>98.82</ele>
        <time>2014-06-29T11:32:59Z</time>
      </trkpt>
      <trkpt lat="49.33376" lon="1.05431">
        <ele>99.61</ele>
        <time>2014-06-29T11:33:05Z</time>
      </trkpt>
      <trkpt lat="49.33386" lon="1.0542">
        <ele>100.37</ele>
        <time>2014-06-29T11:33:12Z</time>
      </trkpt>
      <trkpt lat="49.33384" lon="1.0541">
        <ele>100.72</ele>
        <time>2014-06-29T11:33:17Z</time>
      </trkpt>
      <trkpt lat="49.33394" lon="1.05391">
        <ele>101.77</ele>
        <time>2014-06-29T11:33:26Z</time>
      </trkpt>
      <trkpt lat="49.33399" lon="1.0538">
        <ele>102.57</ele>
        <time>2014-06-29T11:33:32Z</time>
      </trkpt>
      <trkpt lat="49.33411" lon="1.05383">
        <ele>102.68</ele>
        <time>2014-06-29T11:33:39Z</time>
      </trkpt>
      <trkpt lat="49.33429" lon="1.05391">
        <ele>103.35</ele>
        <time>2014-06-29T11:33:47Z</time>
      </trkpt>
      <trkpt lat="49.3343" lon="1.05394">
        <ele>103.22</ele>
        <time>2014-06-29T11:33:48Z</time>
      </trkpt>
      <trkpt lat="49.33446" lon="1.05423">
        <ele>102.1</ele>
        <time>2014-06-29T11:33:55Z</time>
      </trkpt>
      <trkpt lat="49.33453" lon="1.05427">
        <ele>101.8</ele>
        <time>2014-06-29T11:33:57Z</time>
      </trkpt>
      <trkpt lat="49.33474" lon="1.05437">
        <ele>101.86</ele>
        <time>2014-06-29T11:34:04Z</time>
      </trkpt>
      <trkpt lat="49.33483" lon="1.05448">
        <ele>101.49</ele>
        <time>2014-06-29T11:34:07Z</time>
      </trkpt>
      <trkpt lat="49.33495" lon="1.0546">
        <ele>101.1</ele>
        <time>2014-06-29T11:34:10Z</time>
      </trkpt>
      <trkpt lat="49.33519" lon="1.05466">
        <ele>101.27</ele>
        <time>2014-06-29T11:34:16Z</time>
      </trkpt>
      <trkpt lat="49.33538" lon="1.05453">
        <ele>101.83</ele>
        <time>2014-06-29T11:34:23Z</time>
      </trkpt>
      <trkpt lat="49.33553" lon="1.05447">
        <ele>102.71</ele>
        <time>2014-06-29T11:34:27Z</time>
      </trkpt>
      <trkpt lat="49.33571" lon="1.05438">
        <ele>102.94</ele>
        <time>2014-06-29T11:34:31Z</time>
      </trkpt>
      <trkpt lat="49.33587" lon="1.05428">
        <ele>102.92</ele>
        <time>2014-06-29T11:34:35Z</time>
      </trkpt>
      <trkpt lat="49.3361" lon="1.05416">
        <ele>103.14</ele>
        <time>2014-06-29T11:34:40Z</time>
      </trkpt>
      <trkpt lat="49.33627" lon="1.05419">
        <ele>102.15</ele>
        <time>2014-06-29T11:34:45Z</time>
      </trkpt>
      <trkpt lat="49.33637" lon="1.05435">
        <ele>101.57</ele>
        <time>2014-06-29T11:34:48Z</time>
      </trkpt>
      <trkpt lat="49.33663" lon="1.05479">
        <ele>99.89</ele>
        <time>2014-06-29T11:34:55Z</time>
      </trkpt>
      <trkpt lat="49.33689" lon="1.05522">
        <ele>97.97</ele>
        <time>2014-06-29T11:35:01Z</time>
      </trkpt>
      <trkpt lat="49.33722" lon="1.0557">
        <ele>96.17</ele>
        <time>2014-06-29T11:35:08Z</time>
      </trkpt>
      <trkpt lat="49.33751" lon="1.05617">
        <ele>94.37</ele>
        <time>2014-06-29T11:35:14Z</time>
      </trkpt>
      <trkpt lat="49.33778" lon="1.05653">
        <ele>92.52</ele>
        <time>2014-06-29T11:35:19Z</time>
      </trkpt>
      <trkpt lat="49.33801" lon="1.05692">
        <ele>91.6</ele>
        <time>2014-06-29T11:35:24Z</time>
      </trkpt>
      <trkpt lat="49.33812" lon="1.05705">
        <ele>91.08</ele>
        <time>2014-06-29T11:35:26Z</time>
      </trkpt>
      <trkpt lat="49.33831" lon="1.05731">
        <ele>89.94</ele>
        <time>2014-06-29T11:35:30Z</time>
      </trkpt>
      <trkpt lat="49.33857" lon="1.05765">
        <ele>88.15</ele>
        <time>2014-06-29T11:35:35Z</time>
      </trkpt>
      <trkpt lat="49.33864" lon="1.05776">
        <ele>87.97</ele>
        <time>2014-06-29T11:35:37Z</time>
      </trkpt>
      <trkpt lat="49.33887" lon="1.05788">
        <ele>87.39</ele>
        <time>2014-06-29T11:35:42Z</time>
      </trkpt>
      <trkpt lat="49.33898" lon="1.05784">
        <ele>86.67</ele>
        <time>2014-06-29T11:35:45Z</time>
      </trkpt>
      <trkpt lat="49.33911" lon="1.05778">
        <ele>85.73</ele>
        <time>2014-06-29T11:35:48Z</time>
      </trkpt>
      <trkpt lat="49.33936" lon="1.05771">
        <ele>84.26</ele>
        <time>2014-06-29T11:35:53Z</time>
      </trkpt>
      <trkpt lat="49.33956" lon="1.05763">
        <ele>83.4</ele>
        <time>2014-06-29T11:35:57Z</time>
      </trkpt>
      <trkpt lat="49.33982" lon="1.05739">
        <ele>80.07</ele>
        <time>2014-06-29T11:36:03Z</time>
      </trkpt>
      <trkpt lat="49.34" lon="1.05723">
        <ele>77.47</ele>
        <time>2014-06-29T11:36:09Z</time>
      </trkpt>
      <trkpt lat="49.34003" lon="1.05722">
        <ele>77.14</ele>
        <time>2014-06-29T11:36:15Z</time>
      </trkpt>
      <trkpt lat="49.34003" lon="1.05723">
        <ele>77.28</ele>
        <time>2014-06-29T11:36:22Z</time>
      </trkpt>
      <trkpt lat="49.34004" lon="1.05721">
        <ele>77.03</ele>
        <time>2014-06-29T11:36:27Z</time>
      </trkpt>
      <trkpt lat="49.34006" lon="1.0572">
        <ele>76.76</ele>
        <time>2014-06-29T11:36:38Z</time>
      </trkpt>
      <trkpt lat="49.34007" lon="1.05722">
        <ele>77.03</ele>
        <time>2014-06-29T11:36:46Z</time>
      </trkpt>
      <trkpt lat="49.34007" lon="1.05722">
        <ele>76.78</ele>
        <time>2014-06-29T11:36:58Z</time>
      </trkpt>
      <trkpt lat="49.34006" lon="1.05721">
        <ele>76.88</ele>
        <time>2014-06-29T11:37:07Z</time>
      </trkpt>
      <trkpt lat="49.34008" lon="1.05722">
        <ele>76.96</ele>
        <time>2014-06-29T11:37:16Z</time>
      </trkpt>
      <trkpt lat="49.34005" lon="1.05722">
        <ele>76.91</ele>
        <time>2014-06-29T11:37:24Z</time>
      </trkpt>
      <trkpt lat="49.34006" lon="1.05723">
        <ele>77.05</ele>
        <time>2014-06-29T11:37:32Z</time>
      </trkpt>
      <trkpt lat="49.34008" lon="1.05722">
        <ele>77.06</ele>
        <time>2014-06-29T11:37:42Z</time>
      </trkpt>
      <trkpt lat="49.34009" lon="1.05723">
        <ele>76.97</ele>
        <time>2014-06-29T11:37:52Z</time>
      </trkpt>
      <trkpt lat="49.34009" lon="1.05722">
        <ele>76.86</ele>
        <time>2014-06-29T11:38:01Z</time>
      </trkpt>
      <trkpt lat="49.34009" lon="1.05723">
        <ele>76.85</ele>
        <time>2014-06-29T11:38:10Z</time>
      </trkpt>
      <trkpt lat="49.3401" lon="1.05725">
        <ele>76.86</ele>
        <time>2014-06-29T11:38:18Z</time>
      </trkpt>
      <trkpt lat="49.3401" lon="1.05724">
        <ele>76.91</ele>
        <time>2014-06-29T11:38:26Z</time>
      </trkpt>
      <trkpt lat="49.34009" lon="1.05725">
        <ele>76.81</ele>
        <time>2014-06-29T11:38:34Z</time>
      </trkpt>
      <trkpt lat="49.34009" lon="1.05724">
        <ele>76.87</ele>
        <time>2014-06-29T11:38:52Z</time>
      </trkpt>
      <trkpt lat="49.34006" lon="1.05722">
        <ele>76.97</ele>
        <time>2014-06-29T11:39:07Z</time>
      </trkpt>
      <trkpt lat="49.34003" lon="1.0572">
        <ele>76.94</ele>
        <time>2014-06-29T11:39:26Z</time>
      </trkpt>
      <trkpt lat="49.34002" lon="1.05715">
        <ele>77</ele>
        <time>2014-06-29T11:39:44Z</time>
      </trkpt>
      <trkpt lat="49.33999" lon="1.05716">
        <ele>76.96</ele>
        <time>2014-06-29T11:40:00Z</time>
      </trkpt>
      <trkpt lat="49.33993" lon="1.05712">
        <ele>76.92</ele>
        <time>2014-06-29T11:40:19Z</time>
      </trkpt>
      <trkpt lat="49.33992" lon="1.05712">
        <ele>77.13</ele>
        <time>2014-06-29T11:40:37Z</time>
      </trkpt>
      <trkpt lat="49.33988" lon="1.05713">
        <ele>77.07</ele>
        <time>2014-06-29T11:40:54Z</time>
      </trkpt>
      <trkpt lat="49.33982" lon="1.05714">
        <ele>77.12</ele>
        <time>2014-06-29T11:41:13Z</time>
      </trkpt>
      <trkpt lat="49.33983" lon="1.05713">
        <ele>77.15</ele>
        <time>2014-06-29T11:41:34Z</time>
      </trkpt>
      <trkpt lat="49.33984" lon="1.05715">
        <ele>77.15</ele>
        <time>2014-06-29T11:41:53Z</time>
      </trkpt>
      <trkpt lat="49.33987" lon="1.05716">
        <ele>77.23</ele>
        <time>2014-06-29T11:42:11Z</time>
      </trkpt>
      <trkpt lat="49.33988" lon="1.05718">
        <ele>77.27</ele>
        <time>2014-06-29T11:42:29Z</time>
      </trkpt>
      <trkpt lat="49.33989" lon="1.05716">
        <ele>77.3</ele>
        <time>2014-06-29T11:42:45Z</time>
      </trkpt>
      <trkpt lat="49.33989" lon="1.05715">
        <ele>77.26</ele>
        <time>2014-06-29T11:43:04Z</time>
      </trkpt>
      <trkpt lat="49.33988" lon="1.05715">
        <ele>77.34</ele>
        <time>2014-06-29T11:43:23Z</time>
      </trkpt>
      <trkpt lat="49.33988" lon="1.05713">
        <ele>76.98</ele>
        <time>2014-06-29T11:43:38Z</time>
      </trkpt>
      <trkpt lat="49.33993" lon="1.05717">
        <ele>77.16</ele>
        <time>2014-06-29T11:43:58Z</time>
      </trkpt>
      <trkpt lat="49.33995" lon="1.05719">
        <ele>77.16</ele>
        <time>2014-06-29T11:44:14Z</time>
      </trkpt>
      <trkpt lat="49.33993" lon="1.05723">
        <ele>77.21</ele>
        <time>2014-06-29T11:44:33Z</time>
      </trkpt>
      <trkpt lat="49.33994" lon="1.05725">
        <ele>77.28</ele>
        <time>2014-06-29T11:44:51Z</time>
      </trkpt>
      <trkpt lat="49.33995" lon="1.05725">
        <ele>77.41</ele>
        <time>2014-06-29T11:45:10Z</time>
      </trkpt>
      <trkpt lat="49.33995" lon="1.05723">
        <ele>77.21</ele>
        <time>2014-06-29T11:45:27Z</time>
      </trkpt>
      <trkpt lat="49.33996" lon="1.0572">
        <ele>77.8</ele>
        <time>2014-06-29T11:45:42Z</time>
      </trkpt>
      <trkpt lat="49.33995" lon="1.05721">
        <ele>77.93</ele>
        <time>2014-06-29T11:45:54Z</time>
      </trkpt>
      <trkpt lat="49.33994" lon="1.0572">
        <ele>77.87</ele>
        <time>2014-06-29T11:46:10Z</time>
      </trkpt>
      <trkpt lat="49.33995" lon="1.05717">
        <ele>77.57</ele>
        <time>2014-06-29T11:46:21Z</time>
      </trkpt>
      <trkpt lat="49.33998" lon="1.05702">
        <ele>73.71</ele>
        <time>2014-06-29T11:46:27Z</time>
      </trkpt>
      <trkpt lat="49.34002" lon="1.05695">
        <ele>71.65</ele>
        <time>2014-06-29T11:46:30Z</time>
      </trkpt>
      <trkpt lat="49.34015" lon="1.05703">
        <ele>69.69</ele>
        <time>2014-06-29T11:46:36Z</time>
      </trkpt>
      <trkpt lat="49.34024" lon="1.05719">
        <ele>69.56</ele>
        <time>2014-06-29T11:46:42Z</time>
      </trkpt>
      <trkpt lat="49.34035" lon="1.05744">
        <ele>68.08</ele>
        <time>2014-06-29T11:46:50Z</time>
      </trkpt>
      <trkpt lat="49.34037" lon="1.05771">
        <ele>65.17</ele>
        <time>2014-06-29T11:46:55Z</time>
      </trkpt>
      <trkpt lat="49.3404" lon="1.05797">
        <ele>61.11</ele>
        <time>2014-06-29T11:47:00Z</time>
      </trkpt>
      <trkpt lat="49.34041" lon="1.05803">
        <ele>58.86</ele>
        <time>2014-06-29T11:47:01Z</time>
      </trkpt>
      <trkpt lat="49.34052" lon="1.05863">
        <ele>55.28</ele>
        <time>2014-06-29T11:47:08Z</time>
      </trkpt>
      <trkpt lat="49.34063" lon="1.05898">
        <ele>51.95</ele>
        <time>2014-06-29T11:47:14Z</time>
      </trkpt>
      <trkpt lat="49.34081" lon="1.05904">
        <ele>48.56</ele>
        <time>2014-06-29T11:47:18Z</time>
      </trkpt>
      <trkpt lat="49.34103" lon="1.05902">
        <ele>45.06</ele>
        <time>2014-06-29T11:47:22Z</time>
      </trkpt>
      <trkpt lat="49.34126" lon="1.05897">
        <ele>43.81</ele>
        <time>2014-06-29T11:47:26Z</time>
      </trkpt>
      <trkpt lat="49.34143" lon="1.05895">
        <ele>41.48</ele>
        <time>2014-06-29T11:47:29Z</time>
      </trkpt>
      <trkpt lat="49.3416" lon="1.05882">
        <ele>39.19</ele>
        <time>2014-06-29T11:47:34Z</time>
      </trkpt>
      <trkpt lat="49.34177" lon="1.0587">
        <ele>40.03</ele>
        <time>2014-06-29T11:47:40Z</time>
      </trkpt>
      <trkpt lat="49.34182" lon="1.05868">
        <ele>40.39</ele>
        <time>2014-06-29T11:47:43Z</time>
      </trkpt>
      <trkpt lat="49.34184" lon="1.0586">
        <ele>40.92</ele>
        <time>2014-06-29T11:47:47Z</time>
      </trkpt>
      <trkpt lat="49.34182" lon="1.05839">
        <ele>41.49</ele>
        <time>2014-06-29T11:47:53Z</time>
      </trkpt>
      <trkpt lat="49.34178" lon="1.05815">
        <ele>42.4</ele>
        <time>2014-06-29T11:48:00Z</time>
      </trkpt>
      <trkpt lat="49.34177" lon="1.05783">
        <ele>42.61</ele>
        <time>2014-06-29T11:48:08Z</time>
      </trkpt>
      <trkpt lat="49.3418" lon="1.05766">
        <ele>44.62</ele>
        <time>2014-06-29T11:48:15Z</time>
      </trkpt>
      <trkpt lat="49.34181" lon="1.05764">
        <ele>44.88</ele>
        <time>2014-06-29T11:48:16Z</time>
      </trkpt>
      <trkpt lat="49.34186" lon="1.0575">
        <ele>46.6</ele>
        <time>2014-06-29T11:48:26Z</time>
      </trkpt>
      <trkpt lat="49.34188" lon="1.05749">
        <ele>47.05</ele>
        <time>2014-06-29T11:48:28Z</time>
      </trkpt>
      <trkpt lat="49.34191" lon="1.05749">
        <ele>47.8</ele>
        <time>2014-06-29T11:48:31Z</time>
      </trkpt>
      <trkpt lat="49.342" lon="1.05755">
        <ele>49.65</ele>
        <time>2014-06-29T11:48:40Z</time>
      </trkpt>
      <trkpt lat="49.34213" lon="1.05761">
        <ele>51.27</ele>
        <time>2014-06-29T11:48:47Z</time>
      </trkpt>
      <trkpt lat="49.34227" lon="1.05768">
        <ele>53.28</ele>
        <time>2014-06-29T11:48:57Z</time>
      </trkpt>
      <trkpt lat="49.34232" lon="1.05772">
        <ele>54.56</ele>
        <time>2014-06-29T11:49:04Z</time>
      </trkpt>
      <trkpt lat="49.34238" lon="1.05777">
        <ele>56.38</ele>
        <time>2014-06-29T11:49:14Z</time>
      </trkpt>
      <trkpt lat="49.34247" lon="1.05784">
        <ele>59.27</ele>
        <time>2014-06-29T11:49:28Z</time>
      </trkpt>
      <trkpt lat="49.34256" lon="1.05788">
        <ele>62.21</ele>
        <time>2014-06-29T11:49:42Z</time>
      </trkpt>
      <trkpt lat="49.34265" lon="1.05797">
        <ele>65.34</ele>
        <time>2014-06-29T11:49:57Z</time>
      </trkpt>
      <trkpt lat="49.34272" lon="1.05803">
        <ele>68.52</ele>
        <time>2014-06-29T11:50:11Z</time>
      </trkpt>
      <trkpt lat="49.34278" lon="1.05806">
        <ele>71.7</ele>
        <time>2014-06-29T11:50:25Z</time>
      </trkpt>
      <trkpt lat="49.34286" lon="1.05803">
        <ele>74.89</ele>
        <time>2014-06-29T11:50:37Z</time>
      </trkpt>
      <trkpt lat="49.34299" lon="1.05802">
        <ele>77.91</ele>
        <time>2014-06-29T11:50:51Z</time>
      </trkpt>
      <trkpt lat="49.34306" lon="1.05796">
        <ele>79.37</ele>
        <time>2014-06-29T11:51:04Z</time>
      </trkpt>
      <trkpt lat="49.34307" lon="1.05789">
        <ele>79.81</ele>
        <time>2014-06-29T11:51:12Z</time>
      </trkpt>
      <trkpt lat="49.34307" lon="1.05778">
        <ele>80.6</ele>
        <time>2014-06-29T11:51:16Z</time>
      </trkpt>
      <trkpt lat="49.34308" lon="1.05749">
        <ele>81.98</ele>
        <time>2014-06-29T11:51:25Z</time>
      </trkpt>
      <trkpt lat="49.34307" lon="1.05723">
        <ele>83.12</ele>
        <time>2014-06-29T11:51:33Z</time>
      </trkpt>
      <trkpt lat="49.34303" lon="1.05708">
        <ele>83.4</ele>
        <time>2014-06-29T11:51:38Z</time>
      </trkpt>
      <trkpt lat="49.34306" lon="1.05693">
        <ele>84.44</ele>
        <time>2014-06-29T11:51:44Z</time>
      </trkpt>
      <trkpt lat="49.3431" lon="1.05671">
        <ele>86.57</ele>
        <time>2014-06-29T11:51:53Z</time>
      </trkpt>
      <trkpt lat="49.34309" lon="1.05662">
        <ele>86.97</ele>
        <time>2014-06-29T11:51:57Z</time>
      </trkpt>
      <trkpt lat="49.34299" lon="1.05656">
        <ele>86.13</ele>
        <time>2014-06-29T11:52:03Z</time>
      </trkpt>
      <trkpt lat="49.34294" lon="1.05645">
        <ele>86.08</ele>
        <time>2014-06-29T11:52:06Z</time>
      </trkpt>
      <trkpt lat="49.34286" lon="1.05619">
        <ele>86.35</ele>
        <time>2014-06-29T11:52:13Z</time>
      </trkpt>
      <trkpt lat="49.34279" lon="1.05587">
        <ele>86.3</ele>
        <time>2014-06-29T11:52:20Z</time>
      </trkpt>
      <trkpt lat="49.3427" lon="1.05554">
        <ele>86.91</ele>
        <time>2014-06-29T11:52:28Z</time>
      </trkpt>
      <trkpt lat="49.34255" lon="1.05528">
        <ele>86.83</ele>
        <time>2014-06-29T11:52:35Z</time>
      </trkpt>
      <trkpt lat="49.34237" lon="1.05498">
        <ele>87.37</ele>
        <time>2014-06-29T11:52:43Z</time>
      </trkpt>
      <trkpt lat="49.34218" lon="1.05478">
        <ele>87.19</ele>
        <time>2014-06-29T11:52:49Z</time>
      </trkpt>
      <trkpt lat="49.34201" lon="1.05444">
        <ele>86.98</ele>
        <time>2014-06-29T11:52:56Z</time>
      </trkpt>
      <trkpt lat="49.34197" lon="1.05415">
        <ele>87.68</ele>
        <time>2014-06-29T11:53:02Z</time>
      </trkpt>
      <trkpt lat="49.34183" lon="1.05389">
        <ele>86.57</ele>
        <time>2014-06-29T11:53:08Z</time>
      </trkpt>
      <trkpt lat="49.34169" lon="1.05365">
        <ele>86.81</ele>
        <time>2014-06-29T11:53:14Z</time>
      </trkpt>
      <trkpt lat="49.34167" lon="1.05346">
        <ele>87.6</ele>
        <time>2014-06-29T11:53:20Z</time>
      </trkpt>
      <trkpt lat="49.34166" lon="1.05324">
        <ele>88.85</ele>
        <time>2014-06-29T11:53:27Z</time>
      </trkpt>
      <trkpt lat="49.34166" lon="1.05308">
        <ele>90.26</ele>
        <time>2014-06-29T11:53:33Z</time>
      </trkpt>
      <trkpt lat="49.34167" lon="1.05277">
        <ele>92.52</ele>
        <time>2014-06-29T11:53:42Z</time>
      </trkpt>
      <trkpt lat="49.34156" lon="1.05269">
        <ele>92.04</ele>
        <time>2014-06-29T11:53:47Z</time>
      </trkpt>
      <trkpt lat="49.34137" lon="1.05265">
        <ele>91.86</ele>
        <time>2014-06-29T11:53:53Z</time>
      </trkpt>
      <trkpt lat="49.3413" lon="1.05277">
        <ele>91.02</ele>
        <time>2014-06-29T11:53:58Z</time>
      </trkpt>
      <trkpt lat="49.34119" lon="1.05305">
        <ele>87.91</ele>
        <time>2014-06-29T11:54:04Z</time>
      </trkpt>
      <trkpt lat="49.34113" lon="1.05305">
        <ele>86.92</ele>
        <time>2014-06-29T11:54:07Z</time>
      </trkpt>
      <trkpt lat="49.3409" lon="1.05297">
        <ele>86.8</ele>
        <time>2014-06-29T11:54:14Z</time>
      </trkpt>
      <trkpt lat="49.3408" lon="1.05295">
        <ele>87.87</ele>
        <time>2014-06-29T11:54:18Z</time>
      </trkpt>
      <trkpt lat="49.34058" lon="1.05279">
        <ele>88.34</ele>
        <time>2014-06-29T11:54:27Z</time>
      </trkpt>
      <trkpt lat="49.34043" lon="1.05254">
        <ele>87.92</ele>
        <time>2014-06-29T11:54:34Z</time>
      </trkpt>
      <trkpt lat="49.34037" lon="1.05222">
        <ele>88.42</ele>
        <time>2014-06-29T11:54:42Z</time>
      </trkpt>
      <trkpt lat="49.34032" lon="1.052">
        <ele>90.27</ele>
        <time>2014-06-29T11:54:50Z</time>
      </trkpt>
      <trkpt lat="49.34034" lon="1.05175">
        <ele>91.52</ele>
        <time>2014-06-29T11:54:58Z</time>
      </trkpt>
      <trkpt lat="49.34036" lon="1.05148">
        <ele>93.44</ele>
        <time>2014-06-29T11:55:05Z</time>
      </trkpt>
      <trkpt lat="49.34031" lon="1.05123">
        <ele>93.07</ele>
        <time>2014-06-29T11:55:10Z</time>
      </trkpt>
      <trkpt lat="49.34019" lon="1.05105">
        <ele>93.58</ele>
        <time>2014-06-29T11:55:15Z</time>
      </trkpt>
      <trkpt lat="49.33997" lon="1.05094">
        <ele>93.74</ele>
        <time>2014-06-29T11:55:22Z</time>
      </trkpt>
      <trkpt lat="49.33973" lon="1.05077">
        <ele>92.38</ele>
        <time>2014-06-29T11:55:29Z</time>
      </trkpt>
      <trkpt lat="49.33964" lon="1.05051">
        <ele>93.1</ele>
        <time>2014-06-29T11:55:35Z</time>
      </trkpt>
      <trkpt lat="49.33963" lon="1.05027">
        <ele>94.31</ele>
        <time>2014-06-29T11:55:42Z</time>
      </trkpt>
      <trkpt lat="49.33958" lon="1.04999">
        <ele>95.33</ele>
        <time>2014-06-29T11:55:48Z</time>
      </trkpt>
      <trkpt lat="49.33953" lon="1.04965">
        <ele>96.57</ele>
        <time>2014-06-29T11:55:55Z</time>
      </trkpt>
      <trkpt lat="49.33952" lon="1.04929">
        <ele>97.26</ele>
        <time>2014-06-29T11:56:03Z</time>
      </trkpt>
      <trkpt lat="49.33943" lon="1.04891">
        <ele>96.77</ele>
        <time>2014-06-29T11:56:11Z</time>
      </trkpt>
      <trkpt lat="49.33929" lon="1.04859">
        <ele>96.68</ele>
        <time>2014-06-29T11:56:17Z</time>
      </trkpt>
      <trkpt lat="49.33915" lon="1.04827">
        <ele>97.09</ele>
        <time>2014-06-29T11:56:23Z</time>
      </trkpt>
      <trkpt lat="49.33907" lon="1.04804">
        <ele>97.91</ele>
        <time>2014-06-29T11:56:29Z</time>
      </trkpt>
      <trkpt lat="49.33899" lon="1.04782">
        <ele>98.48</ele>
        <time>2014-06-29T11:56:35Z</time>
      </trkpt>
      <trkpt lat="49.33887" lon="1.04745">
        <ele>98.75</ele>
        <time>2014-06-29T11:56:43Z</time>
      </trkpt>
      <trkpt lat="49.33874" lon="1.0471">
        <ele>99.09</ele>
        <time>2014-06-29T11:56:51Z</time>
      </trkpt>
      <trkpt lat="49.33853" lon="1.04675">
        <ele>97.85</ele>
        <time>2014-06-29T11:56:58Z</time>
      </trkpt>
      <trkpt lat="49.33838" lon="1.04649">
        <ele>97.57</ele>
        <time>2014-06-29T11:57:04Z</time>
      </trkpt>
      <trkpt lat="49.3382" lon="1.04621">
        <ele>97.99</ele>
        <time>2014-06-29T11:57:11Z</time>
      </trkpt>
      <trkpt lat="49.33801" lon="1.04601">
        <ele>97.62</ele>
        <time>2014-06-29T11:57:17Z</time>
      </trkpt>
      <trkpt lat="49.33776" lon="1.04584">
        <ele>97.73</ele>
        <time>2014-06-29T11:57:24Z</time>
      </trkpt>
      <trkpt lat="49.33746" lon="1.04573">
        <ele>97.12</ele>
        <time>2014-06-29T11:57:29Z</time>
      </trkpt>
      <trkpt lat="49.3374" lon="1.04571">
        <ele>97.36</ele>
        <time>2014-06-29T11:57:30Z</time>
      </trkpt>
      <trkpt lat="49.33719" lon="1.0456">
        <ele>96.31</ele>
        <time>2014-06-29T11:57:34Z</time>
      </trkpt>
      <trkpt lat="49.33699" lon="1.04549">
        <ele>95.16</ele>
        <time>2014-06-29T11:57:38Z</time>
      </trkpt>
      <trkpt lat="49.33682" lon="1.04532">
        <ele>93.58</ele>
        <time>2014-06-29T11:57:42Z</time>
      </trkpt>
      <trkpt lat="49.33661" lon="1.04483">
        <ele>92.84</ele>
        <time>2014-06-29T11:57:49Z</time>
      </trkpt>
      <trkpt lat="49.33658" lon="1.04456">
        <ele>92.6</ele>
        <time>2014-06-29T11:57:54Z</time>
      </trkpt>
      <trkpt lat="49.33656" lon="1.04442">
        <ele>92.39</ele>
        <time>2014-06-29T11:57:56Z</time>
      </trkpt>
      <trkpt lat="49.33651" lon="1.04396">
        <ele>92.66</ele>
        <time>2014-06-29T11:58:03Z</time>
      </trkpt>
      <trkpt lat="49.33649" lon="1.04369">
        <ele>93.71</ele>
        <time>2014-06-29T11:58:09Z</time>
      </trkpt>
      <trkpt lat="49.33647" lon="1.04339">
        <ele>94.6</ele>
        <time>2014-06-29T11:58:16Z</time>
      </trkpt>
      <trkpt lat="49.33649" lon="1.043">
        <ele>96.12</ele>
        <time>2014-06-29T11:58:24Z</time>
      </trkpt>
      <trkpt lat="49.33651" lon="1.0427">
        <ele>96.85</ele>
        <time>2014-06-29T11:58:31Z</time>
      </trkpt>
      <trkpt lat="49.33648" lon="1.04228">
        <ele>96.75</ele>
        <time>2014-06-29T11:58:39Z</time>
      </trkpt>
      <trkpt lat="49.33649" lon="1.04191">
        <ele>98.2</ele>
        <time>2014-06-29T11:58:47Z</time>
      </trkpt>
      <trkpt lat="49.33651" lon="1.04146">
        <ele>98.21</ele>
        <time>2014-06-29T11:58:54Z</time>
      </trkpt>
      <trkpt lat="49.33648" lon="1.0412">
        <ele>98.74</ele>
        <time>2014-06-29T11:59:00Z</time>
      </trkpt>
      <trkpt lat="49.33643" lon="1.0409">
        <ele>100.86</ele>
        <time>2014-06-29T11:59:08Z</time>
      </trkpt>
      <trkpt lat="49.33634" lon="1.04052">
        <ele>100.53</ele>
        <time>2014-06-29T11:59:15Z</time>
      </trkpt>
      <trkpt lat="49.33622" lon="1.04019">
        <ele>100.27</ele>
        <time>2014-06-29T11:59:22Z</time>
      </trkpt>
      <trkpt lat="49.33609" lon="1.03986">
        <ele>99.86</ele>
        <time>2014-06-29T11:59:28Z</time>
      </trkpt>
      <trkpt lat="49.33597" lon="1.03951">
        <ele>99.77</ele>
        <time>2014-06-29T11:59:35Z</time>
      </trkpt>
      <trkpt lat="49.33585" lon="1.03921">
        <ele>99.48</ele>
        <time>2014-06-29T11:59:41Z</time>
      </trkpt>
      <trkpt lat="49.33575" lon="1.03895">
        <ele>100.76</ele>
        <time>2014-06-29T11:59:47Z</time>
      </trkpt>
      <trkpt lat="49.33565" lon="1.03864">
        <ele>101.1</ele>
        <time>2014-06-29T11:59:54Z</time>
      </trkpt>
      <trkpt lat="49.33553" lon="1.03833">
        <ele>101.9</ele>
        <time>2014-06-29T12:00:01Z</time>
      </trkpt>
      <trkpt lat="49.33538" lon="1.0381">
        <ele>101.98</ele>
        <time>2014-06-29T12:00:08Z</time>
      </trkpt>
      <trkpt lat="49.33521" lon="1.03783">
        <ele>102.12</ele>
        <time>2014-06-29T12:00:15Z</time>
      </trkpt>
      <trkpt lat="49.335" lon="1.03754">
        <ele>102</ele>
        <time>2014-06-29T12:00:21Z</time>
      </trkpt>
      <trkpt lat="49.33478" lon="1.03722">
        <ele>101.16</ele>
        <time>2014-06-29T12:00:28Z</time>
      </trkpt>
      <trkpt lat="49.33473" lon="1.03718">
        <ele>100.91</ele>
        <time>2014-06-29T12:00:29Z</time>
      </trkpt>
      <trkpt lat="49.33455" lon="1.03706">
        <ele>99.9</ele>
        <time>2014-06-29T12:00:32Z</time>
      </trkpt>
      <trkpt lat="49.33436" lon="1.03694">
        <ele>97.24</ele>
        <time>2014-06-29T12:00:36Z</time>
      </trkpt>
      <trkpt lat="49.3342" lon="1.03669">
        <ele>94.84</ele>
        <time>2014-06-29T12:00:43Z</time>
      </trkpt>
      <trkpt lat="49.3342" lon="1.03646">
        <ele>94.82</ele>
        <time>2014-06-29T12:00:50Z</time>
      </trkpt>
      <trkpt lat="49.33427" lon="1.03626">
        <ele>96.31</ele>
        <time>2014-06-29T12:00:56Z</time>
      </trkpt>
      <trkpt lat="49.33434" lon="1.03611">
        <ele>98.23</ele>
        <time>2014-06-29T12:01:00Z</time>
      </trkpt>
      <trkpt lat="49.33448" lon="1.03588">
        <ele>98.27</ele>
        <time>2014-06-29T12:01:07Z</time>
      </trkpt>
      <trkpt lat="49.33466" lon="1.03561">
        <ele>98.49</ele>
        <time>2014-06-29T12:01:14Z</time>
      </trkpt>
      <trkpt lat="49.33485" lon="1.03541">
        <ele>98.99</ele>
        <time>2014-06-29T12:01:21Z</time>
      </trkpt>
      <trkpt lat="49.335" lon="1.03532">
        <ele>100.03</ele>
        <time>2014-06-29T12:01:28Z</time>
      </trkpt>
      <trkpt lat="49.33523" lon="1.03522">
        <ele>101.88</ele>
        <time>2014-06-29T12:01:36Z</time>
      </trkpt>
      <trkpt lat="49.33539" lon="1.03508">
        <ele>103.38</ele>
        <time>2014-06-29T12:01:44Z</time>
      </trkpt>
      <trkpt lat="49.33554" lon="1.03506">
        <ele>104.28</ele>
        <time>2014-06-29T12:01:51Z</time>
      </trkpt>
      <trkpt lat="49.33571" lon="1.03513">
        <ele>105.57</ele>
        <time>2014-06-29T12:01:58Z</time>
      </trkpt>
      <trkpt lat="49.33588" lon="1.03526">
        <ele>106.25</ele>
        <time>2014-06-29T12:02:05Z</time>
      </trkpt>
      <trkpt lat="49.3361" lon="1.03543">
        <ele>106.47</ele>
        <time>2014-06-29T12:02:14Z</time>
      </trkpt>
      <trkpt lat="49.33632" lon="1.03557">
        <ele>106.75</ele>
        <time>2014-06-29T12:02:21Z</time>
      </trkpt>
      <trkpt lat="49.33651" lon="1.03574">
        <ele>106.86</ele>
        <time>2014-06-29T12:02:27Z</time>
      </trkpt>
      <trkpt lat="49.33668" lon="1.0359">
        <ele>107.06</ele>
        <time>2014-06-29T12:02:33Z</time>
      </trkpt>
      <trkpt lat="49.33689" lon="1.03606">
        <ele>108.19</ele>
        <time>2014-06-29T12:02:40Z</time>
      </trkpt>
      <trkpt lat="49.3371" lon="1.03622">
        <ele>108.41</ele>
        <time>2014-06-29T12:02:47Z</time>
      </trkpt>
      <trkpt lat="49.33734" lon="1.03639">
        <ele>109.26</ele>
        <time>2014-06-29T12:02:54Z</time>
      </trkpt>
      <trkpt lat="49.33754" lon="1.03655">
        <ele>109.61</ele>
        <time>2014-06-29T12:03:01Z</time>
      </trkpt>
      <trkpt lat="49.33774" lon="1.03668">
        <ele>109.97</ele>
        <time>2014-06-29T12:03:08Z</time>
      </trkpt>
      <trkpt lat="49.33783" lon="1.03666">
        <ele>109.92</ele>
        <time>2014-06-29T12:03:11Z</time>
      </trkpt>
      <trkpt lat="49.33791" lon="1.03639">
        <ele>109.78</ele>
        <time>2014-06-29T12:03:17Z</time>
      </trkpt>
      <trkpt lat="49.33793" lon="1.03633">
        <ele>109.73</ele>
        <time>2014-06-29T12:03:18Z</time>
      </trkpt>
      <trkpt lat="49.33794" lon="1.03614">
        <ele>109.71</ele>
        <time>2014-06-29T12:03:21Z</time>
      </trkpt>
      <trkpt lat="49.33794" lon="1.03563">
        <ele>109.37</ele>
        <time>2014-06-29T12:03:29Z</time>
      </trkpt>
      <trkpt lat="49.33788" lon="1.03507">
        <ele>108.72</ele>
        <time>2014-06-29T12:03:37Z</time>
      </trkpt>
      <trkpt lat="49.33784" lon="1.03485">
        <ele>108.21</ele>
        <time>2014-06-29T12:03:40Z</time>
      </trkpt>
      <trkpt lat="49.33782" lon="1.03453">
        <ele>107.73</ele>
        <time>2014-06-29T12:03:44Z</time>
      </trkpt>
      <trkpt lat="49.33787" lon="1.03407">
        <ele>107.52</ele>
        <time>2014-06-29T12:03:50Z</time>
      </trkpt>
      <trkpt lat="49.33795" lon="1.03378">
        <ele>107.89</ele>
        <time>2014-06-29T12:03:54Z</time>
      </trkpt>
      <trkpt lat="49.338" lon="1.03366">
        <ele>108.3</ele>
        <time>2014-06-29T12:03:56Z</time>
      </trkpt>
      <trkpt lat="49.33814" lon="1.03333">
        <ele>107.93</ele>
        <time>2014-06-29T12:04:02Z</time>
      </trkpt>
      <trkpt lat="49.33824" lon="1.03334">
        <ele>108.82</ele>
        <time>2014-06-29T12:04:07Z</time>
      </trkpt>
      <trkpt lat="49.33827" lon="1.03336">
        <ele>108.84</ele>
        <time>2014-06-29T12:04:08Z</time>
      </trkpt>
      <trkpt lat="49.33854" lon="1.03349">
        <ele>110.07</ele>
        <time>2014-06-29T12:04:16Z</time>
      </trkpt>
      <trkpt lat="49.33879" lon="1.03364">
        <ele>111.11</ele>
        <time>2014-06-29T12:04:23Z</time>
      </trkpt>
      <trkpt lat="49.33908" lon="1.03377">
        <ele>112.61</ele>
        <time>2014-06-29T12:04:31Z</time>
      </trkpt>
      <trkpt lat="49.33938" lon="1.03388">
        <ele>113.27</ele>
        <time>2014-06-29T12:04:39Z</time>
      </trkpt>
      <trkpt lat="49.33955" lon="1.03395">
        <ele>113.71</ele>
        <time>2014-06-29T12:04:44Z</time>
      </trkpt>
      <trkpt lat="49.33989" lon="1.03407">
        <ele>114.33</ele>
        <time>2014-06-29T12:04:53Z</time>
      </trkpt>
      <trkpt lat="49.34002" lon="1.03414">
        <ele>114.5</ele>
        <time>2014-06-29T12:04:56Z</time>
      </trkpt>
      <trkpt lat="49.34038" lon="1.03433">
        <ele>115.13</ele>
        <time>2014-06-29T12:05:06Z</time>
      </trkpt>
      <trkpt lat="49.3406" lon="1.03442">
        <ele>115.34</ele>
        <time>2014-06-29T12:05:12Z</time>
      </trkpt>
      <trkpt lat="49.34087" lon="1.03453">
        <ele>115.46</ele>
        <time>2014-06-29T12:05:19Z</time>
      </trkpt>
      <trkpt lat="49.34118" lon="1.03468">
        <ele>115.74</ele>
        <time>2014-06-29T12:05:27Z</time>
      </trkpt>
      <trkpt lat="49.34143" lon="1.03482">
        <ele>115.8</ele>
        <time>2014-06-29T12:05:34Z</time>
      </trkpt>
      <trkpt lat="49.34175" lon="1.03495">
        <ele>115.81</ele>
        <time>2014-06-29T12:05:42Z</time>
      </trkpt>
      <trkpt lat="49.34206" lon="1.03507">
        <ele>116.59</ele>
        <time>2014-06-29T12:05:51Z</time>
      </trkpt>
      <trkpt lat="49.34229" lon="1.0352">
        <ele>118.01</ele>
        <time>2014-06-29T12:05:58Z</time>
      </trkpt>
      <trkpt lat="49.34245" lon="1.03524">
        <ele>118.58</ele>
        <time>2014-06-29T12:06:04Z</time>
      </trkpt>
      <trkpt lat="49.34247" lon="1.03524">
        <ele>118.68</ele>
        <time>2014-06-29T12:06:10Z</time>
      </trkpt>
      <trkpt lat="49.34261" lon="1.0353">
        <ele>118.98</ele>
        <time>2014-06-29T12:06:15Z</time>
      </trkpt>
      <trkpt lat="49.34297" lon="1.03546">
        <ele>119.13</ele>
        <time>2014-06-29T12:06:23Z</time>
      </trkpt>
      <trkpt lat="49.34336" lon="1.0356">
        <ele>117.3</ele>
        <time>2014-06-29T12:06:30Z</time>
      </trkpt>
      <trkpt lat="49.34377" lon="1.03579">
        <ele>116.45</ele>
        <time>2014-06-29T12:06:37Z</time>
      </trkpt>
      <trkpt lat="49.34424" lon="1.03601">
        <ele>114.96</ele>
        <time>2014-06-29T12:06:45Z</time>
      </trkpt>
      <trkpt lat="49.34454" lon="1.03615">
        <ele>114.14</ele>
        <time>2014-06-29T12:06:50Z</time>
      </trkpt>
      <trkpt lat="49.34509" lon="1.03642">
        <ele>113.43</ele>
        <time>2014-06-29T12:06:59Z</time>
      </trkpt>
      <trkpt lat="49.34558" lon="1.03663">
        <ele>113.2</ele>
        <time>2014-06-29T12:07:07Z</time>
      </trkpt>
      <trkpt lat="49.34616" lon="1.03691">
        <ele>111.12</ele>
        <time>2014-06-29T12:07:16Z</time>
      </trkpt>
      <trkpt lat="49.34629" lon="1.03697">
        <ele>110.57</ele>
        <time>2014-06-29T12:07:18Z</time>
      </trkpt>
      <trkpt lat="49.34677" lon="1.03713">
        <ele>110.76</ele>
        <time>2014-06-29T12:07:26Z</time>
      </trkpt>
      <trkpt lat="49.34688" lon="1.03716">
        <ele>110.71</ele>
        <time>2014-06-29T12:07:28Z</time>
      </trkpt>
      <trkpt lat="49.34714" lon="1.03704">
        <ele>110.72</ele>
        <time>2014-06-29T12:07:33Z</time>
      </trkpt>
      <trkpt lat="49.34718" lon="1.03699">
        <ele>110.57</ele>
        <time>2014-06-29T12:07:34Z</time>
      </trkpt>
      <trkpt lat="49.34748" lon="1.03654">
        <ele>111.07</ele>
        <time>2014-06-29T12:07:42Z</time>
      </trkpt>
      <trkpt lat="49.34769" lon="1.03626">
        <ele>110.97</ele>
        <time>2014-06-29T12:07:47Z</time>
      </trkpt>
      <trkpt lat="49.34802" lon="1.03575">
        <ele>111.46</ele>
        <time>2014-06-29T12:07:56Z</time>
      </trkpt>
      <trkpt lat="49.34815" lon="1.0355">
        <ele>111.73</ele>
        <time>2014-06-29T12:08:00Z</time>
      </trkpt>
      <trkpt lat="49.3484" lon="1.03504">
        <ele>112.17</ele>
        <time>2014-06-29T12:08:07Z</time>
      </trkpt>
      <trkpt lat="49.34865" lon="1.0345">
        <ele>111.88</ele>
        <time>2014-06-29T12:08:15Z</time>
      </trkpt>
      <trkpt lat="49.34883" lon="1.03393">
        <ele>111.9</ele>
        <time>2014-06-29T12:08:23Z</time>
      </trkpt>
      <trkpt lat="49.34899" lon="1.03341">
        <ele>112.1</ele>
        <time>2014-06-29T12:08:30Z</time>
      </trkpt>
      <trkpt lat="49.34925" lon="1.03265">
        <ele>112.15</ele>
        <time>2014-06-29T12:08:40Z</time>
      </trkpt>
      <trkpt lat="49.34946" lon="1.03204">
        <ele>112.33</ele>
        <time>2014-06-29T12:08:48Z</time>
      </trkpt>
      <trkpt lat="49.3497" lon="1.03133">
        <ele>111.96</ele>
        <time>2014-06-29T12:08:57Z</time>
      </trkpt>
      <trkpt lat="49.34991" lon="1.03094">
        <ele>112.22</ele>
        <time>2014-06-29T12:09:03Z</time>
      </trkpt>
      <trkpt lat="49.3502" lon="1.03033">
        <ele>111.3</ele>
        <time>2014-06-29T12:09:12Z</time>
      </trkpt>
      <trkpt lat="49.35027" lon="1.03019">
        <ele>111.16</ele>
        <time>2014-06-29T12:09:14Z</time>
      </trkpt>
      <trkpt lat="49.35059" lon="1.02961">
        <ele>110.42</ele>
        <time>2014-06-29T12:09:22Z</time>
      </trkpt>
      <trkpt lat="49.3508" lon="1.02926">
        <ele>109.53</ele>
        <time>2014-06-29T12:09:27Z</time>
      </trkpt>
      <trkpt lat="49.35102" lon="1.02864">
        <ele>109.43</ele>
        <time>2014-06-29T12:09:35Z</time>
      </trkpt>
      <trkpt lat="49.3511" lon="1.0281">
        <ele>109.56</ele>
        <time>2014-06-29T12:09:42Z</time>
      </trkpt>
      <trkpt lat="49.35119" lon="1.02741">
        <ele>109.82</ele>
        <time>2014-06-29T12:09:51Z</time>
      </trkpt>
      <trkpt lat="49.35129" lon="1.02681">
        <ele>109.44</ele>
        <time>2014-06-29T12:09:59Z</time>
      </trkpt>
      <trkpt lat="49.35132" lon="1.02631">
        <ele>110.19</ele>
        <time>2014-06-29T12:10:07Z</time>
      </trkpt>
      <trkpt lat="49.35124" lon="1.026">
        <ele>110.77</ele>
        <time>2014-06-29T12:10:13Z</time>
      </trkpt>
      <trkpt lat="49.35122" lon="1.02589">
        <ele>110.86</ele>
        <time>2014-06-29T12:10:15Z</time>
      </trkpt>
      <trkpt lat="49.3509" lon="1.02535">
        <ele>110.05</ele>
        <time>2014-06-29T12:10:25Z</time>
      </trkpt>
      <trkpt lat="49.35076" lon="1.02514">
        <ele>110.57</ele>
        <time>2014-06-29T12:10:29Z</time>
      </trkpt>
      <trkpt lat="49.35062" lon="1.02491">
        <ele>110.9</ele>
        <time>2014-06-29T12:10:33Z</time>
      </trkpt>
      <trkpt lat="49.35047" lon="1.02471">
        <ele>111.19</ele>
        <time>2014-06-29T12:10:37Z</time>
      </trkpt>
      <trkpt lat="49.35035" lon="1.02462">
        <ele>110.92</ele>
        <time>2014-06-29T12:10:40Z</time>
      </trkpt>
      <trkpt lat="49.35019" lon="1.02444">
        <ele>110.87</ele>
        <time>2014-06-29T12:10:44Z</time>
      </trkpt>
      <trkpt lat="49.34999" lon="1.02409">
        <ele>111.32</ele>
        <time>2014-06-29T12:10:50Z</time>
      </trkpt>
      <trkpt lat="49.34959" lon="1.02365">
        <ele>112.15</ele>
        <time>2014-06-29T12:11:00Z</time>
      </trkpt>
      <trkpt lat="49.34921" lon="1.02336">
        <ele>112.92</ele>
        <time>2014-06-29T12:11:09Z</time>
      </trkpt>
      <trkpt lat="49.34884" lon="1.02312">
        <ele>112.69</ele>
        <time>2014-06-29T12:11:17Z</time>
      </trkpt>
      <trkpt lat="49.3488" lon="1.02308">
        <ele>112.84</ele>
        <time>2014-06-29T12:11:18Z</time>
      </trkpt>
      <trkpt lat="49.34834" lon="1.02277">
        <ele>112.87</ele>
        <time>2014-06-29T12:11:28Z</time>
      </trkpt>
      <trkpt lat="49.3479" lon="1.02253">
        <ele>112.43</ele>
        <time>2014-06-29T12:11:37Z</time>
      </trkpt>
      <trkpt lat="49.3478" lon="1.02247">
        <ele>112.57</ele>
        <time>2014-06-29T12:11:39Z</time>
      </trkpt>
      <trkpt lat="49.34758" lon="1.02252">
        <ele>112.79</ele>
        <time>2014-06-29T12:11:44Z</time>
      </trkpt>
      <trkpt lat="49.34752" lon="1.02265">
        <ele>112.59</ele>
        <time>2014-06-29T12:11:46Z</time>
      </trkpt>
      <trkpt lat="49.34719" lon="1.02344">
        <ele>113.07</ele>
        <time>2014-06-29T12:11:57Z</time>
      </trkpt>
      <trkpt lat="49.34713" lon="1.02358">
        <ele>112.98</ele>
        <time>2014-06-29T12:11:59Z</time>
      </trkpt>
      <trkpt lat="49.34679" lon="1.02423">
        <ele>113.63</ele>
        <time>2014-06-29T12:12:09Z</time>
      </trkpt>
      <trkpt lat="49.34652" lon="1.02504">
        <ele>114.44</ele>
        <time>2014-06-29T12:12:20Z</time>
      </trkpt>
      <trkpt lat="49.34631" lon="1.02558">
        <ele>113.39</ele>
        <time>2014-06-29T12:12:27Z</time>
      </trkpt>
      <trkpt lat="49.34613" lon="1.02579">
        <ele>113.99</ele>
        <time>2014-06-29T12:12:31Z</time>
      </trkpt>
      <trkpt lat="49.34596" lon="1.02587">
        <ele>113.98</ele>
        <time>2014-06-29T12:12:34Z</time>
      </trkpt>
      <trkpt lat="49.34556" lon="1.02586">
        <ele>114.07</ele>
        <time>2014-06-29T12:12:41Z</time>
      </trkpt>
      <trkpt lat="49.34538" lon="1.02586">
        <ele>114.09</ele>
        <time>2014-06-29T12:12:44Z</time>
      </trkpt>
      <trkpt lat="49.34527" lon="1.02587">
        <ele>114.35</ele>
        <time>2014-06-29T12:12:46Z</time>
      </trkpt>
      <trkpt lat="49.34505" lon="1.02579">
        <ele>114.38</ele>
        <time>2014-06-29T12:12:50Z</time>
      </trkpt>
      <trkpt lat="49.34487" lon="1.02562">
        <ele>114.66</ele>
        <time>2014-06-29T12:12:54Z</time>
      </trkpt>
      <trkpt lat="49.34442" lon="1.02532">
        <ele>114.75</ele>
        <time>2014-06-29T12:13:03Z</time>
      </trkpt>
      <trkpt lat="49.34395" lon="1.02503">
        <ele>114.77</ele>
        <time>2014-06-29T12:13:12Z</time>
      </trkpt>
      <trkpt lat="49.34354" lon="1.02473">
        <ele>113.74</ele>
        <time>2014-06-29T12:13:20Z</time>
      </trkpt>
      <trkpt lat="49.34301" lon="1.02428">
        <ele>112.75</ele>
        <time>2014-06-29T12:13:30Z</time>
      </trkpt>
      <trkpt lat="49.34245" lon="1.02377">
        <ele>112.37</ele>
        <time>2014-06-29T12:13:40Z</time>
      </trkpt>
      <trkpt lat="49.34184" lon="1.02332">
        <ele>112.62</ele>
        <time>2014-06-29T12:13:50Z</time>
      </trkpt>
      <trkpt lat="49.34143" lon="1.02321">
        <ele>112.31</ele>
        <time>2014-06-29T12:13:57Z</time>
      </trkpt>
      <trkpt lat="49.34098" lon="1.0232">
        <ele>113.04</ele>
        <time>2014-06-29T12:14:05Z</time>
      </trkpt>
      <trkpt lat="49.34053" lon="1.0232">
        <ele>113.24</ele>
        <time>2014-06-29T12:14:13Z</time>
      </trkpt>
      <trkpt lat="49.34002" lon="1.02313">
        <ele>111.18</ele>
        <time>2014-06-29T12:14:21Z</time>
      </trkpt>
      <trkpt lat="49.33995" lon="1.02309">
        <ele>110.59</ele>
        <time>2014-06-29T12:14:22Z</time>
      </trkpt>
      <trkpt lat="49.33972" lon="1.02288">
        <ele>108.47</ele>
        <time>2014-06-29T12:14:26Z</time>
      </trkpt>
      <trkpt lat="49.33948" lon="1.02285">
        <ele>108.73</ele>
        <time>2014-06-29T12:14:30Z</time>
      </trkpt>
      <trkpt lat="49.33943" lon="1.02291">
        <ele>108.94</ele>
        <time>2014-06-29T12:14:31Z</time>
      </trkpt>
      <trkpt lat="49.33879" lon="1.02357">
        <ele>108.92</ele>
        <time>2014-06-29T12:14:43Z</time>
      </trkpt>
      <trkpt lat="49.3383" lon="1.02405">
        <ele>109.33</ele>
        <time>2014-06-29T12:14:53Z</time>
      </trkpt>
      <trkpt lat="49.33799" lon="1.02439">
        <ele>109.99</ele>
        <time>2014-06-29T12:15:00Z</time>
      </trkpt>
      <trkpt lat="49.33771" lon="1.02463">
        <ele>110.26</ele>
        <time>2014-06-29T12:15:06Z</time>
      </trkpt>
      <trkpt lat="49.33729" lon="1.02504">
        <ele>111.46</ele>
        <time>2014-06-29T12:15:15Z</time>
      </trkpt>
      <trkpt lat="49.33715" lon="1.02518">
        <ele>112.01</ele>
        <time>2014-06-29T12:15:18Z</time>
      </trkpt>
      <trkpt lat="49.33666" lon="1.02562">
        <ele>111.71</ele>
        <time>2014-06-29T12:15:28Z</time>
      </trkpt>
      <trkpt lat="49.33647" lon="1.0258">
        <ele>111.71</ele>
        <time>2014-06-29T12:15:32Z</time>
      </trkpt>
      <trkpt lat="49.33629" lon="1.02581">
        <ele>111.7</ele>
        <time>2014-06-29T12:15:36Z</time>
      </trkpt>
      <trkpt lat="49.33623" lon="1.0257">
        <ele>112.05</ele>
        <time>2014-06-29T12:15:38Z</time>
      </trkpt>
      <trkpt lat="49.33592" lon="1.02507">
        <ele>111.96</ele>
        <time>2014-06-29T12:15:48Z</time>
      </trkpt>
      <trkpt lat="49.33562" lon="1.0245">
        <ele>112.67</ele>
        <time>2014-06-29T12:15:58Z</time>
      </trkpt>
      <trkpt lat="49.33555" lon="1.0244">
        <ele>112.57</ele>
        <time>2014-06-29T12:16:00Z</time>
      </trkpt>
      <trkpt lat="49.33524" lon="1.02381">
        <ele>112.84</ele>
        <time>2014-06-29T12:16:10Z</time>
      </trkpt>
      <trkpt lat="49.33502" lon="1.02332">
        <ele>113.02</ele>
        <time>2014-06-29T12:16:18Z</time>
      </trkpt>
      <trkpt lat="49.3347" lon="1.0227">
        <ele>113.8</ele>
        <time>2014-06-29T12:16:29Z</time>
      </trkpt>
      <trkpt lat="49.33435" lon="1.02206">
        <ele>114.09</ele>
        <time>2014-06-29T12:16:40Z</time>
      </trkpt>
      <trkpt lat="49.33421" lon="1.02176">
        <ele>114.01</ele>
        <time>2014-06-29T12:16:45Z</time>
      </trkpt>
      <trkpt lat="49.33386" lon="1.02114">
        <ele>114.26</ele>
        <time>2014-06-29T12:16:56Z</time>
      </trkpt>
      <trkpt lat="49.33381" lon="1.02103">
        <ele>114.54</ele>
        <time>2014-06-29T12:16:58Z</time>
      </trkpt>
      <trkpt lat="49.33365" lon="1.0207">
        <ele>114.54</ele>
        <time>2014-06-29T12:17:04Z</time>
      </trkpt>
      <trkpt lat="49.33351" lon="1.02043">
        <ele>114.11</ele>
        <time>2014-06-29T12:17:09Z</time>
      </trkpt>
      <trkpt lat="49.33324" lon="1.01991">
        <ele>113.86</ele>
        <time>2014-06-29T12:17:19Z</time>
      </trkpt>
      <trkpt lat="49.33312" lon="1.01958">
        <ele>114.14</ele>
        <time>2014-06-29T12:17:25Z</time>
      </trkpt>
      <trkpt lat="49.33309" lon="1.01947">
        <ele>114.42</ele>
        <time>2014-06-29T12:17:27Z</time>
      </trkpt>
      <trkpt lat="49.33285" lon="1.01906">
        <ele>114.95</ele>
        <time>2014-06-29T12:17:36Z</time>
      </trkpt>
      <trkpt lat="49.33262" lon="1.01879">
        <ele>115.02</ele>
        <time>2014-06-29T12:17:44Z</time>
      </trkpt>
      <trkpt lat="49.33255" lon="1.01875">
        <ele>115.24</ele>
        <time>2014-06-29T12:17:49Z</time>
      </trkpt>
      <trkpt lat="49.33254" lon="1.01873">
        <ele>115.99</ele>
        <time>2014-06-29T12:18:01Z</time>
      </trkpt>
      <trkpt lat="49.33253" lon="1.01874">
        <ele>116.16</ele>
        <time>2014-06-29T12:18:08Z</time>
      </trkpt>
    </trkseg>
  </trk>
</gpx>